# Wetter Temperatur Luftdruck Luftfeuchtigkeit Sichtweite Windgeschwindigkeit Windrichtung Zeit
1 Clear 19 1013 21 10000 1.01 44 07:30 02.10.2022
2 Clear 12 1014 37 10000 0.97 353 02:55 02.10.2022
3 Clear 13 1012 35 10000 1.18 352 00:46 02.10.2022
4 Clear 14 1012 34 10000 1.13 0 00:20 02.10.2022
5 Clear 14 1012 34 10000 0.84 10 22:37 01.10.2022
6 Clear 16 1011 31 10000 1.16 24 20:34 01.10.2022
7 Clear 17 1012 28 10000 1.39 29 18:30 01.10.2022
8 Clear 19 1011 25 10000 2.51 18 16:35 01.10.2022
9 Clear 23 1008 17 10000 8.48 25 14:26 01.10.2022
10 Clear 25 1007 14 10000 5.93 12 13:21 01.10.2022
11 Clear 25 1007 14 10000 5.93 12 12:30 01.10.2022
12 Clear 25 1008 12 10000 1.2 69 11:19 01.10.2022
13 Clear 25 1008 12 10000 1.2 69 10:31 01.10.2022
14 Clear 23 1010 13 10000 0.81 82 09:27 01.10.2022
15 Clear 23 1010 13 10000 0.81 82 08:57 01.10.2022
16 Clear 14 1013 28 10000 0.82 332 04:19 01.10.2022
17 Clear 14 1013 29 10000 1.03 335 03:29 01.10.2022
18 Clear 15 1011 24 10000 1.27 346 23:59 30.09.2022
19 Clear 16 1011 22 10000 1.24 348 22:36 30.09.2022
20 Clear 17 1011 20 10000 1.41 350 21:28 30.09.2022
21 Clear 17 1011 20 10000 1.41 350 21:28 30.09.2022
22 Clear 17 1011 20 10000 1.48 351 20:43 30.09.2022
23 Clear 18 1011 19 10000 1.76 355 19:43 30.09.2022
24 Clear 20 1010 19 10000 2.01 3 17:31 30.09.2022
25 Clear 23 1008 15 10000 3.43 8 15:56 30.09.2022
26 Clear 26 1006 13 10000 1.17 100 13:30 30.09.2022
27 Clear 26 1007 14 10000 1.37 119 11:57 30.09.2022
28 Clear 26 1008 15 10000 1.36 119 10:30 30.09.2022
29 Clear 23 1011 27 10000 0.78 91 08:24 30.09.2022
30 Clear 20 1012 41 10000 0.4 41 05:47 30.09.2022
31 Clear 15 1012 61 10000 0.62 251 02:36 30.09.2022
32 Clear 18 1010 51 10000 0.93 30 22:31 29.09.2022
33 Clear 18 1011 48 10000 1.06 35 21:27 29.09.2022
34 Clear 18 1011 48 10000 1.06 35 20:44 29.09.2022
35 Clear 19 1010 40 10000 1.18 38 18:34 29.09.2022
36 Clear 21 1010 27 10000 1.63 40 17:23 29.09.2022
37 Clear 22 1009 19 10000 2.06 50 16:28 29.09.2022
38 Clear 22 1009 19 10000 2.06 50 15:35 29.09.2022
39 Clear 26 1007 9 10000 1.52 84 14:25 29.09.2022
40 Clear 25 1009 11 10000 1.05 128 09:45 29.09.2022
41 Clear 21 1012 14 10000 0.53 76 06:46 29.09.2022
42 Clear 14 1012 25 10000 0.56 202 02:47 29.09.2022
43 Clear 15 1011 23 10000 0.99 327 23:54 28.09.2022
44 Clear 16 1011 22 10000 1.09 333 22:32 28.09.2022
45 Clear 17 1010 21 10000 1.39 352 21:29 28.09.2022
46 Clear 18 1010 19 10000 1.61 1 20:22 28.09.2022
47 Clear 19 1010 17 10000 1.92 3 18:20 28.09.2022
48 Clear 23 1007 12 10000 1.35 32 14:51 28.09.2022
49 Clear 25 1006 10 10000 1.19 104 12:49 28.09.2022
50 Clear 25 1008 11 10000 1.26 114 10:50 28.09.2022
51 Clear 21 1012 15 10000 0.77 52 08:26 28.09.2022
52 Clear 20 1013 17 10000 0.81 31 06:45 28.09.2022
53 Clear 14 1012 25 10000 0.8 333 01:56 28.09.2022
54 Clear 14 1012 25 10000 0.8 333 01:31 28.09.2022
55 Clear 14 1012 25 10000 0.8 333 01:31 28.09.2022
56 Clear 15 1011 24 10000 1.01 350 23:19 27.09.2022
57 Clear 16 1012 23 10000 0.98 347 21:40 27.09.2022
58 Clear 17 1012 22 10000 1.17 344 20:37 27.09.2022
59 Clear 18 1011 21 10000 1.32 349 19:47 27.09.2022
60 Clear 18 1011 21 10000 1.32 349 19:47 27.09.2022
61 Clear 18 1011 20 10000 1.33 352 18:37 27.09.2022
62 Clear 19 1011 18 10000 1.9 3 17:44 27.09.2022
63 Clear 24 1008 12 10000 1.31 45 15:29 27.09.2022
64 Clear 23 1008 12 10000 0.94 65 14:45 27.09.2022
65 Clear 26 1007 8 10000 1.26 126 12:40 27.09.2022
66 Clear 25 1009 9 10000 1.28 146 10:58 27.09.2022
67 Clear 23 1011 12 10000 0.79 149 08:46 27.09.2022
68 Clear 20 1014 15 10000 0.25 167 06:31 27.09.2022
69 Clear 13 1014 26 10000 0.83 314 01:57 27.09.2022
70 Clear 13 1014 25 10000 0.82 321 01:27 27.09.2022
71 Clear 14 1014 24 10000 0.93 332 23:25 26.09.2022
72 Clear 14 1014 24 10000 0.93 332 22:31 26.09.2022
73 Clear 16 1015 21 10000 1.23 355 20:40 26.09.2022
74 Clear 17 1014 20 10000 1.38 360 19:30 26.09.2022
75 Clear 18 1014 18 10000 1.78 3 18:31 26.09.2022
76 Clear 22 1012 10 10000 2.7 8 16:29 26.09.2022
77 Clear 25 1011 7 10000 0.97 84 14:24 26.09.2022
78 Clear 24 1012 7 10000 1.26 113 11:29 26.09.2022
79 Clear 24 1012 7 10000 1.26 113 10:38 26.09.2022
80 Clear 24 1013 8 10000 1.06 107 10:19 26.09.2022
81 Clear 24 1013 8 10000 1.06 107 09:53 26.09.2022
82 Clear 22 1014 9 10000 0.82 95 09:23 26.09.2022
83 Clear 21 1015 11 10000 0.62 85 07:30 26.09.2022
84 Clear 13 1015 24 10000 0.74 326 02:48 26.09.2022
85 Clear 15 1014 23 10000 1.13 335 23:29 25.09.2022
86 Clear 16 1014 21 10000 1.43 345 21:54 25.09.2022
87 Clear 16 1014 21 10000 1.43 345 21:34 25.09.2022
88 Clear 17 1014 20 10000 1.63 354 20:45 25.09.2022
89 Clear 17 1013 19 10000 1.77 3 19:32 25.09.2022
90 Clear 18 1012 18 10000 2.02 2 18:35 25.09.2022
91 Clear 19 1011 16 10000 1.83 353 17:52 25.09.2022
92 Clear 21 1009 14 10000 2.06 7 16:22 25.09.2022
93 Clear 21 1009 14 10000 2.06 7 15:43 25.09.2022
94 Clear 26 1005 9 10000 3.02 24 14:21 25.09.2022
95 Clear 26 1005 9 10000 1.5 61 12:49 25.09.2022
96 Clear 24 1006 12 10000 0.94 105 10:26 25.09.2022
97 Clear 21 1009 15 10000 0.71 53 08:23 25.09.2022
98 Clear 17 1010 21 10000 0.79 334 05:36 25.09.2022
99 Clear 15 1008 26 10000 0.99 339 00:39 25.09.2022
100 Clear 17 1008 24 10000 1.06 344 22:34 24.09.2022
101 Clear 18 1008 22 10000 1.94 354 20:45 24.09.2022
102 Clouds 20 1008 21 10000 1.97 16 19:21 24.09.2022
103 Clouds 22 1006 20 10000 2.38 13 17:19 24.09.2022
104 Clouds 23 1005 19 10000 3.16 18 16:23 24.09.2022
105 Clouds 23 1005 19 10000 3.16 18 16:23 24.09.2022
106 Clouds 25 1003 17 10000 4.89 17 15:19 24.09.2022
107 Clear 27 1003 17 10000 1.65 44 13:23 24.09.2022
108 Clear 27 1003 17 10000 1.65 44 12:41 24.09.2022
109 Clear 26 1006 21 10000 1.17 93 10:19 24.09.2022
110 Clear 25 1007 23 10000 0.77 89 09:23 24.09.2022
111 Clear 25 1007 23 10000 0.78 90 08:43 24.09.2022
112 Clear 21 1010 27 10000 0.54 332 06:26 24.09.2022
113 Clear 20 1010 30 10000 0.4 329 04:34 24.09.2022
114 Clear 18 1009 42 10000 0.85 348 01:45 24.09.2022
115 Clear 20 1009 36 10000 1.38 7 22:24 23.09.2022
116 Clear 21 1008 37 10000 1.33 15 21:26 23.09.2022
117 Clear 21 1008 37 10000 1.33 15 20:55 23.09.2022
118 Clouds 21 1008 36 10000 1.88 8 19:46 23.09.2022
119 Clouds 23 1007 33 10000 2.43 41 18:24 23.09.2022
120 Clear 28 1004 13 10000 1.04 84 13:44 23.09.2022
121 Clear 28 1004 13 10000 1.04 84 13:44 23.09.2022
122 Clear 27 1007 19 10000 0.87 115 10:26 23.09.2022
123 Clear 26 1008 22 10000 0.59 100 08:56 23.09.2022
124 Clear 21 1011 37 10000 0.44 275 04:42 23.09.2022
125 Clear 19 1010 48 10000 0.93 8 23:30 22.09.2022
126 Clear 20 1010 46 10000 0.92 21 22:28 22.09.2022
127 Clear 20 1010 46 10000 0.92 21 21:47 22.09.2022
128 Clear 21 1010 44 10000 1.38 22 20:44 22.09.2022
129 Clear 22 1009 37 10000 1.99 32 19:20 22.09.2022
130 Clear 25 1007 16 10000 1.53 88 16:23 22.09.2022
131 Clear 27 1008 14 10000 1.48 129 10:56 22.09.2022
132 Clear 27 1008 17 10000 1.2 130 10:20 22.09.2022
133 Clear 25 1011 23 10000 0.63 120 08:22 22.09.2022
134 Clear 22 1011 29 10000 0.38 189 06:21 22.09.2022
135 Clear 18 1011 48 10000 0.58 290 02:28 22.09.2022
136 Clear 20 1011 49 10000 1.08 27 22:29 21.09.2022
137 Clear 20 1011 47 10000 1.43 25 21:26 21.09.2022
138 Clear 21 1010 43 10000 1.75 30 19:30 21.09.2022
139 Clear 22 1010 33 10000 1.41 57 17:45 21.09.2022
140 Clear 24 1007 17 10000 1.04 84 16:22 21.09.2022
141 Clear 27 1007 10 10000 1.82 169 13:57 21.09.2022
142 Clear 28 1007 11 10000 2.02 183 11:44 21.09.2022
143 Clear 27 1008 14 10000 1.51 176 11:22 21.09.2022
144 Clear 26 1009 18 10000 1.01 164 09:44 21.09.2022
145 Clear 25 1010 23 10000 0.66 152 08:50 21.09.2022
146 Clear 21 1012 45 10000 0.05 37 05:53 21.09.2022
147 Clear 17 1012 60 10000 0.52 5 02:42 21.09.2022
148 Clear 18 1011 58 10000 0.7 4 02:19 21.09.2022
149 Clear 19 1010 55 10000 1.01 19 00:20 21.09.2022
150 Clear 20 1010 50 10000 1.1 14 21:55 20.09.2022
151 Clear 20 1010 47 10000 1.24 6 20:34 20.09.2022
152 Clear 22 1010 44 10000 1.17 25 19:18 20.09.2022
153 Clear 25 1007 25 10000 2.2 111 15:57 20.09.2022
154 Clear 27 1006 17 10000 2.52 119 14:34 20.09.2022
155 Clear 28 1006 13 10000 1.98 168 12:41 20.09.2022
156 Clear 26 1009 28 10000 0.93 103 08:51 20.09.2022
157 Clear 24 1010 35 10000 0.93 90 08:24 20.09.2022
158 Clear 20 1012 55 10000 0.37 49 04:40 20.09.2022
159 Clear 18 1011 65 10000 0.55 51 02:34 20.09.2022
160 Clear 19 1010 61 10000 1.01 35 22:46 19.09.2022
161 Clear 20 1010 58 10000 1.26 47 21:36 19.09.2022
162 Clear 21 1010 55 10000 1.23 47 20:40 19.09.2022
163 Clear 22 1010 49 10000 1.3 27 19:27 19.09.2022
164 Clear 22 1010 46 10000 1.65 43 17:37 19.09.2022
165 Clear 28 1006 12 10000 3.3 93 13:53 19.09.2022
166 Clear 29 1006 10 10000 2.31 94 12:33 19.09.2022
167 Clear 28 1007 11 10000 1.72 92 10:31 19.09.2022
168 Clear 26 1009 13 10000 1.03 92 08:41 19.09.2022
169 Clear 18 1011 24 10000 0.48 218 04:26 19.09.2022
170 Clear 18 1010 26 10000 0.28 232 01:18 19.09.2022
171 Clear 19 1010 26 10000 0.83 341 22:49 18.09.2022
172 Clear 19 1010 27 10000 0.98 349 21:30 18.09.2022
173 Clear 21 1010 23 10000 1.44 31 19:56 18.09.2022
174 Clear 22 1010 18 10000 1.53 24 17:53 18.09.2022
175 Clear 22 1010 18 10000 1.53 24 17:53 18.09.2022
176 Clear 23 1009 16 10000 1.71 13 16:56 18.09.2022
177 Clear 26 1007 13 10000 2.03 33 14:52 18.09.2022
178 Clear 27 1007 10 10000 1.63 62 13:41 18.09.2022
179 Clear 27 1007 10 10000 1.37 109 12:20 18.09.2022
180 Clear 26 1009 11 10000 1.02 137 10:28 18.09.2022
181 Clear 17 1013 24 10000 0.37 218 03:35 18.09.2022
182 Clear 16 1011 23 10000 0.69 321 01:22 18.09.2022
183 Clear 16 1011 23 10000 0.82 338 23:36 17.09.2022
184 Clear 18 1011 19 10000 1.59 6 20:56 17.09.2022
185 Clear 19 1010 19 10000 1.29 16 19:40 17.09.2022
186 Clear 20 1010 19 10000 1.16 9 18:30 17.09.2022
187 Clear 25 1006 12 10000 1.56 19 14:54 17.09.2022
188 Clear 26 1005 9 10000 1.2 41 13:38 17.09.2022
189 Clear 25 1006 10 10000 1.02 97 10:50 17.09.2022
190 Clear 23 1008 12 10000 0.9 89 08:30 17.09.2022
191 Clear 19 1010 18 10000 0.41 350 06:21 17.09.2022
192 Clear 16 1008 25 10000 1.01 343 23:56 16.09.2022
193 Clear 16 1007 25 10000 0.83 350 22:42 16.09.2022
194 Clear 17 1007 23 10000 1.26 10 20:54 16.09.2022
195 Clear 18 1007 21 10000 1.71 14 19:41 16.09.2022
196 Clear 22 1003 15 10000 2.21 14 16:26 16.09.2022
197 Clear 24 1002 12 10000 4.1 12 14:53 16.09.2022
198 Clear 27 1000 10 10000 3.72 14 13:26 16.09.2022
199 Clear 25 1003 13 10000 1.24 61 10:27 16.09.2022
200 Clear 23 1006 16 10000 1.58 28 07:52 16.09.2022
201 Clear 22 1007 18 10000 1.69 19 06:48 16.09.2022
202 Clear 20 1008 20 10000 1.54 11 05:58 16.09.2022
203 Clear 17 1007 29 10000 1.01 336 02:35 16.09.2022
204 Clear 19 1007 26 10000 1.42 356 22:20 15.09.2022
205 Clear 20 1007 24 10000 1.56 11 20:39 15.09.2022
206 Clear 21 1007 23 10000 1.9 12 19:45 15.09.2022
207 Clear 23 1006 20 10000 1.89 8 18:26 15.09.2022
208 Clear 24 1005 18 10000 2.37 4 17:29 15.09.2022
209 Clear 25 1004 17 10000 3.86 10 15:49 15.09.2022
210 Clear 29 1002 17 10000 1.57 92 12:51 15.09.2022
211 Clear 29 1003 17 10000 1.63 95 11:48 15.09.2022
212 Clear 28 1005 21 10000 1.35 114 09:46 15.09.2022
213 Clear 25 1007 28 10000 0.68 69 07:45 15.09.2022
214 Clear 20 1009 48 10000 0.55 8 03:48 15.09.2022
215 Clear 20 1008 51 10000 1.04 36 23:30 14.09.2022
216 Clear 22 1009 45 10000 0.86 39 20:47 14.09.2022
217 Clouds 22 1008 43 10000 1.05 50 19:33 14.09.2022
218 Clouds 24 1008 34 10000 1.41 82 17:48 14.09.2022
219 Clouds 24 1008 32 10000 1.07 64 16:37 14.09.2022
220 Clouds 26 1007 28 10000 3.97 3 15:27 14.09.2022
221 Clear 26 1006 27 10000 5.23 322 12:50 14.09.2022
222 Clear 27 1007 26 10000 1.51 113 09:53 14.09.2022
223 Clear 26 1008 30 10000 1.19 111 08:38 14.09.2022
224 Clear 23 1011 43 10000 0.85 67 06:50 14.09.2022
225 Clear 23 1011 43 10000 0.85 67 06:30 14.09.2022
226 Clear 23 1011 43 10000 0.85 67 06:30 14.09.2022
227 Clear 19 1010 57 10000 0.34 354 03:21 14.09.2022
228 Clear 19 1010 56 10000 0.46 58 01:39 14.09.2022
229 Clear 19 1009 53 10000 0.67 33 01:19 14.09.2022
230 Clouds 20 1009 52 10000 1.06 22 23:55 13.09.2022
231 Clouds 20 1009 52 10000 1.06 22 23:37 13.09.2022
232 Clouds 20 1010 50 10000 1.28 27 23:19 13.09.2022
233 Clouds 21 1009 48 10000 1.27 43 22:29 13.09.2022
234 Clouds 21 1009 48 10000 1.27 43 21:39 13.09.2022
235 Clouds 23 1008 41 10000 1.58 29 18:59 13.09.2022
236 Clouds 23 1008 40 10000 2.01 80 16:42 13.09.2022
237 Clear 24 1006 38 10000 2.5 58 15:31 13.09.2022
238 Clear 26 1005 31 10000 4.6 46 13:41 13.09.2022
239 Clear 27 1006 26 10000 1.76 60 11:23 13.09.2022
240 Clear 24 1009 34 10000 1.19 61 08:18 13.09.2022
241 Clouds 19 1009 48 10000 0.68 358 02:27 13.09.2022
242 Clouds 20 1008 45 10000 0.89 6 23:23 12.09.2022
243 Clouds 20 1008 45 10000 0.89 6 22:44 12.09.2022
244 Clouds 20 1008 44 10000 0.9 341 21:35 12.09.2022
245 Clouds 22 1008 41 10000 1.69 9 20:22 12.09.2022
246 Clouds 22 1008 40 10000 1.91 16 18:40 12.09.2022
247 Clouds 24 1005 43 10000 2.89 58 15:53 12.09.2022
248 Clear 27 1003 26 10000 3.97 58 12:35 12.09.2022
249 Clear 27 1005 25 10000 1.5 51 10:34 12.09.2022
250 Clear 25 1007 27 10000 0.91 60 08:58 12.09.2022
251 Clear 20 1009 36 10000 0.63 356 04:39 12.09.2022
252 Clear 18 1008 43 10000 0.47 350 02:25 12.09.2022
253 Clouds 19 1008 41 10000 1.28 338 22:51 11.09.2022
254 Clouds 20 1008 39 10000 1.53 342 21:40 11.09.2022
255 Clouds 20 1007 36 10000 1.33 356 20:44 11.09.2022
256 Clouds 21 1007 35 10000 1.5 6 19:45 11.09.2022
257 Clear 22 1007 32 10000 1.9 360 19:21 11.09.2022
258 Clear 23 1007 29 10000 2.74 2 17:47 11.09.2022
259 Clear 25 1005 24 10000 3.55 6 15:51 11.09.2022
260 Clear 29 1003 13 10000 2.61 25 13:52 11.09.2022
261 Clear 29 1003 13 10000 1.69 58 12:31 11.09.2022
262 Clear 25 1009 16 10000 0.84 45 08:25 11.09.2022
263 Clear 22 1011 19 10000 0.9 22 05:55 11.09.2022
264 Clear 19 1010 25 10000 0.92 333 00:34 11.09.2022
265 Clear 21 1010 22 10000 1.08 4 22:23 10.09.2022
266 Clear 21 1011 20 10000 1.5 7 20:35 10.09.2022
267 Clear 22 1010 17 10000 2.12 5 19:45 10.09.2022
268 Clear 23 1010 16 10000 2.1 6 19:27 10.09.2022
269 Clear 24 1010 15 10000 2.04 4 17:53 10.09.2022
270 Clear 26 1008 13 10000 2.99 355 15:44 10.09.2022
271 Clear 28 1007 12 10000 2.42 9 14:34 10.09.2022
272 Clear 29 1007 11 10000 1.2 75 12:52 10.09.2022
273 Clear 28 1009 11 10000 1.03 82 10:34 10.09.2022
274 Clear 27 1011 12 10000 0.99 87 08:42 10.09.2022
275 Clear 25 1012 13 10000 0.88 60 08:23 10.09.2022
276 Clear 21 1013 18 10000 0.37 354 05:25 10.09.2022
277 Clear 20 1012 25 10000 1.07 343 23:52 09.09.2022
278 Clear 20 1012 24 10000 1.17 351 23:19 09.09.2022
279 Clear 22 1012 21 10000 1.65 2 21:21 09.09.2022
280 Clear 23 1012 21 10000 1.5 1 20:22 09.09.2022
281 Clear 23 1011 20 10000 1.53 360 19:23 09.09.2022
282 Clear 24 1011 19 10000 1.85 7 18:18 09.09.2022
283 Clear 27 1009 15 10000 2.9 358 15:45 09.09.2022
284 Clear 29 1008 10 10000 1.29 33 13:43 09.09.2022
285 Clear 29 1009 10 10000 1.17 63 11:51 09.09.2022
286 Clear 26 1014 13 10000 0.78 51 08:19 09.09.2022
287 Clear 20 1015 24 10000 0.49 346 03:43 09.09.2022
288 Clear 20 1013 24 10000 0.97 333 00:39 09.09.2022
289 Clear 22 1013 24 10000 1.63 347 21:52 08.09.2022
290 Clear 23 1013 25 10000 1.77 360 20:49 08.09.2022
291 Clear 23 1013 28 10000 2.25 9 20:29 08.09.2022
292 Clear 24 1012 31 10000 2.45 16 19:28 08.09.2022
293 Clear 25 1012 28 10000 2.76 26 17:35 08.09.2022
294 Clear 28 1009 17 10000 3.12 10 16:18 08.09.2022
295 Clear 30 1008 14 10000 1.77 39 13:30 08.09.2022
296 Clear 30 1008 15 10000 1.61 57 12:42 08.09.2022
297 Clear 30 1009 18 10000 1.55 73 11:32 08.09.2022
298 Clear 29 1011 25 10000 1.37 81 09:57 08.09.2022
299 Clear 26 1013 35 10000 1.13 55 07:38 08.09.2022
300 Clear 22 1014 59 10000 1.03 29 04:53 08.09.2022
301 Clear 20 1013 70 10000 0.69 37 02:36 08.09.2022
302 Clear 21 1012 68 10000 0.74 42 02:18 08.09.2022
303 Clear 22 1012 64 10000 1.22 46 23:25 07.09.2022
304 Clear 22 1012 62 10000 1.41 50 21:46 07.09.2022
305 Clear 23 1012 59 10000 1.65 54 21:24 07.09.2022
306 Clear 24 1012 56 10000 1.89 51 20:29 07.09.2022
307 Clear 24 1011 53 10000 1.81 44 19:20 07.09.2022
308 Clouds 25 1010 47 10000 2.54 71 16:30 07.09.2022
309 Clear 28 1009 30 10000 1.6 82 11:28 07.09.2022
310 Clear 28 1009 30 10000 1.6 82 10:32 07.09.2022
311 Clear 25 1012 43 10000 1.48 55 08:29 07.09.2022
312 Clear 24 1013 49 10000 1.56 37 06:31 07.09.2022
313 Clear 20 1011 69 10000 1 36 00:38 07.09.2022
314 Clear 21 1010 65 10000 1.29 49 21:56 06.09.2022
315 Clear 21 1010 65 10000 1.29 49 21:33 06.09.2022
316 Clear 23 1010 58 10000 1.92 55 19:39 06.09.2022
317 Clear 23 1010 56 10000 2.04 47 18:39 06.09.2022
318 Clear 24 1009 53 10000 1.98 52 17:39 06.09.2022
319 Clear 25 1008 48 10000 2.73 73 16:47 06.09.2022
320 Clear 26 1007 39 10000 3.32 79 15:58 06.09.2022
321 Clear 28 1006 25 10000 1.93 96 13:48 06.09.2022
322 Clear 28 1006 28 10000 1.57 102 13:27 06.09.2022
323 Clear 28 1006 28 10000 1.57 102 12:57 06.09.2022
324 Clear 27 1008 34 10000 1.26 95 10:55 06.09.2022
325 Clear 25 1010 43 10000 1.45 64 09:22 06.09.2022
326 Clear 24 1010 49 10000 1.62 54 07:53 06.09.2022
327 Clear 21 1011 66 10000 0.92 84 06:19 06.09.2022
328 Clear 19 1008 81 10000 1.28 58 01:20 06.09.2022
329 Clear 20 1008 78 10000 1.53 63 22:53 05.09.2022
330 Clear 21 1008 74 10000 1.76 58 21:38 05.09.2022
331 Clear 22 1007 63 10000 1.68 50 20:20 05.09.2022
332 Clear 23 1007 58 10000 1.45 46 18:53 05.09.2022
333 Clear 23 1007 52 10000 1.8 59 18:24 05.09.2022
334 Clear 23 1007 52 10000 1.8 59 17:53 05.09.2022
335 Clear 26 1004 22 10000 2.19 66 15:54 05.09.2022
336 Clear 29 1003 13 10000 1.33 105 14:40 05.09.2022
337 Clear 29 1003 12 10000 1.19 159 12:51 05.09.2022
338 Clear 28 1005 15 10000 0.54 200 10:37 05.09.2022
339 Clear 26 1007 21 10000 0.19 96 08:52 05.09.2022
340 Clear 20 1009 38 10000 0.52 354 03:57 05.09.2022
341 Clear 19 1007 31 10000 0.7 355 00:30 05.09.2022
342 Clear 21 1007 24 10000 1.62 8 22:29 04.09.2022
343 Clear 21 1007 24 10000 1.62 8 21:56 04.09.2022
344 Clear 22 1006 21 10000 1.89 22 20:21 04.09.2022
345 Clear 23 1005 20 10000 2.05 18 18:35 04.09.2022
346 Clear 24 1005 17 10000 2.39 7 17:31 04.09.2022
347 Clear 26 1003 12 10000 2.06 20 15:43 04.09.2022
348 Clear 29 1003 9 10000 1.1 114 14:25 04.09.2022
349 Clear 29 1003 9 10000 1.16 130 12:40 04.09.2022
350 Clear 28 1005 10 10000 1.07 137 10:59 04.09.2022
351 Clear 27 1006 11 10000 1.03 131 09:34 04.09.2022
352 Clear 23 1009 15 10000 0.51 47 06:34 04.09.2022
353 Clear 17 1009 26 10000 0.87 331 02:51 04.09.2022
354 Clear 18 1008 23 10000 1.13 345 22:34 03.09.2022
355 Clear 20 1008 21 10000 1.47 354 21:26 03.09.2022
356 Clear 20 1008 21 10000 1.47 354 20:55 03.09.2022
357 Clear 22 1008 19 10000 1.87 5 18:31 03.09.2022
358 Clear 24 1007 16 10000 2.51 5 17:19 03.09.2022
359 Clear 25 1006 14 10000 3.14 9 15:35 03.09.2022
360 Clear 28 1005 11 10000 3.36 10 14:41 03.09.2022
361 Clear 29 1004 9 10000 1.95 33 13:44 03.09.2022
362 Clear 29 1005 9 10000 1.2 76 11:32 03.09.2022
363 Clear 27 1007 10 10000 1.09 98 09:32 03.09.2022
364 Clear 25 1010 12 10000 0.82 50 07:48 03.09.2022
365 Clear 21 1012 16 10000 0.64 359 04:50 03.09.2022
366 Clear 18 1011 23 10000 0.88 334 02:35 03.09.2022
367 Clear 19 1010 23 10000 1.01 341 23:44 02.09.2022
368 Clear 21 1011 22 10000 1.38 347 22:21 02.09.2022
369 Clear 21 1011 21 10000 1.44 352 20:42 02.09.2022
370 Clear 22 1011 20 10000 1.48 356 19:47 02.09.2022
371 Clear 23 1010 20 10000 1.62 358 18:50 02.09.2022
372 Clear 24 1010 18 10000 2.6 2 18:25 02.09.2022
373 Clear 26 1009 16 10000 2.93 6 17:24 02.09.2022
374 Clear 26 1009 16 10000 2.93 6 16:31 02.09.2022
375 Clear 26 1009 16 10000 2.93 6 16:31 02.09.2022
376 Clear 29 1008 12 10000 1.02 69 13:32 02.09.2022
377 Clear 28 1010 12 10000 0.98 118 10:43 02.09.2022
378 Clear 27 1011 13 10000 0.92 113 09:42 02.09.2022
379 Clear 26 1012 13 10000 0.74 80 08:45 02.09.2022
380 Clear 24 1014 15 10000 0.71 59 06:46 02.09.2022
381 Clear 22 1014 16 10000 0.57 41 06:18 02.09.2022
382 Clear 19 1012 26 10000 1.03 337 00:20 02.09.2022
383 Clear 21 1011 25 10000 1.12 359 21:56 01.09.2022
384 Clear 21 1011 25 10000 1.12 359 21:37 01.09.2022
385 Clear 21 1011 24 10000 1.36 355 21:18 01.09.2022
386 Clear 22 1011 23 10000 1.41 353 19:32 01.09.2022
387 Clear 23 1010 21 10000 2.06 12 18:18 01.09.2022
388 Clear 25 1009 18 10000 2.59 3 16:54 01.09.2022
389 Clear 28 1007 13 10000 0.91 35 14:52 01.09.2022
390 Clear 28 1007 11 10000 1.01 53 13:23 01.09.2022
391 Clear 28 1007 11 10000 1.01 53 12:50 01.09.2022
392 Clear 28 1007 12 10000 1.04 61 11:51 01.09.2022
393 Clear 28 1008 12 10000 1.14 73 11:19 01.09.2022
394 Clear 27 1009 13 10000 1.01 75 09:31 01.09.2022
395 Clear 23 1012 17 10000 0.73 32 06:34 01.09.2022
396 Clear 18 1011 28 10000 0.57 335 02:34 01.09.2022
397 Clear 18 1011 28 10000 0.5 311 01:30 01.09.2022
398 Clear 18 1011 28 10000 0.5 311 01:30 01.09.2022
399 Clear 20 1010 24 10000 1.37 353 22:22 31.08.2022
400 Clear 21 1010 23 10000 1.72 0 20:35 31.08.2022
401 Clear 23 1010 23 10000 1.45 1 18:32 31.08.2022
402 Clear 24 1008 20 10000 2.72 6 16:35 31.08.2022
403 Clear 28 1007 14 10000 2.3 15 15:21 31.08.2022
404 Clear 29 1006 13 10000 1.37 48 12:37 31.08.2022
405 Clear 28 1007 14 10000 1.19 63 11:48 31.08.2022
406 Clear 27 1009 15 10000 1.04 98 09:31 31.08.2022
407 Clear 24 1012 17 10000 0.78 42 07:28 31.08.2022
408 Clear 18 1011 31 10000 0.79 333 01:57 31.08.2022
409 Clear 21 1012 29 10000 1.43 344 21:49 30.08.2022
410 Clear 21 1012 28 10000 1.56 352 21:21 30.08.2022
411 Clear 23 1012 26 10000 1.81 8 18:53 30.08.2022
412 Clear 25 1010 23 10000 2.2 351 16:35 30.08.2022
413 Clear 28 1009 15 10000 1.02 38 13:30 30.08.2022
414 Clear 27 1011 15 10000 0.72 115 11:22 30.08.2022
415 Clear 27 1011 15 10000 0.72 115 10:57 30.08.2022
416 Clear 25 1013 16 10000 0.85 66 08:49 30.08.2022
417 Clear 19 1015 34 10000 0.69 339 03:55 30.08.2022
418 Clear 19 1013 31 10000 1.19 8 00:26 30.08.2022
419 Clear 20 1013 30 10000 1.33 10 22:34 29.08.2022
420 Clear 20 1012 28 10000 1.52 5 21:34 29.08.2022
421 Clear 20 1012 28 10000 1.52 5 21:34 29.08.2022
422 Clear 21 1012 27 10000 1.74 22 20:34 29.08.2022
423 Clear 22 1012 24 10000 1.48 9 18:39 29.08.2022
424 Clear 24 1011 22 10000 1.65 354 17:25 29.08.2022
425 Clear 24 1011 22 10000 1.65 354 16:56 29.08.2022
426 Clear 26 1009 17 10000 1.31 19 15:18 29.08.2022
427 Clear 26 1009 17 10000 1.31 19 15:18 29.08.2022
428 Clear 27 1009 15 10000 1.35 44 13:40 29.08.2022
429 Clear 26 1010 15 10000 1.08 85 11:44 29.08.2022
430 Clear 26 1011 15 10000 0.93 87 10:42 29.08.2022
431 Clear 24 1013 17 10000 0.75 83 08:40 29.08.2022
432 Clear 20 1014 23 10000 0.14 20 06:26 29.08.2022
433 Clear 16 1012 34 10000 0.62 338 01:58 29.08.2022
434 Clear 18 1011 32 10000 1.06 348 22:55 28.08.2022
435 Clear 18 1011 31 10000 1.23 3 21:46 28.08.2022
436 Clear 19 1011 30 10000 1.12 8 20:59 28.08.2022
437 Clear 20 1011 30 10000 1.24 8 19:44 28.08.2022
438 Clear 21 1010 29 10000 1.87 10 18:22 28.08.2022
439 Clear 21 1010 29 10000 1.87 10 17:45 28.08.2022
440 Clear 22 1009 28 10000 2.33 10 16:33 28.08.2022
441 Clear 26 1005 16 10000 2.61 9 14:44 28.08.2022
442 Clear 26 1005 15 10000 1.12 48 12:56 28.08.2022
443 Clear 26 1007 16 10000 0.98 60 11:19 28.08.2022
444 Clear 25 1008 19 10000 0.87 61 09:57 28.08.2022
445 Clear 24 1009 21 10000 0.69 54 08:42 28.08.2022
446 Clear 22 1010 24 10000 0.65 45 07:50 28.08.2022
447 Clear 17 1011 37 10000 0.72 327 03:44 28.08.2022
448 Clear 17 1010 40 10000 0.98 335 00:33 28.08.2022
449 Clear 18 1010 40 10000 1.07 4 22:41 27.08.2022
450 Clear 19 1010 40 10000 1.24 5 21:58 27.08.2022
451 Clear 20 1009 40 10000 1.34 356 20:19 27.08.2022
452 Clear 21 1009 41 10000 1.81 357 18:42 27.08.2022
453 Clear 23 1006 37 10000 3.57 3 16:25 27.08.2022
454 Clear 23 1006 37 10000 3.57 3 15:30 27.08.2022
455 Clear 26 1005 27 10000 1.16 57 12:41 27.08.2022
456 Clear 26 1005 29 10000 1.16 69 11:53 27.08.2022
457 Clear 24 1007 35 10000 1.01 73 09:51 27.08.2022
458 Clear 23 1008 40 10000 0.75 73 08:53 27.08.2022
459 Clouds 17 1011 67 10000 1.08 197 04:39 27.08.2022
460 Clouds 15 1011 82 10000 1.23 208 00:25 27.08.2022
461 Clouds 16 1011 81 10000 1.34 206 23:24 26.08.2022
462 Clouds 16 1011 81 10000 1.31 199 21:43 26.08.2022
463 Clouds 15 1013 85 10000 1.02 172 19:25 26.08.2022
464 Clouds 14 1014 90 10000 0.5 190 17:29 26.08.2022
465 Clouds 14 1014 91 10000 0.55 192 15:35 26.08.2022
466 Clouds 14 1014 91 9696 1.46 159 14:44 26.08.2022
467 Clouds 14 1013 89 10000 0.68 171 12:54 26.08.2022
468 Clouds 14 1013 88 10000 0.74 81 11:37 26.08.2022
469 Clouds 15 1014 86 10000 0.86 152 10:47 26.08.2022
470 Clouds 18 1012 67 10000 0.67 201 07:32 26.08.2022
471 Clouds 16 1012 81 10000 1.85 198 02:31 26.08.2022
472 Clouds 16 1011 83 10000 1.28 209 23:44 25.08.2022
473 Clouds 16 1011 80 10000 0.39 245 21:40 25.08.2022
474 Clouds 16 1012 82 10000 0.19 203 20:51 25.08.2022
475 Clouds 15 1014 90 10000 0.42 14 19:24 25.08.2022
476 Clouds 15 1014 91 10000 0.45 2 18:18 25.08.2022
477 Clouds 15 1014 91 10000 0.45 2 17:31 25.08.2022
478 Clouds 15 1014 92 10000 0.7 7 15:54 25.08.2022
479 Clouds 15 1013 92 10000 0.97 30 15:27 25.08.2022
480 Clouds 15 1012 88 10000 0.19 253 12:47 25.08.2022
481 Clouds 15 1013 87 10000 0.38 342 10:49 25.08.2022
482 Clouds 15 1014 87 10000 1.03 41 09:21 25.08.2022
483 Clouds 15 1014 89 10000 1.44 8 06:31 25.08.2022
484 Rain 15 1013 91 10000 1.36 356 01:43 25.08.2022
485 Clouds 16 1013 92 10000 2.06 3 23:27 24.08.2022
486 Clouds 16 1013 92 10000 2.06 3 22:43 24.08.2022
487 Clouds 16 1014 92 10000 1.62 359 21:37 24.08.2022
488 Clouds 16 1014 90 10000 1.4 356 20:56 24.08.2022
489 Clouds 16 1014 88 10000 1.76 1 19:24 24.08.2022
490 Rain 17 1014 87 10000 2 19 16:47 24.08.2022
491 Clouds 17 1013 85 10000 1.92 36 15:52 24.08.2022
492 Clouds 18 1012 75 10000 2.3 8 13:46 24.08.2022
493 Clouds 19 1012 72 10000 2.12 355 11:50 24.08.2022
494 Clouds 19 1012 74 10000 2.28 357 10:34 24.08.2022
495 Clouds 17 1014 84 10000 0.66 6 08:26 24.08.2022
496 Clouds 16 1014 90 10000 0.57 21 03:32 24.08.2022
497 Clouds 18 1012 74 10000 1.28 156 23:35 23.08.2022
498 Clouds 19 1012 68 10000 1.06 175 22:33 23.08.2022
499 Clouds 18 1012 69 10000 0.73 193 21:35 23.08.2022
500 Clouds 18 1012 73 10000 1.08 222 20:31 23.08.2022
501 Clouds 19 1012 67 10000 0.37 259 18:50 23.08.2022
502 Clouds 19 1012 69 10000 0.13 302 17:50 23.08.2022
503 Clouds 19 1011 69 10000 0.32 111 17:18 23.08.2022
504 Clouds 19 1011 68 10000 0.68 359 15:39 23.08.2022
505 Clouds 19 1011 70 10000 1.49 6 13:36 23.08.2022
506 Clouds 18 1012 74 10000 1.34 3 12:30 23.08.2022
507 Clouds 17 1013 80 10000 2.01 4 10:51 23.08.2022
508 Clouds 17 1013 80 10000 2.01 4 10:32 23.08.2022
509 Clouds 16 1013 81 10000 0.93 2 08:54 23.08.2022
510 Clouds 17 1013 78 10000 0.59 39 08:21 23.08.2022
511 Clouds 17 1013 78 10000 0.59 39 07:43 23.08.2022
512 Clouds 16 1013 82 10000 0.64 27 06:34 23.08.2022
513 Clouds 16 1012 82 10000 0.66 201 05:38 23.08.2022
514 Clouds 20 1007 58 10000 0.14 9 00:52 23.08.2022
515 Clouds 20 1007 58 10000 0.87 349 00:24 23.08.2022
516 Clouds 20 1007 58 10000 1.15 14 22:52 22.08.2022
517 Clouds 20 1008 58 10000 0.69 72 21:51 22.08.2022
518 Clouds 20 1008 61 10000 2.1 277 19:49 22.08.2022
519 Clouds 21 1008 56 10000 1.02 317 19:21 22.08.2022
520 Clouds 21 1008 57 10000 1.41 336 17:55 22.08.2022
521 Clouds 22 1006 54 10000 0.57 172 15:40 22.08.2022
522 Clouds 19 1007 67 10000 0.84 242 14:32 22.08.2022
523 Clouds 25 1003 38 10000 1.28 34 11:19 22.08.2022
524 Clouds 24 1004 40 10000 1.93 43 08:22 22.08.2022
525 Clouds 21 1005 54 10000 1.39 18 04:34 22.08.2022
526 Clouds 20 1004 61 10000 0.84 339 00:49 22.08.2022
527 Clouds 20 1004 60 10000 1.61 4 00:29 22.08.2022
528 Clouds 20 1005 61 10000 1.34 358 22:54 21.08.2022
529 Clouds 21 1005 63 10000 1.63 28 21:36 21.08.2022
530 Clouds 21 1006 63 10000 1.78 21 20:57 21.08.2022
531 Clouds 22 1005 60 10000 2.3 50 19:28 21.08.2022
532 Clouds 22 1005 58 10000 2.56 59 17:59 21.08.2022
533 Clouds 24 1003 51 10000 3.34 67 15:59 21.08.2022
534 Clouds 25 1002 46 10000 4.54 76 15:28 21.08.2022
535 Clouds 25 1002 45 10000 4.99 72 13:58 21.08.2022
536 Clouds 25 1002 45 10000 4.99 72 13:34 21.08.2022
537 Clouds 26 1003 39 10000 4.89 72 11:56 21.08.2022
538 Clouds 25 1005 39 10000 3.03 67 09:32 21.08.2022
539 Clouds 24 1006 43 10000 2.33 64 08:56 21.08.2022
540 Clouds 24 1006 43 10000 2.33 64 08:38 21.08.2022
541 Clouds 22 1007 56 10000 2.46 51 07:27 21.08.2022
542 Clouds 19 1008 70 10000 0.84 41 04:18 21.08.2022
543 Clouds 19 1007 73 10000 0.82 111 00:31 21.08.2022
544 Clouds 18 1008 79 10000 0.68 281 22:59 20.08.2022
545 Clouds 19 1008 78 10000 0.77 204 21:39 20.08.2022
546 Clouds 20 1008 67 10000 1.63 185 20:43 20.08.2022
547 Clouds 21 1007 62 10000 1.59 210 19:41 20.08.2022
548 Clouds 22 1006 59 10000 0.89 290 18:33 20.08.2022
549 Clouds 22 1006 60 10000 1.33 324 17:52 20.08.2022
550 Clouds 22 1005 55 10000 1.26 329 17:18 20.08.2022
551 Clouds 23 1004 55 10000 3.33 338 15:37 20.08.2022
552 Clouds 27 1002 43 10000 4.45 43 13:36 20.08.2022
553 Clouds 27 1003 40 10000 3.8 30 11:53 20.08.2022
554 Clouds 25 1005 43 10000 3.62 22 09:43 20.08.2022
555 Clouds 25 1006 45 10000 3.51 17 08:50 20.08.2022
556 Clouds 24 1006 50 10000 2.91 24 05:57 20.08.2022
557 Clouds 22 1005 64 10000 1.04 359 01:46 20.08.2022
558 Clouds 21 1005 67 10000 1.33 359 00:35 20.08.2022
559 Clouds 22 1005 64 10000 1.66 26 23:19 19.08.2022
560 Clouds 22 1005 64 10000 1.66 26 22:33 19.08.2022
561 Clouds 24 1005 56 10000 2.16 56 20:20 19.08.2022
562 Clouds 25 1004 52 10000 2.58 63 18:28 19.08.2022
563 Clouds 28 1001 40 10000 4.57 81 15:21 19.08.2022
564 Clouds 30 1001 34 10000 4.53 82 13:26 19.08.2022
565 Clouds 29 1002 33 10000 3.11 71 10:55 19.08.2022
566 Clouds 28 1003 34 10000 2.55 65 10:24 19.08.2022
567 Clouds 25 1006 43 10000 2.1 42 06:37 19.08.2022
568 Clouds 20 1005 67 10000 0.83 48 00:57 19.08.2022
569 Clouds 20 1005 67 10000 0.83 48 00:30 19.08.2022
570 Clouds 20 1005 67 10000 0.87 49 23:44 18.08.2022
571 Clouds 21 1005 66 10000 0.64 48 22:50 18.08.2022
572 Clouds 21 1005 64 10000 0.83 61 21:57 18.08.2022
573 Clouds 21 1005 64 10000 0.83 61 21:34 18.08.2022
574 Clouds 22 1006 60 10000 1 57 19:56 18.08.2022
575 Clouds 22 1006 58 10000 1.14 70 19:28 18.08.2022
576 Clouds 23 1006 57 10000 1.14 73 17:50 18.08.2022
577 Clouds 23 1006 54 10000 1.23 76 16:58 18.08.2022
578 Clouds 24 1005 50 10000 1.78 79 14:45 18.08.2022
579 Clouds 24 1005 50 10000 2.35 89 14:19 18.08.2022
580 Clouds 24 1005 49 10000 2.93 84 12:55 18.08.2022
581 Clouds 24 1005 47 10000 2.72 72 11:34 18.08.2022
582 Clouds 24 1007 46 10000 2.84 56 09:43 18.08.2022
583 Clouds 24 1007 47 10000 2.89 52 08:39 18.08.2022
584 Clouds 23 1008 55 10000 1.83 22 07:19 18.08.2022
585 Clouds 21 1007 66 10000 1.14 30 03:53 18.08.2022
586 Clouds 21 1007 71 10000 1.57 22 23:30 17.08.2022
587 Clouds 21 1007 70 10000 1.59 19 21:39 17.08.2022
588 Clouds 22 1006 67 10000 2.15 43 20:18 17.08.2022
589 Clouds 23 1007 66 10000 2.13 57 19:28 17.08.2022
590 Clouds 23 1007 63 10000 2.51 67 17:32 17.08.2022
591 Clear 25 1005 55 10000 4.58 73 16:22 17.08.2022
592 Clear 26 1004 49 10000 5.57 76 15:22 17.08.2022
593 Clear 28 1003 41 10000 5.9 75 12:54 17.08.2022
594 Clear 28 1003 38 10000 5.69 75 11:36 17.08.2022
595 Clear 27 1005 39 10000 3.8 58 09:31 17.08.2022
596 Clouds 25 1007 45 10000 2.26 53 07:55 17.08.2022
597 Clear 20 1008 80 10000 1.1 43 03:27 17.08.2022
598 Clouds 21 1007 74 10000 1.65 42 23:58 16.08.2022
599 Clouds 21 1007 72 10000 1.6 46 22:30 16.08.2022
600 Clouds 22 1008 67 10000 1.64 63 20:52 16.08.2022
601 Clouds 22 1007 66 10000 1.82 62 19:53 16.08.2022
602 Clouds 23 1007 65 10000 2.56 62 18:40 16.08.2022
603 Clouds 24 1006 60 10000 2.99 64 17:42 16.08.2022
604 Clouds 25 1004 53 10000 2.16 81 15:48 16.08.2022
605 Clouds 27 1003 48 10000 3.73 71 14:55 16.08.2022
606 Clouds 27 1003 48 10000 3.73 71 14:37 16.08.2022
607 Clouds 28 1002 40 10000 2.35 63 12:44 16.08.2022
608 Clouds 28 1004 41 10000 1.51 67 10:37 16.08.2022
609 Clouds 27 1005 43 10000 1.33 66 09:44 16.08.2022
610 Clouds 26 1006 45 10000 1.19 68 08:47 16.08.2022
611 Clouds 25 1006 48 10000 1.6 75 07:33 16.08.2022
612 Clouds 22 1007 65 10000 1.11 58 02:19 16.08.2022
613 Clouds 22 1008 65 10000 1.44 62 22:30 15.08.2022
614 Clouds 22 1008 65 10000 1.44 62 22:30 15.08.2022
615 Clouds 22 1008 63 10000 1.11 93 21:54 15.08.2022
616 Clouds 22 1008 63 10000 1.11 93 21:34 15.08.2022
617 Clouds 23 1008 59 10000 0.66 76 20:19 15.08.2022
618 Clouds 23 1008 59 10000 0.66 76 20:19 15.08.2022
619 Clouds 23 1008 59 10000 1.26 49 18:42 15.08.2022
620 Clouds 23 1009 58 10000 1.29 49 17:36 15.08.2022
621 Clouds 23 1008 56 10000 1.5 29 16:22 15.08.2022
622 Clouds 26 1006 48 10000 2.77 19 13:57 15.08.2022
623 Clouds 25 1006 51 10000 2.34 26 12:37 15.08.2022
624 Clouds 23 1008 60 10000 1.25 14 10:18 15.08.2022
625 Clouds 27 1006 46 10000 4.52 65 08:42 15.08.2022
626 Clouds 25 1007 54 10000 1.98 35 06:27 15.08.2022
627 Clouds 22 1006 69 10000 1.08 24 02:57 15.08.2022
628 Clouds 23 1006 63 10000 1.31 32 23:22 14.08.2022
629 Clouds 24 1006 61 10000 0.94 349 21:42 14.08.2022
630 Clouds 24 1006 64 10000 1.17 20 20:29 14.08.2022
631 Clouds 24 1005 63 10000 1.98 51 19:32 14.08.2022
632 Clouds 25 1005 60 10000 3.08 71 18:20 14.08.2022
633 Clouds 26 1004 55 10000 4.03 62 17:22 14.08.2022
634 Rain 27 1003 50 10000 5.13 71 15:51 14.08.2022
635 Clouds 29 1001 44 10000 5.46 73 14:38 14.08.2022
636 Clouds 30 1001 41 10000 5.31 77 13:50 14.08.2022
637 Clouds 30 1001 38 10000 4.88 75 13:26 14.08.2022
638 Clouds 30 1001 38 10000 4.88 75 12:34 14.08.2022
639 Clouds 30 1003 38 10000 4.38 75 11:20 14.08.2022
640 Clouds 28 1004 44 10000 3.28 65 08:56 14.08.2022
641 Clouds 25 1006 51 10000 1.94 39 06:23 14.08.2022
642 Clouds 23 1007 54 10000 1.44 25 04:21 14.08.2022
643 Clouds 24 1004 35 10000 2.2 14 00:42 14.08.2022
644 Clouds 25 1004 32 10000 1.6 9 22:56 13.08.2022
645 Clouds 25 1004 33 10000 1.79 11 21:55 13.08.2022
646 Clouds 26 1004 35 10000 2.01 10 20:49 13.08.2022
647 Clouds 26 1004 38 10000 2.37 14 19:47 13.08.2022
648 Clouds 27 1003 38 10000 2.25 28 18:47 13.08.2022
649 Clouds 30 1000 31 10000 4.01 89 16:23 13.08.2022
650 Clouds 31 999 25 10000 4.54 83 14:41 13.08.2022
651 Clouds 32 999 20 10000 4.37 71 13:48 13.08.2022
652 Clouds 32 999 19 10000 3.69 71 13:23 13.08.2022
653 Clouds 32 1000 18 10000 2.43 66 11:27 13.08.2022
654 Clouds 30 1003 19 10000 1.66 52 09:23 13.08.2022
655 Clouds 27 1005 28 10000 1.8 36 06:44 13.08.2022
656 Clouds 22 1005 60 10000 1.3 22 01:36 13.08.2022
657 Clouds 23 1006 61 10000 0.38 356 23:25 12.08.2022
658 Clouds 23 1006 61 10000 0.81 14 21:35 12.08.2022
659 Clouds 24 1006 59 10000 2.01 43 19:47 12.08.2022
660 Clouds 24 1005 57 10000 1.96 63 19:23 12.08.2022
661 Clouds 25 1005 55 10000 1.9 68 18:21 12.08.2022
662 Clouds 26 1002 51 10000 4.05 69 16:26 12.08.2022
663 Clouds 27 1002 46 10000 4.65 70 14:50 12.08.2022
664 Clouds 29 1001 40 10000 5.63 78 13:30 12.08.2022
665 Clouds 31 1000 34 10000 4.16 85 12:25 12.08.2022
666 Clouds 28 1004 36 10000 1.97 98 08:51 12.08.2022
667 Clouds 27 1005 38 10000 1.45 106 07:45 12.08.2022
668 Clouds 24 1006 49 10000 0.82 46 06:21 12.08.2022
669 Clouds 21 1006 70 10000 0.71 233 00:32 12.08.2022
670 Clouds 21 1006 69 10000 1.35 177 23:55 11.08.2022
671 Clouds 21 1006 69 10000 1.72 185 22:45 11.08.2022
672 Clouds 21 1006 68 10000 1.95 219 21:53 11.08.2022
673 Clouds 21 1007 68 10000 3.03 179 21:26 11.08.2022
674 Clouds 21 1007 68 10000 3.03 179 20:30 11.08.2022
675 Clouds 23 1006 61 10000 3.56 196 19:33 11.08.2022
676 Clouds 24 1005 57 10000 0.59 160 18:41 11.08.2022
677 Clouds 25 1002 58 10000 4.42 352 16:46 11.08.2022
678 Clouds 28 1000 43 10000 4.48 68 15:42 11.08.2022
679 Clouds 30 1000 37 10000 4.89 88 14:32 11.08.2022
680 Clear 33 999 23 10000 5.29 81 11:53 11.08.2022
681 Clear 30 1002 17 10000 1.7 59 08:48 11.08.2022
682 Clouds 25 1005 22 10000 1.25 23 05:44 11.08.2022
683 Clouds 21 1005 29 10000 0.72 326 02:33 11.08.2022
684 Clear 21 1004 28 10000 1.07 346 22:59 10.08.2022
685 Clear 22 1004 27 10000 1.18 328 21:46 10.08.2022
686 Clear 23 1004 25 10000 1.27 347 20:56 10.08.2022
687 Clear 23 1004 24 10000 1.66 1 20:24 10.08.2022
688 Clear 24 1003 22 10000 2.08 359 18:46 10.08.2022
689 Clear 27 1001 19 10000 3.31 10 17:26 10.08.2022
690 Clear 33 998 12 10000 4.3 23 14:25 10.08.2022
691 Clear 33 998 12 10000 2.67 34 12:54 10.08.2022
692 Clear 32 1000 13 10000 1.64 56 10:47 10.08.2022
693 Clear 29 1002 15 10000 1.26 52 08:37 10.08.2022
694 Clear 26 1005 20 10000 1.25 39 07:23 10.08.2022
695 Clear 23 1007 26 10000 0.92 6 04:50 10.08.2022
696 Clear 20 1006 33 10000 1.17 325 00:50 10.08.2022
697 Clear 22 1005 30 10000 1.41 352 23:29 09.08.2022
698 Clear 22 1005 29 10000 1.61 356 21:41 09.08.2022
699 Clear 23 1005 27 10000 1.98 357 21:22 09.08.2022
700 Clear 25 1004 24 10000 2.43 5 18:56 09.08.2022
701 Clear 26 1003 22 10000 3.11 2 17:37 09.08.2022
702 Clear 28 1002 20 10000 3.86 16 17:19 09.08.2022
703 Clear 30 1000 16 10000 5.26 20 16:22 09.08.2022
704 Clear 32 1000 11 10000 3.01 41 14:50 09.08.2022
705 Clear 31 1002 11 10000 1.49 73 11:29 09.08.2022
706 Clear 29 1004 14 10000 1.23 59 08:52 09.08.2022
707 Clear 28 1006 16 10000 1.2 52 07:57 09.08.2022
708 Clear 23 1008 23 10000 0.68 18 05:24 09.08.2022
709 Clouds 20 1006 29 10000 0.91 345 00:36 09.08.2022
710 Clouds 21 1006 27 10000 1.25 350 23:24 08.08.2022
711 Clouds 21 1006 27 10000 1.25 350 22:40 08.08.2022
712 Clouds 22 1006 25 10000 1.7 2 21:44 08.08.2022
713 Clear 23 1006 24 10000 1.97 7 20:34 08.08.2022
714 Clear 24 1005 23 10000 2.1 11 19:34 08.08.2022
715 Clear 26 1004 19 10000 2.36 20 17:56 08.08.2022
716 Clear 29 1002 15 10000 4.74 16 15:48 08.08.2022
717 Clear 31 1000 12 10000 6.52 11 14:46 08.08.2022
718 Clear 33 999 9 10000 3.66 18 12:30 08.08.2022
719 Clear 31 1002 12 10000 1.49 79 10:28 08.08.2022
720 Clear 28 1005 16 10000 1.35 41 07:51 08.08.2022
721 Clear 22 1007 23 10000 0.78 354 03:42 08.08.2022
722 Clear 22 1005 23 10000 1.66 344 23:28 07.08.2022
723 Clear 23 1005 22 10000 1.7 355 21:41 07.08.2022
724 Clear 24 1004 23 10000 2.16 350 20:55 07.08.2022
725 Clear 25 1004 23 10000 2.38 3 20:18 07.08.2022
726 Clear 25 1004 23 10000 2.38 3 19:51 07.08.2022
727 Clear 26 1003 24 10000 3.51 12 18:49 07.08.2022
728 Clouds 29 1000 28 10000 4.46 39 17:22 07.08.2022
729 Clouds 29 1000 28 10000 4.46 39 16:51 07.08.2022
730 Clear 33 997 13 10000 4 22 15:26 07.08.2022
731 Clear 33 998 12 10000 3.02 27 13:47 07.08.2022
732 Clear 33 998 13 10000 2.49 53 12:38 07.08.2022
733 Clear 32 999 15 10000 1.52 61 10:42 07.08.2022
734 Clear 31 1001 16 10000 1.41 53 09:35 07.08.2022
735 Clear 24 1005 30 10000 1.41 12 04:33 07.08.2022
736 Clear 21 1003 30 10000 0.74 345 01:59 07.08.2022
737 Clear 22 1003 27 10000 1.19 335 22:33 06.08.2022
738 Clear 23 1003 27 10000 1.23 332 21:48 06.08.2022
739 Clear 25 1002 32 10000 2.64 13 19:43 06.08.2022
740 Clear 26 1002 27 10000 3.16 15 18:35 06.08.2022
741 Clear 26 1001 22 10000 2.85 8 17:44 06.08.2022
742 Clear 32 998 13 10000 4.73 75 15:21 06.08.2022
743 Clear 32 998 13 10000 4.55 67 13:50 06.08.2022
744 Clear 32 999 14 10000 3.2 70 12:21 06.08.2022
745 Clear 31 1000 15 10000 2.56 77 10:40 06.08.2022
746 Clear 29 1003 17 10000 1.5 68 09:24 06.08.2022
747 Clear 22 1006 26 10000 0.52 348 03:56 06.08.2022
748 Clear 21 1005 28 10000 0.76 329 00:27 06.08.2022
749 Clear 22 1005 26 10000 1.04 357 22:34 05.08.2022
750 Clear 23 1006 24 10000 1.89 353 20:37 05.08.2022
751 Clouds 26 1004 25 10000 2.84 20 18:55 05.08.2022
752 Clouds 26 1004 25 10000 2.84 20 18:36 05.08.2022
753 Clouds 27 1003 27 10000 1.41 277 16:52 05.08.2022
754 Clouds 30 1001 20 10000 6.89 317 15:24 05.08.2022
755 Clouds 30 1001 20 10000 6.89 317 14:34 05.08.2022
756 Clouds 32 1001 20 10000 3.85 1 13:26 05.08.2022
757 Clouds 32 1001 20 10000 3.85 1 12:59 05.08.2022
758 Clear 31 1002 19 10000 3.91 19 11:20 05.08.2022
759 Clear 29 1004 21 10000 1.63 65 08:46 05.08.2022
760 Clear 28 1005 22 10000 1.49 49 07:34 05.08.2022
761 Clear 22 1007 34 10000 0.88 341 02:33 05.08.2022
762 Clouds 24 1007 30 10000 1.11 4 23:18 04.08.2022
763 Clouds 25 1007 33 10000 2.43 10 21:28 04.08.2022
764 Clouds 25 1007 33 10000 2.43 10 20:57 04.08.2022
765 Clouds 25 1007 33 10000 2.43 10 20:35 04.08.2022
766 Clouds 26 1006 31 10000 2.32 14 18:58 04.08.2022
767 Clouds 26 1006 31 10000 2.32 14 18:33 04.08.2022
768 Clouds 28 1004 27 10000 6.03 298 15:51 04.08.2022
769 Clouds 31 1002 18 10000 2.35 348 13:26 04.08.2022
770 Clear 31 1003 18 10000 3.61 344 11:39 04.08.2022
771 Clear 30 1005 19 10000 1.2 90 10:21 04.08.2022
772 Clear 28 1007 23 10000 1.18 44 07:45 04.08.2022
773 Clear 21 1009 36 10000 1.22 328 02:48 04.08.2022
774 Clouds 21 1007 36 10000 0.93 355 00:33 04.08.2022
775 Clouds 22 1007 36 10000 1.33 344 23:39 03.08.2022
776 Clouds 24 1007 34 10000 1.38 4 21:27 03.08.2022
777 Clouds 25 1006 32 10000 2.43 7 20:21 03.08.2022
778 Clouds 26 1006 29 10000 2.19 336 19:19 03.08.2022
779 Clouds 28 1004 24 10000 0.96 72 16:48 03.08.2022
780 Clouds 29 1003 21 10000 2.07 339 16:22 03.08.2022
781 Clouds 30 1002 20 10000 3.89 354 13:40 03.08.2022
782 Clear 30 1004 20 10000 1.82 83 10:56 03.08.2022
783 Clear 25 1008 26 10000 1.15 44 07:26 03.08.2022
784 Clear 21 1009 34 10000 0.77 347 04:22 03.08.2022
785 Clear 20 1008 38 10000 0.85 344 03:23 03.08.2022
786 Clouds 20 1007 38 10000 1.63 350 00:49 03.08.2022
787 Clouds 22 1006 36 10000 1.56 5 22:37 02.08.2022
788 Clouds 22 1006 34 10000 1.85 5 21:51 02.08.2022
789 Clear 23 1006 38 10000 1.86 3 20:30 02.08.2022
790 Clouds 25 1005 34 10000 0.69 151 17:52 02.08.2022
791 Clouds 27 1003 30 10000 0.73 22 15:20 02.08.2022
792 Clear 30 1000 20 10000 1.54 359 10:51 02.08.2022
793 Clear 28 1002 23 10000 1.11 41 08:54 02.08.2022
794 Clear 27 1004 27 10000 1.46 40 07:52 02.08.2022
795 Clear 24 1005 39 10000 1.57 35 05:40 02.08.2022
796 Clear 21 1006 61 10000 1.23 20 03:40 02.08.2022
797 Clear 21 1005 63 10000 1.43 15 23:35 01.08.2022
798 Clear 22 1005 61 10000 1.9 42 22:21 01.08.2022
799 Clear 22 1005 59 10000 2.12 36 20:40 01.08.2022
800 Clouds 24 1004 52 10000 2.79 59 19:22 01.08.2022
801 Clouds 26 1001 40 10000 2.83 56 17:27 01.08.2022
802 Clouds 26 1001 40 10000 2.83 56 16:50 01.08.2022
803 Clouds 27 1000 36 10000 3.24 75 15:48 01.08.2022
804 Clear 29 999 27 10000 5.86 78 15:28 01.08.2022
805 Clear 31 998 20 10000 4.01 48 13:44 01.08.2022
806 Clear 30 1000 20 10000 3.13 59 11:49 01.08.2022
807 Clear 29 1001 23 10000 1.72 83 09:38 01.08.2022
808 Clear 26 1003 28 10000 1.25 52 08:20 01.08.2022
809 Clear 22 1005 37 10000 1.15 10 04:44 01.08.2022
810 Clear 20 1004 44 10000 1.36 354 02:31 01.08.2022
811 Clouds 21 1003 42 10000 1.06 20 23:42 31.07.2022
812 Clouds 22 1003 40 10000 1.48 9 22:36 31.07.2022
813 Clouds 23 1003 36 10000 1.89 358 20:49 31.07.2022
814 Clouds 24 1001 35 10000 1.09 2 19:25 31.07.2022
815 Clouds 25 1002 33 10000 0.35 131 17:43 31.07.2022
816 Clouds 25 1001 32 10000 0.48 257 15:30 31.07.2022
817 Clouds 25 1001 39 10000 3.17 251 13:21 31.07.2022
818 Clouds 29 1000 29 10000 8.22 262 11:45 31.07.2022
819 Clear 29 1001 22 10000 1.37 92 09:27 31.07.2022
820 Clouds 26 1003 24 10000 1.27 37 06:37 31.07.2022
821 Clear 22 1004 33 10000 1.45 343 02:56 31.07.2022
822 Clear 23 1003 32 10000 1.75 8 23:23 30.07.2022
823 Clear 24 1004 31 10000 1.98 29 22:19 30.07.2022
824 Clear 24 1004 31 10000 1.98 29 21:40 30.07.2022
825 Clear 24 1004 29 10000 2.38 15 20:51 30.07.2022
826 Clear 25 1003 31 10000 2.79 20 19:57 30.07.2022
827 Clear 27 1003 27 10000 4.14 34 18:23 30.07.2022
828 Clear 28 1002 21 10000 4.05 31 16:44 30.07.2022
829 Clouds 30 1001 18 10000 6.27 10 15:34 30.07.2022
830 Clouds 32 1000 15 10000 5.49 356 14:32 30.07.2022
831 Clouds 32 1000 14 10000 2.29 45 12:43 30.07.2022
832 Clouds 31 1001 15 10000 2.1 54 11:55 30.07.2022
833 Clouds 30 1003 18 10000 2.16 32 10:20 30.07.2022
834 Clouds 30 1003 18 10000 2.16 32 09:45 30.07.2022
835 Clouds 29 1005 20 10000 1.93 39 07:44 30.07.2022
836 Clouds 22 1006 59 10000 1.38 13 02:34 30.07.2022
837 Clouds 22 1006 59 10000 1.38 13 02:34 30.07.2022
838 Clouds 22 1005 60 10000 1.27 11 01:43 30.07.2022
839 Clouds 24 1006 63 10000 1 69 21:39 29.07.2022
840 Clear 24 1006 60 10000 1.76 53 20:58 29.07.2022
841 Clear 25 1006 56 10000 2.27 71 19:48 29.07.2022
842 Clouds 27 1005 47 10000 5.77 55 17:40 29.07.2022
843 Clouds 32 1001 21 10000 8.3 43 15:19 29.07.2022
844 Clear 35 1000 14 10000 3.54 31 12:59 29.07.2022
845 Clear 32 1003 19 10000 1.51 87 09:49 29.07.2022
846 Clear 31 1004 22 10000 1.52 87 08:48 29.07.2022
847 Clear 30 1005 25 10000 1.41 57 07:39 29.07.2022
848 Clouds 22 1006 76 10000 0.73 43 01:46 29.07.2022
849 Clear 24 1007 70 10000 1.34 54 21:57 28.07.2022
850 Clear 24 1007 69 10000 1.73 58 20:59 28.07.2022
851 Clouds 25 1007 68 10000 2.6 60 20:27 28.07.2022
852 Clear 25 1007 67 10000 2.54 59 19:42 28.07.2022
853 Clear 26 1006 61 10000 3.47 69 18:27 28.07.2022
854 Clear 26 1006 61 10000 3.47 69 17:43 28.07.2022
855 Clear 28 1004 51 10000 5.54 66 16:41 28.07.2022
856 Clear 33 1001 24 10000 6.22 66 15:24 28.07.2022
857 Clouds 34 1002 17 10000 1.97 76 12:51 28.07.2022
858 Clear 32 1005 22 10000 1.49 88 09:45 28.07.2022
859 Clear 26 1008 50 10000 1.47 46 06:24 28.07.2022
860 Clear 24 1009 64 10000 1.27 43 05:26 28.07.2022
861 Clear 23 1007 75 10000 1.43 42 00:45 28.07.2022
862 Clear 23 1007 72 10000 1.68 52 22:31 27.07.2022
863 Clear 24 1007 67 10000 2.46 53 20:56 27.07.2022
864 Clear 25 1007 63 10000 2.64 60 19:34 27.07.2022
865 Clear 28 1004 49 10000 3.7 64 17:23 27.07.2022
866 Clear 30 1002 37 10000 5.2 85 15:52 27.07.2022
867 Clear 32 1001 24 10000 4.57 85 14:48 27.07.2022
868 Clear 32 1001 24 10000 4.57 85 14:30 27.07.2022
869 Clouds 34 1002 17 10000 2.39 72 12:48 27.07.2022
870 Clear 29 1007 29 10000 1.53 73 07:53 27.07.2022
871 Clouds 26 1008 46 10000 1.35 46 06:18 27.07.2022
872 Clouds 23 1008 75 10000 1.31 41 00:46 27.07.2022
873 Clouds 24 1007 68 10000 2.1 57 22:25 26.07.2022
874 Clouds 24 1008 65 10000 2.16 63 21:20 26.07.2022
875 Clouds 24 1008 65 10000 2.17 62 21:20 26.07.2022
876 Clouds 25 1007 63 10000 2.51 66 19:59 26.07.2022
877 Clouds 26 1007 59 10000 2.74 68 18:41 26.07.2022
878 Clouds 27 1006 54 10000 3.32 68 17:57 26.07.2022
879 Clouds 29 1004 41 10000 3.42 84 15:50 26.07.2022
880 Clouds 31 1003 35 10000 5.2 90 14:49 26.07.2022
881 Clouds 33 1002 27 10000 3.79 78 12:50 26.07.2022
882 Clouds 31 1005 30 10000 2.29 76 10:58 26.07.2022
883 Clouds 29 1007 39 10000 1.96 76 08:43 26.07.2022
884 Clouds 25 1010 63 10000 1.69 59 05:30 26.07.2022
885 Clouds 23 1009 75 10000 1.26 47 00:27 26.07.2022
886 Clouds 23 1009 74 10000 1.55 45 22:51 25.07.2022
887 Clouds 23 1009 72 10000 1.8 42 22:22 25.07.2022
888 Clouds 23 1009 72 10000 1.8 42 21:38 25.07.2022
889 Clouds 24 1009 69 10000 1.98 43 20:40 25.07.2022
890 Clouds 25 1008 64 10000 2.72 55 19:27 25.07.2022
891 Clouds 26 1007 59 10000 2.98 69 18:18 25.07.2022
892 Clouds 27 1006 53 10000 3.58 70 17:26 25.07.2022
893 Clouds 31 1003 35 10000 6.36 86 14:23 25.07.2022
894 Clouds 32 1003 29 10000 4.54 81 11:50 25.07.2022
895 Clouds 29 1006 36 10000 2.33 67 08:32 25.07.2022
896 Clouds 21 1008 78 10000 1.5 37 02:21 25.07.2022
897 Clouds 22 1008 74 10000 1.46 40 23:51 24.07.2022
898 Clouds 22 1007 71 10000 1.57 53 22:54 24.07.2022
899 Clouds 23 1007 68 10000 1.38 54 22:24 24.07.2022
900 Clear 23 1007 66 10000 1.63 55 21:19 24.07.2022
901 Clear 23 1007 66 10000 1.63 55 20:47 24.07.2022
902 Clouds 24 1007 59 10000 2.17 56 19:54 24.07.2022
903 Clouds 25 1006 53 10000 2.37 61 18:30 24.07.2022
904 Clouds 25 1006 53 10000 2.37 61 18:30 24.07.2022
905 Clouds 28 1003 39 10000 3.79 74 16:28 24.07.2022
906 Clouds 28 1003 39 10000 3.79 74 15:45 24.07.2022
907 Clouds 31 1001 32 10000 4.95 78 13:54 24.07.2022
908 Clear 32 1001 29 10000 5.73 91 12:52 24.07.2022
909 Clear 32 1001 28 10000 4.98 89 11:37 24.07.2022
910 Clouds 32 1002 28 10000 3.96 83 10:59 24.07.2022
911 Clear 29 1005 34 10000 2.66 73 08:31 24.07.2022
912 Clouds 28 1005 38 10000 2.32 66 07:47 24.07.2022
913 Clouds 24 1007 59 10000 1.34 58 04:45 24.07.2022
914 Clouds 22 1007 67 10000 1.45 38 23:51 23.07.2022
915 Clouds 23 1007 64 10000 1.74 28 20:59 23.07.2022
916 Clouds 23 1007 63 10000 1.65 36 19:44 23.07.2022
917 Clouds 24 1008 60 10000 2.57 52 18:50 23.07.2022
918 Clouds 24 1007 60 10000 2.97 64 17:28 23.07.2022
919 Clouds 24 1007 60 10000 2.93 64 16:33 23.07.2022
920 Clouds 27 1004 49 10000 5.78 72 15:22 23.07.2022
921 Clouds 27 1004 49 10000 5.78 72 14:58 23.07.2022
922 Clouds 28 1004 46 10000 5.51 76 14:26 23.07.2022
923 Clouds 31 1002 37 10000 6.32 80 12:44 23.07.2022
924 Clouds 31 1003 36 10000 3.91 77 10:45 23.07.2022
925 Clouds 30 1004 39 10000 3.38 68 09:56 23.07.2022
926 Clouds 28 1005 43 10000 2.96 62 08:31 23.07.2022
927 Clouds 22 1008 77 10000 1.43 46 03:38 23.07.2022
928 Clouds 22 1007 78 10000 1.91 49 00:41 23.07.2022
929 Clouds 23 1006 72 10000 1.76 54 22:19 22.07.2022
930 Clouds 23 1006 71 10000 1.98 59 20:51 22.07.2022
931 Clouds 24 1006 68 10000 1.94 56 19:34 22.07.2022
932 Clouds 25 1005 63 10000 3.33 64 18:28 22.07.2022
933 Clouds 26 1004 56 10000 3.33 69 16:48 22.07.2022
934 Clouds 28 1003 48 10000 2.32 82 14:40 22.07.2022
935 Clouds 29 1004 49 10000 3.94 69 10:59 22.07.2022
936 Clouds 27 1006 57 10000 3.4 75 09:25 22.07.2022
937 Clouds 26 1007 61 10000 4.04 78 08:27 22.07.2022
938 Clouds 24 1008 73 10000 2.31 45 04:48 22.07.2022
939 Clouds 23 1005 79 10000 2.59 43 23:45 21.07.2022
940 Clouds 24 1005 75 10000 2.55 60 22:25 21.07.2022
941 Clouds 24 1005 74 10000 2.01 29 20:48 21.07.2022
942 Clouds 25 1004 71 10000 3.03 47 19:23 21.07.2022
943 Clear 25 1004 70 10000 2.61 41 17:39 21.07.2022
944 Clear 26 1003 66 10000 3.76 66 17:19 21.07.2022
945 Clear 30 1000 48 10000 6.47 80 14:52 21.07.2022
946 Clear 32 999 37 10000 7.83 86 14:24 21.07.2022
947 Clear 35 998 19 10000 4.12 76 12:27 21.07.2022
948 Clear 34 999 18 10000 2.4 66 10:39 21.07.2022
949 Clear 32 1001 20 10000 1.05 63 08:54 21.07.2022
950 Clear 32 1001 20 10000 1.04 61 08:35 21.07.2022
951 Clear 29 1002 25 10000 1.44 68 07:23 21.07.2022
952 Clear 25 1002 22 10000 0.7 359 03:55 21.07.2022
953 Clear 25 1001 24 10000 1.37 334 23:26 20.07.2022
954 Clear 26 1002 24 10000 1.92 353 22:21 20.07.2022
955 Clear 26 1002 23 10000 2.01 1 20:50 20.07.2022
956 Clear 27 1001 19 10000 2.3 2 19:48 20.07.2022
957 Clear 28 1001 16 10000 2.74 13 19:20 20.07.2022
958 Clear 28 1001 16 10000 2.74 13 18:33 20.07.2022
959 Clear 30 1000 14 10000 2.72 25 17:43 20.07.2022
960 Clear 33 997 11 10000 1.96 61 16:19 20.07.2022
961 Clear 34 997 9 10000 1.73 78 14:57 20.07.2022
962 Clear 34 997 9 10000 1.87 88 13:53 20.07.2022
963 Clear 33 999 9 10000 1.45 92 11:32 20.07.2022
964 Clear 30 1003 12 10000 1.31 67 07:39 20.07.2022
965 Clear 22 1004 23 10000 1 336 02:44 20.07.2022
966 Clear 23 1003 21 10000 1.34 334 00:44 20.07.2022
967 Clear 24 1003 21 10000 1.69 342 22:41 19.07.2022
968 Clear 25 1003 21 10000 2.16 355 22:21 19.07.2022
969 Clear 26 1003 22 10000 2.34 359 20:54 19.07.2022
970 Clear 27 1002 23 10000 2.49 5 20:18 19.07.2022
971 Clear 28 1002 24 10000 2.63 17 18:43 19.07.2022
972 Clear 29 1001 19 10000 2.9 27 17:56 19.07.2022
973 Clear 32 999 11 10000 5.6 21 16:26 19.07.2022
974 Clear 34 998 9 10000 6.05 16 14:31 19.07.2022
975 Clear 34 999 11 10000 1.21 67 11:35 19.07.2022
976 Clear 34 1001 13 10000 1.41 72 10:31 19.07.2022
977 Clear 31 1003 19 10000 1.38 83 08:48 19.07.2022
978 Clear 30 1004 22 10000 1.36 68 08:22 19.07.2022
979 Clear 29 1005 27 10000 1.72 47 07:18 19.07.2022
980 Clear 26 1006 45 10000 1.66 38 05:26 19.07.2022
981 Clear 26 1006 45 10000 1.66 38 04:41 19.07.2022
982 Clear 24 1004 52 10000 1.1 37 00:34 19.07.2022
983 Clear 25 1004 48 10000 1.3 35 23:22 18.07.2022
984 Clear 25 1004 48 10000 1.3 35 22:56 18.07.2022
985 Clear 26 1004 46 10000 1.82 41 21:53 18.07.2022
986 Clear 26 1004 45 10000 2.15 41 20:50 18.07.2022
987 Clear 28 1004 43 10000 2.3 47 19:25 18.07.2022
988 Clear 29 1002 38 10000 3.14 71 17:22 18.07.2022
989 Clear 31 1001 32 10000 4.29 91 15:46 18.07.2022
990 Clear 33 1000 24 10000 3.72 76 14:24 18.07.2022
991 Clear 33 1001 23 10000 3.03 71 12:45 18.07.2022
992 Clear 32 1003 26 10000 2.27 69 11:29 18.07.2022
993 Clear 30 1006 33 10000 1.78 72 08:51 18.07.2022
994 Clear 27 1008 48 10000 1.58 62 06:58 18.07.2022
995 Clear 23 1008 64 10000 1.15 44 00:36 18.07.2022
996 Clear 24 1008 58 10000 1.59 46 22:37 17.07.2022
997 Clear 24 1008 55 10000 1.81 45 21:49 17.07.2022
998 Clear 25 1008 51 10000 1.86 45 21:18 17.07.2022
999 Clear 25 1008 51 10000 1.86 45 20:37 17.07.2022
1000 Clear 26 1008 43 10000 1.85 49 19:29 17.07.2022
1001 Clear 27 1007 39 10000 2.59 70 18:27 17.07.2022
1002 Clear 27 1007 39 10000 2.59 70 17:38 17.07.2022
1003 Clear 27 1006 36 10000 3.58 73 16:50 17.07.2022
1004 Clear 28 1005 33 10000 4.1 79 16:26 17.07.2022
1005 Clear 30 1004 25 10000 5 82 14:37 17.07.2022
1006 Clear 31 1004 25 10000 6.23 83 13:30 17.07.2022
1007 Clear 31 1005 26 10000 6.05 85 11:32 17.07.2022
1008 Clear 29 1007 31 10000 3.35 67 08:57 17.07.2022
1009 Clear 24 1010 38 10000 1.8 25 03:43 17.07.2022
1010 Clear 23 1010 39 10000 1.67 18 02:32 17.07.2022
1011 Clear 24 1007 43 10000 1.66 22 23:20 16.07.2022
1012 Clear 25 1007 43 10000 2.01 32 21:25 16.07.2022
1013 Clear 26 1006 38 10000 2.03 38 19:26 16.07.2022
1014 Clear 27 1005 36 10000 2.21 57 18:27 16.07.2022
1015 Clear 27 1004 33 10000 3.02 80 16:31 16.07.2022
1016 Clear 31 1003 16 10000 4.19 77 13:47 16.07.2022
1017 Clear 30 1005 12 10000 2.94 79 10:50 16.07.2022
1018 Clear 29 1005 12 10000 2.47 71 09:32 16.07.2022
1019 Clear 28 1006 14 10000 1.89 62 08:43 16.07.2022
1020 Clear 27 1007 17 10000 1.7 54 08:19 16.07.2022
1021 Clear 22 1009 51 10000 0.55 34 03:58 16.07.2022
1022 Clear 21 1008 57 10000 0.61 339 02:40 16.07.2022
1023 Clear 22 1008 60 10000 1.33 29 23:29 15.07.2022
1024 Clear 22 1008 60 10000 1.33 29 22:39 15.07.2022
1025 Clear 23 1008 57 10000 2.21 52 21:28 15.07.2022
1026 Clear 23 1008 54 10000 2.36 53 20:24 15.07.2022
1027 Clear 24 1007 51 10000 2.51 57 18:40 15.07.2022
1028 Clear 25 1006 47 10000 3.1 61 17:37 15.07.2022
1029 Clear 28 1003 30 10000 6.19 93 14:53 15.07.2022
1030 Clear 31 1002 17 10000 3.98 87 12:57 15.07.2022
1031 Clear 30 1004 21 10000 2.98 72 11:20 15.07.2022
1032 Clear 28 1006 26 10000 2.22 58 09:21 15.07.2022
1033 Clouds 24 1008 42 10000 1.91 34 06:24 15.07.2022
1034 Clear 21 1006 54 10000 1.96 17 00:53 15.07.2022
1035 Clear 22 1005 54 10000 1.74 21 00:21 15.07.2022
1036 Clear 22 1005 55 10000 2.07 26 22:45 14.07.2022
1037 Clear 22 1005 55 10000 2.2 29 21:46 14.07.2022
1038 Clear 23 1004 55 10000 2.39 45 21:28 14.07.2022
1039 Clear 23 1004 55 10000 2.39 45 20:44 14.07.2022
1040 Clear 24 1003 49 10000 4.07 51 20:20 14.07.2022
1041 Clear 25 1003 38 10000 3.39 40 18:52 14.07.2022
1042 Clear 29 999 23 10000 4.55 80 16:22 14.07.2022
1043 Clear 29 999 23 10000 4.55 80 15:30 14.07.2022
1044 Clear 31 998 14 10000 4.47 76 13:53 14.07.2022
1045 Clear 31 998 14 10000 4.47 76 13:53 14.07.2022
1046 Clear 31 998 14 10000 3.46 67 12:53 14.07.2022
1047 Clear 31 999 14 10000 2.8 68 11:43 14.07.2022
1048 Clear 30 1000 14 10000 2.26 72 11:22 14.07.2022
1049 Clear 29 1001 15 10000 2.04 75 09:54 14.07.2022
1050 Clear 25 1005 19 10000 1.06 41 06:54 14.07.2022
1051 Clear 19 1004 30 10000 1.07 326 01:25 14.07.2022
1052 Clear 19 1004 30 10000 1.07 326 00:53 14.07.2022
1053 Clouds 21 1004 27 10000 1.51 352 22:33 13.07.2022
1054 Clouds 21 1004 26 10000 1.93 12 21:57 13.07.2022
1055 Clouds 22 1004 25 10000 1.83 2 20:53 13.07.2022
1056 Clear 23 1003 23 10000 2.34 20 19:30 13.07.2022
1057 Clear 25 1001 21 10000 3.31 26 17:51 13.07.2022
1058 Clear 26 1000 20 10000 3.61 33 16:43 13.07.2022
1059 Clouds 29 998 17 10000 8.41 7 15:24 13.07.2022
1060 Clear 31 998 15 10000 3.87 29 12:56 13.07.2022
1061 Clear 31 998 15 10000 3.87 29 12:56 13.07.2022
1062 Clear 30 999 15 10000 2.05 41 10:46 13.07.2022
1063 Clear 29 1000 16 10000 1.55 55 10:24 13.07.2022
1064 Clear 28 1001 17 10000 1.25 62 09:25 13.07.2022
1065 Clear 26 1003 19 10000 1.24 35 06:46 13.07.2022
1066 Clear 21 1004 29 10000 0.08 7 02:38 13.07.2022
1067 Clear 22 1003 26 10000 1.4 346 23:51 12.07.2022
1068 Clouds 23 1003 24 10000 1.92 358 21:58 12.07.2022
1069 Clouds 23 1003 24 10000 1.92 358 21:32 12.07.2022
1070 Clouds 24 1004 23 10000 1.82 1 20:41 12.07.2022
1071 Clear 25 1003 21 10000 3.11 2 19:28 12.07.2022
1072 Clear 26 1002 20 10000 3.44 10 17:50 12.07.2022
1073 Clear 29 1000 17 10000 5.98 14 16:20 12.07.2022
1074 Clouds 31 999 15 10000 7.44 10 14:31 12.07.2022
1075 Clear 32 999 19 10000 2.61 44 12:48 12.07.2022
1076 Clear 31 1001 25 10000 1.79 71 11:26 12.07.2022
1077 Clear 30 1002 28 10000 1.42 83 10:18 12.07.2022
1078 Clear 30 1002 28 10000 1.42 83 10:18 12.07.2022
1079 Clear 28 1004 29 10000 1.32 70 08:24 12.07.2022
1080 Clear 26 1005 35 10000 1.23 55 06:59 12.07.2022
1081 Clear 25 1006 40 10000 1.15 43 05:42 12.07.2022
1082 Clear 22 1006 41 10000 0.52 332 02:52 12.07.2022
1083 Clouds 23 1005 39 10000 1.55 339 23:42 11.07.2022
1084 Clouds 23 1005 49 10000 1.64 331 22:31 11.07.2022
1085 Clouds 24 1004 57 10000 2.47 25 20:41 11.07.2022
1086 Clouds 25 1004 57 10000 2.73 34 19:50 11.07.2022
1087 Clouds 25 1004 58 10000 3.18 50 18:32 11.07.2022
1088 Clouds 26 1003 57 10000 3.18 63 17:53 11.07.2022
1089 Clear 27 1001 52 10000 5.31 62 16:21 11.07.2022
1090 Clear 30 999 43 10000 5.12 75 14:49 11.07.2022
1091 Clear 32 1000 32 10000 3.73 60 12:18 11.07.2022
1092 Clear 31 1001 33 10000 2.5 67 10:37 11.07.2022
1093 Clear 30 1002 37 10000 1.7 80 09:49 11.07.2022
1094 Clear 29 1002 39 10000 1.26 81 08:35 11.07.2022
1095 Clear 26 1005 45 10000 1.34 56 07:24 11.07.2022
1096 Clouds 23 1004 40 10000 1.28 337 00:23 11.07.2022
1097 Clouds 23 1004 40 10000 1.28 337 23:32 10.07.2022
1098 Clouds 23 1004 56 10000 1.81 355 22:21 10.07.2022
1099 Clouds 24 1004 60 10000 2.7 11 20:54 10.07.2022
1100 Clouds 25 1003 56 10000 3.51 34 19:50 10.07.2022
1101 Clouds 25 1003 60 10000 3.05 44 18:53 10.07.2022
1102 Clear 26 1002 59 10000 3.38 49 17:41 10.07.2022
1103 Clear 26 1000 56 10000 3.79 62 16:59 10.07.2022
1104 Clear 28 999 52 10000 4.27 71 16:20 10.07.2022
1105 Clear 29 998 45 10000 5.33 71 14:35 10.07.2022
1106 Clear 32 998 35 10000 7.98 80 12:38 10.07.2022
1107 Clear 33 998 26 10000 5.26 74 11:34 10.07.2022
1108 Clear 30 1000 24 10000 1.45 53 09:28 10.07.2022
1109 Clear 30 1000 24 10000 1.45 53 08:38 10.07.2022
1110 Clear 26 1003 29 10000 0.82 24 05:36 10.07.2022
1111 Clouds 23 1002 31 10000 1.02 311 23:32 09.07.2022
1112 Clouds 24 1002 30 10000 1.44 5 22:26 09.07.2022
1113 Clouds 24 1002 30 10000 1.44 5 22:26 09.07.2022
1114 Clouds 24 1002 30 10000 1.44 5 21:40 09.07.2022
1115 Clear 27 1000 27 10000 3.51 9 19:19 09.07.2022
1116 Clear 28 1000 24 10000 3.71 10 18:23 09.07.2022
1117 Clear 29 999 15 10000 3.61 30 17:18 09.07.2022
1118 Clear 31 997 11 10000 6.48 10 15:56 09.07.2022
1119 Clear 31 997 11 10000 6.48 10 15:36 09.07.2022
1120 Clear 34 996 9 10000 3.5 19 13:54 09.07.2022
1121 Clear 34 997 9 10000 2.28 35 13:28 09.07.2022
1122 Clear 34 998 10 10000 1.94 44 11:40 09.07.2022
1123 Clear 32 1000 12 10000 1.29 53 10:25 09.07.2022
1124 Clear 31 1001 14 10000 1.02 55 09:23 09.07.2022
1125 Clear 30 1002 16 10000 1.49 37 07:43 09.07.2022
1126 Clear 25 1004 22 10000 0.48 1 04:38 09.07.2022
1127 Clouds 24 1003 39 10000 1.52 347 23:33 08.07.2022
1128 Clouds 25 1002 41 10000 2.07 14 22:18 08.07.2022
1129 Clouds 26 1002 41 10000 2.08 16 21:21 08.07.2022
1130 Clouds 26 1002 41 10000 2.08 16 20:35 08.07.2022
1131 Clear 28 1002 38 10000 2.37 25 18:45 08.07.2022
1132 Clear 29 1001 38 10000 3.47 36 17:45 08.07.2022
1133 Clear 32 999 31 10000 4.77 69 16:24 08.07.2022
1134 Clear 33 998 25 10000 4.5 54 14:50 08.07.2022
1135 Clear 33 999 25 10000 1.63 38 12:31 08.07.2022
1136 Clear 32 1001 27 10000 0.95 58 10:46 08.07.2022
1137 Clear 31 1003 29 10000 0.74 75 09:42 08.07.2022
1138 Clear 27 1006 35 10000 1.06 33 06:59 08.07.2022
1139 Clear 26 1006 41 10000 1.02 26 05:33 08.07.2022
1140 Clouds 24 1006 43 10000 1.2 6 00:30 08.07.2022
1141 Clouds 24 1006 40 10000 1.23 353 22:47 07.07.2022
1142 Clouds 25 1006 38 10000 1.29 347 21:46 07.07.2022
1143 Clouds 26 1005 36 10000 1.72 6 19:34 07.07.2022
1144 Clouds 28 1005 44 10000 2.31 29 17:43 07.07.2022
1145 Clouds 30 1003 43 10000 3.92 66 15:58 07.07.2022
1146 Clouds 32 1002 33 10000 2.75 59 13:32 07.07.2022
1147 Clouds 31 1003 34 10000 2.06 54 12:40 07.07.2022
1148 Clouds 31 1004 35 10000 1.61 56 12:21 07.07.2022
1149 Clouds 31 1004 35 10000 1.61 56 11:32 07.07.2022
1150 Clouds 30 1005 37 10000 1.49 61 10:45 07.07.2022
1151 Clouds 29 1007 40 10000 1.47 55 10:26 07.07.2022
1152 Clouds 28 1008 44 10000 1.49 49 08:40 07.07.2022
1153 Clouds 24 1011 57 10000 0.88 29 05:44 07.07.2022
1154 Clouds 22 1009 64 10000 0.8 38 23:54 06.07.2022
1155 Clouds 22 1009 64 10000 0.8 38 23:36 06.07.2022
1156 Clouds 22 1009 63 10000 0.74 19 23:18 06.07.2022
1157 Clouds 22 1009 63 10000 0.74 19 22:46 06.07.2022
1158 Clouds 23 1009 61 10000 0.57 78 22:28 06.07.2022
1159 Clouds 22 1010 65 10000 1.95 190 19:45 06.07.2022
1160 Clouds 21 1010 67 10000 1.42 218 18:41 06.07.2022
1161 Clouds 20 1011 77 10000 1.03 168 16:43 06.07.2022
1162 Clouds 19 1010 88 4169 3.24 182 15:39 06.07.2022
1163 Clouds 29 1003 49 10000 4.96 355 12:44 06.07.2022
1164 Clear 32 1001 37 10000 5.75 60 11:49 06.07.2022
1165 Clear 32 1002 34 10000 3.09 71 10:22 06.07.2022
1166 Clouds 31 1003 37 10000 2.18 62 08:41 06.07.2022
1167 Clouds 30 1004 41 10000 2.12 62 07:36 06.07.2022
1168 Clouds 27 1006 47 10000 1.23 48 05:31 06.07.2022
1169 Clouds 25 1004 54 10000 0.68 185 22:49 05.07.2022
1170 Clouds 25 1004 53 10000 0.7 160 21:59 05.07.2022
1171 Clouds 25 1004 54 10000 0.2 298 20:41 05.07.2022
1172 Clouds 26 1004 45 10000 1.18 185 19:43 05.07.2022
1173 Clouds 26 1003 45 10000 1.56 216 19:22 05.07.2022
1174 Clouds 28 1002 40 10000 1.67 207 17:48 05.07.2022
1175 Clouds 30 1000 33 10000 1.31 60 16:56 05.07.2022
1176 Clouds 31 999 34 10000 3.82 69 15:37 05.07.2022
1177 Clouds 32 997 31 10000 5.79 72 14:31 05.07.2022
1178 Clear 35 996 17 10000 3.67 27 12:47 05.07.2022
1179 Clear 35 997 18 10000 2.34 24 11:52 05.07.2022
1180 Clear 34 999 19 10000 1.72 24 10:42 05.07.2022
1181 Clear 32 1001 23 10000 1.47 18 09:24 05.07.2022
1182 Clouds 30 1002 26 10000 1.44 20 07:52 05.07.2022
1183 Clouds 26 1005 42 10000 1.35 8 05:29 05.07.2022
1184 Clouds 24 1005 44 10000 1.23 356 04:24 05.07.2022
1185 Clouds 24 1003 40 10000 1.42 359 00:26 05.07.2022
1186 Clouds 24 1003 40 10000 1.42 359 23:31 04.07.2022
1187 Clouds 25 1003 43 10000 1.57 2 22:27 04.07.2022
1188 Clouds 25 1003 43 10000 1.57 2 21:41 04.07.2022
1189 Clouds 26 1002 45 10000 1.95 5 20:53 04.07.2022
1190 Clouds 26 1002 45 10000 1.95 5 20:33 04.07.2022
1191 Clouds 27 1002 43 10000 3.29 12 19:54 04.07.2022
1192 Clouds 27 1002 43 10000 3.29 12 19:35 04.07.2022
1193 Clear 29 1000 35 10000 2.99 33 17:58 04.07.2022
1194 Clear 32 998 26 10000 5.2 54 15:50 04.07.2022
1195 Clear 32 998 28 10000 5.06 55 15:31 04.07.2022
1196 Clear 36 997 16 10000 5.27 68 13:29 04.07.2022
1197 Clear 36 998 16 10000 4.26 61 12:20 04.07.2022
1198 Clear 35 999 17 10000 3.33 55 10:34 04.07.2022
1199 Clear 34 1000 20 10000 2.71 55 09:41 04.07.2022
1200 Clear 32 1001 26 10000 2.11 45 07:33 04.07.2022
1201 Clear 25 1004 64 10000 0.58 25 03:36 04.07.2022
1202 Clear 24 1003 71 10000 1.27 34 00:35 04.07.2022
1203 Clear 25 1002 66 10000 1.37 44 22:58 03.07.2022
1204 Clear 26 1002 61 10000 2.04 62 20:58 03.07.2022
1205 Clear 27 1002 58 10000 2.53 54 20:25 03.07.2022
1206 Clear 27 1001 55 10000 2.48 54 19:27 03.07.2022
1207 Clear 27 1001 55 10000 2.48 55 18:35 03.07.2022
1208 Clear 28 1000 51 10000 2.63 61 17:43 03.07.2022
1209 Clear 31 998 34 10000 5.6 85 15:49 03.07.2022
1210 Clear 34 997 22 10000 5 77 14:58 03.07.2022
1211 Clear 35 997 17 10000 3.07 57 14:18 03.07.2022
1212 Clear 35 997 12 10000 1.98 35 13:48 03.07.2022
1213 Clear 35 997 12 10000 1.72 30 12:33 03.07.2022
1214 Clear 34 999 14 10000 1.31 24 11:20 03.07.2022
1215 Clear 34 999 14 10000 1.31 21 10:38 03.07.2022
1216 Clear 33 1000 16 10000 1.16 30 09:31 03.07.2022
1217 Clear 30 1002 24 10000 1.19 34 07:34 03.07.2022
1218 Clear 22 1003 47 10000 1.45 27 01:42 03.07.2022
1219 Clear 23 1002 47 10000 1.83 29 23:50 02.07.2022
1220 Clear 24 1002 41 10000 1.9 30 22:33 02.07.2022
1221 Clear 26 1002 29 10000 2.27 24 20:37 02.07.2022
1222 Clear 27 1001 22 10000 2.34 19 19:51 02.07.2022
1223 Clear 28 1000 17 10000 2.7 16 19:20 02.07.2022
1224 Clear 29 999 14 10000 2.73 10 17:41 02.07.2022
1225 Clear 30 998 13 10000 3.02 12 16:49 02.07.2022
1226 Clear 35 996 8 10000 1.96 32 13:52 02.07.2022
1227 Clear 34 998 9 10000 1.57 87 12:19 02.07.2022
1228 Clear 33 999 10 10000 1.4 99 10:54 02.07.2022
1229 Clear 33 999 10 10000 1.4 99 10:33 02.07.2022
1230 Clear 31 1001 11 10000 1.18 97 08:54 02.07.2022
1231 Clear 30 1002 11 10000 1.21 68 08:19 02.07.2022
1232 Clear 28 1003 13 10000 1.2 54 06:51 02.07.2022
1233 Clear 22 1003 27 10000 1.23 344 01:44 02.07.2022
1234 Clear 23 1002 30 10000 1.88 3 23:37 01.07.2022
1235 Clear 24 1003 29 10000 1.52 360 22:40 01.07.2022
1236 Clear 25 1003 26 10000 1.5 7 21:40 01.07.2022
1237 Clear 25 1003 23 10000 1.51 11 20:59 01.07.2022
1238 Clear 25 1003 23 10000 1.51 11 20:37 01.07.2022
1239 Clear 26 1003 20 10000 1.28 25 19:41 01.07.2022
1240 Clear 28 1002 16 10000 2.39 29 17:53 01.07.2022
1241 Clear 31 999 13 10000 7.16 29 15:50 01.07.2022
1242 Clear 34 998 9 10000 8.33 22 13:54 01.07.2022
1243 Clear 35 999 8 10000 7.38 22 11:50 01.07.2022
1244 Clear 34 1001 8 10000 2.05 28 10:20 01.07.2022
1245 Clear 34 1001 8 10000 2.05 28 09:31 01.07.2022
1246 Clear 25 1005 17 10000 1.09 284 03:42 01.07.2022
1247 Clear 23 1004 20 10000 0.97 321 00:26 01.07.2022
1248 Clear 24 1004 20 10000 1.14 333 22:58 30.06.2022
1249 Clear 24 1004 20 10000 1.14 333 22:33 30.06.2022
1250 Clear 25 1004 18 10000 1.56 342 21:59 30.06.2022
1251 Clear 25 1004 18 10000 1.56 342 21:41 30.06.2022
1252 Clear 26 1003 17 10000 1.21 25 20:29 30.06.2022
1253 Clear 26 1003 17 10000 1.21 25 19:54 30.06.2022
1254 Clear 27 1003 17 10000 1.78 359 19:19 30.06.2022
1255 Clear 27 1003 17 10000 1.78 360 18:42 30.06.2022
1256 Clear 28 1002 15 10000 2.55 14 17:43 30.06.2022
1257 Clear 30 1000 14 10000 3.76 16 16:48 30.06.2022
1258 Clear 32 999 12 10000 6.08 18 15:38 30.06.2022
1259 Clear 34 997 10 10000 9.58 10 13:34 30.06.2022
1260 Clear 35 998 9 10000 8.45 15 12:35 30.06.2022
1261 Clear 35 998 8 10000 6.05 16 11:37 30.06.2022
1262 Clear 33 1001 9 10000 2.06 27 09:54 30.06.2022
1263 Clear 33 1001 9 10000 2.11 23 09:34 30.06.2022
1264 Clear 31 1003 10 10000 1.44 39 08:18 30.06.2022
1265 Clear 28 1005 14 10000 0.91 31 06:21 30.06.2022
1266 Clear 22 1003 23 10000 1.17 330 01:29 30.06.2022
1267 Clear 23 1002 22 10000 1.03 339 23:34 29.06.2022
1268 Clear 23 1002 21 10000 1.24 349 22:40 29.06.2022
1269 Clear 24 1002 20 10000 1.47 357 21:39 29.06.2022
1270 Clear 25 1002 18 10000 1.64 359 20:34 29.06.2022
1271 Clear 26 1002 18 10000 1.68 356 19:37 29.06.2022
1272 Clear 28 1001 16 10000 1.78 10 17:45 29.06.2022
1273 Clear 29 1000 15 10000 2.43 15 16:41 29.06.2022
1274 Clear 34 998 10 10000 5.35 21 15:26 29.06.2022
1275 Clear 35 998 8 10000 2.37 45 12:47 29.06.2022
1276 Clear 34 998 8 10000 1.92 57 11:32 29.06.2022
1277 Clear 33 1000 9 10000 1.44 71 09:33 29.06.2022
1278 Clear 30 1002 12 10000 1.36 52 08:26 29.06.2022
1279 Clear 26 1004 18 10000 0.81 6 05:19 29.06.2022
1280 Clear 22 1003 26 10000 0.86 346 01:48 29.06.2022
1281 Clear 23 1003 25 10000 0.98 357 00:37 29.06.2022
1282 Clear 24 1002 23 10000 1.29 359 22:56 28.06.2022
1283 Clear 24 1002 23 10000 1.29 359 22:34 28.06.2022
1284 Clear 25 1002 22 10000 1.37 8 21:55 28.06.2022
1285 Clear 25 1002 22 10000 1.37 8 21:33 28.06.2022
1286 Clear 26 1003 20 10000 1.57 5 20:50 28.06.2022
1287 Clear 26 1003 19 10000 1.46 358 19:34 28.06.2022
1288 Clear 27 1003 18 10000 1.75 8 18:53 28.06.2022
1289 Clear 28 1002 17 10000 1.94 18 17:42 28.06.2022
1290 Clear 31 1001 13 10000 6.28 23 16:24 28.06.2022
1291 Clear 31 1001 13 10000 6.35 22 15:53 28.06.2022
1292 Clear 34 1000 10 10000 7.84 11 14:21 28.06.2022
1293 Clear 35 999 10 10000 6.79 8 13:54 28.06.2022
1294 Clear 35 999 11 10000 2.82 18 13:20 28.06.2022
1295 Clear 34 1001 12 10000 1.34 55 11:21 28.06.2022
1296 Clear 33 1002 13 10000 1.29 68 09:36 28.06.2022
1297 Clear 32 1003 14 10000 1.2 64 08:44 28.06.2022
1298 Clear 31 1004 17 10000 1.15 52 07:43 28.06.2022
1299 Clear 30 1005 18 10000 1.01 49 07:19 28.06.2022
1300 Clear 23 1006 33 10000 0.95 324 01:33 28.06.2022
1301 Clear 24 1005 33 10000 1.33 354 23:44 27.06.2022
1302 Clear 25 1005 28 10000 1.41 358 22:54 27.06.2022
1303 Clear 26 1005 28 10000 1.63 23 21:38 27.06.2022
1304 Clear 27 1005 27 10000 1.81 30 20:53 27.06.2022
1305 Clear 27 1005 25 10000 1.78 23 19:40 27.06.2022
1306 Clear 28 1005 24 10000 1.87 23 18:33 27.06.2022
1307 Clear 31 1002 18 10000 1.83 42 16:36 27.06.2022
1308 Clear 33 1002 12 10000 1.44 53 15:24 27.06.2022
1309 Clear 34 1002 12 10000 1.35 67 13:39 27.06.2022
1310 Clear 33 1003 13 10000 1.39 73 12:56 27.06.2022
1311 Clear 33 1004 15 10000 1.54 57 10:35 27.06.2022
1312 Clear 31 1006 18 10000 1.06 50 09:23 27.06.2022
1313 Clear 31 1006 18 10000 1.06 50 08:31 27.06.2022
1314 Clear 30 1007 19 10000 1.38 44 07:38 27.06.2022
1315 Clear 25 1009 21 10000 0.9 356 03:58 27.06.2022
1316 Clear 22 1007 26 10000 0.46 346 01:18 27.06.2022
1317 Clear 24 1006 22 10000 0.99 2 22:27 26.06.2022
1318 Clear 25 1006 21 10000 1.1 20 20:53 26.06.2022
1319 Clear 26 1006 19 10000 1.72 30 19:59 26.06.2022
1320 Clear 27 1006 17 10000 1.76 32 18:32 26.06.2022
1321 Clear 28 1005 15 10000 1.39 45 17:33 26.06.2022
1322 Clear 31 1003 13 10000 1.28 45 15:31 26.06.2022
1323 Clear 32 1003 9 10000 2.43 54 13:55 26.06.2022
1324 Clear 32 1003 9 10000 2.22 55 13:23 26.06.2022
1325 Clear 32 1004 10 10000 1.99 60 11:31 26.06.2022
1326 Clear 31 1005 11 10000 1.27 60 10:28 26.06.2022
1327 Clear 31 1005 11 10000 1.27 60 10:28 26.06.2022
1328 Clear 31 1005 11 10000 1.27 60 09:39 26.06.2022
1329 Clear 28 1007 13 10000 1.28 61 07:46 26.06.2022
1330 Clear 21 1008 26 10000 1.14 303 03:19 26.06.2022
1331 Clear 21 1006 26 10000 0.89 308 00:36 26.06.2022
1332 Clear 21 1006 25 10000 0.98 319 00:18 26.06.2022
1333 Clear 22 1006 24 10000 0.94 338 23:24 25.06.2022
1334 Clear 23 1006 23 10000 0.81 346 22:28 25.06.2022
1335 Clear 23 1006 23 10000 0.81 346 21:50 25.06.2022
1336 Clear 23 1006 22 10000 0.81 4 21:20 25.06.2022
1337 Clear 23 1006 22 10000 0.81 4 20:30 25.06.2022
1338 Clear 24 1006 21 10000 0.93 6 19:55 25.06.2022
1339 Clear 24 1006 21 10000 0.85 353 19:55 25.06.2022
1340 Clear 26 1005 18 10000 2.1 12 18:21 25.06.2022
1341 Clear 27 1004 17 10000 3.62 8 17:25 25.06.2022
1342 Clouds 29 1003 14 10000 6.27 16 16:24 25.06.2022
1343 Clear 31 1002 12 10000 7.6 14 13:51 25.06.2022
1344 Clear 32 1002 12 10000 6.84 18 12:39 25.06.2022
1345 Clear 32 1002 12 10000 6.39 20 11:34 25.06.2022
1346 Clear 30 1005 13 10000 1.77 36 09:22 25.06.2022
1347 Clear 30 1005 13 10000 1.77 36 08:46 25.06.2022
1348 Clear 29 1006 14 10000 1.88 45 08:19 25.06.2022
1349 Clear 25 1008 19 10000 0.84 359 05:26 25.06.2022
1350 Clear 20 1006 25 10000 0.66 336 00:44 25.06.2022
1351 Clear 20 1006 25 10000 0.66 336 00:44 25.06.2022
1352 Clear 22 1006 22 10000 0.53 304 23:18 24.06.2022
1353 Clear 22 1006 22 10000 1.16 319 21:57 24.06.2022
1354 Clear 23 1007 21 10000 1.36 303 21:19 24.06.2022
1355 Clear 24 1007 19 10000 1.59 325 20:20 24.06.2022
1356 Clear 24 1007 19 10000 1.59 325 20:20 24.06.2022
1357 Clear 25 1007 17 10000 2.23 340 19:22 24.06.2022
1358 Clear 25 1007 17 10000 2.23 340 18:49 24.06.2022
1359 Clear 25 1007 17 10000 2.23 340 18:30 24.06.2022
1360 Clear 26 1007 16 10000 3.14 350 17:46 24.06.2022
1361 Clear 29 1004 12 10000 7.75 8 15:56 24.06.2022
1362 Clear 32 1003 8 10000 8.47 13 14:29 24.06.2022
1363 Clear 32 1003 9 10000 4.94 11 13:55 24.06.2022
1364 Clear 32 1003 9 10000 4.94 11 13:55 24.06.2022
1365 Clear 31 1005 11 10000 0.9 58 11:54 24.06.2022
1366 Clear 31 1005 11 10000 0.9 58 11:34 24.06.2022
1367 Clear 30 1006 14 10000 1.71 119 10:22 24.06.2022
1368 Clear 30 1006 14 10000 1.71 119 09:40 24.06.2022
1369 Clear 29 1007 16 10000 1.4 125 08:52 24.06.2022
1370 Clear 26 1009 23 10000 1.19 177 06:58 24.06.2022
1371 Clear 26 1009 23 10000 1.21 175 06:40 24.06.2022
1372 Clear 24 1009 26 10000 1.05 187 05:57 24.06.2022
1373 Clear 19 1010 40 10000 1.12 235 02:31 24.06.2022
1374 Clear 20 1009 36 10000 1.5 214 22:57 23.06.2022
1375 Clear 20 1009 36 10000 1.5 214 22:38 23.06.2022
1376 Clear 21 1010 37 10000 0.82 273 20:57 23.06.2022
1377 Clear 21 1010 37 10000 0.82 273 20:32 23.06.2022
1378 Clear 22 1010 31 10000 1.34 311 19:24 23.06.2022
1379 Clear 23 1010 29 10000 1.44 331 17:50 23.06.2022
1380 Clear 23 1009 30 10000 1.35 7 16:58 23.06.2022
1381 Clear 25 1009 26 10000 0.63 70 15:49 23.06.2022
1382 Clear 25 1009 24 10000 0.63 108 15:24 23.06.2022
1383 Clear 25 1009 22 10000 1.17 80 13:32 23.06.2022
1384 Clear 24 1012 26 10000 0.55 87 11:23 23.06.2022
1385 Clear 24 1012 26 10000 0.55 87 10:31 23.06.2022
1386 Clear 21 1014 34 10000 0.59 155 08:49 23.06.2022
1387 Clear 12 1018 72 10000 0.87 199 02:46 23.06.2022
1388 Clouds 12 1017 77 10000 0.65 231 00:26 23.06.2022
1389 Clouds 12 1018 77 10000 0.59 331 23:27 22.06.2022
1390 Clouds 12 1018 77 10000 0.59 331 22:39 22.06.2022
1391 Clouds 12 1019 78 10000 1.04 16 21:22 22.06.2022
1392 Clouds 12 1020 80 10000 0.82 183 20:34 22.06.2022
1393 Clouds 14 1018 58 10000 1 162 19:52 22.06.2022
1394 Rain 14 1018 56 10000 0.44 138 18:40 22.06.2022
1395 Rain 15 1016 55 10000 3.18 38 17:26 22.06.2022
1396 Clouds 15 1016 52 10000 2.83 37 16:18 22.06.2022
1397 Clouds 15 1015 52 10000 2.65 40 15:26 22.06.2022
1398 Clouds 15 1015 51 10000 2.18 47 14:18 22.06.2022
1399 Rain 15 1015 53 10000 2.22 10 13:37 22.06.2022
1400 Clouds 15 1015 52 10000 2.88 33 13:18 22.06.2022
1401 Clouds 14 1015 57 10000 2.64 2 11:48 22.06.2022
1402 Clouds 14 1015 59 10000 3.61 16 10:54 22.06.2022
1403 Clouds 13 1016 64 10000 4.7 18 09:59 22.06.2022
1404 Clouds 12 1014 67 10000 3.91 48 07:58 22.06.2022
1405 Rain 9 1011 82 10000 1.56 99 03:40 22.06.2022
1406 Rain 10 1007 83 6058 0.4 221 01:23 22.06.2022
1407 Rain 10 1007 82 6757 0.92 237 23:42 21.06.2022
1408 Clouds 11 1007 70 10000 1.16 137 21:49 21.06.2022
1409 Clouds 14 1006 58 10000 2.26 87 19:50 21.06.2022
1410 Rain 14 1005 56 10000 1.82 120 18:32 21.06.2022
1411 Rain 14 1005 54 10000 2.04 111 17:31 21.06.2022
1412 Clouds 16 1003 46 10000 3.14 82 13:45 21.06.2022
1413 Rain 14 1005 58 10000 4.03 112 11:31 21.06.2022
1414 Clouds 18 1002 35 10000 5.67 81 09:48 21.06.2022
1415 Clouds 18 1003 35 10000 4.8 79 08:47 21.06.2022
1416 Clouds 18 1003 35 10000 2.65 34 06:35 21.06.2022
1417 Clouds 14 1003 45 10000 1.41 11 00:44 21.06.2022
1418 Clouds 16 1004 38 10000 1.69 26 23:24 20.06.2022
1419 Clouds 17 1004 36 10000 1.75 30 21:54 20.06.2022
1420 Clouds 17 1004 34 10000 2.05 27 20:50 20.06.2022
1421 Clouds 17 1004 35 10000 2.14 61 19:39 20.06.2022
1422 Clouds 18 1004 35 10000 2.36 41 18:45 20.06.2022
1423 Clouds 18 1004 33 10000 3.72 20 17:59 20.06.2022
1424 Clouds 18 1004 33 10000 3.72 20 17:32 20.06.2022
1425 Clouds 21 1001 26 10000 10.46 19 15:56 20.06.2022
1426 Clouds 26 999 19 10000 7.75 23 12:54 20.06.2022
1427 Clouds 27 1000 18 10000 6.47 30 10:58 20.06.2022
1428 Clouds 25 1001 20 10000 2.65 38 09:41 20.06.2022
1429 Clear 24 1002 23 10000 0.96 56 08:44 20.06.2022
1430 Clear 20 1006 32 10000 1.59 38 06:19 20.06.2022
1431 Clear 15 1006 41 10000 1.12 356 02:29 20.06.2022
1432 Clear 16 1006 38 10000 0.65 3 00:26 20.06.2022
1433 Clear 17 1006 36 10000 0.56 31 22:59 19.06.2022
1434 Clear 17 1007 35 10000 0.79 39 21:58 19.06.2022
1435 Clear 17 1007 35 10000 0.79 39 21:40 19.06.2022
1436 Clear 18 1006 34 10000 1.8 4 20:39 19.06.2022
1437 Clouds 19 1006 31 10000 3.88 353 19:48 19.06.2022
1438 Clouds 20 1006 28 10000 5.49 345 18:57 19.06.2022
1439 Clouds 20 1006 28 10000 5.49 345 18:30 19.06.2022
1440 Clouds 22 1004 24 10000 7.04 359 17:22 19.06.2022
1441 Clouds 22 1004 24 10000 7.04 359 16:35 19.06.2022
1442 Clouds 24 1003 21 10000 8.22 358 15:43 19.06.2022
1443 Clouds 26 1002 18 10000 8.73 358 15:24 19.06.2022
1444 Clouds 27 1001 14 10000 11.1 348 14:20 19.06.2022
1445 Clouds 27 1001 14 10000 11.1 348 14:20 19.06.2022
1446 Clouds 27 1001 14 10000 11.1 348 13:37 19.06.2022
1447 Clear 28 1001 13 10000 10.3 11 11:40 19.06.2022
1448 Clear 28 1002 14 10000 8.81 6 10:47 19.06.2022
1449 Clear 27 1004 15 10000 7.18 0 08:54 19.06.2022
1450 Clear 26 1005 17 10000 3.92 359 08:22 19.06.2022
1451 Clear 23 1007 20 10000 2.69 344 05:59 19.06.2022
1452 Clear 17 1008 32 10000 1.67 278 02:59 19.06.2022
1453 Clear 17 1007 32 10000 0.95 294 00:26 19.06.2022
1454 Clear 17 1007 32 10000 0.95 294 23:36 18.06.2022
1455 Clear 18 1007 31 10000 0.82 315 22:55 18.06.2022
1456 Clear 18 1007 30 10000 0.94 338 21:52 18.06.2022
1457 Clear 19 1007 28 10000 1.92 358 20:49 18.06.2022
1458 Clear 20 1007 26 10000 3.28 358 19:48 18.06.2022
1459 Clear 21 1006 24 10000 4.22 5 18:54 18.06.2022
1460 Clear 22 1006 22 10000 4.85 12 17:54 18.06.2022
1461 Clouds 23 1004 21 10000 4.82 18 17:23 18.06.2022
1462 Clouds 25 1003 18 10000 7.24 18 15:38 18.06.2022
1463 Clear 26 1002 16 10000 8.74 21 14:49 18.06.2022
1464 Clear 27 1001 15 10000 9.7 19 13:54 18.06.2022
1465 Clear 29 1002 14 10000 6.98 26 11:58 18.06.2022
1466 Clear 28 1002 14 10000 4.11 24 10:57 18.06.2022
1467 Clear 26 1005 16 10000 1.86 23 09:29 18.06.2022
1468 Clear 26 1005 16 10000 1.86 23 08:33 18.06.2022
1469 Clear 25 1005 18 10000 1.59 17 07:32 18.06.2022
1470 Clear 19 1008 28 10000 0.82 269 04:20 18.06.2022
1471 Clear 17 1007 36 10000 1.38 286 01:27 18.06.2022
1472 Clear 17 1007 36 10000 1.38 286 01:27 18.06.2022
1473 Clear 17 1007 36 10000 1.38 286 00:50 18.06.2022
1474 Clear 17 1007 35 10000 1.35 306 00:22 18.06.2022
1475 Clear 18 1007 35 10000 0.77 315 23:29 17.06.2022
1476 Clear 18 1007 33 10000 0.88 358 21:44 17.06.2022
1477 Clear 20 1007 30 10000 2.18 2 20:29 17.06.2022
1478 Clear 21 1006 28 10000 3.19 356 19:19 17.06.2022
1479 Clear 22 1005 27 10000 3.94 1 17:47 17.06.2022
1480 Clear 23 1004 25 10000 5.18 354 16:44 17.06.2022
1481 Clouds 25 1003 22 10000 7.83 354 16:19 17.06.2022
1482 Clouds 25 1003 22 10000 7.83 354 15:37 17.06.2022
1483 Clouds 28 1001 17 10000 8.45 3 14:23 17.06.2022
1484 Clouds 28 1000 16 10000 8.84 3 13:57 17.06.2022
1485 Clouds 28 1000 16 10000 8.84 3 13:37 17.06.2022
1486 Clouds 28 1002 16 10000 7.04 7 12:20 17.06.2022
1487 Clouds 28 1002 16 10000 7.04 7 11:49 17.06.2022
1488 Clouds 28 1002 16 10000 7.04 7 11:30 17.06.2022
1489 Clear 28 1003 16 10000 7.65 16 08:45 17.06.2022
1490 Clouds 27 1004 17 10000 5.65 11 08:24 17.06.2022
1491 Clouds 26 1005 19 10000 3.43 12 06:35 17.06.2022
1492 Clouds 20 1006 26 10000 1.18 15 03:25 17.06.2022
1493 Clouds 21 1005 21 10000 2.3 1 01:27 17.06.2022
1494 Clouds 22 1005 21 10000 1.32 359 23:34 16.06.2022
1495 Clouds 22 1005 20 10000 1.63 349 22:40 16.06.2022
1496 Clouds 23 1006 19 10000 1.11 46 21:21 16.06.2022
1497 Clouds 23 1006 19 10000 1.11 46 20:50 16.06.2022
1498 Clear 22 1006 19 10000 0.97 62 20:21 16.06.2022
1499 Clouds 23 1005 18 10000 1.39 20 18:51 16.06.2022
1500 Clouds 24 1004 16 10000 3.54 359 17:50 16.06.2022
1501 Clouds 26 1004 15 10000 5.7 0 17:27 16.06.2022
1502 Clouds 27 1003 13 10000 7.62 5 16:20 16.06.2022
1503 Clouds 29 1001 12 10000 8.64 5 15:21 16.06.2022
1504 Clear 31 1001 11 10000 8.84 7 14:27 16.06.2022
1505 Clear 32 1001 10 10000 7.12 11 12:53 16.06.2022
1506 Clear 32 1001 10 10000 7.12 11 12:34 16.06.2022
1507 Clear 32 1001 10 10000 4.92 29 11:48 16.06.2022
1508 Clear 31 1002 11 10000 2.77 41 10:41 16.06.2022
1509 Clear 31 1003 12 10000 1.9 33 09:43 16.06.2022
1510 Clear 30 1004 13 10000 1.65 36 08:59 16.06.2022
1511 Clear 29 1005 16 10000 1.76 37 07:42 16.06.2022
1512 Clear 27 1005 18 10000 1.58 34 06:36 16.06.2022
1513 Clear 23 1007 24 10000 0.74 324 04:24 16.06.2022
1514 Clear 20 1006 30 10000 1.05 324 01:52 16.06.2022
1515 Clear 21 1005 29 10000 1.09 340 01:29 16.06.2022
1516 Clear 21 1005 28 10000 0.93 337 00:29 16.06.2022
1517 Clear 22 1005 26 10000 0.78 340 22:54 15.06.2022
1518 Clear 23 1005 25 10000 0.51 7 21:48 15.06.2022
1519 Clear 23 1005 23 10000 1.04 9 21:19 15.06.2022
1520 Clear 23 1005 23 10000 1.04 9 20:37 15.06.2022
1521 Clear 24 1005 21 10000 1.77 15 20:18 15.06.2022
1522 Clear 25 1005 21 10000 1.36 14 18:47 15.06.2022
1523 Clear 26 1004 18 10000 2.99 11 17:53 15.06.2022
1524 Clear 27 1003 16 10000 4.27 12 16:34 15.06.2022
1525 Clear 31 1001 11 10000 8.29 11 15:22 15.06.2022
1526 Clear 33 1000 8 10000 4.04 31 13:29 15.06.2022
1527 Clear 33 1000 8 10000 4.04 31 12:47 15.06.2022
1528 Clear 33 1001 8 10000 2.45 47 11:37 15.06.2022
1529 Clear 31 1003 10 10000 1.36 60 10:22 15.06.2022
1530 Clear 31 1003 10 10000 1.36 60 09:34 15.06.2022
1531 Clear 29 1005 15 10000 1.35 41 07:58 15.06.2022
1532 Clear 26 1007 23 10000 1.17 26 05:58 15.06.2022
1533 Clear 20 1008 36 10000 0.69 319 03:28 15.06.2022
1534 Clear 19 1007 35 10000 0.78 336 01:37 15.06.2022
1535 Clear 20 1007 34 10000 1.07 344 00:41 15.06.2022
1536 Clear 20 1007 31 10000 1.42 335 23:38 14.06.2022
1537 Clear 21 1007 31 10000 1.1 338 22:51 14.06.2022
1538 Clear 21 1007 28 10000 1.41 5 21:47 14.06.2022
1539 Clear 22 1007 26 10000 1.5 359 21:26 14.06.2022
1540 Clear 22 1007 26 10000 1.5 359 20:41 14.06.2022
1541 Clouds 23 1007 25 10000 1.14 21 19:58 14.06.2022
1542 Clouds 24 1006 27 10000 1.51 23 18:45 14.06.2022
1543 Clouds 27 1005 21 10000 3.7 2 17:29 14.06.2022
1544 Clouds 27 1005 21 10000 3.7 2 16:43 14.06.2022
1545 Clouds 29 1004 19 10000 6.82 3 15:49 14.06.2022
1546 Clouds 31 1003 14 10000 6.02 3 14:56 14.06.2022
1547 Clear 32 1002 12 10000 3.26 38 14:18 14.06.2022
1548 Clear 32 1002 13 10000 2.44 16 13:32 14.06.2022
1549 Clear 32 1003 13 10000 2.5 69 12:25 14.06.2022
1550 Clear 31 1004 14 10000 1.96 76 10:59 14.06.2022
1551 Clear 31 1004 14 10000 1.96 76 10:59 14.06.2022
1552 Clear 31 1005 16 10000 1.4 80 10:29 14.06.2022
1553 Clear 30 1007 18 10000 0.91 83 09:28 14.06.2022
1554 Clear 30 1007 18 10000 0.91 83 08:41 14.06.2022
1555 Clear 27 1009 25 10000 0.29 125 06:54 14.06.2022
1556 Clear 22 1010 36 10000 0.76 247 04:27 14.06.2022
1557 Clear 19 1009 45 10000 0.66 224 01:50 14.06.2022
1558 Clear 20 1008 44 10000 0.55 291 00:27 14.06.2022
1559 Clear 20 1008 43 10000 0.83 290 22:59 13.06.2022
1560 Clear 21 1008 42 10000 1.05 281 22:23 13.06.2022
1561 Clear 21 1008 42 10000 1.05 281 21:41 13.06.2022
1562 Clouds 22 1008 37 10000 0.86 195 19:59 13.06.2022
1563 Clouds 22 1008 36 10000 0.54 254 19:25 13.06.2022
1564 Clouds 24 1008 33 10000 2.12 348 17:57 13.06.2022
1565 Clouds 23 1008 34 10000 0.8 196 17:27 13.06.2022
1566 Clouds 23 1008 34 10000 0.8 196 16:31 13.06.2022
1567 Clouds 26 1006 27 10000 5.88 10 14:52 13.06.2022
1568 Clouds 26 1006 27 10000 5.88 10 14:32 13.06.2022
1569 Clouds 28 1005 21 10000 6.57 351 13:36 13.06.2022
1570 Clear 30 1004 15 10000 2.65 357 12:23 13.06.2022
1571 Clear 30 1005 15 10000 1.19 129 10:58 13.06.2022
1572 Clear 29 1007 19 10000 0.34 64 10:26 13.06.2022
1573 Clear 27 1008 24 10000 0.45 62 09:00 13.06.2022
1574 Clear 24 1010 30 10000 0.93 52 06:55 13.06.2022
1575 Clear 23 1011 34 10000 0.92 29 05:36 13.06.2022
1576 Clear 18 1011 47 10000 1.05 358 02:47 13.06.2022
1577 Clear 17 1010 46 10000 1.07 5 01:36 13.06.2022
1578 Clear 18 1009 45 10000 0.28 328 23:50 12.06.2022
1579 Clear 18 1009 45 10000 0.08 39 22:44 12.06.2022
1580 Clear 18 1009 45 10000 0.51 138 21:58 12.06.2022
1581 Clear 19 1009 40 10000 0.3 29 20:54 12.06.2022
1582 Clear 20 1008 40 10000 0.94 357 20:19 12.06.2022
1583 Clear 20 1008 40 10000 0.94 357 19:30 12.06.2022
1584 Clouds 21 1007 38 10000 2.7 22 17:41 12.06.2022
1585 Clear 23 1004 29 10000 4.42 66 15:58 12.06.2022
1586 Clear 26 1003 22 10000 7.87 74 14:56 12.06.2022
1587 Clouds 28 1002 19 10000 5.74 55 14:20 12.06.2022
1588 Clouds 28 1002 19 10000 5.74 55 13:49 12.06.2022
1589 Clouds 28 1002 19 10000 4.1 39 12:35 12.06.2022
1590 Clouds 29 1002 19 10000 4.72 7 11:36 12.06.2022
1591 Clear 30 1002 14 10000 0.78 75 10:22 12.06.2022
1592 Clear 29 1004 18 10000 0.53 110 08:54 12.06.2022
1593 Clear 29 1004 18 10000 0.53 110 08:35 12.06.2022
1594 Clear 27 1006 21 10000 1.12 70 07:32 12.06.2022
1595 Clear 23 1007 30 10000 0.88 16 04:35 12.06.2022
1596 Clear 19 1007 39 10000 0.85 230 02:38 12.06.2022
1597 Clouds 19 1006 38 10000 0.55 171 01:36 12.06.2022
1598 Clouds 19 1006 37 10000 0.97 314 00:58 12.06.2022
1599 Clouds 20 1006 36 10000 0.94 337 00:20 12.06.2022
1600 Clouds 20 1006 34 10000 0.74 345 23:29 11.06.2022
1601 Clouds 20 1006 34 10000 0.74 345 22:38 11.06.2022
1602 Clouds 21 1006 32 10000 1.5 5 21:37 11.06.2022
1603 Clouds 21 1006 30 10000 1.86 356 20:33 11.06.2022
1604 Clouds 23 1006 26 10000 2.41 345 19:39 11.06.2022
1605 Clouds 23 1005 25 10000 1.78 336 18:56 11.06.2022
1606 Clouds 23 1005 25 10000 1.78 336 18:33 11.06.2022
1607 Clouds 23 1005 25 10000 0.86 245 17:50 11.06.2022
1608 Clouds 24 1004 23 10000 1.7 186 17:26 11.06.2022
1609 Clouds 24 1004 23 10000 1.7 186 16:50 11.06.2022
1610 Clouds 27 1003 19 10000 1.78 232 16:26 11.06.2022
1611 Clouds 28 1002 16 10000 2.63 281 15:27 11.06.2022
1612 Clouds 28 1002 16 10000 7.16 296 13:53 11.06.2022
1613 Clouds 28 1002 16 10000 7.16 296 13:53 11.06.2022
1614 Clouds 30 1001 13 10000 4.69 357 12:25 11.06.2022
1615 Clouds 28 1003 17 10000 4.36 341 10:46 11.06.2022
1616 Clouds 29 1004 17 10000 7.3 329 09:43 11.06.2022
1617 Clouds 29 1004 14 10000 1.52 47 08:46 11.06.2022
1618 Clear 27 1006 17 10000 1.17 38 06:47 11.06.2022
1619 Clear 25 1006 19 10000 1.03 20 06:24 11.06.2022
1620 Clear 22 1007 24 10000 0.62 298 03:46 11.06.2022
1621 Clouds 18 1006 30 10000 0.61 334 01:52 11.06.2022
1622 Clouds 19 1006 30 10000 0.53 355 01:26 11.06.2022
1623 Clouds 21 1005 29 10000 1.05 342 23:29 10.06.2022
1624 Clouds 21 1006 28 10000 1.11 344 22:29 10.06.2022
1625 Clouds 21 1006 28 10000 1.11 344 21:47 10.06.2022
1626 Clouds 23 1006 25 10000 1.75 350 20:39 10.06.2022
1627 Clouds 22 1005 27 10000 1.09 344 20:21 10.06.2022
1628 Clouds 23 1005 26 10000 0.71 290 19:19 10.06.2022
1629 Clouds 23 1005 26 10000 0.71 290 19:19 10.06.2022
1630 Clouds 23 1005 26 10000 0.71 290 18:46 10.06.2022
1631 Clouds 25 1004 24 10000 0.55 336 17:54 10.06.2022
1632 Clouds 26 1004 21 10000 2.69 333 17:23 10.06.2022
1633 Clouds 26 1004 21 10000 2.69 333 16:36 10.06.2022
1634 Clouds 26 1003 20 10000 3.5 291 15:40 10.06.2022
1635 Clouds 29 1001 14 10000 4.34 339 14:29 10.06.2022
1636 Clouds 29 1001 14 10000 3.74 346 13:19 10.06.2022
1637 Clouds 29 1002 17 10000 8.25 322 11:59 10.06.2022
1638 Clear 30 1002 11 10000 2.36 341 10:51 10.06.2022
1639 Clear 29 1003 11 10000 0.57 8 09:57 10.06.2022
1640 Clear 28 1004 12 10000 1.17 27 08:58 10.06.2022
1641 Clear 27 1005 13 10000 1.32 46 07:50 10.06.2022
1642 Clear 26 1006 15 10000 1.12 42 06:47 10.06.2022
1643 Clear 24 1007 17 10000 0.54 14 06:28 10.06.2022
1644 Clear 23 1008 19 10000 0.56 320 04:53 10.06.2022
1645 Clear 18 1007 26 10000 0.66 341 01:59 10.06.2022
1646 Clouds 18 1007 26 10000 0.88 308 01:36 10.06.2022
1647 Clouds 18 1007 26 10000 0.88 308 01:36 10.06.2022
1648 Clear 19 1006 24 10000 1.13 349 23:57 09.06.2022
1649 Clear 20 1006 23 10000 1.01 347 22:24 09.06.2022
1650 Clear 20 1006 23 10000 1.01 347 21:43 09.06.2022
1651 Clear 21 1006 22 10000 1.47 343 21:24 09.06.2022
1652 Clear 21 1006 22 10000 1.47 343 20:36 09.06.2022
1653 Clouds 21 1006 21 10000 1.6 356 19:41 09.06.2022
1654 Clouds 23 1006 19 10000 1.67 22 18:36 09.06.2022
1655 Clouds 25 1004 18 10000 3.39 349 17:28 09.06.2022
1656 Clouds 27 1003 14 10000 5.36 343 16:28 09.06.2022
1657 Clouds 29 1001 11 10000 7.16 5 14:45 09.06.2022
1658 Clear 30 1000 12 10000 4.5 3 14:24 09.06.2022
1659 Clouds 30 1000 13 10000 4.92 358 13:30 09.06.2022
1660 Clouds 28 1001 16 10000 3.62 4 12:46 09.06.2022
1661 Clear 30 1001 12 10000 1.7 22 11:20 09.06.2022
1662 Clear 29 1003 13 10000 1.21 8 09:55 09.06.2022
1663 Clear 29 1003 13 10000 1.21 8 09:55 09.06.2022
1664 Clear 29 1003 13 10000 1.21 8 09:36 09.06.2022
1665 Clouds 27 1005 15 10000 1.43 29 08:27 09.06.2022
1666 Clear 25 1006 17 10000 1.41 25 07:23 09.06.2022
1667 Clear 18 1008 30 10000 0.92 334 03:28 09.06.2022
1668 Clouds 18 1006 29 10000 1.03 348 23:55 08.06.2022
1669 Clouds 19 1006 28 10000 1.02 342 22:59 08.06.2022
1670 Clouds 20 1006 28 10000 1.27 354 22:27 08.06.2022
1671 Clouds 20 1006 28 10000 1.27 354 21:57 08.06.2022
1672 Clouds 20 1006 28 10000 1.27 354 21:31 08.06.2022
1673 Clouds 22 1006 25 10000 2.4 354 20:24 08.06.2022
1674 Clouds 21 1006 23 10000 2.32 0 19:39 08.06.2022
1675 Clouds 21 1006 23 10000 2.32 0 19:39 08.06.2022
1676 Clouds 22 1006 25 10000 1.07 331 18:48 08.06.2022
1677 Clouds 23 1005 23 10000 0.69 234 17:35 08.06.2022
1678 Clouds 25 1004 22 10000 5.34 307 15:52 08.06.2022
1679 Clouds 30 1001 13 10000 4.09 15 14:18 08.06.2022
1680 Clouds 29 1002 15 10000 1.55 63 12:46 08.06.2022
1681 Clouds 26 1004 20 10000 1.77 90 11:35 08.06.2022
1682 Clouds 21 1008 39 10000 3.45 304 10:37 08.06.2022
1683 Clear 29 1005 16 10000 1.49 64 09:28 08.06.2022
1684 Clear 29 1005 16 10000 1.49 64 08:49 08.06.2022
1685 Clear 26 1007 20 10000 0.9 42 06:36 08.06.2022
1686 Clear 22 1008 28 10000 0.73 231 04:22 08.06.2022
1687 Clouds 19 1006 33 10000 0.46 305 00:56 08.06.2022
1688 Clouds 19 1006 33 10000 0.76 316 23:31 07.06.2022
1689 Clouds 20 1006 32 10000 0.73 340 22:49 07.06.2022
1690 Clouds 20 1006 32 10000 0.73 340 22:31 07.06.2022
1691 Clouds 20 1007 31 10000 1.1 6 21:35 07.06.2022
1692 Clouds 21 1007 31 10000 1.06 346 20:59 07.06.2022
1693 Clouds 21 1007 31 10000 1.06 346 20:33 07.06.2022
1694 Clouds 21 1007 31 10000 1.46 332 19:48 07.06.2022
1695 Clouds 22 1007 29 10000 1.64 328 18:24 07.06.2022
1696 Clouds 22 1007 29 10000 1.64 328 17:31 07.06.2022
1697 Clouds 23 1006 27 10000 1.55 1 16:43 07.06.2022
1698 Clouds 25 1005 24 10000 3.65 350 15:57 07.06.2022
1699 Clouds 27 1003 20 10000 7.27 328 15:27 07.06.2022
1700 Clouds 27 1003 20 10000 7.27 328 14:52 07.06.2022
1701 Clouds 27 1003 20 10000 7.27 328 14:34 07.06.2022
1702 Clouds 30 1001 11 10000 8.17 12 13:32 07.06.2022
1703 Clouds 31 1001 10 10000 7.54 5 12:52 07.06.2022
1704 Clouds 31 1001 9 10000 4.47 356 11:49 07.06.2022
1705 Clear 31 1002 9 10000 1.3 216 10:27 07.06.2022
1706 Clear 30 1003 11 10000 1.04 164 08:53 07.06.2022
1707 Clear 28 1005 15 10000 0.3 139 07:35 07.06.2022
1708 Clear 27 1006 19 10000 0.37 93 06:39 07.06.2022
1709 Clear 24 1007 24 10000 0.22 250 04:39 07.06.2022
1710 Clear 18 1006 33 10000 0.53 293 01:27 07.06.2022
1711 Clear 19 1006 33 10000 0.3 10 23:52 06.06.2022
1712 Clear 19 1006 32 10000 0.6 340 22:54 06.06.2022
1713 Clear 20 1006 31 10000 1.1 326 22:29 06.06.2022
1714 Clear 21 1006 29 10000 1.16 347 20:43 06.06.2022
1715 Clouds 23 1006 27 10000 1.14 346 19:28 06.06.2022
1716 Clouds 23 1006 27 10000 1.14 346 18:49 06.06.2022
1717 Clouds 24 1005 24 10000 2.04 343 18:21 06.06.2022
1718 Clouds 25 1004 20 10000 4 3 17:24 06.06.2022
1719 Clouds 28 1002 12 10000 3.79 21 16:18 06.06.2022
1720 Clouds 30 1001 9 10000 3.35 44 14:59 06.06.2022
1721 Clear 31 1001 8 10000 0.7 63 14:29 06.06.2022
1722 Clear 31 1001 8 10000 1.51 190 13:21 06.06.2022
1723 Clear 31 1001 8 10000 1.51 190 12:35 06.06.2022
1724 Clear 31 1002 8 10000 2.88 203 11:50 06.06.2022
1725 Clear 30 1004 10 10000 1.6 196 10:21 06.06.2022
1726 Clear 29 1006 13 10000 0.4 176 09:23 06.06.2022
1727 Clear 29 1006 13 10000 0.37 183 08:31 06.06.2022
1728 Clear 26 1007 19 10000 0.59 46 07:24 06.06.2022
1729 Clear 22 1008 25 10000 0.29 312 04:42 06.06.2022
1730 Clear 18 1008 34 10000 0.18 359 02:27 06.06.2022
1731 Clear 18 1007 31 10000 0.26 2 00:57 06.06.2022
1732 Clear 18 1007 31 10000 0.26 2 00:35 06.06.2022
1733 Clear 19 1007 30 10000 0.34 293 23:28 05.06.2022
1734 Clear 19 1007 30 10000 0.34 290 22:33 05.06.2022
1735 Clear 20 1008 29 10000 0.23 312 20:34 05.06.2022
1736 Clouds 22 1007 26 10000 1.68 352 19:26 05.06.2022
1737 Clouds 24 1006 20 10000 4.39 359 18:26 05.06.2022
1738 Clouds 24 1006 20 10000 4.39 359 17:46 05.06.2022
1739 Clouds 25 1004 17 10000 2.14 22 17:22 05.06.2022
1740 Clouds 25 1004 17 10000 2.14 22 16:48 05.06.2022
1741 Clouds 27 1003 16 10000 1.95 56 15:47 05.06.2022
1742 Clouds 29 1002 12 10000 6.6 97 14:21 05.06.2022
1743 Clear 30 1002 10 10000 6.76 106 12:34 05.06.2022
1744 Clear 31 1002 8 10000 1.81 170 11:30 05.06.2022
1745 Clear 29 1005 10 10000 1.37 196 10:25 05.06.2022
1746 Clear 29 1005 10 10000 1.37 196 09:58 05.06.2022
1747 Clear 26 1008 15 10000 0.73 48 08:25 05.06.2022
1748 Clear 24 1009 17 10000 0.71 36 06:48 05.06.2022
1749 Clear 21 1010 23 10000 0.46 289 05:20 05.06.2022
1750 Clear 17 1010 33 10000 0.43 217 02:58 05.06.2022
1751 Clouds 15 1010 33 10000 0.71 281 01:30 05.06.2022
1752 Clouds 16 1010 31 10000 0.67 338 23:49 04.06.2022
1753 Clouds 17 1010 29 10000 0.71 337 21:39 04.06.2022
1754 Clouds 19 1010 27 10000 1.69 356 19:49 04.06.2022
1755 Clouds 21 1009 23 10000 2.13 35 17:59 04.06.2022
1756 Clear 24 1006 18 10000 6.22 3 16:22 04.06.2022
1757 Clear 24 1006 18 10000 6.17 4 15:54 04.06.2022
1758 Clear 26 1005 14 10000 7.5 12 14:36 04.06.2022
1759 Clear 28 1005 11 10000 1.6 52 11:51 04.06.2022
1760 Clear 27 1006 12 10000 1.02 31 10:57 04.06.2022
1761 Clear 26 1008 13 10000 1.02 20 10:22 04.06.2022
1762 Clear 26 1008 13 10000 1.02 20 09:41 04.06.2022
1763 Clear 25 1009 14 10000 1.1 26 08:40 04.06.2022
1764 Clear 23 1010 16 10000 1.28 26 07:38 04.06.2022
1765 Clear 19 1012 22 10000 1.15 20 04:33 04.06.2022
1766 Clear 19 1012 22 10000 1.15 20 04:33 04.06.2022
1767 Clear 15 1011 29 10000 0.42 297 00:56 04.06.2022
1768 Clear 16 1011 28 10000 0.42 327 23:35 03.06.2022
1769 Clear 16 1010 27 10000 0.78 357 22:30 03.06.2022
1770 Clear 18 1011 24 10000 1.07 1 20:52 03.06.2022
1771 Clear 19 1011 23 10000 1.29 17 20:27 03.06.2022
1772 Clear 20 1010 19 10000 2.79 16 17:39 03.06.2022
1773 Clear 21 1009 17 10000 4.74 14 16:47 03.06.2022
1774 Clear 25 1006 13 10000 9.93 15 15:18 03.06.2022
1775 Clear 27 1006 11 10000 10.02 18 12:56 03.06.2022
1776 Clear 27 1007 10 10000 3.78 28 10:54 03.06.2022
1777 Clear 26 1008 11 10000 2.22 29 09:38 03.06.2022
1778 Clear 25 1009 13 10000 1.72 21 08:32 03.06.2022
1779 Clear 22 1011 18 10000 1.49 25 07:26 03.06.2022
1780 Clear 22 1011 18 10000 1.49 25 06:32 03.06.2022
1781 Clear 19 1012 23 10000 0.82 4 05:19 03.06.2022
1782 Clear 16 1011 29 10000 0.9 358 00:25 03.06.2022
1783 Clear 16 1011 28 10000 1.12 5 22:41 02.06.2022
1784 Clear 17 1011 26 10000 1.19 9 21:38 02.06.2022
1785 Clear 19 1011 22 10000 1.81 8 20:22 02.06.2022
1786 Clear 19 1010 22 10000 1.62 12 19:43 02.06.2022
1787 Clear 19 1010 21 10000 1.66 16 19:23 02.06.2022
1788 Clear 22 1008 17 10000 3.01 23 16:47 02.06.2022
1789 Clear 23 1007 15 10000 6.4 23 16:27 02.06.2022
1790 Clear 27 1006 10 10000 5.08 25 13:56 02.06.2022
1791 Clear 27 1006 11 10000 3.29 18 13:29 02.06.2022
1792 Clear 26 1008 13 10000 1.94 45 11:22 02.06.2022
1793 Clear 25 1009 13 10000 1.14 44 10:20 02.06.2022
1794 Clear 25 1009 13 10000 1.14 44 10:20 02.06.2022
1795 Clear 24 1010 14 10000 0.92 31 09:27 02.06.2022
1796 Clear 23 1011 17 10000 1.23 21 08:26 02.06.2022
1797 Clear 21 1012 20 10000 1.36 22 06:59 02.06.2022
1798 Clear 18 1013 26 10000 1.1 11 04:49 02.06.2022
1799 Clear 16 1013 35 10000 1.25 332 02:37 02.06.2022
1800 Clouds 16 1011 33 10000 0.89 6 23:43 01.06.2022
1801 Clouds 16 1011 33 10000 0.89 6 23:43 01.06.2022
1802 Clouds 16 1011 33 10000 0.89 6 23:43 01.06.2022
1803 Clouds 16 1011 33 10000 0.89 6 23:43 01.06.2022
1804 Clouds 18 1011 30 10000 1.58 1 22:23 01.06.2022
1805 Clouds 18 1011 30 10000 1.58 2 21:32 01.06.2022
1806 Clouds 18 1011 29 10000 1.59 6 20:40 01.06.2022
1807 Clouds 19 1011 30 10000 1.51 12 19:59 01.06.2022
1808 Clouds 20 1010 31 10000 1.67 262 19:19 01.06.2022
1809 Clouds 20 1010 32 10000 3.08 240 17:44 01.06.2022
1810 Clouds 21 1009 30 10000 3.39 264 16:34 01.06.2022
1811 Clouds 24 1006 17 10000 5.15 340 14:53 01.06.2022
1812 Clear 25 1005 15 10000 2.46 17 13:45 01.06.2022
1813 Clear 24 1007 20 10000 3.68 3 12:26 01.06.2022
1814 Clear 25 1007 15 10000 1.3 39 09:40 01.06.2022
1815 Clear 24 1008 16 10000 0.99 43 08:40 01.06.2022
1816 Clear 22 1010 19 10000 1.28 30 07:22 01.06.2022
1817 Clouds 19 1011 25 10000 0.88 24 05:23 01.06.2022
1818 Clouds 16 1009 33 10000 1.3 339 00:22 01.06.2022
1819 Clouds 17 1008 31 10000 1.44 340 23:28 31.05.2022
1820 Clouds 17 1008 31 10000 1.44 340 22:36 31.05.2022
1821 Clouds 18 1008 30 10000 1.11 58 21:45 31.05.2022
1822 Clouds 19 1009 28 10000 1.4 10 20:45 31.05.2022
1823 Clouds 19 1008 30 10000 1.76 8 20:18 31.05.2022
1824 Clouds 20 1008 28 10000 2.75 355 18:52 31.05.2022
1825 Clouds 21 1007 27 10000 0.81 357 17:50 31.05.2022
1826 Clouds 21 1006 27 10000 0.88 39 16:56 31.05.2022
1827 Clouds 21 1006 27 10000 2.88 330 15:41 31.05.2022
1828 Clear 26 1003 15 10000 4.83 359 14:18 31.05.2022
1829 Clear 25 1004 17 10000 6.28 338 12:20 31.05.2022
1830 Clear 26 1004 16 10000 5.43 345 10:55 31.05.2022
1831 Clear 24 1006 14 10000 0.64 53 09:29 31.05.2022
1832 Clouds 22 1008 18 10000 1.1 34 07:24 31.05.2022
1833 Clear 19 1010 23 10000 0.45 69 05:20 31.05.2022
1834 Clouds 15 1009 31 10000 0.7 333 00:52 31.05.2022
1835 Clouds 16 1009 29 10000 0.63 42 23:27 30.05.2022
1836 Clouds 16 1009 29 10000 0.65 43 22:56 30.05.2022
1837 Clouds 17 1009 27 10000 1.18 338 21:52 30.05.2022
1838 Clouds 17 1009 27 10000 1.18 338 21:32 30.05.2022
1839 Clouds 18 1009 25 10000 2.14 9 20:20 30.05.2022
1840 Clouds 19 1008 24 10000 2.24 8 18:40 30.05.2022
1841 Clear 20 1007 23 10000 2.53 28 17:36 30.05.2022
1842 Clear 21 1006 22 10000 2.97 14 16:41 30.05.2022
1843 Clear 25 1003 13 10000 6.97 10 14:35 30.05.2022
1844 Clear 27 1004 12 10000 2.66 29 12:24 30.05.2022
1845 Clear 26 1005 13 10000 1.38 64 10:41 30.05.2022
1846 Clear 24 1007 16 10000 1 50 09:21 30.05.2022
1847 Clear 21 1008 20 10000 0.73 43 07:18 30.05.2022
1848 Clear 19 1009 23 10000 0.51 48 05:48 30.05.2022
1849 Clouds 13 1009 34 10000 0.69 235 01:42 30.05.2022
1850 Clouds 15 1009 33 10000 0.65 340 23:19 29.05.2022
1851 Clouds 15 1009 33 10000 0.65 340 22:37 29.05.2022
1852 Clouds 16 1010 30 10000 1.41 5 20:55 29.05.2022
1853 Clouds 17 1009 29 10000 1.86 16 19:33 29.05.2022
1854 Clouds 17 1009 27 10000 1.95 15 18:53 29.05.2022
1855 Clouds 18 1008 25 10000 2.56 21 17:31 29.05.2022
1856 Clouds 18 1008 25 10000 2.56 21 17:31 29.05.2022
1857 Clouds 21 1006 21 10000 4.84 18 15:48 29.05.2022
1858 Clear 23 1004 17 10000 7.26 8 15:23 29.05.2022
1859 Clear 25 1004 14 10000 7.51 9 13:59 29.05.2022
1860 Clear 26 1004 16 10000 4.14 17 11:42 29.05.2022
1861 Clear 25 1005 17 10000 2.34 23 10:39 29.05.2022
1862 Clear 22 1007 23 10000 1.01 50 09:18 29.05.2022
1863 Clear 18 1010 34 10000 1.39 27 06:24 29.05.2022
1864 Clear 16 1010 38 10000 1.27 21 04:45 29.05.2022
1865 Clear 15 1011 41 10000 0.96 6 03:53 29.05.2022
1866 Clear 15 1009 42 10000 1.52 0 23:50 28.05.2022
1867 Clear 15 1009 41 10000 1.28 356 23:26 28.05.2022
1868 Clear 15 1009 41 10000 1.28 356 22:39 28.05.2022
1869 Clear 16 1009 39 10000 1.22 0 21:38 28.05.2022
1870 Clear 17 1009 36 10000 1.51 11 19:51 28.05.2022
1871 Clear 18 1009 34 10000 2.06 11 18:54 28.05.2022
1872 Clear 19 1008 31 10000 2.64 5 17:37 28.05.2022
1873 Clear 20 1007 27 10000 3.04 7 16:43 28.05.2022
1874 Clear 22 1006 24 10000 3.39 19 15:43 28.05.2022
1875 Clear 25 1004 17 10000 5.04 9 14:26 28.05.2022
1876 Clear 26 1003 14 10000 5.49 23 12:57 28.05.2022
1877 Clear 26 1003 14 10000 5.49 23 12:35 28.05.2022
1878 Clear 26 1004 14 10000 2.49 30 11:22 28.05.2022
1879 Clear 25 1006 16 10000 1.76 42 09:59 28.05.2022
1880 Clear 24 1007 19 10000 1.58 40 09:21 28.05.2022
1881 Clear 21 1009 26 10000 1.2 29 07:23 28.05.2022
1882 Clear 19 1009 31 10000 1.14 19 05:48 28.05.2022
1883 Clear 16 1010 46 10000 0.81 352 02:52 28.05.2022
1884 Clear 16 1009 47 10000 1.16 1 00:33 28.05.2022
1885 Clear 17 1009 45 10000 1.2 15 23:20 27.05.2022
1886 Clear 17 1009 43 10000 1.51 22 21:46 27.05.2022
1887 Clear 18 1009 42 10000 2.2 21 20:56 27.05.2022
1888 Clouds 19 1009 41 10000 2.34 27 20:25 27.05.2022
1889 Clouds 19 1009 41 10000 2.34 27 19:48 27.05.2022
1890 Clouds 20 1008 39 10000 2.53 22 19:29 27.05.2022
1891 Clouds 21 1007 36 10000 3.29 23 17:58 27.05.2022
1892 Clouds 22 1006 33 10000 3.42 29 16:39 27.05.2022
1893 Clouds 26 1002 24 10000 8.68 9 15:22 27.05.2022
1894 Clouds 28 1001 19 10000 9.04 2 14:25 27.05.2022
1895 Clouds 29 1000 16 10000 7.97 7 12:43 27.05.2022
1896 Clouds 29 1001 15 10000 5.67 10 11:34 27.05.2022
1897 Clouds 29 1002 15 10000 4.8 4 10:56 27.05.2022
1898 Clouds 29 1002 15 10000 4.8 4 10:31 27.05.2022
1899 Clear 29 1003 16 10000 1.49 23 09:35 27.05.2022
1900 Clear 26 1005 20 10000 1.09 34 07:52 27.05.2022
1901 Clear 23 1006 25 10000 0.98 12 05:44 27.05.2022
1902 Clouds 18 1006 34 10000 1.29 347 02:26 27.05.2022
1903 Clouds 19 1006 34 10000 0.73 356 00:29 27.05.2022
1904 Clouds 20 1006 33 10000 0.84 353 22:39 26.05.2022
1905 Clouds 20 1006 31 10000 1.26 351 21:39 26.05.2022
1906 Clouds 21 1006 29 10000 1.55 336 20:30 26.05.2022
1907 Clouds 23 1006 24 10000 1.83 3 19:19 26.05.2022
1908 Clouds 24 1006 23 10000 1.85 28 17:51 26.05.2022
1909 Clouds 25 1005 20 10000 1.88 6 16:42 26.05.2022
1910 Clouds 26 1004 19 10000 4.61 5 15:45 26.05.2022
1911 Clouds 29 1003 13 10000 5.14 19 14:28 26.05.2022
1912 Clouds 30 1003 11 10000 9 29 12:37 26.05.2022
1913 Clear 31 1004 10 10000 3.4 39 11:23 26.05.2022
1914 Clear 30 1005 10 10000 2.25 46 09:41 26.05.2022
1915 Clear 29 1006 11 10000 1.83 46 09:23 26.05.2022
1916 Clear 28 1006 12 10000 1.86 39 07:57 26.05.2022
1917 Clear 21 1010 20 10000 1.25 276 03:53 26.05.2022
1918 Clear 18 1009 25 10000 0.78 301 00:38 26.05.2022
1919 Clear 19 1009 24 10000 0.75 294 23:40 25.05.2022
1920 Clear 20 1009 22 10000 0.56 287 21:56 25.05.2022
1921 Clear 20 1009 22 10000 0.56 287 21:31 25.05.2022
1922 Clear 21 1010 22 10000 1.57 313 20:34 25.05.2022
1923 Clear 22 1009 19 10000 1.66 342 19:21 25.05.2022
1924 Clear 23 1009 17 10000 2.75 355 17:40 25.05.2022
1925 Clear 25 1008 15 10000 5.18 358 16:37 25.05.2022
1926 Clear 26 1007 14 10000 7.13 4 15:54 25.05.2022
1927 Clear 28 1005 11 10000 8.72 358 14:51 25.05.2022
1928 Clear 28 1005 11 10000 8.72 358 14:32 25.05.2022
1929 Clear 29 1005 11 10000 8.63 6 13:42 25.05.2022
1930 Clear 30 1005 11 10000 8.12 13 12:37 25.05.2022
1931 Clear 30 1005 12 10000 3.77 6 10:43 25.05.2022
1932 Clear 29 1006 13 10000 1.86 29 09:54 25.05.2022
1933 Clear 26 1008 16 10000 0.86 159 08:23 25.05.2022
1934 Clear 25 1009 16 10000 1.36 185 07:22 25.05.2022
1935 Clear 17 1011 34 10000 1.33 212 03:22 25.05.2022
1936 Clear 17 1010 33 10000 0.36 55 23:56 24.05.2022
1937 Clear 18 1010 32 10000 0.99 24 23:25 24.05.2022
1938 Clear 18 1010 30 10000 1.15 23 22:19 24.05.2022
1939 Clear 18 1010 30 10000 1.15 23 21:39 24.05.2022
1940 Clear 19 1010 29 10000 1.22 27 21:20 24.05.2022
1941 Clouds 20 1010 26 10000 1.29 34 19:45 24.05.2022
1942 Clear 20 1010 24 10000 1.58 31 18:50 24.05.2022
1943 Clear 22 1008 19 10000 2.64 58 16:42 24.05.2022
1944 Clear 23 1007 16 10000 2.78 52 16:19 24.05.2022
1945 Clear 25 1006 11 10000 2.21 46 14:50 24.05.2022
1946 Clear 25 1006 10 10000 2.11 51 13:52 24.05.2022
1947 Clear 26 1005 9 10000 2.49 67 12:49 24.05.2022
1948 Clear 25 1006 9 10000 1.91 73 10:46 24.05.2022
1949 Clear 24 1007 10 10000 1.3 83 09:43 24.05.2022
1950 Clear 23 1008 11 10000 1.02 82 08:49 24.05.2022
1951 Clear 20 1009 13 10000 1.36 62 06:56 24.05.2022
1952 Clear 16 1009 17 10000 0.23 55 03:48 24.05.2022
1953 Clear 13 1007 25 10000 0.23 344 01:50 24.05.2022
1954 Clear 13 1006 24 10000 0.56 234 01:19 24.05.2022
1955 Clear 14 1006 24 10000 0.39 309 22:51 23.05.2022
1956 Clear 14 1006 24 10000 0.18 256 21:55 23.05.2022
1957 Clear 15 1007 23 10000 0.72 313 21:26 23.05.2022
1958 Clear 15 1006 22 10000 1.38 330 20:26 23.05.2022
1959 Clear 15 1006 22 10000 1.38 330 19:31 23.05.2022
1960 Clear 16 1005 20 10000 1.76 345 18:57 23.05.2022
1961 Clear 17 1004 18 10000 2.17 350 18:29 23.05.2022
1962 Clear 18 1003 15 10000 3.31 353 17:20 23.05.2022
1963 Clear 22 1001 10 10000 1.53 33 14:52 23.05.2022
1964 Clear 22 1001 10 10000 1.44 47 12:56 23.05.2022
1965 Clear 22 1003 11 10000 1.35 61 11:31 23.05.2022
1966 Clear 20 1005 16 10000 1.07 78 09:50 23.05.2022
1967 Clear 18 1006 19 10000 0.78 93 09:28 23.05.2022
1968 Clear 17 1007 21 10000 0.73 74 08:20 23.05.2022
1969 Clear 15 1007 22 10000 1.07 29 06:45 23.05.2022
1970 Clear 13 1009 29 10000 1.29 20 05:25 23.05.2022
1971 Clear 10 1008 38 10000 0.5 16 02:32 23.05.2022
1972 Clear 10 1007 41 10000 0.77 9 01:37 23.05.2022
1973 Clear 11 1006 41 10000 1.52 23 00:20 23.05.2022
1974 Clear 11 1006 41 10000 1.76 16 22:36 22.05.2022
1975 Clear 12 1006 41 10000 1.36 34 21:55 22.05.2022
1976 Clear 13 1006 41 10000 1.94 25 20:54 22.05.2022
1977 Clear 13 1006 41 10000 1.94 25 20:31 22.05.2022
1978 Clear 13 1006 40 10000 2.33 19 19:56 22.05.2022
1979 Clear 14 1005 38 10000 3 14 18:55 22.05.2022
1980 Clear 15 1005 37 10000 3.73 19 18:25 22.05.2022
1981 Clear 15 1005 37 10000 3.73 19 17:34 22.05.2022
1982 Clear 16 1004 34 10000 4.5 20 16:36 22.05.2022
1983 Clear 20 1000 20 10000 7.28 7 14:49 22.05.2022
1984 Clouds 22 1000 23 10000 7.36 29 13:54 22.05.2022
1985 Clouds 22 1000 23 10000 6.28 34 12:52 22.05.2022
1986 Clouds 21 1001 28 10000 1.86 5 11:47 22.05.2022
1987 Clouds 24 1001 20 10000 5.93 15 09:45 22.05.2022
1988 Clouds 23 1001 20 10000 3.89 16 08:54 22.05.2022
1989 Clear 21 1003 25 10000 1.85 15 07:22 22.05.2022
1990 Clear 20 1004 29 10000 1.31 350 06:24 22.05.2022
1991 Clear 16 1006 44 10000 1.17 312 02:33 22.05.2022
1992 Clear 15 1005 43 10000 0.69 280 00:44 22.05.2022
1993 Clear 16 1005 42 10000 0.39 288 23:55 21.05.2022
1994 Clear 16 1006 40 10000 0.89 327 23:21 21.05.2022
1995 Clear 17 1006 38 10000 1.67 334 21:47 21.05.2022
1996 Clear 18 1006 35 10000 2.4 337 21:26 21.05.2022
1997 Clear 18 1007 32 10000 3.24 346 20:25 21.05.2022
1998 Clear 18 1007 32 10000 3.24 346 19:37 21.05.2022
1999 Clear 20 1006 27 10000 4.97 3 17:57 21.05.2022
2000 Clear 21 1005 25 10000 5.32 7 16:55 21.05.2022
2001 Clear 24 1002 17 10000 9.22 7 14:38 21.05.2022
2002 Clear 25 1002 16 10000 8.62 17 13:53 21.05.2022
2003 Clear 26 1003 16 10000 5.4 16 12:57 21.05.2022
2004 Clear 26 1003 16 10000 5.4 16 12:37 21.05.2022
2005 Clear 24 1004 19 10000 1.66 34 10:45 21.05.2022
2006 Clear 23 1005 23 10000 1.42 68 09:48 21.05.2022
2007 Clear 22 1007 26 10000 0.89 46 08:58 21.05.2022
2008 Clear 22 1007 26 10000 0.89 46 08:33 21.05.2022
2009 Clear 17 1009 38 10000 1.29 6 05:28 21.05.2022
2010 Clouds 15 1007 51 10000 0.96 349 00:58 21.05.2022
2011 Clouds 16 1007 48 10000 1.19 18 23:22 20.05.2022
2012 Clouds 16 1008 47 10000 1.16 16 22:24 20.05.2022
2013 Clouds 16 1008 48 10000 1.15 15 21:49 20.05.2022
2014 Clouds 17 1008 45 10000 1.62 9 20:58 20.05.2022
2015 Clouds 17 1008 43 10000 2.13 4 20:29 20.05.2022
2016 Clouds 18 1008 41 10000 1.81 359 19:27 20.05.2022
2017 Clouds 18 1008 41 10000 1.78 359 18:47 20.05.2022
2018 Clouds 19 1007 39 10000 1.29 2 17:43 20.05.2022
2019 Clear 21 1005 35 10000 4.33 9 16:21 20.05.2022
2020 Clear 21 1005 35 10000 4.33 9 15:53 20.05.2022
2021 Clouds 22 1004 30 10000 6.41 11 14:31 20.05.2022
2022 Clouds 23 1004 27 10000 4.56 359 13:56 20.05.2022
2023 Clouds 23 1004 30 10000 5.42 314 11:45 20.05.2022
2024 Clouds 25 1004 24 10000 4.4 32 10:23 20.05.2022
2025 Clouds 24 1006 27 10000 3.02 32 08:45 20.05.2022
2026 Clouds 21 1008 35 10000 2.24 22 07:25 20.05.2022
2027 Clouds 21 1008 35 10000 2.24 22 06:36 20.05.2022
2028 Clouds 18 1009 46 10000 1.63 8 05:22 20.05.2022
2029 Clouds 15 1008 60 10000 0.56 307 00:54 20.05.2022
2030 Clouds 16 1008 57 10000 1.16 2 22:57 19.05.2022
2031 Clouds 17 1008 55 10000 1.8 354 22:26 19.05.2022
2032 Clouds 17 1008 55 10000 1.8 354 21:49 19.05.2022
2033 Clear 18 1009 50 10000 2.25 2 21:23 19.05.2022
2034 Clear 18 1009 50 10000 2.25 2 20:40 19.05.2022
2035 Clouds 19 1009 45 10000 2.36 5 19:53 19.05.2022
2036 Clouds 19 1008 44 10000 2.64 359 18:34 19.05.2022
2037 Clouds 20 1008 42 10000 2.52 6 17:31 19.05.2022
2038 Clouds 21 1007 38 10000 3.19 29 15:33 19.05.2022
2039 Clouds 24 1005 31 10000 6.88 355 14:29 19.05.2022
2040 Clouds 24 1005 31 10000 9.49 356 13:50 19.05.2022
2041 Clouds 25 1005 26 10000 4.92 359 11:46 19.05.2022
2042 Clouds 26 1007 24 10000 4.14 3 09:34 19.05.2022
2043 Clear 25 1009 24 10000 1.46 39 08:18 19.05.2022
2044 Clear 21 1011 33 10000 0.93 44 06:18 19.05.2022
2045 Clear 18 1011 45 10000 1.48 330 02:54 19.05.2022
2046 Clouds 18 1010 39 10000 1.83 1 00:44 19.05.2022
2047 Clouds 19 1010 37 10000 1.21 12 22:53 18.05.2022
2048 Clouds 19 1010 37 10000 1.21 12 22:35 18.05.2022
2049 Clouds 20 1010 36 10000 1.81 352 21:31 18.05.2022
2050 Clouds 21 1010 32 10000 2.32 350 20:54 18.05.2022
2051 Clouds 22 1009 28 10000 2.6 344 20:18 18.05.2022
2052 Clouds 22 1009 27 10000 2.02 356 18:34 18.05.2022
2053 Clouds 23 1008 26 10000 1.09 44 17:41 18.05.2022
2054 Clouds 24 1008 23 10000 4.22 329 17:23 18.05.2022
2055 Clouds 24 1008 23 10000 4.22 329 16:35 18.05.2022
2056 Clouds 25 1006 21 10000 3.98 353 15:42 18.05.2022
2057 Clouds 27 1005 18 10000 6.1 358 14:48 18.05.2022
2058 Clouds 28 1005 16 10000 7.23 2 13:47 18.05.2022
2059 Clouds 29 1004 16 10000 6.93 9 12:51 18.05.2022
2060 Clouds 29 1005 15 10000 4.36 17 11:37 18.05.2022
2061 Clear 29 1006 14 10000 1.99 49 11:19 18.05.2022
2062 Clear 28 1007 17 10000 1.21 99 09:56 18.05.2022
2063 Clear 25 1009 25 10000 0.4 119 07:55 18.05.2022
2064 Clear 23 1009 28 10000 0.49 63 06:49 18.05.2022
2065 Clear 17 1009 45 10000 0.64 325 02:23 18.05.2022
2066 Clear 18 1009 44 10000 0.9 303 00:23 18.05.2022
2067 Clear 18 1009 43 10000 0.58 304 22:47 17.05.2022
2068 Clear 20 1009 38 10000 1.64 345 21:20 17.05.2022
2069 Clouds 20 1009 37 10000 1.39 349 20:29 17.05.2022
2070 Clouds 21 1009 37 10000 1.17 342 19:28 17.05.2022
2071 Clouds 21 1008 35 10000 1.83 2 17:52 17.05.2022
2072 Clouds 21 1008 33 10000 2.17 14 17:18 17.05.2022
2073 Clouds 21 1008 33 10000 2.17 14 16:31 17.05.2022
2074 Clouds 22 1007 31 10000 3.91 31 15:32 17.05.2022
2075 Clouds 23 1006 27 10000 5.46 25 14:31 17.05.2022
2076 Clouds 23 1006 28 10000 3.99 18 13:38 17.05.2022
2077 Clouds 26 1004 23 10000 2.43 354 11:58 17.05.2022
2078 Clear 27 1004 21 10000 5.87 2 09:38 17.05.2022
2079 Clear 28 1004 17 10000 1.72 164 08:43 17.05.2022
2080 Clear 25 1007 25 10000 0.41 183 06:52 17.05.2022
2081 Clear 21 1007 37 10000 0.35 307 04:24 17.05.2022
2082 Clouds 19 1006 45 10000 0.36 344 00:46 17.05.2022
2083 Clouds 20 1006 42 10000 0.86 340 22:44 16.05.2022
2084 Clouds 20 1006 42 10000 0.59 5 21:52 16.05.2022
2085 Clouds 21 1007 40 10000 0.39 349 20:49 16.05.2022
2086 Clear 21 1007 38 10000 0.13 293 19:57 16.05.2022
2087 Clear 23 1005 29 10000 2.08 340 18:21 16.05.2022
2088 Clear 25 1003 23 10000 3.18 0 16:24 16.05.2022
2089 Clear 27 1003 16 10000 3.62 19 14:38 16.05.2022
2090 Clear 29 1002 11 10000 1.54 77 13:25 16.05.2022
2091 Clear 29 1003 11 10000 1.05 92 11:33 16.05.2022
2092 Clear 27 1006 15 10000 0.2 35 09:58 16.05.2022
2093 Clear 24 1009 22 10000 0.47 25 07:21 16.05.2022
2094 Clear 21 1010 27 10000 0.27 31 04:41 16.05.2022
2095 Clouds 18 1009 34 10000 1.11 333 23:44 15.05.2022
2096 Clear 19 1009 33 10000 1.68 334 22:34 15.05.2022
2097 Clear 19 1009 34 10000 0.84 327 21:47 15.05.2022
2098 Clear 19 1009 33 10000 0.25 318 20:59 15.05.2022
2099 Clouds 20 1009 34 10000 1.07 352 19:53 15.05.2022
2100 Clouds 21 1009 28 10000 2.46 357 17:52 15.05.2022
2101 Clouds 22 1007 25 10000 2.25 14 16:31 15.05.2022
2102 Clouds 28 1003 13 10000 2.63 286 14:18 15.05.2022
2103 Clouds 28 1002 13 10000 5.32 300 13:23 15.05.2022
2104 Clouds 28 1003 12 10000 7.14 235 11:41 15.05.2022
2105 Clouds 30 1003 9 10000 7.36 193 10:35 15.05.2022
2106 Clear 28 1005 10 10000 4.26 195 08:47 15.05.2022
2107 Clear 24 1007 21 10000 0.18 56 06:59 15.05.2022
2108 Clouds 22 1008 25 10000 0.42 23 05:57 15.05.2022
2109 Clear 17 1008 41 10000 0.5 350 00:57 15.05.2022
2110 Clear 17 1007 40 10000 1.02 311 23:47 14.05.2022
2111 Clear 17 1007 40 10000 0.63 278 23:29 14.05.2022
2112 Clear 19 1008 38 10000 0.65 18 21:29 14.05.2022
2113 Clear 19 1008 38 10000 0.65 18 20:53 14.05.2022
2114 Clouds 19 1008 38 10000 1.09 340 19:40 14.05.2022
2115 Clouds 20 1007 33 10000 1.78 346 19:20 14.05.2022
2116 Clouds 20 1007 33 10000 1.78 346 18:46 14.05.2022
2117 Clouds 23 1005 24 10000 3.03 3 16:56 14.05.2022
2118 Clouds 24 1003 22 10000 4.92 7 15:33 14.05.2022
2119 Clouds 28 1001 13 10000 2.64 226 14:34 14.05.2022
2120 Clouds 28 1001 13 10000 2.64 226 14:34 14.05.2022
2121 Clouds 29 1001 10 10000 1.54 75 12:49 14.05.2022
2122 Clouds 29 1002 9 10000 1.01 125 11:36 14.05.2022
2123 Clouds 29 1003 9 10000 4.07 171 10:22 14.05.2022
2124 Clouds 29 1003 9 10000 4.07 171 09:54 14.05.2022
2125 Clouds 28 1004 11 10000 1.22 160 08:49 14.05.2022
2126 Clear 25 1006 18 10000 0.79 54 06:47 14.05.2022
2127 Clear 18 1006 35 10000 0.56 277 02:46 14.05.2022
2128 Clear 19 1005 27 10000 0.57 336 23:44 13.05.2022
2129 Clear 19 1005 26 10000 0.98 282 23:18 13.05.2022
2130 Clear 19 1005 26 10000 0.97 282 22:43 13.05.2022
2131 Clouds 20 1005 25 10000 0.49 155 22:18 13.05.2022
2132 Clouds 21 1006 25 10000 0.72 279 20:46 13.05.2022
2133 Clouds 21 1006 25 10000 0.9 313 20:27 13.05.2022
2134 Clouds 22 1006 23 10000 1.4 324 19:28 13.05.2022
2135 Clouds 23 1006 20 10000 0.72 266 17:51 13.05.2022
2136 Clouds 24 1005 19 10000 1.81 295 17:29 13.05.2022
2137 Clouds 24 1005 16 10000 3.09 324 16:20 13.05.2022
2138 Clouds 26 1004 14 10000 6.4 3 15:29 13.05.2022
2139 Clouds 27 1003 12 10000 5.77 31 13:48 13.05.2022
2140 Clouds 27 1004 11 10000 3.78 50 12:32 13.05.2022
2141 Clear 27 1006 12 10000 2.8 33 11:23 13.05.2022
2142 Clear 27 1007 12 10000 2.55 21 09:34 13.05.2022
2143 Clear 26 1008 13 10000 1.69 34 08:44 13.05.2022
2144 Clear 25 1009 15 10000 1.27 24 07:48 13.05.2022
2145 Clear 24 1009 18 10000 0.09 219 06:33 13.05.2022
2146 Clear 24 1009 18 10000 0.09 219 06:33 13.05.2022
2147 Clear 24 1009 18 10000 0.09 219 06:33 13.05.2022
2148 Clear 18 1010 41 10000 1.01 261 03:29 13.05.2022
2149 Clear 18 1009 44 10000 0.76 269 00:39 13.05.2022
2150 Clear 18 1009 45 10000 0.68 346 22:45 12.05.2022
2151 Clear 19 1009 43 10000 1.35 7 21:56 12.05.2022
2152 Clear 20 1009 41 10000 1.21 13 20:29 12.05.2022
2153 Clear 21 1008 40 10000 1.29 10 18:59 12.05.2022
2154 Clear 23 1006 31 10000 2.53 357 17:24 12.05.2022
2155 Clear 24 1004 26 10000 4.2 343 16:18 12.05.2022
2156 Clear 28 1003 14 10000 3.77 337 14:41 12.05.2022
2157 Clear 30 1002 7 10000 4.71 256 13:41 12.05.2022
2158 Clear 30 1004 9 10000 4.36 205 10:46 12.05.2022
2159 Clear 29 1005 10 10000 3.28 195 09:30 12.05.2022
2160 Clear 28 1006 12 10000 2.05 191 08:51 12.05.2022
2161 Clear 27 1007 15 10000 1.58 199 07:40 12.05.2022
2162 Clear 23 1009 24 10000 0.82 202 06:19 12.05.2022
2163 Clear 18 1009 40 10000 0.81 231 02:56 12.05.2022
2164 Clear 18 1008 39 10000 0.72 332 00:36 12.05.2022
2165 Clear 19 1008 39 10000 0.29 319 22:36 11.05.2022
2166 Clear 20 1008 39 10000 0.55 321 21:50 11.05.2022
2167 Clear 20 1008 38 10000 1.09 327 21:23 11.05.2022
2168 Clouds 22 1008 34 10000 2.01 354 18:49 11.05.2022
2169 Clouds 24 1007 30 10000 2.1 3 16:55 11.05.2022
2170 Clouds 25 1006 27 10000 2.98 358 15:31 11.05.2022
2171 Clouds 27 1005 20 10000 5.5 354 14:39 11.05.2022
2172 Clouds 29 1004 14 10000 3.37 15 14:18 11.05.2022
2173 Clouds 29 1004 14 10000 1.95 75 11:54 11.05.2022
2174 Clear 29 1005 15 10000 2.02 125 11:19 11.05.2022
2175 Clear 27 1008 21 10000 2.32 168 08:40 11.05.2022
2176 Clear 21 1011 36 10000 1.02 211 05:28 11.05.2022
2177 Clouds 18 1011 49 10000 0.23 86 00:45 11.05.2022
2178 Clouds 19 1011 46 10000 1.14 330 22:32 10.05.2022
2179 Clouds 19 1011 44 10000 1.06 340 21:57 10.05.2022
2180 Clouds 20 1011 43 10000 1.38 355 20:58 10.05.2022
2181 Clouds 21 1010 37 10000 1.53 332 19:47 10.05.2022
2182 Clouds 22 1010 35 10000 2.11 341 17:59 10.05.2022
2183 Clouds 22 1009 34 10000 1.67 54 17:29 10.05.2022
2184 Clouds 23 1009 33 10000 1.29 258 15:31 10.05.2022
2185 Clouds 27 1008 24 10000 4.96 288 12:47 10.05.2022
2186 Clouds 28 1007 20 10000 2.89 336 11:51 10.05.2022
2187 Clouds 27 1008 21 10000 3.9 307 11:21 10.05.2022
2188 Clouds 27 1008 21 10000 3.9 307 10:53 10.05.2022
2189 Clouds 26 1009 22 10000 0.33 194 09:26 10.05.2022
2190 Clear 23 1012 29 10000 0.22 139 07:26 10.05.2022
2191 Clear 20 1013 35 10000 0.39 360 04:32 10.05.2022
2192 Clouds 17 1011 45 10000 0.85 205 01:18 10.05.2022
2193 Clouds 18 1011 45 10000 1.24 209 22:57 09.05.2022
2194 Clouds 18 1011 46 10000 0.47 289 21:51 09.05.2022
2195 Clouds 19 1012 46 10000 0.7 318 20:54 09.05.2022
2196 Clouds 19 1012 46 10000 0.78 56 19:29 09.05.2022
2197 Clouds 20 1012 42 10000 1.37 11 17:52 09.05.2022
2198 Clouds 19 1011 44 10000 2.07 334 16:38 09.05.2022
2199 Clouds 19 1011 43 10000 2.65 340 15:52 09.05.2022
2200 Clouds 21 1009 37 10000 5.05 360 15:24 09.05.2022
2201 Clouds 22 1009 36 10000 3 27 14:29 09.05.2022
2202 Clouds 22 1009 36 10000 3 27 13:50 09.05.2022
2203 Clear 27 1006 21 10000 4.81 256 12:26 09.05.2022
2204 Clear 27 1006 21 10000 4.81 256 11:32 09.05.2022
2205 Clear 29 1005 16 10000 2.13 104 10:42 09.05.2022
2206 Clear 27 1008 18 10000 0.53 78 08:45 09.05.2022
2207 Clear 26 1008 19 10000 0.64 65 07:54 09.05.2022
2208 Clear 21 1010 34 10000 0.68 207 03:36 09.05.2022
2209 Clear 19 1008 37 10000 0.49 307 23:37 08.05.2022
2210 Clear 20 1008 36 10000 0.78 321 22:56 08.05.2022
2211 Clear 20 1009 34 10000 1.05 349 21:55 08.05.2022
2212 Clear 21 1009 33 10000 0.98 353 20:35 08.05.2022
2213 Clear 21 1009 34 10000 1.11 317 19:45 08.05.2022
2214 Clear 22 1009 31 10000 2.03 298 18:54 08.05.2022
2215 Clear 23 1009 29 10000 1.93 316 18:18 08.05.2022
2216 Clear 24 1007 26 10000 1.9 355 16:44 08.05.2022
2217 Clear 25 1006 26 10000 1.24 12 15:39 08.05.2022
2218 Clear 27 1006 17 10000 1.18 49 14:45 08.05.2022
2219 Clear 28 1006 14 10000 1.24 75 12:33 08.05.2022
2220 Clear 28 1008 16 10000 1.36 60 10:32 08.05.2022
2221 Clear 27 1009 17 10000 1.21 63 09:58 08.05.2022
2222 Clear 26 1010 18 10000 1.04 67 08:57 08.05.2022
2223 Clear 24 1011 22 10000 0.92 34 07:25 08.05.2022
2224 Clear 19 1012 32 10000 0.79 291 03:40 08.05.2022
2225 Clear 17 1012 40 10000 0.91 294 02:47 08.05.2022
2226 Clear 18 1011 37 10000 1.01 322 00:28 08.05.2022
2227 Clear 18 1011 37 10000 1.01 322 23:50 07.05.2022
2228 Clear 19 1011 36 10000 0.98 323 22:46 07.05.2022
2229 Clear 19 1012 35 10000 0.78 288 21:59 07.05.2022
2230 Clear 19 1012 35 10000 0.78 288 21:34 07.05.2022
2231 Clear 20 1012 34 10000 0.7 260 20:34 07.05.2022
2232 Clear 20 1012 33 10000 0.8 281 19:44 07.05.2022
2233 Clear 21 1012 31 10000 0.93 1 17:43 07.05.2022
2234 Clear 24 1010 24 10000 2.68 29 15:47 07.05.2022
2235 Clear 27 1008 14 10000 7.67 19 13:58 07.05.2022
2236 Clear 28 1010 13 10000 2.36 17 10:46 07.05.2022
2237 Clear 26 1011 16 10000 0.75 35 09:19 07.05.2022
2238 Clear 25 1012 17 10000 0.3 178 07:50 07.05.2022
2239 Clear 23 1013 20 10000 0.72 206 06:43 07.05.2022
2240 Clear 20 1014 28 10000 0.92 238 04:56 07.05.2022
2241 Clear 16 1013 40 10000 0.94 314 01:24 07.05.2022
2242 Clear 17 1013 39 10000 0.98 347 23:37 06.05.2022
2243 Clear 18 1013 35 10000 1.24 353 22:27 06.05.2022
2244 Clear 18 1013 35 10000 1.24 353 21:43 06.05.2022
2245 Clear 19 1013 33 10000 1.3 5 20:33 06.05.2022
2246 Clear 20 1012 29 10000 1.6 352 19:29 06.05.2022
2247 Clear 20 1012 29 10000 1.6 352 19:29 06.05.2022
2248 Clear 20 1012 29 10000 1.6 352 18:57 06.05.2022
2249 Clear 21 1012 26 10000 2.51 348 17:38 06.05.2022
2250 Clear 23 1009 21 10000 4.51 13 16:23 06.05.2022
2251 Clear 23 1009 21 10000 4.51 13 15:39 06.05.2022
2252 Clear 25 1008 17 10000 2.43 40 14:46 06.05.2022
2253 Clear 25 1008 19 10000 1.81 84 12:54 06.05.2022
2254 Clear 25 1008 19 10000 1.81 84 12:33 06.05.2022
2255 Clear 25 1009 19 10000 1.74 94 11:41 06.05.2022
2256 Clear 24 1011 22 10000 1.23 107 10:26 06.05.2022
2257 Clear 24 1011 22 10000 1.23 107 09:39 06.05.2022
2258 Clear 21 1012 32 10000 0.72 123 07:59 06.05.2022
2259 Clear 20 1013 37 10000 0.52 156 06:39 06.05.2022
2260 Clear 17 1014 49 10000 0.89 207 04:51 06.05.2022
2261 Clear 14 1013 63 10000 1.48 209 02:43 06.05.2022
2262 Clear 14 1013 64 10000 1.41 216 23:36 05.05.2022
2263 Clear 14 1013 66 10000 0.78 194 21:52 05.05.2022
2264 Clear 14 1014 67 10000 0.34 202 20:54 05.05.2022
2265 Clouds 14 1014 66 10000 0.08 18 19:49 05.05.2022
2266 Clouds 15 1014 65 10000 1.27 17 16:57 05.05.2022
2267 Clouds 16 1013 60 10000 3.03 26 16:18 05.05.2022
2268 Clouds 18 1011 45 10000 3.64 275 14:43 05.05.2022
2269 Clear 23 1007 31 10000 1.7 358 13:20 05.05.2022
2270 Clear 23 1008 31 10000 1.58 58 12:24 05.05.2022
2271 Clear 22 1009 33 10000 1.04 90 10:30 05.05.2022
2272 Clear 22 1011 36 10000 0.51 102 09:34 05.05.2022
2273 Clear 18 1014 48 10000 0.5 117 07:24 05.05.2022
2274 Clear 13 1015 69 10000 1.45 211 02:33 05.05.2022
2275 Clear 13 1014 71 10000 1.12 217 01:47 05.05.2022
2276 Clear 13 1014 72 10000 0.69 243 01:22 05.05.2022
2277 Clear 13 1015 73 10000 0.7 216 23:31 04.05.2022
2278 Clouds 13 1015 73 10000 0.32 152 22:25 04.05.2022
2279 Clouds 13 1015 73 10000 0.32 152 21:49 04.05.2022
2280 Clouds 14 1016 73 10000 0.27 248 21:26 04.05.2022
2281 Clouds 14 1016 74 10000 0.25 261 20:22 04.05.2022
2282 Clouds 14 1016 74 10000 0.17 223 19:51 04.05.2022
2283 Clouds 14 1016 74 10000 0.8 315 18:49 04.05.2022
2284 Clouds 14 1016 74 10000 0.83 319 18:21 04.05.2022
2285 Clouds 15 1015 71 10000 0.82 329 17:29 04.05.2022
2286 Clouds 15 1015 66 10000 1.13 335 15:38 04.05.2022
2287 Clouds 16 1014 62 10000 1.57 336 14:59 04.05.2022
2288 Clouds 16 1014 61 10000 2.3 359 14:20 04.05.2022
2289 Clouds 18 1013 52 10000 4.4 17 13:18 04.05.2022
2290 Clouds 18 1014 52 10000 4.23 21 12:29 04.05.2022
2291 Clouds 17 1015 54 6858 2.94 36 10:40 04.05.2022
2292 Clouds 16 1016 59 10000 1.71 352 09:38 04.05.2022
2293 Clouds 16 1016 61 6934 1.25 343 08:33 04.05.2022
2294 Clouds 14 1016 70 10000 1.07 305 05:50 04.05.2022
2295 Rain 12 1016 80 10000 1.36 340 02:43 04.05.2022
2296 Rain 13 1014 80 10000 1.35 360 23:41 03.05.2022
2297 Rain 13 1015 71 10000 1.95 6 22:20 03.05.2022
2298 Rain 13 1015 71 10000 1.95 6 21:36 03.05.2022
2299 Rain 14 1015 68 10000 1.83 255 20:52 03.05.2022
2300 Clouds 14 1014 68 10000 1.48 236 19:44 03.05.2022
2301 Clouds 14 1015 71 10000 2.15 238 18:50 03.05.2022
2302 Rain 13 1014 72 10000 2.63 240 17:38 03.05.2022
2303 Rain 13 1014 76 10000 0.52 3 16:35 03.05.2022
2304 Clouds 14 1013 68 10000 2.42 1 14:51 03.05.2022
2305 Clouds 13 1011 75 10000 3.59 328 12:47 03.05.2022
2306 Clouds 17 1009 60 7086 6.71 271 12:25 03.05.2022
2307 Clouds 17 1009 60 7086 6.71 271 12:25 03.05.2022
2308 Clouds 20 1008 48 10000 3.77 320 10:52 03.05.2022
2309 Clouds 22 1009 40 10000 1.74 32 08:58 03.05.2022
2310 Clouds 18 1012 55 10000 1.71 23 06:46 03.05.2022
2311 Clouds 15 1013 68 10000 2.03 8 04:58 03.05.2022
2312 Clouds 16 1011 62 10000 1.15 85 23:44 02.05.2022
2313 Clouds 16 1011 61 10000 0.88 353 22:34 02.05.2022
2314 Clouds 17 1012 59 10000 1.25 317 21:49 02.05.2022
2315 Clouds 17 1012 57 10000 1.1 355 20:50 02.05.2022
2316 Clouds 17 1012 58 10000 1.08 194 18:35 02.05.2022
2317 Clouds 16 1012 62 10000 1.73 210 17:53 02.05.2022
2318 Clouds 16 1012 62 10000 1.73 210 17:33 02.05.2022
2319 Clouds 17 1011 56 10000 2.29 337 16:20 02.05.2022
2320 Clouds 20 1008 44 10000 3.29 23 15:19 02.05.2022
2321 Clouds 21 1007 43 10000 3.89 27 13:48 02.05.2022
2322 Clouds 20 1007 46 10000 3.96 84 12:18 02.05.2022
2323 Clouds 27 1004 23 10000 5.88 86 10:25 02.05.2022
2324 Clouds 27 1005 20 10000 1.04 82 08:46 02.05.2022
2325 Clouds 26 1005 22 10000 1.06 61 07:39 02.05.2022
2326 Clouds 20 1005 36 10000 1.18 3 01:58 02.05.2022
2327 Clouds 21 1005 35 10000 0.81 348 00:24 02.05.2022
2328 Clouds 21 1005 35 10000 0.81 348 23:47 01.05.2022
2329 Clouds 22 1005 33 10000 1.16 1 22:20 01.05.2022
2330 Clouds 22 1006 32 10000 1.27 26 20:58 01.05.2022
2331 Clouds 23 1006 31 10000 0.89 16 19:49 01.05.2022
2332 Clouds 23 1005 28 10000 1.62 17 18:55 01.05.2022
2333 Clouds 24 1005 27 10000 1.81 34 18:18 01.05.2022
2334 Clouds 25 1004 25 10000 2.25 76 17:18 01.05.2022
2335 Clouds 26 1003 22 10000 3.65 92 16:23 01.05.2022
2336 Clouds 28 1002 17 10000 4.74 83 15:23 01.05.2022
2337 Clouds 29 1002 14 10000 5.88 83 13:42 01.05.2022
2338 Clear 29 1004 13 10000 1.91 39 10:50 01.05.2022
2339 Clear 27 1006 16 10000 1.31 47 08:51 01.05.2022
2340 Clouds 26 1007 17 10000 1.02 44 07:53 01.05.2022
2341 Clouds 18 1008 36 10000 0.12 124 03:26 01.05.2022
2342 Clear 19 1007 33 10000 1.11 342 23:23 30.04.2022
2343 Clear 20 1007 31 10000 1.22 5 21:35 30.04.2022
2344 Clear 21 1007 31 10000 1.16 11 20:36 30.04.2022
2345 Clear 21 1007 32 10000 1 12 19:36 30.04.2022
2346 Clear 23 1007 27 10000 2.16 348 17:44 30.04.2022
2347 Clear 24 1006 23 10000 2.99 2 16:37 30.04.2022
2348 Clear 27 1004 16 10000 1.64 58 15:21 30.04.2022
2349 Clear 27 1004 16 10000 1.64 58 14:33 30.04.2022
2350 Clear 28 1005 15 10000 1.68 75 12:36 30.04.2022
2351 Clear 27 1006 16 10000 1.55 80 11:33 30.04.2022
2352 Clear 27 1007 17 10000 1.45 83 10:40 30.04.2022
2353 Clear 25 1010 21 10000 1.06 72 08:54 30.04.2022
2354 Clear 21 1013 32 10000 0.43 329 05:38 30.04.2022
2355 Clear 16 1012 50 10000 0.83 254 01:51 30.04.2022
2356 Clear 17 1012 49 10000 0.51 327 23:36 29.04.2022
2357 Clear 17 1013 48 10000 0.89 342 22:31 29.04.2022
2358 Clouds 18 1014 45 10000 0.97 324 21:27 29.04.2022
2359 Clouds 18 1014 45 10000 0.97 324 20:39 29.04.2022
2360 Clouds 19 1014 43 10000 0.97 310 19:38 29.04.2022
2361 Clouds 20 1013 38 10000 1.36 262 17:50 29.04.2022
2362 Clouds 20 1013 40 10000 3.09 284 16:56 29.04.2022
2363 Clouds 21 1011 36 10000 2.51 270 14:50 29.04.2022
2364 Clouds 21 1012 33 10000 1.61 303 14:20 29.04.2022
2365 Clouds 20 1012 40 10000 2.23 56 12:43 29.04.2022
2366 Clouds 27 1010 18 10000 1.24 114 10:58 29.04.2022
2367 Clouds 26 1012 22 10000 1.27 163 08:33 29.04.2022
2368 Clear 23 1014 28 10000 1.05 197 07:27 29.04.2022
2369 Clear 23 1014 28 10000 1.05 197 06:37 29.04.2022
2370 Clear 19 1016 41 10000 1.29 216 03:34 29.04.2022
2371 Clouds 17 1015 50 10000 0.49 247 00:19 29.04.2022
2372 Clouds 18 1015 48 10000 0.5 267 23:27 28.04.2022
2373 Clouds 18 1015 48 10000 0.5 267 22:41 28.04.2022
2374 Clouds 18 1016 47 10000 0.98 10 21:46 28.04.2022
2375 Clouds 18 1016 46 10000 0.85 307 20:55 28.04.2022
2376 Clouds 18 1016 46 10000 1.13 290 20:22 28.04.2022
2377 Clouds 19 1015 43 10000 0.84 267 19:41 28.04.2022
2378 Clouds 19 1015 43 10000 0.85 328 19:21 28.04.2022
2379 Clouds 19 1014 42 10000 1 8 18:23 28.04.2022
2380 Clouds 19 1014 41 10000 1.38 275 16:59 28.04.2022
2381 Clouds 20 1013 40 10000 5.2 317 16:22 28.04.2022
2382 Clouds 20 1013 40 10000 5.2 317 15:57 28.04.2022
2383 Clouds 23 1011 29 10000 4.93 314 15:27 28.04.2022
2384 Clouds 23 1009 27 10000 0.83 221 13:44 28.04.2022
2385 Clouds 21 1010 33 10000 2.1 36 12:42 28.04.2022
2386 Clouds 24 1010 30 10000 7.26 334 11:53 28.04.2022
2387 Clouds 28 1008 16 10000 1.96 183 10:37 28.04.2022
2388 Clouds 27 1009 18 10000 1.92 170 09:52 28.04.2022
2389 Clouds 26 1010 21 10000 1.5 166 08:30 28.04.2022
2390 Clouds 23 1012 27 10000 1.48 197 06:58 28.04.2022
2391 Clouds 22 1012 30 10000 1.16 205 05:55 28.04.2022
2392 Clouds 21 1013 34 10000 1.56 199 04:50 28.04.2022
2393 Clouds 21 1013 34 10000 1.56 199 04:31 28.04.2022
2394 Clouds 17 1014 49 10000 0.63 297 23:59 27.04.2022
2395 Clouds 18 1014 49 10000 0.71 327 22:34 27.04.2022
2396 Clouds 19 1014 45 10000 1.78 345 21:51 27.04.2022
2397 Clouds 20 1014 41 10000 2.19 343 20:56 27.04.2022
2398 Clouds 20 1014 41 10000 2.19 343 20:35 27.04.2022
2399 Clouds 20 1014 39 10000 2.98 8 19:37 27.04.2022
2400 Clouds 20 1013 37 10000 2.88 197 18:52 27.04.2022
2401 Clouds 21 1013 36 10000 0.65 171 18:22 27.04.2022
2402 Clouds 19 1012 41 10000 5.23 305 16:27 27.04.2022
2403 Clouds 26 1008 19 10000 3.97 320 14:31 27.04.2022
2404 Clouds 28 1008 15 10000 0.69 58 11:45 27.04.2022
2405 Clouds 27 1009 15 10000 1.45 77 11:20 27.04.2022
2406 Clouds 26 1011 17 10000 1.07 101 08:58 27.04.2022
2407 Clouds 23 1012 21 10000 0.85 192 07:18 27.04.2022
2408 Clouds 19 1013 32 10000 0.65 223 04:21 27.04.2022
2409 Clouds 16 1013 34 10000 0.7 296 01:31 27.04.2022
2410 Clouds 17 1013 34 10000 0.93 321 00:36 27.04.2022
2411 Clouds 17 1013 34 10000 0.93 322 00:36 27.04.2022
2412 Clouds 18 1013 31 10000 1.11 355 23:25 26.04.2022
2413 Clouds 18 1013 31 10000 1.11 355 22:57 26.04.2022
2414 Clouds 18 1013 31 10000 1.11 355 22:38 26.04.2022
2415 Clouds 19 1013 28 10000 1.29 360 21:26 26.04.2022
2416 Clouds 19 1013 28 10000 1.29 360 21:26 26.04.2022
2417 Clouds 19 1013 28 10000 1.29 360 20:41 26.04.2022
2418 Clouds 20 1013 25 10000 1.62 3 19:49 26.04.2022
2419 Clouds 20 1013 25 10000 1.62 3 19:30 26.04.2022
2420 Clouds 21 1012 25 10000 1.71 354 18:44 26.04.2022
2421 Clouds 21 1012 24 10000 1.87 341 17:50 26.04.2022
2422 Clouds 24 1010 19 10000 3.02 9 16:26 26.04.2022
2423 Clouds 26 1008 12 10000 1.99 58 13:58 26.04.2022
2424 Clouds 26 1008 11 10000 2.17 59 13:31 26.04.2022
2425 Clouds 26 1008 11 10000 1.57 96 11:48 26.04.2022
2426 Clouds 26 1009 12 10000 1.31 106 10:31 26.04.2022
2427 Clouds 24 1011 14 10000 1.07 149 08:47 26.04.2022
2428 Clear 21 1013 20 10000 0.8 199 06:57 26.04.2022
2429 Clear 16 1014 30 10000 0.26 213 04:23 26.04.2022
2430 Clear 14 1013 34 10000 0.65 335 00:57 26.04.2022
2431 Clear 15 1013 34 10000 0.82 335 00:20 26.04.2022
2432 Clear 16 1013 33 10000 0.54 352 22:19 25.04.2022
2433 Clear 16 1013 33 10000 0.53 353 21:33 25.04.2022
2434 Clear 16 1013 32 10000 1.1 345 20:34 25.04.2022
2435 Clear 18 1013 27 10000 1.35 8 18:54 25.04.2022
2436 Clear 19 1012 26 10000 0.97 18 17:41 25.04.2022
2437 Clear 20 1011 24 10000 1.13 48 16:51 25.04.2022
2438 Clear 22 1009 15 10000 6.01 29 15:23 25.04.2022
2439 Clear 23 1009 15 10000 4.74 28 14:34 25.04.2022
2440 Clear 24 1008 13 10000 2.43 30 13:29 25.04.2022
2441 Clear 23 1009 18 10000 1.8 67 10:58 25.04.2022
2442 Clear 22 1011 23 10000 1.69 66 09:55 25.04.2022
2443 Clouds 20 1013 31 10000 1.19 34 08:23 25.04.2022
2444 Clouds 17 1014 41 10000 1.07 33 06:18 25.04.2022
2445 Clouds 14 1013 56 10000 1.11 212 01:49 25.04.2022
2446 Clouds 15 1013 53 10000 0.97 183 23:57 24.04.2022
2447 Clouds 15 1014 51 10000 1.63 254 23:28 24.04.2022
2448 Clouds 15 1014 51 10000 1.63 254 22:39 24.04.2022
2449 Clouds 15 1014 54 10000 4.4 296 21:58 24.04.2022
2450 Clouds 16 1015 53 10000 1.96 283 21:23 24.04.2022
2451 Clouds 16 1015 53 10000 1.96 283 20:47 24.04.2022
2452 Clouds 17 1013 51 10000 0.14 323 20:21 24.04.2022
2453 Rain 17 1013 51 10000 1.05 325 18:54 24.04.2022
2454 Rain 17 1013 49 10000 0.35 158 17:54 24.04.2022
2455 Rain 17 1013 49 10000 0.35 158 17:54 24.04.2022
2456 Clouds 17 1013 50 10000 1.36 132 17:21 24.04.2022
2457 Clouds 17 1013 50 10000 1.34 130 16:56 24.04.2022
2458 Rain 17 1013 51 10000 0.29 352 16:29 24.04.2022
2459 Rain 17 1013 51 10000 0.29 352 16:29 24.04.2022
2460 Clouds 17 1013 51 10000 0.33 354 15:52 24.04.2022
2461 Clouds 17 1012 49 10000 2.3 330 14:40 24.04.2022
2462 Clouds 20 1009 36 10000 2.25 290 13:38 24.04.2022
2463 Clouds 23 1007 27 10000 0.48 203 13:18 24.04.2022
2464 Clouds 22 1008 29 10000 0.9 343 11:50 24.04.2022
2465 Clouds 22 1010 30 10000 1.11 178 10:48 24.04.2022
2466 Clouds 23 1010 26 10000 2.23 14 09:47 24.04.2022
2467 Clouds 21 1012 30 10000 0.85 178 08:18 24.04.2022
2468 Clouds 19 1014 37 10000 0.69 143 05:45 24.04.2022
2469 Clouds 15 1014 52 10000 0.71 230 02:48 24.04.2022
2470 Clouds 16 1014 47 10000 0.82 209 00:45 24.04.2022
2471 Clouds 16 1014 47 10000 0.36 175 23:55 23.04.2022
2472 Clouds 17 1014 45 10000 0.11 145 23:25 23.04.2022
2473 Clouds 17 1014 45 10000 0.11 145 22:39 23.04.2022
2474 Clouds 17 1015 45 10000 0.72 255 21:41 23.04.2022
2475 Clouds 17 1015 45 10000 1.22 240 21:22 23.04.2022
2476 Rain 16 1015 45 10000 1.13 211 19:56 23.04.2022
2477 Clouds 17 1015 44 10000 1.41 229 19:20 23.04.2022
2478 Clouds 17 1015 44 10000 1.38 227 18:54 23.04.2022
2479 Clouds 17 1015 44 10000 1.38 227 18:32 23.04.2022
2480 Clouds 17 1015 43 10000 3.2 243 17:46 23.04.2022
2481 Clouds 18 1014 42 10000 4.79 257 16:45 23.04.2022
2482 Clear 21 1012 28 10000 1.91 268 15:43 23.04.2022
2483 Clear 22 1011 22 10000 2.2 38 13:24 23.04.2022
2484 Clear 22 1013 24 10000 0.95 50 11:29 23.04.2022
2485 Clear 21 1014 27 10000 1.18 58 09:41 23.04.2022
2486 Clear 19 1015 34 10000 1.3 59 07:52 23.04.2022
2487 Clear 14 1016 54 10000 0.34 246 03:57 23.04.2022
2488 Clear 13 1016 62 10000 0.26 344 02:34 23.04.2022
2489 Clear 14 1014 53 10000 1.11 3 23:34 22.04.2022
2490 Clear 14 1014 53 10000 1.19 6 22:40 22.04.2022
2491 Clear 15 1014 53 10000 1.63 359 21:56 22.04.2022
2492 Clear 15 1014 53 10000 1.65 359 21:55 22.04.2022
2493 Clear 15 1014 53 10000 1.63 359 21:37 22.04.2022
2494 Clear 16 1014 51 10000 2.43 8 20:30 22.04.2022
2495 Clouds 17 1014 44 10000 2.23 29 19:23 22.04.2022
2496 Clouds 17 1014 44 10000 2.23 29 18:56 22.04.2022
2497 Clouds 17 1014 43 10000 2.38 28 18:24 22.04.2022
2498 Clouds 18 1013 41 10000 1.32 64 16:53 22.04.2022
2499 Clouds 18 1012 37 10000 2.07 92 15:57 22.04.2022
2500 Clouds 19 1010 33 10000 2.74 79 15:23 22.04.2022
2501 Clouds 19 1010 33 10000 2.74 79 14:37 22.04.2022
2502 Clouds 17 1012 43 10000 3.39 114 13:41 22.04.2022
2503 Clouds 18 1011 35 10000 2.27 178 12:35 22.04.2022
2504 Clouds 21 1010 26 10000 3.37 22 11:23 22.04.2022
2505 Clouds 21 1010 26 10000 3.39 23 10:56 22.04.2022
2506 Clouds 21 1010 26 10000 3.37 22 10:32 22.04.2022
2507 Clouds 20 1012 29 10000 1.81 42 09:54 22.04.2022
2508 Clouds 19 1013 34 10000 1 70 08:56 22.04.2022
2509 Clouds 18 1014 37 10000 0.97 96 08:29 22.04.2022
2510 Clouds 15 1016 49 10000 0.53 62 05:31 22.04.2022
2511 Clouds 12 1014 59 10000 0.44 49 00:53 22.04.2022
2512 Clouds 13 1014 54 10000 1.07 9 23:29 21.04.2022
2513 Clouds 13 1014 54 10000 1.07 9 22:34 21.04.2022
2514 Rain 14 1014 52 10000 1.12 53 21:23 21.04.2022
2515 Clouds 15 1013 47 10000 1.44 73 20:27 21.04.2022
2516 Rain 16 1013 46 10000 1.79 55 18:49 21.04.2022
2517 Clouds 16 1012 45 10000 1.79 53 18:19 21.04.2022
2518 Clear 17 1011 43 10000 2.05 54 16:56 21.04.2022
2519 Clear 18 1010 37 10000 2.94 89 15:24 21.04.2022
2520 Clear 18 1010 37 10000 2.94 89 14:51 21.04.2022
2521 Clouds 19 1009 32 10000 6.21 131 13:56 21.04.2022
2522 Clouds 20 1008 28 10000 4.72 117 13:20 21.04.2022
2523 Clouds 20 1009 27 10000 3.93 102 11:37 21.04.2022
2524 Clear 20 1011 27 10000 1.45 21 09:23 21.04.2022
2525 Clear 19 1012 29 10000 1.06 36 08:29 21.04.2022
2526 Clear 16 1013 34 10000 0.29 40 06:25 21.04.2022
2527 Clear 14 1014 44 10000 0.78 317 03:37 21.04.2022
2528 Clear 12 1013 50 10000 0.7 340 02:56 21.04.2022
2529 Clear 12 1013 50 10000 0.7 340 02:38 21.04.2022
2530 Clear 13 1012 48 10000 0.72 45 00:25 21.04.2022
2531 Clear 14 1012 46 10000 0.59 54 23:24 20.04.2022
2532 Clear 14 1012 46 10000 0.59 54 22:52 20.04.2022
2533 Clear 14 1012 46 10000 0.59 54 22:32 20.04.2022
2534 Clear 14 1012 46 10000 0.59 54 22:32 20.04.2022
2535 Clear 14 1012 44 10000 0.28 17 21:35 20.04.2022
2536 Clear 15 1012 43 10000 0.45 110 20:43 20.04.2022
2537 Clouds 17 1011 24 10000 1.52 179 19:55 20.04.2022
2538 Clear 17 1010 22 10000 2.54 171 19:29 20.04.2022
2539 Clear 17 1010 22 10000 2.54 171 18:33 20.04.2022
2540 Clear 19 1009 17 10000 3.52 188 16:58 20.04.2022
2541 Clear 19 1009 17 10000 3.52 188 16:38 20.04.2022
2542 Clear 21 1008 13 10000 7.27 187 14:48 20.04.2022
2543 Clouds 22 1009 14 10000 7.16 203 11:56 20.04.2022
2544 Clouds 22 1009 14 10000 7.16 203 11:33 20.04.2022
2545 Clouds 22 1011 17 10000 5.77 201 10:29 20.04.2022
2546 Clouds 21 1012 19 10000 4.96 202 09:27 20.04.2022
2547 Clouds 20 1013 20 10000 5.19 203 08:24 20.04.2022
2548 Clouds 20 1013 20 10000 5.19 203 07:43 20.04.2022
2549 Clouds 16 1014 32 10000 1.86 220 04:49 20.04.2022
2550 Clouds 14 1014 43 10000 1.58 220 00:55 20.04.2022
2551 Clouds 15 1014 46 10000 1.61 226 00:20 20.04.2022
2552 Clouds 15 1013 51 10000 0.82 215 22:40 19.04.2022
2553 Clouds 16 1014 52 10000 0.42 128 22:19 19.04.2022
2554 Clouds 16 1014 52 10000 0.42 128 21:38 19.04.2022
2555 Clear 16 1014 52 10000 0.31 73 20:56 19.04.2022
2556 Clear 16 1014 52 10000 0.34 73 20:34 19.04.2022
2557 Clouds 17 1014 54 10000 0.15 128 19:31 19.04.2022
2558 Clouds 18 1013 51 10000 1.26 21 18:18 19.04.2022
2559 Clouds 18 1013 50 10000 2.26 12 16:46 19.04.2022
2560 Clouds 19 1012 42 10000 3.01 5 16:24 19.04.2022
2561 Clouds 22 1011 29 10000 1.69 349 15:20 19.04.2022
2562 Clouds 22 1011 29 10000 1.69 349 14:32 19.04.2022
2563 Clouds 24 1010 19 10000 5.22 206 12:52 19.04.2022
2564 Clouds 24 1011 23 10000 3.29 172 12:26 19.04.2022
2565 Clouds 22 1013 35 10000 4.91 113 11:23 19.04.2022
2566 Clouds 19 1015 42 10000 1.35 62 09:26 19.04.2022
2567 Rain 17 1017 50 10000 0.31 96 07:26 19.04.2022
2568 Rain 13 1018 71 10000 0.79 228 04:19 19.04.2022
2569 Clouds 13 1017 72 10000 0.31 153 00:56 19.04.2022
2570 Clouds 13 1017 72 10000 0.16 1 23:38 18.04.2022
2571 Rain 13 1018 73 10000 0.62 192 21:48 18.04.2022
2572 Rain 12 1019 77 10000 0.73 200 21:24 18.04.2022
2573 Rain 12 1019 77 10000 0.73 200 20:38 18.04.2022
2574 Rain 12 1019 80 10000 0.33 117 19:59 18.04.2022
2575 Clouds 12 1019 82 10000 0.83 348 19:29 18.04.2022
2576 Clouds 12 1019 82 10000 0.83 348 18:34 18.04.2022
2577 Clouds 12 1019 84 10000 2.4 352 17:39 18.04.2022
2578 Clouds 12 1019 84 10000 2.4 352 17:39 18.04.2022
2579 Clouds 12 1019 84 10000 2.4 352 17:39 18.04.2022
2580 Clouds 13 1019 82 10000 3.29 10 17:19 18.04.2022
2581 Clouds 13 1019 82 10000 3.29 10 16:36 18.04.2022
2582 Clouds 13 1018 85 5888 0.98 154 15:28 18.04.2022
2583 Rain 14 1015 76 10000 1.9 8 13:44 18.04.2022
2584 Clouds 15 1014 67 10000 2.14 352 12:41 18.04.2022
2585 Clouds 19 1012 44 10000 1.57 144 11:43 18.04.2022
2586 Rain 20 1012 41 10000 3.1 108 10:46 18.04.2022
2587 Clouds 17 1014 52 10000 3.41 119 09:31 18.04.2022
2588 Rain 22 1012 31 10000 6.95 173 08:37 18.04.2022
2589 Clouds 18 1015 42 10000 0.69 221 06:25 18.04.2022
2590 Clouds 15 1014 56 10000 0.72 189 02:22 18.04.2022
2591 Clouds 17 1012 44 10000 1.67 201 22:53 17.04.2022
2592 Clouds 17 1012 44 10000 1.67 201 22:31 17.04.2022
2593 Clouds 18 1012 44 10000 1.18 169 21:32 17.04.2022
2594 Clouds 18 1013 41 10000 2.03 167 20:50 17.04.2022
2595 Clouds 19 1013 41 10000 2.35 182 19:55 17.04.2022
2596 Clouds 20 1012 34 10000 2.54 157 18:34 17.04.2022
2597 Clouds 21 1009 25 10000 1.15 33 16:44 17.04.2022
2598 Clouds 22 1008 23 10000 2.12 291 15:33 17.04.2022
2599 Clouds 23 1007 21 10000 1.32 332 14:38 17.04.2022
2600 Clouds 26 1005 17 10000 4.01 223 13:23 17.04.2022
2601 Clouds 26 1005 17 10000 4.01 223 12:30 17.04.2022
2602 Clear 26 1006 12 10000 1.08 173 10:48 17.04.2022
2603 Clear 25 1007 13 10000 0.79 202 10:29 17.04.2022
2604 Clear 25 1007 13 10000 0.79 202 09:50 17.04.2022
2605 Clear 24 1008 14 10000 0.39 150 08:58 17.04.2022
2606 Clouds 23 1010 14 10000 0.52 64 08:27 17.04.2022
2607 Clouds 19 1011 16 10000 0.58 21 05:20 17.04.2022
2608 Clouds 16 1010 24 10000 1.11 330 01:40 17.04.2022
2609 Clouds 16 1010 23 10000 1.29 357 23:59 16.04.2022
2610 Clouds 17 1009 21 10000 1.46 349 22:50 16.04.2022
2611 Clouds 17 1009 19 10000 1.5 9 21:44 16.04.2022
2612 Clouds 18 1009 18 10000 1.72 18 20:54 16.04.2022
2613 Clouds 19 1009 15 10000 1.8 10 19:21 16.04.2022
2614 Clouds 19 1009 15 10000 1.8 10 18:33 16.04.2022
2615 Clouds 21 1007 10 10000 2.81 22 16:42 16.04.2022
2616 Clouds 22 1006 9 10000 2.55 37 15:46 16.04.2022
2617 Clouds 24 1005 6 10000 2.77 54 14:57 16.04.2022
2618 Clouds 25 1005 6 10000 2.88 71 14:29 16.04.2022
2619 Clouds 25 1005 7 10000 2.71 47 13:41 16.04.2022
2620 Clouds 25 1006 7 10000 2.3 58 12:35 16.04.2022
2621 Clear 24 1007 8 10000 1.66 74 11:24 16.04.2022
2622 Clear 23 1008 9 10000 1.39 84 09:59 16.04.2022
2623 Clear 22 1009 11 10000 0.89 123 09:19 16.04.2022
2624 Clear 22 1009 11 10000 0.89 123 08:31 16.04.2022
2625 Clouds 19 1011 16 10000 0.34 169 06:59 16.04.2022
2626 Clouds 16 1012 21 10000 0.3 309 04:36 16.04.2022
2627 Clear 13 1011 31 10000 1.01 341 00:38 16.04.2022
2628 Clear 13 1011 31 10000 0.74 326 23:34 15.04.2022
2629 Clear 14 1011 30 10000 1.18 339 22:38 15.04.2022
2630 Clear 15 1012 28 10000 1.09 351 21:59 15.04.2022
2631 Clear 15 1012 26 10000 1.35 353 21:18 15.04.2022
2632 Clear 15 1012 26 10000 1.35 353 21:18 15.04.2022
2633 Clear 15 1012 26 10000 1.35 353 20:31 15.04.2022
2634 Clear 16 1011 23 10000 1.59 18 19:41 15.04.2022
2635 Clear 17 1011 21 10000 1.37 29 18:55 15.04.2022
2636 Clear 18 1011 20 10000 1.54 35 18:26 15.04.2022
2637 Clear 18 1011 20 10000 1.54 35 17:49 15.04.2022
2638 Clear 19 1010 18 10000 2.84 31 17:22 15.04.2022
2639 Clear 20 1009 15 10000 4.64 23 16:24 15.04.2022
2640 Clear 20 1009 15 10000 4.64 23 15:37 15.04.2022
2641 Clear 24 1007 9 10000 8.58 9 13:55 15.04.2022
2642 Clear 24 1007 9 10000 6.16 11 12:46 15.04.2022
2643 Clear 24 1007 9 10000 3.18 16 11:59 15.04.2022
2644 Clear 24 1007 9 10000 3.17 17 11:40 15.04.2022
2645 Clear 23 1009 11 10000 1.95 32 10:45 15.04.2022
2646 Clear 22 1010 13 10000 1.59 41 09:50 15.04.2022
2647 Clear 21 1011 15 10000 1.33 45 09:21 15.04.2022
2648 Clear 20 1012 18 10000 1.17 41 08:24 15.04.2022
2649 Clear 18 1013 21 10000 1.33 37 06:46 15.04.2022
2650 Clear 14 1014 38 10000 0.87 331 04:28 15.04.2022
2651 Clear 14 1012 36 10000 1.03 0 23:42 14.04.2022
2652 Clear 14 1012 35 10000 0.95 12 23:19 14.04.2022
2653 Clear 14 1012 35 10000 0.95 12 22:42 14.04.2022
2654 Clear 15 1011 33 10000 0.91 2 22:24 14.04.2022
2655 Clear 15 1011 33 10000 0.81 17 21:32 14.04.2022
2656 Clear 17 1011 27 10000 1.56 20 19:24 14.04.2022
2657 Clear 17 1011 27 10000 1.56 20 18:31 14.04.2022
2658 Clear 18 1011 25 10000 2.27 22 17:45 14.04.2022
2659 Clear 19 1009 22 10000 3.49 24 16:49 14.04.2022
2660 Clear 20 1008 20 10000 5.96 33 15:48 14.04.2022
2661 Clouds 23 1006 16 10000 4.54 18 13:52 14.04.2022
2662 Clouds 22 1007 20 10000 1.96 1 13:19 14.04.2022
2663 Clouds 22 1007 20 10000 1.96 1 12:32 14.04.2022
2664 Clouds 22 1008 22 10000 1.84 328 11:36 14.04.2022
2665 Clouds 22 1009 22 10000 2.27 356 10:57 14.04.2022
2666 Clouds 21 1010 23 10000 1.85 21 10:29 14.04.2022
2667 Clouds 20 1011 25 10000 1.43 31 09:26 14.04.2022
2668 Clouds 19 1012 28 10000 1.28 27 07:52 14.04.2022
2669 Clouds 15 1013 45 10000 0.5 221 05:23 14.04.2022
2670 Clouds 13 1012 55 10000 1 220 23:50 13.04.2022
2671 Clouds 13 1012 55 10000 1.21 219 22:37 13.04.2022
2672 Clouds 13 1013 56 10000 0.91 225 21:42 13.04.2022
2673 Clouds 13 1014 57 10000 2.24 6 20:27 13.04.2022
2674 Clouds 14 1014 54 10000 3.27 19 19:46 13.04.2022
2675 Clouds 15 1014 52 10000 4.41 8 18:36 13.04.2022
2676 Clouds 14 1013 57 10000 2.2 35 17:24 13.04.2022
2677 Clouds 14 1013 57 10000 2.2 35 16:44 13.04.2022
2678 Clouds 15 1012 52 10000 3.92 5 15:44 13.04.2022
2679 Clouds 19 1008 38 10000 5.79 1 15:19 13.04.2022
2680 Clouds 19 1008 38 10000 5.79 1 14:30 13.04.2022
2681 Clouds 20 1007 31 10000 2.19 40 13:37 13.04.2022
2682 Clear 22 1006 27 10000 5.64 95 12:41 13.04.2022
2683 Clear 23 1007 19 10000 0.66 317 11:24 13.04.2022
2684 Clear 22 1009 25 10000 0.17 49 09:45 13.04.2022
2685 Clear 20 1010 30 10000 0.66 59 08:43 13.04.2022
2686 Clouds 18 1012 37 10000 1.23 61 07:23 13.04.2022
2687 Clouds 18 1012 37 10000 1.23 61 06:46 13.04.2022
2688 Clouds 17 1013 42 10000 0.97 47 06:18 13.04.2022
2689 Clouds 15 1011 48 10000 0.39 286 00:28 13.04.2022
2690 Clouds 15 1011 48 10000 0.39 286 23:46 12.04.2022
2691 Clouds 15 1011 46 10000 1.14 306 22:31 12.04.2022
2692 Clouds 16 1011 43 10000 1.23 352 21:42 12.04.2022
2693 Clouds 16 1012 43 10000 2.41 24 20:44 12.04.2022
2694 Clouds 17 1012 40 10000 2.24 357 19:54 12.04.2022
2695 Clouds 17 1012 40 10000 2.56 14 19:35 12.04.2022
2696 Clouds 17 1012 41 10000 1.55 16 18:50 12.04.2022
2697 Clouds 17 1013 42 10000 0.59 337 17:36 12.04.2022
2698 Clouds 17 1012 43 10000 1.32 113 16:33 12.04.2022
2699 Clouds 18 1011 38 10000 3.91 66 15:33 12.04.2022
2700 Clouds 20 1009 31 10000 6.55 78 14:33 12.04.2022
2701 Clouds 22 1007 23 10000 3.65 152 13:40 12.04.2022
2702 Clouds 24 1005 21 10000 6.27 106 13:20 12.04.2022
2703 Clouds 23 1005 21 10000 5.46 105 11:47 12.04.2022
2704 Clouds 25 1005 15 10000 4.24 83 11:24 12.04.2022
2705 Clouds 23 1009 19 10000 0.94 37 09:25 12.04.2022
2706 Clouds 22 1010 22 10000 1.41 19 08:26 12.04.2022
2707 Clouds 21 1011 25 10000 1.98 11 06:33 12.04.2022
2708 Clouds 20 1012 27 10000 1.75 17 05:38 12.04.2022
2709 Clouds 18 1011 35 10000 2.05 163 01:47 12.04.2022
2710 Clouds 19 1010 29 10000 2.4 324 23:20 11.04.2022
2711 Clouds 20 1010 27 10000 1.43 354 21:50 11.04.2022
2712 Clouds 20 1010 24 10000 0.86 20 21:18 11.04.2022
2713 Clouds 20 1010 24 10000 0.86 20 20:30 11.04.2022
2714 Clouds 20 1010 24 10000 0.86 20 20:30 11.04.2022
2715 Clouds 21 1010 23 10000 1.41 306 19:57 11.04.2022
2716 Clouds 21 1009 21 10000 1.14 308 19:22 11.04.2022
2717 Clouds 21 1009 21 10000 1.14 308 18:52 11.04.2022
2718 Clouds 22 1008 19 10000 0.97 322 17:57 11.04.2022
2719 Clouds 22 1007 17 10000 1.13 116 16:57 11.04.2022
2720 Clouds 25 1005 12 10000 2.37 139 16:25 11.04.2022
2721 Clouds 26 1005 9 10000 3.96 192 14:36 11.04.2022
2722 Clouds 28 1004 7 10000 7.02 197 12:54 11.04.2022
2723 Clouds 28 1004 7 10000 7.02 197 12:35 11.04.2022
2724 Clouds 28 1005 7 10000 5.22 181 11:42 11.04.2022
2725 Clouds 28 1006 8 10000 4.05 201 10:34 11.04.2022
2726 Clouds 27 1007 11 10000 1.23 208 09:30 11.04.2022
2727 Clear 23 1011 21 10000 0.72 35 07:19 11.04.2022
2728 Clouds 17 1012 33 10000 0.55 282 02:32 11.04.2022
2729 Clouds 19 1011 28 10000 1.4 18 22:54 10.04.2022
2730 Clouds 20 1011 27 10000 1.51 40 22:26 10.04.2022
2731 Clouds 20 1011 27 10000 1.51 40 21:33 10.04.2022
2732 Clouds 20 1011 26 10000 1.13 41 20:33 10.04.2022
2733 Clouds 21 1010 24 10000 1.26 61 19:45 10.04.2022
2734 Clouds 22 1010 22 10000 1.67 71 19:25 10.04.2022
2735 Clouds 22 1010 22 10000 1.67 71 18:45 10.04.2022
2736 Clouds 23 1010 20 10000 1.98 70 17:56 10.04.2022
2737 Clouds 23 1010 20 10000 1.98 70 17:56 10.04.2022
2738 Clouds 23 1010 20 10000 1.98 70 17:37 10.04.2022
2739 Clouds 24 1009 17 10000 2.6 72 16:33 10.04.2022
2740 Clouds 25 1008 13 10000 2.72 74 15:30 10.04.2022
2741 Clouds 28 1007 8 10000 0.7 130 14:25 10.04.2022
2742 Clouds 28 1007 8 10000 1.21 157 12:35 10.04.2022
2743 Clouds 28 1007 8 10000 1.21 157 12:35 10.04.2022
2744 Clouds 28 1008 9 10000 0.62 130 11:56 10.04.2022
2745 Clear 27 1009 10 10000 0.37 112 11:29 10.04.2022
2746 Clear 27 1009 10 10000 0.37 112 10:56 10.04.2022
2747 Clear 26 1010 12 10000 0.49 72 09:58 10.04.2022
2748 Clear 26 1010 12 10000 0.54 77 09:37 10.04.2022
2749 Clear 24 1012 15 10000 0.46 105 08:22 10.04.2022
2750 Clear 23 1013 17 10000 0.2 117 07:27 10.04.2022
2751 Clear 21 1014 20 10000 0.42 269 05:46 10.04.2022
2752 Clear 15 1013 31 10000 0.94 337 02:25 10.04.2022
2753 Clear 17 1013 27 10000 0.85 343 00:27 10.04.2022
2754 Clear 17 1013 27 10000 0.85 343 23:48 09.04.2022
2755 Clear 17 1013 26 10000 0.87 355 22:47 09.04.2022
2756 Clear 18 1013 24 10000 1.37 8 21:35 09.04.2022
2757 Clear 19 1013 23 10000 1.24 4 20:48 09.04.2022
2758 Clouds 20 1013 21 10000 1.5 352 20:25 09.04.2022
2759 Clouds 19 1013 21 10000 1.4 345 19:41 09.04.2022
2760 Clouds 20 1013 20 10000 1.7 347 18:55 09.04.2022
2761 Clouds 22 1013 18 10000 2.48 356 18:19 09.04.2022
2762 Clouds 22 1013 18 10000 2.48 356 17:39 09.04.2022
2763 Clear 22 1012 18 10000 2.21 14 16:50 09.04.2022
2764 Clear 23 1011 17 10000 2.14 37 15:55 09.04.2022
2765 Clear 25 1010 14 10000 2.16 65 15:28 09.04.2022
2766 Clear 25 1010 14 10000 2.07 75 14:27 09.04.2022
2767 Clear 26 1010 14 10000 1.83 78 13:54 09.04.2022
2768 Clear 26 1010 14 10000 1.77 78 12:59 09.04.2022
2769 Clear 26 1010 14 10000 1.77 78 12:34 09.04.2022
2770 Clear 25 1011 16 10000 1.22 94 11:21 09.04.2022
2771 Clear 24 1012 17 10000 1.04 91 10:20 09.04.2022
2772 Clear 24 1012 17 10000 1.04 91 09:37 09.04.2022
2773 Clear 23 1013 20 10000 0.82 94 08:51 09.04.2022
2774 Clear 20 1015 28 10000 0.52 151 06:48 09.04.2022
2775 Clouds 14 1014 48 10000 0.51 97 01:31 09.04.2022
2776 Clouds 16 1014 44 10000 1.44 330 23:30 08.04.2022
2777 Clouds 17 1014 39 10000 0.98 20 21:58 08.04.2022
2778 Clouds 17 1014 39 10000 3.07 35 20:48 08.04.2022
2779 Clouds 19 1013 33 10000 4.49 345 20:23 08.04.2022
2780 Clouds 19 1012 30 10000 2.68 356 19:18 08.04.2022
2781 Clouds 21 1010 22 10000 0.96 84 18:28 08.04.2022
2782 Clouds 21 1010 22 10000 0.96 84 17:45 08.04.2022
2783 Clouds 23 1009 16 10000 1.75 159 17:22 08.04.2022
2784 Clouds 23 1009 16 10000 1.75 159 16:38 08.04.2022
2785 Clouds 23 1008 15 10000 2.92 170 15:53 08.04.2022
2786 Clouds 26 1007 11 10000 6.04 175 15:23 08.04.2022
2787 Clouds 26 1007 10 10000 5.47 195 14:26 08.04.2022
2788 Clouds 26 1007 10 10000 5.47 195 13:44 08.04.2022
2789 Clouds 26 1007 11 10000 4.52 196 13:25 08.04.2022
2790 Clouds 27 1008 11 10000 5 188 11:53 08.04.2022
2791 Clear 26 1009 12 10000 2.84 193 10:33 08.04.2022
2792 Clear 25 1011 15 10000 1.17 175 09:37 08.04.2022
2793 Clear 24 1012 18 10000 0.62 156 08:34 08.04.2022
2794 Clear 21 1015 24 10000 0.22 134 06:47 08.04.2022
2795 Clear 21 1015 24 10000 0.22 134 06:47 08.04.2022
2796 Clear 19 1016 30 10000 0.51 225 04:34 08.04.2022
2797 Clouds 16 1015 36 10000 0.45 349 01:26 08.04.2022
2798 Clouds 16 1016 36 10000 0.84 327 00:22 08.04.2022
2799 Clouds 17 1015 35 10000 0.87 335 22:58 07.04.2022
2800 Clouds 17 1015 35 10000 0.87 335 22:37 07.04.2022
2801 Clouds 18 1016 33 10000 1.03 23 22:19 07.04.2022
2802 Clouds 18 1016 33 10000 1.03 23 21:49 07.04.2022
2803 Clouds 19 1016 31 10000 1.34 4 20:58 07.04.2022
2804 Clouds 19 1016 31 10000 1.34 4 20:30 07.04.2022
2805 Clouds 20 1016 25 10000 0.81 341 18:29 07.04.2022
2806 Clouds 21 1015 22 10000 3.51 6 17:25 07.04.2022
2807 Clouds 21 1015 22 10000 3.51 6 16:44 07.04.2022
2808 Clouds 23 1013 16 10000 5.01 6 16:20 07.04.2022
2809 Clouds 25 1012 12 10000 1.79 26 14:36 07.04.2022
2810 Clouds 26 1011 11 10000 2.39 13 13:42 07.04.2022
2811 Clouds 26 1012 11 10000 2.68 11 12:41 07.04.2022
2812 Clear 26 1014 10 10000 1.11 119 11:29 07.04.2022
2813 Clear 25 1015 11 10000 0.87 137 09:37 07.04.2022
2814 Clear 24 1016 13 10000 0.58 155 08:37 07.04.2022
2815 Clear 22 1018 15 10000 0.25 212 06:42 07.04.2022
2816 Clear 15 1017 26 10000 0.69 344 02:47 07.04.2022
2817 Clouds 15 1017 24 10000 1.4 328 02:18 07.04.2022
2818 Clouds 17 1016 23 10000 1.28 10 23:57 06.04.2022
2819 Clouds 17 1016 22 10000 1.27 357 22:48 06.04.2022
2820 Clouds 18 1016 21 10000 1.26 8 22:25 06.04.2022
2821 Clouds 18 1016 21 10000 1.26 8 21:32 06.04.2022
2822 Clouds 20 1015 19 10000 1.04 25 20:28 06.04.2022
2823 Clouds 20 1015 19 10000 1.04 25 19:53 06.04.2022
2824 Clouds 20 1015 18 10000 1.29 20 18:51 06.04.2022
2825 Clouds 21 1015 18 10000 1.11 343 17:57 06.04.2022
2826 Clouds 21 1015 18 10000 1.11 343 17:35 06.04.2022
2827 Clouds 21 1014 17 10000 1.18 355 16:36 06.04.2022
2828 Clouds 23 1014 15 10000 2.38 16 15:48 06.04.2022
2829 Clouds 25 1012 10 10000 3.04 62 14:23 06.04.2022
2830 Clouds 25 1012 9 10000 2.79 69 12:58 06.04.2022
2831 Clear 25 1013 9 10000 2.14 74 11:55 06.04.2022
2832 Clear 25 1014 10 10000 1.54 87 10:45 06.04.2022
2833 Clear 24 1015 11 10000 0.96 119 10:20 06.04.2022
2834 Clear 24 1015 11 10000 1.02 119 09:40 06.04.2022
2835 Clear 24 1016 12 10000 0.87 150 08:30 06.04.2022
2836 Clear 22 1018 14 10000 0.73 172 07:38 06.04.2022
2837 Clear 15 1019 27 10000 0.51 210 03:37 06.04.2022
2838 Clear 15 1018 24 10000 1.21 342 23:51 05.04.2022
2839 Clear 16 1018 23 10000 1.52 344 22:30 05.04.2022
2840 Clear 17 1018 20 10000 1.74 8 21:19 05.04.2022
2841 Clear 18 1018 18 10000 2.13 358 20:25 05.04.2022
2842 Clouds 19 1017 17 10000 1.37 2 19:26 05.04.2022
2843 Clouds 20 1017 17 10000 1.26 24 17:52 05.04.2022
2844 Clouds 20 1016 16 10000 1.67 27 16:51 05.04.2022
2845 Clear 21 1015 15 10000 1.88 22 15:53 05.04.2022
2846 Clear 21 1015 15 10000 1.88 22 15:33 05.04.2022
2847 Clear 24 1013 9 10000 2.37 28 14:22 05.04.2022
2848 Clear 24 1013 9 10000 1.61 35 12:56 05.04.2022
2849 Clear 24 1014 9 10000 1.17 45 11:50 05.04.2022
2850 Clear 24 1014 9 10000 1.17 45 11:32 05.04.2022
2851 Clear 23 1016 10 10000 0.9 36 09:49 05.04.2022
2852 Clear 22 1017 11 10000 0.76 37 08:52 05.04.2022
2853 Clouds 20 1019 13 10000 0.29 32 06:52 05.04.2022
2854 Clouds 14 1017 20 10000 1.18 349 00:41 05.04.2022
2855 Clouds 15 1016 18 10000 1.49 3 22:41 04.04.2022
2856 Clouds 16 1016 17 10000 1.47 17 22:19 04.04.2022
2857 Clouds 16 1016 17 10000 1.32 32 21:21 04.04.2022
2858 Clouds 16 1016 17 10000 1.32 32 20:49 04.04.2022
2859 Clear 17 1015 15 10000 1.32 39 19:44 04.04.2022
2860 Clear 18 1015 15 10000 0.99 23 19:25 04.04.2022
2861 Clear 19 1015 14 10000 0.83 30 17:55 04.04.2022
2862 Clear 20 1014 12 10000 1.73 29 16:36 04.04.2022
2863 Clear 20 1014 12 10000 1.73 29 16:36 04.04.2022
2864 Clear 21 1012 11 10000 2.03 36 15:43 04.04.2022
2865 Clear 23 1012 8 10000 1.57 56 15:25 04.04.2022
2866 Clear 23 1012 8 10000 1.57 56 14:45 04.04.2022
2867 Clear 23 1011 8 10000 0.98 61 13:22 04.04.2022
2868 Clear 23 1012 9 10000 0.81 53 11:49 04.04.2022
2869 Clear 22 1013 9 10000 0.61 61 11:28 04.04.2022
2870 Clear 19 1016 11 10000 0.4 78 08:29 04.04.2022
2871 Clear 12 1016 21 10000 0.52 311 03:52 04.04.2022
2872 Clear 12 1016 18 10000 1.28 348 00:41 04.04.2022
2873 Clear 14 1015 18 10000 1.06 4 22:36 03.04.2022
2874 Clear 14 1015 18 10000 1.03 12 21:44 03.04.2022
2875 Clear 15 1015 18 10000 0.88 6 20:53 03.04.2022
2876 Clear 16 1015 17 10000 0.82 342 19:45 03.04.2022
2877 Clear 16 1015 16 10000 1.07 349 18:32 03.04.2022
2878 Clear 17 1015 14 10000 1.53 2 17:47 03.04.2022
2879 Clear 18 1014 14 10000 1.7 9 16:57 03.04.2022
2880 Clear 18 1014 14 10000 1.7 9 16:39 03.04.2022
2881 Clear 21 1013 9 10000 1.41 52 14:39 03.04.2022
2882 Clear 21 1013 9 10000 1.41 47 13:51 03.04.2022
2883 Clear 21 1013 9 10000 0.89 51 12:40 03.04.2022
2884 Clear 20 1015 11 10000 0.49 85 10:58 03.04.2022
2885 Clear 19 1016 12 10000 0.72 72 09:36 03.04.2022
2886 Clear 17 1018 18 10000 0.41 155 08:27 03.04.2022
2887 Clear 13 1020 27 10000 0.49 251 04:37 03.04.2022
2888 Clear 10 1018 37 10000 0.71 244 01:53 03.04.2022
2889 Clear 11 1018 36 10000 0.9 346 23:21 02.04.2022
2890 Clear 12 1018 34 10000 0.97 1 21:58 02.04.2022
2891 Clear 12 1018 34 10000 0.97 2 21:36 02.04.2022
2892 Clear 12 1018 33 10000 0.94 22 21:18 02.04.2022
2893 Clear 13 1017 29 10000 1.38 13 19:32 02.04.2022
2894 Clouds 15 1016 26 10000 1.36 18 18:23 02.04.2022
2895 Clouds 15 1016 26 10000 1.36 18 17:53 02.04.2022
2896 Clouds 17 1013 21 10000 3.5 17 16:25 02.04.2022
2897 Clouds 19 1012 17 10000 6.01 6 15:21 02.04.2022
2898 Clouds 19 1012 17 10000 6.01 6 14:49 02.04.2022
2899 Clouds 19 1012 17 10000 6.01 6 14:49 02.04.2022
2900 Clouds 20 1011 15 10000 6.31 13 13:35 02.04.2022
2901 Clouds 21 1010 12 10000 5.18 10 12:38 02.04.2022
2902 Clear 21 1012 13 10000 1.44 48 11:23 02.04.2022
2903 Clear 20 1013 15 10000 1.19 47 09:30 02.04.2022
2904 Clear 17 1016 21 10000 0.49 21 06:51 02.04.2022
2905 Clear 12 1016 35 10000 0.75 307 03:52 02.04.2022
2906 Clear 12 1015 33 10000 0.87 336 23:57 01.04.2022
2907 Clear 13 1015 32 10000 1.1 347 23:22 01.04.2022
2908 Clear 14 1015 29 10000 1.45 355 21:34 01.04.2022
2909 Clear 14 1015 28 10000 1.08 6 20:51 01.04.2022
2910 Clear 15 1015 27 10000 1.05 18 20:25 01.04.2022
2911 Clear 15 1015 26 10000 1.02 16 19:32 01.04.2022
2912 Clear 16 1015 25 10000 1.11 8 18:48 01.04.2022
2913 Clear 17 1014 22 10000 1.76 355 17:47 01.04.2022
2914 Clear 18 1014 20 10000 1.72 353 16:52 01.04.2022
2915 Clear 19 1013 17 10000 2.93 7 15:39 01.04.2022
2916 Clear 23 1010 8 10000 3.25 38 14:21 01.04.2022
2917 Clear 23 1010 8 10000 2.44 52 13:34 01.04.2022
2918 Clear 24 1010 7 10000 1.67 66 12:32 01.04.2022
2919 Clear 24 1010 7 10000 1.67 66 12:32 01.04.2022
2920 Clear 23 1011 7 10000 1.04 90 11:40 01.04.2022
2921 Clear 22 1013 7 10000 0.48 145 10:19 01.04.2022
2922 Clear 21 1014 8 10000 0.53 188 08:58 01.04.2022
2923 Clouds 18 1017 10 10000 0.43 221 06:54 01.04.2022
2924 Clouds 15 1017 13 10000 0.54 244 04:51 01.04.2022
2925 Clouds 15 1017 13 10000 0.54 244 04:31 01.04.2022
2926 Clouds 11 1016 19 10000 0.27 236 01:56 01.04.2022
2927 Clouds 13 1017 18 10000 0.88 345 22:58 31.03.2022
2928 Clouds 14 1017 16 10000 1.09 349 21:51 31.03.2022
2929 Clouds 14 1017 16 10000 1.09 349 21:32 31.03.2022
2930 Clear 15 1017 15 10000 0.6 327 20:29 31.03.2022
2931 Clear 15 1017 15 10000 0.6 327 19:49 31.03.2022
2932 Clear 16 1017 14 10000 0.33 305 18:44 31.03.2022
2933 Clear 17 1017 14 10000 0.09 250 17:49 31.03.2022
2934 Clear 18 1016 14 10000 0.36 132 16:38 31.03.2022
2935 Clear 18 1015 13 10000 0.76 123 15:43 31.03.2022
2936 Clear 20 1015 8 10000 0.97 110 15:19 31.03.2022
2937 Clear 20 1015 9 10000 1.02 109 14:35 31.03.2022
2938 Clear 21 1015 7 10000 1.09 70 11:57 31.03.2022
2939 Clear 20 1016 8 10000 0.92 68 11:20 31.03.2022
2940 Clear 19 1017 9 10000 0.85 66 09:45 31.03.2022
2941 Clear 17 1019 13 10000 0.53 41 07:59 31.03.2022
2942 Clear 13 1020 17 10000 0.41 263 05:23 31.03.2022
2943 Clear 11 1018 24 10000 0.71 336 23:43 30.03.2022
2944 Clear 12 1017 24 10000 0.79 342 22:32 30.03.2022
2945 Clear 12 1017 23 10000 0.84 347 21:39 30.03.2022
2946 Clear 13 1017 23 10000 0.89 5 20:53 30.03.2022
2947 Clear 14 1017 22 10000 1.04 353 20:20 30.03.2022
2948 Clear 14 1017 22 10000 1.04 353 20:20 30.03.2022
2949 Clear 14 1017 21 10000 1.26 348 19:19 30.03.2022
2950 Clear 15 1016 19 10000 1.64 358 18:18 30.03.2022
2951 Clear 15 1016 19 10000 1.64 358 17:44 30.03.2022
2952 Clear 16 1015 16 10000 2.06 10 16:54 30.03.2022
2953 Clear 16 1015 16 10000 2.04 10 16:31 30.03.2022
2954 Clear 19 1013 10 10000 1.33 35 14:59 30.03.2022
2955 Clear 20 1013 9 10000 1.48 49 13:35 30.03.2022
2956 Clear 19 1012 9 10000 1.21 57 12:42 30.03.2022
2957 Clear 18 1014 11 10000 0.53 154 10:55 30.03.2022
2958 Clear 17 1015 14 10000 0.51 175 09:58 30.03.2022
2959 Clear 16 1017 18 10000 0.55 175 09:20 30.03.2022
2960 Clear 15 1018 22 10000 0.32 197 07:31 30.03.2022
2961 Clear 11 1019 31 10000 0.65 236 05:40 30.03.2022
2962 Clear 7 1019 44 10000 0.37 291 03:31 30.03.2022
2963 Clear 8 1019 40 10000 0.61 326 23:42 29.03.2022
2964 Clear 9 1019 37 10000 0.93 346 22:20 29.03.2022
2965 Clear 9 1019 37 10000 0.93 346 21:44 29.03.2022
2966 Clear 9 1020 36 10000 0.83 4 20:49 29.03.2022
2967 Clear 10 1020 34 10000 0.89 4 19:47 29.03.2022
2968 Clear 10 1019 33 10000 1.56 25 18:54 29.03.2022
2969 Clear 11 1019 31 10000 2.71 24 18:18 29.03.2022
2970 Clear 12 1018 28 10000 2.49 24 17:21 29.03.2022
2971 Clear 12 1018 28 10000 2.49 24 16:56 29.03.2022
2972 Clear 14 1017 25 10000 3.65 18 15:57 29.03.2022
2973 Clear 15 1015 21 10000 4.64 20 14:48 29.03.2022
2974 Clear 17 1014 20 10000 6.67 12 13:52 29.03.2022
2975 Clear 19 1012 19 10000 6.25 11 12:46 29.03.2022
2976 Clear 21 1011 11 10000 3.51 2 11:28 29.03.2022
2977 Clear 21 1012 11 10000 1.75 22 10:27 29.03.2022
2978 Clear 20 1013 13 10000 0.14 84 09:20 29.03.2022
2979 Clear 17 1015 19 10000 1.31 204 06:55 29.03.2022
2980 Clear 13 1014 30 10000 1.53 219 03:47 29.03.2022
2981 Clear 14 1012 29 10000 1.23 217 23:49 28.03.2022
2982 Clear 14 1012 30 10000 0.68 250 22:58 28.03.2022
2983 Clear 14 1012 30 10000 0.68 250 22:39 28.03.2022
2984 Clear 14 1012 30 10000 0.52 308 22:19 28.03.2022
2985 Clear 15 1013 28 10000 0.11 316 20:47 28.03.2022
2986 Clear 16 1012 27 10000 0.53 148 19:59 28.03.2022
2987 Clear 16 1012 27 10000 0.53 148 19:40 28.03.2022
2988 Clear 17 1012 25 10000 0.97 135 18:51 28.03.2022
2989 Clear 18 1012 23 10000 1.53 130 18:18 28.03.2022
2990 Clear 18 1011 21 10000 2.34 134 17:28 28.03.2022
2991 Clear 19 1010 18 10000 2.31 122 15:38 28.03.2022
2992 Clear 23 1008 9 10000 4.82 170 14:24 28.03.2022
2993 Clear 23 1008 9 10000 4.52 182 13:26 28.03.2022
2994 Clear 22 1009 9 10000 3.83 198 11:53 28.03.2022
2995 Clear 22 1010 11 10000 2.27 215 10:35 28.03.2022
2996 Clear 20 1013 20 10000 1.04 182 09:21 28.03.2022
2997 Clear 20 1013 20 10000 1.04 182 08:45 28.03.2022
2998 Clear 19 1014 24 10000 0.82 169 08:21 28.03.2022
2999 Clear 18 1014 24 10000 1.26 196 07:23 28.03.2022
3000 Clear 13 1014 40 10000 1.09 230 02:44 28.03.2022
3001 Clear 15 1013 38 10000 0.27 272 22:38 27.03.2022
3002 Clear 15 1013 36 10000 0.15 14 21:48 27.03.2022
3003 Clear 16 1013 35 10000 0.58 53 21:28 27.03.2022
3004 Clear 16 1013 35 10000 0.58 53 20:41 27.03.2022
3005 Clouds 16 1013 33 10000 1.06 49 19:43 27.03.2022
3006 Clouds 17 1012 30 10000 1.55 62 18:45 27.03.2022
3007 Clouds 18 1012 28 10000 1.76 87 18:23 27.03.2022
3008 Clouds 18 1012 29 10000 1.71 85 17:36 27.03.2022
3009 Clouds 20 1009 23 10000 3.44 62 15:51 27.03.2022
3010 Clouds 23 1008 18 10000 4.77 108 13:59 27.03.2022
3011 Clouds 24 1007 16 10000 2.14 107 13:25 27.03.2022
3012 Clouds 23 1008 17 10000 1.18 123 11:41 27.03.2022
3013 Clouds 21 1011 18 10000 0.02 233 09:49 27.03.2022
3014 Clouds 19 1013 21 10000 0.61 106 07:40 27.03.2022
3015 Clouds 15 1015 25 10000 0.57 293 04:49 27.03.2022
3016 Clear 13 1013 31 10000 0.85 351 00:26 27.03.2022
3017 Clear 14 1014 30 10000 0.83 351 22:52 26.03.2022
3018 Clear 14 1014 29 10000 0.7 343 22:22 26.03.2022
3019 Clear 14 1014 29 10000 0.7 343 21:30 26.03.2022
3020 Clear 16 1015 27 10000 0.84 15 19:38 26.03.2022
3021 Clouds 16 1014 27 10000 0.43 351 18:44 26.03.2022
3022 Clouds 17 1014 25 10000 0.87 21 17:41 26.03.2022
3023 Clouds 18 1013 23 10000 1.42 23 16:40 26.03.2022
3024 Clouds 19 1012 23 10000 1.17 38 15:43 26.03.2022
3025 Clouds 22 1010 16 10000 0.96 118 13:57 26.03.2022
3026 Clouds 22 1010 16 10000 0.96 118 13:36 26.03.2022
3027 Clear 23 1010 12 10000 1.99 156 12:18 26.03.2022
3028 Clear 22 1011 12 10000 2.24 171 10:49 26.03.2022
3029 Clear 21 1014 14 10000 1.09 217 09:19 26.03.2022
3030 Clear 19 1016 16 10000 0.49 199 06:56 26.03.2022
3031 Clear 17 1017 18 10000 0.34 207 05:31 26.03.2022
3032 Clear 12 1017 28 10000 0.69 287 02:34 26.03.2022
3033 Clear 12 1015 26 10000 1.25 315 22:47 25.03.2022
3034 Clear 14 1016 25 10000 1.32 322 20:58 25.03.2022
3035 Clear 14 1016 23 10000 1.57 321 20:26 25.03.2022
3036 Clear 15 1016 22 10000 1.69 307 19:19 25.03.2022
3037 Clear 15 1016 22 10000 1.69 307 18:35 25.03.2022
3038 Clear 16 1015 21 10000 1.34 309 17:30 25.03.2022
3039 Clear 17 1014 20 10000 0.85 342 16:27 25.03.2022
3040 Clear 17 1014 20 10000 0.85 342 15:34 25.03.2022
3041 Clear 20 1012 13 10000 1.05 67 13:29 25.03.2022
3042 Clear 20 1012 13 10000 0.92 44 11:25 25.03.2022
3043 Clear 19 1013 13 10000 0.75 34 09:37 25.03.2022
3044 Clear 18 1014 15 10000 0.44 6 08:50 25.03.2022
3045 Clear 17 1015 17 10000 0.32 282 07:42 25.03.2022
3046 Clear 16 1016 18 10000 0.73 225 06:59 25.03.2022
3047 Clear 10 1016 36 10000 1.24 282 02:37 25.03.2022
3048 Clear 11 1015 34 10000 0.76 315 22:59 24.03.2022
3049 Clear 11 1015 33 10000 0.5 313 22:19 24.03.2022
3050 Clear 12 1015 33 10000 0.41 326 20:52 24.03.2022
3051 Clear 12 1015 32 10000 0.65 343 19:49 24.03.2022
3052 Clear 13 1015 31 10000 0.95 2 18:45 24.03.2022
3053 Clear 14 1015 30 10000 1.3 359 17:36 24.03.2022
3054 Clear 14 1015 30 10000 1.3 359 17:36 24.03.2022
3055 Clear 15 1013 24 10000 2.66 348 16:28 24.03.2022
3056 Clear 17 1011 19 10000 2.87 337 14:51 24.03.2022
3057 Clear 18 1010 14 10000 2.96 344 14:22 24.03.2022
3058 Clear 18 1010 14 10000 2.96 344 13:34 24.03.2022
3059 Clear 19 1010 12 10000 1.35 9 12:24 24.03.2022
3060 Clear 19 1010 13 10000 1.37 10 11:27 24.03.2022
3061 Clear 18 1013 17 10000 1.05 356 09:27 24.03.2022
3062 Clear 18 1013 17 10000 1.05 356 08:34 24.03.2022
3063 Clear 15 1015 28 10000 0.3 262 05:30 24.03.2022
3064 Clear 15 1015 28 10000 0.3 262 05:30 24.03.2022
3065 Clear 11 1014 44 10000 0.67 241 23:59 23.03.2022
3066 Clouds 11 1014 44 10000 0.31 306 22:19 23.03.2022
3067 Clouds 12 1015 43 10000 0.81 355 21:21 23.03.2022
3068 Clear 12 1015 41 10000 1.63 15 19:56 23.03.2022
3069 Clear 13 1015 39 10000 1.5 9 19:28 23.03.2022
3070 Clear 14 1014 39 10000 0.92 6 17:52 23.03.2022
3071 Clear 14 1013 37 10000 1.5 348 17:24 23.03.2022
3072 Clear 15 1012 36 10000 2.7 349 15:43 23.03.2022
3073 Clear 16 1011 32 10000 5.09 359 14:47 23.03.2022
3074 Clear 20 1008 17 10000 2.83 351 13:31 23.03.2022
3075 Clear 20 1009 16 10000 0.26 44 11:24 23.03.2022
3076 Clear 18 1012 22 10000 0.14 264 08:29 23.03.2022
3077 Clouds 17 1014 24 10000 0.41 347 05:50 23.03.2022
3078 Clouds 12 1012 35 10000 1.01 289 02:28 23.03.2022
3079 Clouds 13 1012 33 10000 0.91 317 00:26 23.03.2022
3080 Clouds 13 1012 33 10000 0.91 317 00:26 23.03.2022
3081 Clouds 14 1012 31 10000 0.92 7 21:40 22.03.2022
3082 Clouds 14 1012 30 10000 0.66 1 20:59 22.03.2022
3083 Clouds 15 1012 29 10000 0.87 346 20:23 22.03.2022
3084 Clouds 15 1012 28 10000 0.49 13 19:27 22.03.2022
3085 Clouds 15 1012 28 10000 0.57 12 18:48 22.03.2022
3086 Clouds 16 1012 28 10000 0.82 25 17:43 22.03.2022
3087 Clouds 17 1012 26 10000 1.26 20 16:39 22.03.2022
3088 Clouds 17 1011 24 10000 2.05 23 15:41 22.03.2022
3089 Clouds 18 1010 21 10000 2.62 46 15:20 22.03.2022
3090 Clouds 18 1010 21 10000 2.62 46 14:42 22.03.2022
3091 Clouds 20 1009 15 10000 2.26 61 13:42 22.03.2022
3092 Clouds 21 1009 12 10000 1.44 209 12:18 22.03.2022
3093 Clouds 21 1010 12 10000 1.18 211 11:20 22.03.2022
3094 Clouds 19 1013 15 10000 0.27 200 09:28 22.03.2022
3095 Clouds 18 1014 17 10000 0.08 206 07:30 22.03.2022
3096 Clouds 14 1016 25 10000 0.96 218 03:57 22.03.2022
3097 Clouds 11 1015 31 10000 0.57 251 00:50 22.03.2022
3098 Clouds 12 1015 30 10000 0.7 297 22:48 21.03.2022
3099 Clouds 13 1016 29 10000 0.96 308 21:37 21.03.2022
3100 Clouds 14 1016 28 10000 1.01 310 20:44 21.03.2022
3101 Clouds 14 1016 28 10000 1.02 309 20:23 21.03.2022
3102 Clouds 14 1016 28 10000 1.02 309 19:45 21.03.2022
3103 Clouds 15 1017 27 10000 1.32 323 18:48 21.03.2022
3104 Clouds 15 1017 25 10000 1.87 322 17:36 21.03.2022
3105 Clear 16 1016 23 10000 1.91 324 16:59 21.03.2022
3106 Clear 16 1016 23 10000 1.91 324 16:33 21.03.2022
3107 Clouds 17 1015 23 10000 1 330 15:43 21.03.2022
3108 Clear 17 1014 21 10000 0.84 37 14:37 21.03.2022
3109 Clouds 20 1012 13 10000 1.35 67 13:20 21.03.2022
3110 Clouds 20 1012 12 10000 0.93 83 11:58 21.03.2022
3111 Clouds 20 1013 13 10000 0.38 81 11:28 21.03.2022
3112 Clouds 19 1013 13 10000 0.15 158 09:51 21.03.2022
3113 Clear 18 1015 15 10000 0.5 223 07:39 21.03.2022
3114 Clear 16 1016 18 10000 1.01 219 06:18 21.03.2022
3115 Clear 10 1015 28 10000 1.27 242 01:42 21.03.2022
3116 Clear 11 1014 27 10000 1.71 245 22:57 20.03.2022
3117 Clear 12 1014 27 10000 1.96 233 22:29 20.03.2022
3118 Clear 12 1014 27 10000 1.96 233 21:38 20.03.2022
3119 Clear 13 1014 26 10000 2.06 226 20:56 20.03.2022
3120 Clear 13 1014 26 10000 2.06 226 20:36 20.03.2022
3121 Clear 13 1014 25 10000 2.22 223 19:54 20.03.2022
3122 Clear 14 1014 24 10000 2.42 223 19:24 20.03.2022
3123 Clear 14 1013 23 10000 2.66 229 17:48 20.03.2022
3124 Clear 15 1012 22 10000 2.77 227 17:26 20.03.2022
3125 Clear 15 1012 22 10000 2.77 227 16:35 20.03.2022
3126 Clear 17 1010 17 10000 2.45 269 14:42 20.03.2022
3127 Clear 19 1008 12 10000 3.84 248 13:38 20.03.2022
3128 Clear 21 1008 9 10000 1.81 208 12:19 20.03.2022
3129 Clear 20 1009 11 10000 2.29 191 09:59 20.03.2022
3130 Clear 18 1012 16 10000 2.42 202 08:21 20.03.2022
3131 Clear 17 1012 18 10000 2.31 199 06:37 20.03.2022
3132 Clear 11 1012 33 10000 1.88 215 03:18 20.03.2022
3133 Clear 12 1010 33 10000 1.72 211 00:54 20.03.2022
3134 Clear 12 1010 37 10000 1.14 226 00:34 20.03.2022
3135 Clear 13 1010 41 10000 0.42 217 22:31 19.03.2022
3136 Clear 14 1010 40 10000 0.2 85 21:26 19.03.2022
3137 Clear 15 1010 37 10000 0.66 127 19:29 19.03.2022
3138 Clear 15 1010 37 10000 0.34 108 18:38 19.03.2022
3139 Clear 16 1010 34 10000 0.69 138 17:49 19.03.2022
3140 Clear 17 1010 32 10000 1.22 140 16:57 19.03.2022
3141 Clear 18 1008 24 10000 1.85 95 15:29 19.03.2022
3142 Clear 20 1007 17 10000 1.08 67 13:49 19.03.2022
3143 Clear 21 1008 15 10000 0.93 247 12:56 19.03.2022
3144 Clear 21 1007 15 10000 1.72 234 12:36 19.03.2022
3145 Clear 21 1008 16 10000 2.8 220 11:45 19.03.2022
3146 Clear 19 1011 23 10000 1.05 194 09:23 19.03.2022
3147 Clear 16 1013 38 10000 0.52 186 05:44 19.03.2022
3148 Clear 16 1013 38 10000 0.52 186 05:44 19.03.2022
3149 Clear 12 1012 65 10000 0.64 257 02:33 19.03.2022
3150 Clouds 12 1012 68 10000 0.47 337 00:32 19.03.2022
3151 Clouds 13 1012 67 10000 0.36 50 22:59 18.03.2022
3152 Clouds 13 1012 65 10000 0.89 44 22:22 18.03.2022
3153 Clouds 14 1012 61 10000 1.38 33 20:31 18.03.2022
3154 Clouds 15 1012 56 10000 1.31 29 19:45 18.03.2022
3155 Clouds 15 1012 53 10000 0.91 50 19:18 18.03.2022
3156 Clouds 17 1011 44 10000 2.76 114 16:59 18.03.2022
3157 Clouds 17 1011 44 10000 2.76 114 16:34 18.03.2022
3158 Clear 22 1007 18 10000 7.05 192 14:29 18.03.2022
3159 Clear 22 1007 18 10000 7.05 192 13:41 18.03.2022
3160 Clear 24 1007 14 10000 8.92 199 11:43 18.03.2022
3161 Clear 24 1008 14 10000 6.19 196 10:27 18.03.2022
3162 Clear 24 1008 14 10000 6.19 196 10:27 18.03.2022
3163 Clear 23 1009 19 10000 2.42 152 09:20 18.03.2022
3164 Clear 21 1011 29 10000 1.06 127 07:43 18.03.2022
3165 Clear 18 1013 34 10000 0.62 350 05:20 18.03.2022
3166 Clear 14 1011 44 10000 0.52 317 01:55 18.03.2022
3167 Clear 15 1011 41 10000 0.62 294 00:20 18.03.2022
3168 Clear 15 1011 40 10000 0.02 50 22:54 17.03.2022
3169 Clear 16 1011 39 10000 0.38 33 22:20 17.03.2022
3170 Clear 16 1011 39 10000 0.38 33 21:31 17.03.2022
3171 Clear 16 1012 39 10000 0.43 84 20:58 17.03.2022
3172 Clear 17 1012 38 10000 0.07 88 20:28 17.03.2022
3173 Clear 17 1012 38 10000 0.07 88 19:39 17.03.2022
3174 Clear 17 1012 37 10000 0.46 69 18:55 17.03.2022
3175 Clear 18 1012 35 10000 0.71 86 17:47 17.03.2022
3176 Clear 20 1011 30 10000 1.76 107 16:29 17.03.2022
3177 Clear 20 1011 30 10000 1.76 107 15:43 17.03.2022
3178 Clear 21 1010 27 10000 2.11 86 15:18 17.03.2022
3179 Clear 22 1009 23 10000 2.18 62 13:47 17.03.2022
3180 Clear 24 1009 17 10000 0.37 42 12:47 17.03.2022
3181 Clear 24 1009 16 10000 0.52 196 11:36 17.03.2022
3182 Clear 23 1009 17 10000 0.84 200 10:58 17.03.2022
3183 Clear 23 1011 19 10000 0.99 193 09:40 17.03.2022
3184 Clear 20 1013 25 10000 0.46 197 08:20 17.03.2022
3185 Clear 19 1015 26 10000 1.14 204 05:53 17.03.2022
3186 Clear 18 1016 28 10000 1.33 203 05:23 17.03.2022
3187 Clear 14 1013 34 10000 0.91 225 00:27 17.03.2022
3188 Clear 15 1013 33 10000 1.14 222 22:57 16.03.2022
3189 Clear 15 1013 33 10000 1.14 222 22:36 16.03.2022
3190 Clear 15 1013 34 10000 1.01 247 21:56 16.03.2022
3191 Clear 16 1013 34 10000 1.11 258 20:40 16.03.2022
3192 Clear 17 1013 35 10000 1.4 256 19:23 16.03.2022
3193 Clear 17 1013 35 10000 1.41 253 18:43 16.03.2022
3194 Clear 18 1013 35 10000 1.38 252 17:50 16.03.2022
3195 Clear 18 1013 35 10000 1.38 252 17:31 16.03.2022
3196 Clear 18 1013 36 10000 1.33 284 16:35 16.03.2022
3197 Clear 19 1012 35 10000 1.57 332 15:34 16.03.2022
3198 Clear 22 1010 27 10000 2.18 25 13:41 16.03.2022
3199 Clear 23 1010 22 10000 1.13 87 12:56 16.03.2022
3200 Clear 22 1011 24 10000 1.43 199 11:24 16.03.2022
3201 Clear 22 1011 24 10000 1.43 199 10:37 16.03.2022
3202 Clear 22 1012 25 10000 1.58 209 09:57 16.03.2022
3203 Clear 19 1015 30 10000 1.62 207 08:24 16.03.2022
3204 Clear 12 1017 47 10000 1.7 228 02:46 16.03.2022
3205 Clouds 14 1015 41 10000 1.94 209 22:58 15.03.2022
3206 Clouds 14 1015 41 10000 1.94 209 22:36 15.03.2022
3207 Clouds 15 1015 40 10000 1.51 223 21:19 15.03.2022
3208 Clouds 16 1015 39 10000 1.64 219 19:46 15.03.2022
3209 Clouds 16 1015 36 10000 1.84 235 18:35 15.03.2022
3210 Clouds 17 1014 33 10000 1.74 270 16:42 15.03.2022
3211 Clouds 18 1013 33 10000 1.11 267 15:42 15.03.2022
3212 Clouds 19 1012 33 10000 0.67 225 14:54 15.03.2022
3213 Clear 20 1012 29 10000 0.91 176 13:57 15.03.2022
3214 Clear 21 1012 24 10000 1.07 157 13:23 15.03.2022
3215 Clear 21 1012 24 10000 0.88 147 11:34 15.03.2022
3216 Clear 21 1013 25 10000 0.64 167 10:55 15.03.2022
3217 Clear 19 1015 31 10000 1.04 216 09:29 15.03.2022
3218 Clear 18 1017 36 10000 1.78 217 08:27 15.03.2022
3219 Clear 18 1017 36 10000 1.78 217 07:38 15.03.2022
3220 Clear 17 1017 38 10000 1.98 207 06:32 15.03.2022
3221 Clear 11 1018 55 10000 2.16 221 01:57 15.03.2022
3222 Clear 12 1016 53 10000 1.49 218 23:31 14.03.2022
3223 Clear 13 1016 51 10000 1.94 216 22:52 14.03.2022
3224 Clear 13 1016 49 10000 1.76 236 21:55 14.03.2022
3225 Clear 14 1016 48 10000 1.87 244 20:59 14.03.2022
3226 Clear 15 1016 45 10000 2.41 257 20:28 14.03.2022
3227 Clear 15 1016 45 10000 2.41 257 19:32 14.03.2022
3228 Clouds 16 1015 41 10000 1.82 256 17:58 14.03.2022
3229 Clouds 16 1015 41 10000 1.82 256 17:58 14.03.2022
3230 Clouds 16 1015 41 10000 1.82 256 17:40 14.03.2022
3231 Clouds 17 1015 41 10000 1.56 295 16:33 14.03.2022
3232 Clouds 18 1014 39 10000 1.27 0 14:52 14.03.2022
3233 Clouds 20 1013 35 10000 1.39 23 13:57 14.03.2022
3234 Rain 21 1013 28 10000 0.36 10 11:26 14.03.2022
3235 Clouds 21 1014 29 10000 0.68 212 09:57 14.03.2022
3236 Clouds 21 1014 29 10000 0.68 212 09:35 14.03.2022
3237 Rain 20 1016 31 10000 1.43 210 08:58 14.03.2022
3238 Clouds 19 1017 35 10000 1.7 217 08:28 14.03.2022
3239 Clouds 18 1017 34 10000 1.83 206 06:47 14.03.2022
3240 Clouds 13 1018 48 10000 0.82 204 02:59 14.03.2022
3241 Clouds 13 1017 46 10000 1.2 233 01:39 14.03.2022
3242 Clouds 13 1016 46 10000 0.48 294 00:29 14.03.2022
3243 Clouds 14 1017 44 10000 0.42 342 21:49 13.03.2022
3244 Clouds 15 1017 42 10000 1.35 316 21:21 13.03.2022
3245 Rain 15 1017 42 10000 1.35 316 20:46 13.03.2022
3246 Clouds 15 1017 42 10000 1.21 276 20:22 13.03.2022
3247 Clouds 15 1017 42 10000 1.21 276 19:42 13.03.2022
3248 Clouds 15 1017 43 10000 0.89 269 19:22 13.03.2022
3249 Clouds 15 1017 43 10000 0.89 269 19:22 13.03.2022
3250 Clouds 15 1017 43 10000 0.89 269 18:45 13.03.2022
3251 Clouds 16 1017 41 10000 1.22 295 18:25 13.03.2022
3252 Clouds 16 1017 41 10000 1.22 295 17:36 13.03.2022
3253 Clouds 16 1016 39 10000 1.59 321 16:45 13.03.2022
3254 Clouds 17 1016 38 10000 1.53 339 16:21 13.03.2022
3255 Clouds 17 1016 38 10000 1.53 339 15:39 13.03.2022
3256 Clouds 18 1015 37 10000 1.48 359 14:36 13.03.2022
3257 Clouds 21 1014 29 10000 0.87 170 13:27 13.03.2022
3258 Clouds 21 1014 29 10000 1.37 185 12:22 13.03.2022
3259 Clouds 21 1014 29 10000 1.37 185 11:38 13.03.2022
3260 Clouds 20 1014 29 10000 1.11 199 10:49 13.03.2022
3261 Clouds 19 1015 30 10000 1.37 217 10:25 13.03.2022
3262 Clouds 19 1015 30 10000 1.37 217 09:42 13.03.2022
3263 Clouds 18 1017 34 10000 1.44 203 08:49 13.03.2022
3264 Clouds 18 1017 34 10000 1.44 203 08:49 13.03.2022
3265 Clouds 17 1018 39 10000 1.58 202 08:23 13.03.2022
3266 Clear 16 1019 40 10000 2.11 211 06:40 13.03.2022
3267 Rain 13 1020 50 10000 2.1 201 04:51 13.03.2022
3268 Clear 10 1019 60 10000 2.07 211 01:46 13.03.2022
3269 Clouds 11 1018 57 10000 1.63 218 22:51 12.03.2022
3270 Clouds 12 1018 55 10000 1.6 217 21:29 12.03.2022
3271 Clear 13 1018 54 10000 1.8 234 20:19 12.03.2022
3272 Clear 13 1018 54 10000 1.8 234 19:44 12.03.2022
3273 Clouds 13 1018 53 10000 2.28 206 18:37 12.03.2022
3274 Clouds 14 1018 51 10000 2.03 237 17:48 12.03.2022
3275 Clouds 15 1016 48 10000 1.21 232 16:28 12.03.2022
3276 Clouds 15 1016 48 10000 1.21 232 15:40 12.03.2022
3277 Clouds 16 1014 47 10000 1.02 210 15:18 12.03.2022
3278 Clouds 18 1014 43 10000 1.13 200 13:53 12.03.2022
3279 Clouds 18 1014 40 10000 1.77 202 12:25 12.03.2022
3280 Clouds 18 1014 40 10000 1.77 202 11:51 12.03.2022
3281 Clouds 18 1014 40 10000 1.61 222 11:20 12.03.2022
3282 Clouds 17 1015 40 10000 1.42 212 09:59 12.03.2022
3283 Clouds 17 1015 40 10000 1.42 212 09:40 12.03.2022
3284 Clouds 16 1017 45 10000 1.91 204 07:51 12.03.2022
3285 Clouds 13 1019 50 10000 1.56 184 05:44 12.03.2022
3286 Rain 10 1018 53 10000 1.28 210 00:24 12.03.2022
3287 Clouds 10 1017 52 10000 1.47 214 23:28 11.03.2022
3288 Rain 10 1018 52 10000 1.43 264 21:48 11.03.2022
3289 Clouds 10 1019 53 10000 0.69 283 20:58 11.03.2022
3290 Clouds 10 1019 53 10000 0.69 283 20:37 11.03.2022
3291 Clouds 11 1019 51 10000 1.18 328 19:54 11.03.2022
3292 Clouds 11 1019 51 10000 1.11 313 19:27 11.03.2022
3293 Clouds 11 1019 50 10000 1.08 301 17:37 11.03.2022
3294 Clouds 12 1019 49 10000 1.41 314 17:18 11.03.2022
3295 Clouds 12 1019 47 10000 1.67 335 15:57 11.03.2022
3296 Clouds 14 1017 42 10000 2.2 356 14:22 11.03.2022
3297 Clouds 15 1017 37 10000 1.66 1 13:21 11.03.2022
3298 Clouds 15 1017 36 10000 1.54 5 12:22 11.03.2022
3299 Clouds 15 1017 36 10000 1.54 5 11:56 11.03.2022
3300 Clouds 14 1018 36 10000 0.73 179 10:18 11.03.2022
3301 Clouds 13 1019 38 10000 1.35 206 08:57 11.03.2022
3302 Clouds 12 1021 42 10000 1.72 210 08:24 11.03.2022
3303 Clouds 12 1021 42 10000 1.72 210 07:46 11.03.2022
3304 Clouds 10 1022 48 10000 1.18 242 05:49 11.03.2022
3305 Clouds 8 1022 53 10000 1.67 203 04:22 11.03.2022
3306 Clouds 7 1021 55 10000 1.36 241 23:46 10.03.2022
3307 Clouds 7 1021 54 10000 1.33 256 22:31 10.03.2022
3308 Clouds 8 1021 54 10000 1.44 269 21:48 10.03.2022
3309 Clouds 8 1021 54 10000 1.09 288 21:20 10.03.2022
3310 Clouds 9 1021 53 10000 1.13 295 19:48 10.03.2022
3311 Clouds 9 1021 52 10000 1.16 293 18:55 10.03.2022
3312 Clouds 9 1021 52 10000 1.15 300 17:36 10.03.2022
3313 Clouds 10 1019 49 10000 0.62 300 15:55 10.03.2022
3314 Clear 11 1019 48 10000 0.41 304 15:20 10.03.2022
3315 Clouds 13 1017 38 10000 0.98 236 13:24 10.03.2022
3316 Clouds 13 1017 37 10000 0.67 265 11:58 10.03.2022
3317 Clouds 13 1018 39 10000 0.68 253 10:54 10.03.2022
3318 Clouds 11 1020 45 10000 0.92 251 09:21 10.03.2022
3319 Clouds 10 1021 49 10000 0.92 222 07:41 10.03.2022
3320 Clouds 7 1023 58 10000 0.93 229 04:44 10.03.2022
3321 Clouds 4 1022 72 10000 1.48 288 01:49 10.03.2022
3322 Clouds 5 1021 81 10000 0.49 292 23:26 09.03.2022
3323 Clouds 6 1021 78 10000 0.46 314 21:51 09.03.2022
3324 Clouds 6 1021 78 10000 0.46 314 21:31 09.03.2022
3325 Clouds 6 1022 79 10000 0.8 295 19:44 09.03.2022
3326 Clouds 6 1022 80 10000 1.22 299 18:34 09.03.2022
3327 Clouds 6 1022 82 10000 0.97 346 17:27 09.03.2022
3328 Clouds 6 1022 82 10000 0.97 346 16:31 09.03.2022
3329 Clouds 6 1021 83 10000 1.55 342 15:19 09.03.2022
3330 Clouds 7 1020 77 10000 1.83 352 13:53 09.03.2022
3331 Clouds 8 1020 72 10000 0.99 356 12:47 09.03.2022
3332 Clouds 8 1019 75 10000 0.85 205 11:53 09.03.2022
3333 Clouds 8 1019 75 10000 0.85 205 11:35 09.03.2022
3334 Clouds 7 1021 82 10000 1.16 192 09:54 09.03.2022
3335 Clouds 6 1022 88 2542 1.21 202 08:51 09.03.2022
3336 Clouds 4 1024 96 164 0.58 309 07:27 09.03.2022
3337 Clouds 3 1024 99 57 1.24 345 02:45 09.03.2022
3338 Clouds 4 1022 98 71 1.35 348 00:41 09.03.2022
3339 Clouds 4 1022 98 83 1.22 1 22:47 08.03.2022
3340 Clouds 4 1022 97 92 1.08 11 21:58 08.03.2022
3341 Clouds 3 1023 97 110 0.78 28 21:23 08.03.2022
3342 Clouds 4 1022 98 143 1.11 324 20:29 08.03.2022
3343 Clouds 4 1022 98 143 1.11 324 19:31 08.03.2022
3344 Rain 4 1022 96 160 1.07 323 18:44 08.03.2022
3345 Rain 4 1021 95 1156 1.32 316 17:26 08.03.2022
3346 Clouds 4 1020 94 10000 1.55 359 15:19 08.03.2022
3347 Clouds 4 1021 94 10000 0.47 354 14:18 08.03.2022
3348 Clouds 4 1020 96 900 1.26 69 12:41 08.03.2022
3349 Clouds 5 1020 94 1922 0.99 332 11:44 08.03.2022
3350 Rain 5 1020 92 10000 1.65 1 10:37 08.03.2022
3351 Rain 5 1021 93 2342 1.49 353 09:37 08.03.2022
3352 Clouds 6 1022 87 10000 0.91 355 06:34 08.03.2022
3353 Clouds 6 1022 88 10000 0.44 279 04:25 08.03.2022
3354 Clouds 7 1021 80 10000 1.24 17 22:57 07.03.2022
3355 Clouds 7 1022 80 10000 1.24 358 21:50 07.03.2022
3356 Clouds 7 1022 80 10000 1.24 358 21:31 07.03.2022
3357 Clouds 7 1022 79 10000 1.65 16 20:39 07.03.2022
3358 Clouds 7 1022 77 10000 1.87 360 19:55 07.03.2022
3359 Clouds 7 1022 74 10000 2.18 18 19:29 07.03.2022
3360 Clouds 7 1022 73 10000 2.11 10 18:38 07.03.2022
3361 Rain 8 1022 71 10000 1.85 14 17:33 07.03.2022
3362 Clouds 8 1021 68 10000 1.94 18 16:55 07.03.2022
3363 Clouds 9 1019 60 10000 2.87 14 14:57 07.03.2022
3364 Rain 11 1017 53 10000 2.92 15 12:48 07.03.2022
3365 Clouds 11 1017 54 10000 2.05 5 12:20 07.03.2022
3366 Clouds 10 1017 56 10000 1.38 4 10:35 07.03.2022
3367 Clouds 8 1020 69 10000 1.05 346 08:35 07.03.2022
3368 Clouds 5 1019 86 10000 1.29 339 02:56 07.03.2022
3369 Clouds 4 1018 95 1081 0.68 202 00:21 07.03.2022
3370 Clouds 5 1018 94 5039 0.24 17 23:28 06.03.2022
3371 Clouds 5 1018 94 5039 0.24 17 22:30 06.03.2022
3372 Clouds 5 1018 93 10000 2.12 12 21:45 06.03.2022
3373 Clouds 5 1019 93 10000 1.16 355 20:29 06.03.2022
3374 Clouds 5 1019 93 10000 1.16 355 20:29 06.03.2022
3375 Clouds 5 1019 93 10000 1.16 355 19:48 06.03.2022
3376 Clouds 5 1019 92 10000 1.54 19 18:51 06.03.2022
3377 Clouds 5 1019 95 3943 1.74 12 17:49 06.03.2022
3378 Clouds 5 1020 94 3255 1.37 339 17:20 06.03.2022
3379 Clouds 5 1020 94 3255 1.37 339 16:40 06.03.2022
3380 Clouds 5 1019 96 742 1.4 355 15:37 06.03.2022
3381 Clouds 5 1018 96 669 1.6 352 14:48 06.03.2022
3382 Clouds 4 1018 96 379 1.56 10 14:26 06.03.2022
3383 Clouds 5 1017 94 10000 1.51 12 12:40 06.03.2022
3384 Clouds 5 1017 95 709 1.46 19 11:46 06.03.2022
3385 Clouds 5 1017 96 291 1.37 31 10:43 06.03.2022
3386 Clouds 4 1018 96 78 0.4 92 09:21 06.03.2022
3387 Clouds 4 1019 97 48 0.71 142 08:28 06.03.2022
3388 Clouds 4 1019 97 48 0.71 142 07:33 06.03.2022
3389 Rain 4 1017 94 1670 1.25 356 03:18 06.03.2022
3390 Clouds 5 1016 86 10000 1.96 351 00:41 06.03.2022
3391 Rain 5 1016 83 10000 1.82 346 00:22 06.03.2022
3392 Clouds 6 1016 78 10000 2.04 328 23:19 05.03.2022
3393 Rain 6 1016 78 10000 2.04 328 22:35 05.03.2022
3394 Rain 7 1017 74 10000 2.16 320 21:30 05.03.2022
3395 Clouds 7 1018 71 10000 1.68 312 20:38 05.03.2022
3396 Clouds 9 1019 62 10000 1.28 231 19:22 05.03.2022
3397 Clouds 8 1019 65 10000 1.55 256 18:39 05.03.2022
3398 Clouds 9 1018 55 10000 1.16 303 17:34 05.03.2022
3399 Clouds 10 1017 49 10000 2.47 336 16:19 05.03.2022
3400 Clouds 11 1016 44 10000 3.06 8 15:20 05.03.2022
3401 Clouds 11 1016 44 10000 3.06 8 15:20 05.03.2022
3402 Clouds 11 1016 44 10000 3.06 8 14:36 05.03.2022
3403 Clouds 12 1015 40 10000 2.91 28 13:44 05.03.2022
3404 Clouds 13 1014 36 10000 1.8 56 12:45 05.03.2022
3405 Clouds 13 1015 36 10000 0.81 106 11:21 05.03.2022
3406 Clouds 13 1015 36 10000 0.81 106 10:52 05.03.2022
3407 Clouds 12 1016 37 10000 0.73 95 09:33 05.03.2022
3408 Clouds 11 1018 40 10000 0.13 43 08:28 05.03.2022
3409 Clouds 10 1019 42 10000 0.46 238 07:21 05.03.2022
3410 Clouds 9 1020 44 10000 0.72 191 05:25 05.03.2022
3411 Clouds 7 1019 48 10000 0.82 261 00:49 05.03.2022
3412 Clouds 8 1019 46 10000 0.94 311 22:58 04.03.2022
3413 Clouds 8 1019 46 10000 0.94 311 22:38 04.03.2022
3414 Clouds 8 1020 47 10000 1.03 309 21:43 04.03.2022
3415 Clouds 8 1020 46 10000 1.08 313 20:42 04.03.2022
3416 Clouds 8 1020 45 10000 0.97 326 19:37 04.03.2022
3417 Clouds 9 1021 43 10000 1.08 337 18:56 04.03.2022
3418 Clouds 8 1020 44 10000 0.81 326 18:33 04.03.2022
3419 Clouds 9 1020 41 10000 0.78 274 17:29 04.03.2022
3420 Clouds 10 1019 39 10000 0.55 273 15:54 04.03.2022
3421 Clouds 11 1018 36 10000 0.49 240 15:25 04.03.2022
3422 Clouds 12 1018 32 10000 0.84 211 13:36 04.03.2022
3423 Clear 13 1018 29 10000 1.42 218 12:47 04.03.2022
3424 Clear 13 1018 28 10000 1.76 218 11:37 04.03.2022
3425 Clear 13 1018 28 10000 1.76 218 11:37 04.03.2022
3426 Clear 12 1019 29 10000 1.4 207 10:26 04.03.2022
3427 Clear 11 1021 31 10000 1.01 208 09:28 04.03.2022
3428 Clear 10 1022 32 10000 1.27 196 07:48 04.03.2022
3429 Clear 7 1023 33 10000 1.23 192 06:26 04.03.2022
3430 Clear 4 1022 42 10000 1.37 233 02:26 04.03.2022
3431 Clouds 4 1021 39 10000 1.23 239 23:41 03.03.2022
3432 Clear 5 1021 39 10000 1.41 244 22:18 03.03.2022
3433 Clear 5 1021 39 10000 1.41 244 21:36 03.03.2022
3434 Clear 6 1021 39 10000 1.4 244 20:48 03.03.2022
3435 Clear 6 1020 39 10000 1.52 242 19:34 03.03.2022
3436 Clouds 7 1020 38 10000 1.71 235 18:33 03.03.2022
3437 Clouds 8 1020 37 10000 1.7 223 17:39 03.03.2022
3438 Clouds 8 1019 36 10000 1.63 216 17:18 03.03.2022
3439 Clouds 9 1019 34 10000 1.64 210 15:46 03.03.2022
3440 Clouds 10 1018 32 10000 1.79 200 14:45 03.03.2022
3441 Clouds 11 1017 27 10000 2.3 197 14:27 03.03.2022
3442 Clouds 12 1016 27 10000 2.27 205 12:43 03.03.2022
3443 Clear 12 1016 27 10000 1.98 198 11:31 03.03.2022
3444 Clear 11 1017 29 10000 1.86 199 10:38 03.03.2022
3445 Clear 10 1019 35 10000 0.97 216 08:43 03.03.2022
3446 Clear 8 1021 39 10000 1.05 198 06:58 03.03.2022
3447 Clear 7 1022 42 10000 1.44 196 06:23 03.03.2022
3448 Clear 4 1020 53 10000 1.04 284 00:40 03.03.2022
3449 Clear 5 1020 52 10000 1.38 299 23:28 02.03.2022
3450 Clear 5 1020 52 10000 1.38 299 22:44 02.03.2022
3451 Clear 6 1020 51 10000 1.44 310 21:23 02.03.2022
3452 Clear 6 1020 51 10000 1.44 310 21:23 02.03.2022
3453 Clear 6 1020 51 10000 1.44 310 20:30 02.03.2022
3454 Clear 6 1020 50 10000 1.27 314 19:45 02.03.2022
3455 Clouds 7 1020 49 10000 1.3 317 19:26 02.03.2022
3456 Clouds 7 1020 50 10000 1.35 322 18:39 02.03.2022
3457 Clouds 7 1020 50 10000 1.35 322 18:39 02.03.2022
3458 Clouds 7 1020 49 10000 1.3 317 18:39 02.03.2022
3459 Clouds 8 1020 48 10000 1.2 325 17:45 02.03.2022
3460 Clouds 8 1019 45 10000 1.3 319 16:54 02.03.2022
3461 Clouds 9 1019 43 10000 1.32 321 16:25 02.03.2022
3462 Clouds 9 1018 41 10000 1.26 329 14:42 02.03.2022
3463 Clouds 10 1017 37 10000 1.67 341 13:23 02.03.2022
3464 Clouds 10 1017 35 10000 1.53 348 12:40 02.03.2022
3465 Clouds 10 1018 35 10000 1.35 353 11:38 02.03.2022
3466 Clouds 10 1018 35 10000 1.46 360 11:18 02.03.2022
3467 Clouds 10 1019 37 10000 1.42 8 09:40 02.03.2022
3468 Clouds 9 1021 38 10000 1.27 22 08:50 02.03.2022
3469 Clouds 7 1023 40 10000 1.17 25 07:25 02.03.2022
3470 Clouds 6 1023 40 10000 0.85 15 05:43 02.03.2022
3471 Clouds 4 1022 53 10000 1.66 337 00:57 02.03.2022
3472 Clouds 4 1021 51 10000 1.47 329 23:45 01.03.2022
3473 Clouds 4 1021 50 10000 1.43 318 22:42 01.03.2022
3474 Clouds 5 1021 47 10000 1.58 326 21:56 01.03.2022
3475 Clouds 5 1021 46 10000 1.38 303 21:21 01.03.2022
3476 Clouds 6 1021 46 10000 1.34 291 20:24 01.03.2022
3477 Clouds 6 1021 46 10000 1.5 297 19:23 01.03.2022
3478 Clouds 6 1021 46 10000 1.49 303 18:32 01.03.2022
3479 Clouds 7 1021 45 10000 1.55 296 17:55 01.03.2022
3480 Clouds 7 1020 44 10000 1.67 317 16:54 01.03.2022
3481 Clouds 8 1019 40 10000 1.83 332 15:59 01.03.2022
3482 Clouds 9 1018 36 10000 1.4 356 15:23 01.03.2022
3483 Clouds 9 1018 36 10000 1.4 356 14:34 01.03.2022
3484 Clouds 11 1017 27 10000 0.68 184 13:27 01.03.2022
3485 Clouds 11 1017 28 10000 1.95 245 12:58 01.03.2022
3486 Clouds 11 1017 29 10000 2.27 229 12:22 01.03.2022
3487 Clouds 10 1018 35 10000 2.15 214 10:27 01.03.2022
3488 Clouds 9 1019 41 10000 1.81 208 08:41 01.03.2022
3489 Clouds 9 1020 46 10000 1.77 202 07:36 01.03.2022
3490 Clouds 5 1022 57 10000 2.01 209 04:50 01.03.2022
3491 Clouds 4 1020 65 10000 1.55 225 01:43 01.03.2022
3492 Clouds 4 1020 61 10000 1.48 249 23:48 28.02.2022
3493 Clouds 5 1020 59 10000 1.49 256 22:58 28.02.2022
3494 Clouds 5 1020 57 10000 1.42 269 21:50 28.02.2022
3495 Clouds 6 1020 56 10000 1.39 274 21:24 28.02.2022
3496 Clouds 6 1020 56 10000 1.38 280 19:52 28.02.2022
3497 Clouds 6 1020 56 10000 1.33 284 19:26 28.02.2022
3498 Clouds 6 1020 57 10000 1.4 286 18:36 28.02.2022
3499 Clouds 7 1019 55 10000 1.43 297 17:24 28.02.2022
3500 Clouds 7 1019 55 10000 1.43 297 16:33 28.02.2022
3501 Clouds 8 1018 50 10000 2.03 307 15:23 28.02.2022
3502 Clouds 8 1018 50 10000 2.03 307 14:31 28.02.2022
3503 Rain 9 1017 45 10000 1.57 305 13:34 28.02.2022
3504 Rain 10 1016 40 10000 1.14 282 12:41 28.02.2022
3505 Clouds 10 1016 38 10000 1.25 258 11:44 28.02.2022
3506 Clouds 10 1017 37 10000 1.36 235 10:48 28.02.2022
3507 Clouds 10 1017 37 10000 1.36 231 10:19 28.02.2022
3508 Clouds 10 1017 37 10000 1.36 231 09:31 28.02.2022
3509 Clouds 8 1020 38 10000 1.44 215 08:29 28.02.2022
3510 Clouds 7 1021 40 10000 1.65 217 07:20 28.02.2022
3511 Clouds 5 1022 42 10000 1 225 04:32 28.02.2022
3512 Clouds 4 1022 47 10000 0.96 228 03:58 28.02.2022
3513 Rain 4 1022 44 10000 0.92 263 23:27 27.02.2022
3514 Clouds 4 1022 44 10000 0.92 263 22:33 27.02.2022
3515 Clouds 4 1022 43 10000 1.29 286 21:49 27.02.2022
3516 Clouds 4 1022 43 10000 1.27 299 20:59 27.02.2022
3517 Clouds 5 1022 43 10000 1.35 339 20:27 27.02.2022
3518 Clouds 5 1022 43 10000 1.35 339 19:57 27.02.2022
3519 Clouds 5 1022 46 10000 1.26 344 19:26 27.02.2022
3520 Clouds 5 1022 46 10000 1.26 344 18:47 27.02.2022
3521 Clouds 5 1023 47 10000 1.27 299 17:55 27.02.2022
3522 Clouds 5 1023 45 10000 1.47 285 16:45 27.02.2022
3523 Clouds 5 1022 43 10000 1.29 282 16:21 27.02.2022
3524 Clouds 8 1020 26 10000 1 249 13:25 27.02.2022
3525 Clouds 8 1020 26 10000 0.96 259 12:32 27.02.2022
3526 Clouds 8 1021 24 10000 0.9 231 10:56 27.02.2022
3527 Clear 7 1022 26 10000 1.09 226 10:18 27.02.2022
3528 Clear 7 1022 26 10000 1.09 226 09:44 27.02.2022
3529 Clear 6 1023 27 10000 0.9 224 09:19 27.02.2022
3530 Clear 5 1025 29 10000 1.23 215 07:37 27.02.2022
3531 Clear 3 1027 31 10000 2 206 05:38 27.02.2022
3532 Clear -1 1028 41 10000 1.7 233 01:53 27.02.2022
3533 Clear 0 1027 43 10000 1.6 241 23:22 26.02.2022
3534 Clear 0 1027 44 10000 1.61 236 21:49 26.02.2022
3535 Clear 1 1026 43 10000 1.92 227 20:59 26.02.2022
3536 Clear 2 1026 42 10000 1.98 233 20:20 26.02.2022
3537 Clear 2 1026 42 10000 1.98 233 19:49 26.02.2022
3538 Clear 2 1025 42 10000 1.94 238 19:26 26.02.2022
3539 Clear 3 1025 41 10000 1.9 239 17:52 26.02.2022
3540 Clear 3 1024 40 10000 1.8 241 16:52 26.02.2022
3541 Clear 4 1023 39 10000 1.96 242 15:57 26.02.2022
3542 Clear 4 1022 38 10000 1.85 249 15:25 26.02.2022
3543 Clear 4 1022 38 10000 1.85 249 14:55 26.02.2022
3544 Clear 4 1022 38 10000 1.85 249 14:36 26.02.2022
3545 Clear 6 1019 30 10000 2.06 220 13:24 26.02.2022
3546 Clear 6 1019 30 10000 2.09 210 12:31 26.02.2022
3547 Clear 6 1019 30 10000 2.1 209 11:29 26.02.2022
3548 Clear 6 1019 30 10000 2.1 209 10:55 26.02.2022
3549 Clear 5 1022 32 10000 2.09 208 09:18 26.02.2022
3550 Clear 4 1023 33 10000 2.14 204 07:43 26.02.2022
3551 Clear -2 1026 51 10000 2.08 220 02:53 26.02.2022
3552 Clear -1 1024 53 10000 1.63 232 23:31 25.02.2022
3553 Clear 0 1024 53 10000 1.84 231 21:48 25.02.2022
3554 Clear 0 1024 52 10000 1.98 231 21:29 25.02.2022
3555 Clear 0 1024 52 10000 1.98 231 20:33 25.02.2022
3556 Clear 1 1023 52 10000 1.93 237 19:39 25.02.2022
3557 Clear 2 1022 52 10000 1.89 235 17:33 25.02.2022
3558 Clear 3 1021 52 10000 1.94 227 16:44 25.02.2022
3559 Clear 3 1020 52 10000 2.18 216 15:48 25.02.2022
3560 Clear 4 1019 50 10000 2.22 211 15:22 25.02.2022
3561 Clear 4 1019 50 10000 2.22 211 14:42 25.02.2022
3562 Clear 5 1018 46 10000 2.58 210 13:58 25.02.2022
3563 Clouds 6 1018 44 10000 2.74 213 13:20 25.02.2022
3564 Clouds 7 1018 39 10000 1.29 248 11:28 25.02.2022
3565 Clouds 7 1018 39 10000 1.29 248 10:48 25.02.2022
3566 Clouds 6 1019 41 10000 0.99 236 10:22 25.02.2022
3567 Clouds 6 1019 41 10000 0.99 236 09:31 25.02.2022
3568 Clouds 5 1021 45 10000 1.19 191 07:44 25.02.2022
3569 Clouds 4 1022 45 10000 1.21 195 05:58 25.02.2022
3570 Clouds 4 1022 45 10000 1.21 195 05:31 25.02.2022
3571 Clear 2 1020 53 10000 1.41 242 00:27 25.02.2022
3572 Clear 3 1020 54 10000 1.52 264 22:00 24.02.2022
3573 Clear 3 1020 54 10000 1.52 264 21:40 24.02.2022
3574 Clear 3 1020 52 10000 1.66 264 21:20 24.02.2022
3575 Clear 4 1019 52 10000 1.53 252 19:53 24.02.2022
3576 Clear 4 1019 51 10000 1.72 255 18:45 24.02.2022
3577 Clear 4 1019 51 10000 1.63 256 18:19 24.02.2022
3578 Clear 4 1019 51 10000 1.63 256 17:40 24.02.2022
3579 Clear 5 1019 51 10000 1.41 263 16:50 24.02.2022
3580 Clear 6 1018 51 10000 1.46 268 16:25 24.02.2022
3581 Clear 6 1018 49 10000 1.51 257 14:56 24.02.2022
3582 Clear 6 1018 49 10000 1.51 257 14:36 24.02.2022
3583 Clear 7 1017 44 10000 1.28 249 13:41 24.02.2022
3584 Clear 8 1016 42 10000 1.4 237 13:21 24.02.2022
3585 Clear 8 1017 43 10000 2.44 217 10:43 24.02.2022
3586 Clear 7 1018 45 10000 2.1 214 09:40 24.02.2022
3587 Clear 7 1019 48 10000 1.82 218 08:42 24.02.2022
3588 Clouds 5 1022 55 10000 1.49 209 05:59 24.02.2022
3589 Clouds 5 1022 55 10000 1.49 209 05:36 24.02.2022
3590 Clouds 3 1021 65 10000 0.62 261 23:45 23.02.2022
3591 Clouds 3 1021 66 10000 0.71 272 21:55 23.02.2022
3592 Clouds 4 1020 65 10000 0.57 277 20:32 23.02.2022
3593 Clouds 4 1020 65 10000 0.52 303 19:55 23.02.2022
3594 Clouds 4 1020 64 10000 0.71 304 18:57 23.02.2022
3595 Clouds 5 1019 64 10000 1 284 17:46 23.02.2022
3596 Clouds 6 1016 58 10000 2.49 355 15:28 23.02.2022
3597 Clouds 8 1015 53 10000 2 9 13:34 23.02.2022
3598 Clouds 8 1015 50 10000 0.33 109 12:26 23.02.2022
3599 Clouds 8 1015 51 10000 0.32 102 10:45 23.02.2022
3600 Clouds 7 1017 53 10000 0.67 120 09:24 23.02.2022
3601 Clouds 6 1017 55 10000 0.82 159 08:27 23.02.2022
3602 Clouds 5 1018 58 10000 1.16 184 07:19 23.02.2022
3603 Clouds 0 1019 81 10000 2.3 221 01:22 23.02.2022
3604 Clouds 0 1019 82 10000 2.45 222 23:40 22.02.2022
3605 Clouds 0 1019 83 10000 2.09 224 22:59 22.02.2022
3606 Clouds 1 1019 84 10000 1.73 229 21:56 22.02.2022
3607 Clouds 1 1019 84 10000 1.73 229 21:37 22.02.2022
3608 Clouds 1 1019 84 10000 1.66 231 21:18 22.02.2022
3609 Clouds 1 1019 84 10000 1.66 231 20:31 22.02.2022
3610 Clouds 1 1019 84 10000 1.59 232 19:51 22.02.2022
3611 Clouds 1 1019 84 10000 1.59 232 19:31 22.02.2022
3612 Clouds 2 1019 89 10000 1.02 254 18:27 22.02.2022
3613 Clouds 2 1019 90 7353 0.51 293 17:26 22.02.2022
3614 Clouds 2 1019 90 7353 0.51 293 16:42 22.02.2022
3615 Clouds 2 1018 93 8283 1.07 342 15:59 22.02.2022
3616 Clouds 2 1018 96 1422 0.88 335 14:52 22.02.2022
3617 Clouds 2 1016 99 501 1.15 352 12:52 22.02.2022
3618 Clouds 2 1016 100 57 1.47 8 10:54 22.02.2022
3619 Clouds 2 1017 99 85 2.02 2 08:56 22.02.2022
3620 Snow 2 1017 99 81 2.7 15 07:27 22.02.2022
3621 Snow 2 1017 99 85 2.34 1 06:52 22.02.2022
3622 Snow 2 1015 97 43 2.38 0 02:47 22.02.2022
3623 Clouds 2 1015 98 47 2.47 28 23:18 21.02.2022
3624 Clouds 3 1015 92 9397 2.65 40 21:56 21.02.2022
3625 Clouds 4 1014 79 10000 2.14 70 20:38 21.02.2022
3626 Clouds 4 1014 79 10000 2.14 70 20:38 21.02.2022
3627 Clouds 7 1012 57 10000 0.64 4 18:47 21.02.2022
3628 Clouds 7 1011 55 10000 0.25 306 17:41 21.02.2022
3629 Clouds 7 1011 55 10000 0.25 306 17:41 21.02.2022
3630 Clouds 7 1010 48 10000 1.27 212 15:26 21.02.2022
3631 Clouds 8 1010 45 10000 1.6 216 14:22 21.02.2022
3632 Rain 8 1010 45 10000 1.6 216 13:30 21.02.2022
3633 Clouds 9 1009 39 10000 0.76 206 12:24 21.02.2022
3634 Clouds 9 1009 39 10000 0.76 206 11:31 21.02.2022
3635 Clouds 9 1011 36 10000 2.07 209 10:23 21.02.2022
3636 Clear 4 1016 37 10000 2.99 211 05:35 21.02.2022
3637 Clear 0 1018 50 10000 2.77 220 00:20 21.02.2022
3638 Clear 1 1019 48 10000 2.46 224 22:28 20.02.2022
3639 Clear 1 1019 48 10000 2.46 224 21:43 20.02.2022
3640 Clear 1 1019 48 10000 2.17 228 21:19 20.02.2022
3641 Clear 1 1019 48 10000 2.17 228 20:42 20.02.2022
3642 Clear 1 1019 47 10000 2.14 232 19:42 20.02.2022
3643 Clear 2 1020 46 10000 2.09 237 18:54 20.02.2022
3644 Clear 2 1020 47 10000 2.15 233 18:34 20.02.2022
3645 Clear 2 1020 47 10000 2.26 236 17:53 20.02.2022
3646 Clear 3 1018 47 10000 2.15 241 16:18 20.02.2022
3647 Clear 4 1017 46 10000 2.18 226 14:53 20.02.2022
3648 Clear 6 1016 43 10000 2.49 214 13:53 20.02.2022
3649 Clear 6 1015 46 10000 2.84 206 12:34 20.02.2022
3650 Clear 8 1015 40 10000 2.75 206 10:47 20.02.2022
3651 Clear 7 1016 39 10000 2.17 214 10:20 20.02.2022
3652 Clear 7 1018 40 10000 2.09 218 08:56 20.02.2022
3653 Clear 0 1022 58 10000 2.27 225 00:55 20.02.2022
3654 Clear 0 1022 58 10000 2.43 224 00:30 20.02.2022
3655 Clear 0 1022 57 10000 2.16 239 23:18 19.02.2022
3656 Clear 1 1023 56 10000 1.91 228 22:23 19.02.2022
3657 Clear 1 1023 56 10000 1.91 228 21:39 19.02.2022
3658 Clear 1 1023 55 10000 1.83 239 19:54 19.02.2022
3659 Clear 1 1023 55 10000 1.83 239 19:33 19.02.2022
3660 Clouds 2 1022 54 10000 1.76 234 18:35 19.02.2022
3661 Clouds 2 1022 53 10000 1.88 236 17:37 19.02.2022
3662 Clouds 3 1021 53 10000 2.12 233 16:28 19.02.2022
3663 Clouds 3 1020 54 10000 2.01 224 15:19 19.02.2022
3664 Clouds 3 1020 54 10000 2.01 224 14:52 19.02.2022
3665 Clouds 4 1019 52 10000 1.87 222 13:45 19.02.2022
3666 Clear 7 1017 39 10000 1.6 224 11:38 19.02.2022
3667 Clear 6 1018 41 10000 1.73 218 09:57 19.02.2022
3668 Clouds 4 1022 43 10000 2.03 205 06:58 19.02.2022
3669 Clouds -1 1025 54 10000 1.97 214 03:54 19.02.2022
3670 Clouds 0 1023 57 10000 1.46 235 23:38 18.02.2022
3671 Clouds 0 1024 58 10000 1.69 234 21:53 18.02.2022
3672 Clouds 0 1023 58 10000 1.68 239 20:51 18.02.2022
3673 Clouds 1 1023 59 10000 1.75 225 19:53 18.02.2022
3674 Clear 1 1022 59 10000 1.99 229 18:50 18.02.2022
3675 Clear 2 1021 58 10000 1.93 235 18:22 18.02.2022
3676 Clear 2 1021 58 10000 1.93 235 17:51 18.02.2022
3677 Clear 3 1019 55 10000 1.31 239 14:54 18.02.2022
3678 Clouds 4 1017 51 10000 1.36 230 13:55 18.02.2022
3679 Clouds 5 1017 48 10000 1.22 221 12:53 18.02.2022
3680 Clouds 5 1017 47 10000 1.33 215 12:33 18.02.2022
3681 Clouds 5 1017 45 10000 1.4 211 11:27 18.02.2022
3682 Clouds 5 1018 46 10000 1.21 206 10:23 18.02.2022
3683 Clouds 3 1022 47 10000 1.49 194 06:56 18.02.2022
3684 Clouds 2 1023 49 10000 1.71 196 05:39 18.02.2022
3685 Clouds -1 1022 60 10000 1.4 229 23:24 17.02.2022
3686 Clouds -1 1022 59 10000 1.43 232 21:45 17.02.2022
3687 Clouds 0 1021 58 10000 1.45 233 21:19 17.02.2022
3688 Clouds 0 1021 58 10000 1.45 233 20:37 17.02.2022
3689 Clouds 0 1021 57 10000 1.51 239 19:48 17.02.2022
3690 Clear 0 1021 55 10000 1.64 239 18:41 17.02.2022
3691 Clear 1 1020 54 10000 1.68 241 17:50 17.02.2022
3692 Clear 2 1018 52 10000 1.34 250 16:25 17.02.2022
3693 Clear 2 1018 52 10000 1.34 250 15:30 17.02.2022
3694 Clear 3 1016 50 10000 0.3 234 14:25 17.02.2022
3695 Clear 5 1015 42 10000 0.09 260 12:35 17.02.2022
3696 Clear 5 1015 37 10000 0.26 190 11:21 17.02.2022
3697 Clear 3 1018 37 10000 0.85 199 08:45 17.02.2022
3698 Clear -3 1021 52 10000 1.75 213 01:45 17.02.2022
3699 Clear -2 1020 55 10000 1.5 216 23:19 16.02.2022
3700 Clear -1 1020 55 10000 1.63 217 21:31 16.02.2022
3701 Clear -1 1019 54 10000 1.76 215 19:46 16.02.2022
3702 Clear 0 1019 52 10000 1.76 221 18:38 16.02.2022
3703 Clear 1 1018 50 10000 1.68 222 17:47 16.02.2022
3704 Clear 2 1017 45 10000 1.66 221 15:36 16.02.2022
3705 Clear 2 1016 43 10000 1.46 222 14:57 16.02.2022
3706 Clear 4 1015 42 10000 2.05 193 12:35 16.02.2022
3707 Clear 4 1015 37 10000 2.13 193 11:53 16.02.2022
3708 Clear 4 1016 37 10000 2.18 193 11:23 16.02.2022
3709 Clear 4 1017 38 10000 2.24 193 10:29 16.02.2022
3710 Clear 0 1022 46 10000 2.53 197 06:57 16.02.2022
3711 Clear -2 1024 53 10000 2.37 206 04:42 16.02.2022
3712 Clear -3 1023 62 10000 2.08 219 23:44 15.02.2022
3713 Clear -2 1023 63 10000 2.25 219 22:19 15.02.2022
3714 Clear -2 1023 63 10000 2.25 219 21:45 15.02.2022
3715 Clear -2 1023 64 10000 2.24 217 21:27 15.02.2022
3716 Clear -2 1023 64 10000 2.24 217 20:55 15.02.2022
3717 Clear -1 1023 64 10000 2.33 216 19:55 15.02.2022
3718 Clouds -1 1023 64 10000 2.28 216 18:52 15.02.2022
3719 Clouds -1 1022 64 10000 2.26 216 18:19 15.02.2022
3720 Clouds -1 1022 64 10000 2.26 216 17:48 15.02.2022
3721 Clouds 0 1022 63 10000 2.26 216 16:30 15.02.2022
3722 Clouds 0 1021 64 10000 2.28 209 14:47 15.02.2022
3723 Clouds 3 1018 58 10000 2.71 194 13:26 15.02.2022
3724 Clouds 4 1018 59 10000 2.54 192 11:54 15.02.2022
3725 Clouds 4 1018 58 10000 2.65 193 10:57 15.02.2022
3726 Clouds 3 1021 58 10000 2.56 195 09:25 15.02.2022
3727 Clouds 2 1023 54 10000 2.26 197 06:49 15.02.2022
3728 Clouds -1 1023 70 10000 1.72 220 00:48 15.02.2022
3729 Clouds 0 1022 73 10000 1.68 220 22:20 14.02.2022
3730 Clouds 0 1022 74 10000 1.56 221 21:24 14.02.2022
3731 Clouds 0 1022 75 10000 1.62 223 20:24 14.02.2022
3732 Clouds 0 1022 75 10000 1.62 223 19:30 14.02.2022
3733 Clouds 1 1021 76 10000 1.81 221 18:27 14.02.2022
3734 Clouds 1 1021 76 10000 1.81 221 17:43 14.02.2022
3735 Clouds 1 1021 76 10000 1.81 221 17:43 14.02.2022
3736 Clouds 2 1021 76 10000 1.93 221 17:24 14.02.2022
3737 Clouds 2 1020 77 10000 2.03 221 15:58 14.02.2022
3738 Clouds 3 1018 78 10000 2.84 200 13:40 14.02.2022
3739 Clouds 5 1016 73 10000 2.8 196 13:22 14.02.2022
3740 Clouds 5 1016 73 10000 2.8 196 12:32 14.02.2022
3741 Clouds 5 1016 69 10000 2.7 195 11:47 14.02.2022
3742 Clouds 5 1017 66 10000 2.51 193 10:25 14.02.2022
3743 Clouds 5 1018 68 10000 2.16 197 08:37 14.02.2022
3744 Clouds 4 1021 74 10000 1.78 203 07:27 14.02.2022
3745 Clouds 1 1020 72 10000 1.69 219 23:41 13.02.2022
3746 Clouds 1 1020 70 10000 1.35 239 22:42 13.02.2022
3747 Clouds 1 1020 70 10000 1 234 22:23 13.02.2022
3748 Clouds 1 1020 70 10000 1.1 218 21:28 13.02.2022
3749 Clouds 1 1020 70 10000 1.1 218 20:32 13.02.2022
3750 Rain 2 1020 67 10000 0.76 220 19:24 13.02.2022
3751 Clouds 2 1021 70 6677 1.37 206 18:42 13.02.2022
3752 Rain 2 1020 67 10000 1.12 211 17:54 13.02.2022
3753 Rain 2 1019 65 10000 1.47 222 15:54 13.02.2022
3754 Rain 2 1019 65 10000 1.47 222 15:54 13.02.2022
3755 Rain 2 1019 65 10000 1.47 222 15:54 13.02.2022
3756 Clouds 2 1018 62 10000 0.89 232 14:58 13.02.2022
3757 Clouds 3 1018 60 10000 1.37 175 13:59 13.02.2022
3758 Clouds 4 1016 57 10000 1.42 191 12:49 13.02.2022
3759 Clouds 4 1016 53 10000 1.89 206 11:26 13.02.2022
3760 Clouds 4 1016 53 10000 1.89 206 10:30 13.02.2022
3761 Rain 4 1016 51 10000 1.73 202 09:41 13.02.2022
3762 Clouds 2 1020 52 10000 1.86 203 07:19 13.02.2022
3763 Clouds -3 1023 58 10000 2.43 208 00:35 13.02.2022
3764 Clouds -3 1022 58 10000 2.12 209 23:39 12.02.2022
3765 Clouds -3 1023 57 10000 2 213 22:33 12.02.2022
3766 Clouds -2 1022 57 10000 2.04 219 21:19 12.02.2022
3767 Clouds -2 1022 57 10000 2.04 219 20:32 12.02.2022
3768 Clear -2 1022 56 10000 2.11 207 19:21 12.02.2022
3769 Clear -2 1022 56 10000 2.11 207 18:52 12.02.2022
3770 Clear -2 1022 56 10000 2.07 208 18:34 12.02.2022
3771 Clear -1 1022 56 10000 2.02 217 16:56 12.02.2022
3772 Clear -1 1022 57 10000 2.33 209 16:25 12.02.2022
3773 Clear -1 1022 57 10000 2.33 209 15:50 12.02.2022
3774 Clear -1 1021 58 10000 2.4 212 14:31 12.02.2022
3775 Clear 2 1018 52 10000 2.48 200 12:58 12.02.2022
3776 Clear 4 1018 50 10000 2.31 196 10:40 12.02.2022
3777 Clear 3 1019 50 10000 2.31 199 09:39 12.02.2022
3778 Clear 3 1020 49 10000 2.33 201 08:50 12.02.2022
3779 Clear 2 1022 48 10000 2.64 197 08:18 12.02.2022
3780 Clear 2 1022 48 10000 2.64 197 08:18 12.02.2022
3781 Clear -1 1025 46 10000 2.7 198 05:33 12.02.2022
3782 Clear -5 1028 51 10000 2.8 208 04:27 12.02.2022
3783 Clear -5 1027 51 10000 2.79 210 02:18 12.02.2022
3784 Clear -4 1027 54 10000 2.77 210 22:29 11.02.2022
3785 Clear -4 1027 54 10000 2.77 210 21:51 11.02.2022
3786 Clear -4 1027 53 10000 2.7 209 20:40 11.02.2022
3787 Clear -3 1027 53 10000 2.77 210 19:40 11.02.2022
3788 Clear -3 1026 53 10000 2.76 210 19:20 11.02.2022
3789 Clear -2 1026 53 10000 2.61 211 17:55 11.02.2022
3790 Clear -2 1026 54 10000 2.59 211 17:25 11.02.2022
3791 Clear -2 1026 55 10000 2.58 211 16:22 11.02.2022
3792 Clear -2 1025 58 10000 2.58 210 14:43 11.02.2022
3793 Clear -1 1024 60 10000 2.67 207 14:21 11.02.2022
3794 Clear -1 1024 60 10000 2.67 207 13:57 11.02.2022
3795 Clear -1 1024 60 10000 2.67 207 13:39 11.02.2022
3796 Clouds 2 1021 55 10000 2.85 197 11:41 11.02.2022
3797 Clouds 2 1022 52 10000 2.74 199 09:58 11.02.2022
3798 Clouds 1 1024 51 10000 2.76 197 08:49 11.02.2022
3799 Clouds 0 1026 51 10000 2.94 198 08:26 11.02.2022
3800 Clouds -1 1028 58 10000 3.09 197 07:18 11.02.2022
3801 Clouds -7 1031 64 10000 2.81 209 02:26 11.02.2022
3802 Clouds -7 1031 64 10000 2.81 209 02:26 11.02.2022
3803 Clear -7 1031 63 10000 2.81 211 00:51 11.02.2022
3804 Clear -7 1032 63 10000 2.59 213 22:51 10.02.2022
3805 Clear -7 1032 63 10000 2.6 214 21:46 10.02.2022
3806 Clear -7 1032 62 10000 2.66 213 20:59 10.02.2022
3807 Clear -7 1032 62 10000 2.66 213 20:35 10.02.2022
3808 Clear -6 1032 62 10000 2.73 213 19:26 10.02.2022
3809 Clear -6 1032 62 10000 2.73 213 18:45 10.02.2022
3810 Clear -5 1031 63 10000 2.54 214 17:26 10.02.2022
3811 Clear -5 1031 63 10000 2.54 214 16:50 10.02.2022
3812 Clear -5 1031 64 10000 2.68 213 15:49 10.02.2022
3813 Clear -5 1030 65 10000 2.76 213 15:29 10.02.2022
3814 Clear -5 1030 65 10000 2.76 213 14:47 10.02.2022
3815 Clear -4 1029 68 10000 2.79 208 14:23 10.02.2022
3816 Clear -2 1027 67 10000 2.78 198 13:26 10.02.2022
3817 Clear -1 1026 60 10000 2.94 197 12:27 10.02.2022
3818 Clear -1 1026 60 10000 2.94 197 11:33 10.02.2022
3819 Clear 0 1026 57 10000 2.98 195 10:44 10.02.2022
3820 Clear -1 1027 58 10000 2.74 196 09:57 10.02.2022
3821 Clear -2 1028 58 10000 2.69 197 09:23 10.02.2022
3822 Clear -4 1031 58 10000 2.96 195 07:19 10.02.2022
3823 Clear -9 1034 66 10000 2.78 209 04:23 10.02.2022
3824 Clear -9 1033 65 10000 2.74 211 01:48 10.02.2022
3825 Clear -8 1032 66 10000 2.63 212 00:44 10.02.2022
3826 Clear -8 1032 66 10000 2.56 211 00:25 10.02.2022
3827 Clear -8 1032 66 10000 2.44 215 22:58 09.02.2022
3828 Clear -8 1032 66 10000 2.44 215 22:34 09.02.2022
3829 Clear -7 1032 66 10000 2.32 215 21:49 09.02.2022
3830 Clear -7 1032 65 10000 2.47 210 21:28 09.02.2022
3831 Clear -7 1032 65 10000 2.47 210 20:47 09.02.2022
3832 Clear -7 1031 65 10000 2.5 216 20:24 09.02.2022
3833 Clear -7 1031 65 10000 2.5 216 19:44 09.02.2022
3834 Clear -6 1031 65 10000 2.52 213 18:58 09.02.2022
3835 Clear -6 1031 66 10000 2.51 215 17:32 09.02.2022
3836 Clear -6 1030 70 10000 2.6 211 16:26 09.02.2022
3837 Clear -6 1030 70 10000 2.6 211 15:32 09.02.2022
3838 Clear -5 1027 75 10000 2.71 206 13:57 09.02.2022
3839 Clear -1 1024 66 10000 2.73 194 12:25 09.02.2022
3840 Clear -1 1024 65 10000 2.65 194 10:37 09.02.2022
3841 Clear -1 1024 66 10000 2.62 193 09:57 09.02.2022
3842 Clear -2 1025 67 10000 2.57 194 09:23 09.02.2022
3843 Clear -2 1025 67 10000 2.57 194 08:51 09.02.2022
3844 Clear -3 1028 66 10000 2.45 194 07:28 09.02.2022
3845 Clear -5 1029 62 10000 2.52 205 05:29 09.02.2022
3846 Clear -7 1029 65 10000 2.52 214 03:49 09.02.2022
3847 Clear -6 1026 68 10000 2.71 210 23:57 08.02.2022
3848 Clear -6 1026 69 10000 2.49 217 23:29 08.02.2022
3849 Clear -6 1026 69 10000 2.49 217 22:39 08.02.2022
3850 Clear -5 1026 71 10000 2.41 216 22:20 08.02.2022
3851 Clear -5 1025 72 10000 2.39 214 21:23 08.02.2022
3852 Clear -5 1025 72 10000 2.39 214 20:59 08.02.2022
3853 Clear -5 1025 72 10000 2.39 214 20:41 08.02.2022
3854 Clear -4 1025 73 10000 2.27 212 19:31 08.02.2022
3855 Clouds -4 1024 76 10000 2.39 205 18:24 08.02.2022
3856 Clouds -4 1024 76 10000 2.39 205 17:33 08.02.2022
3857 Clouds -3 1023 79 10000 2.01 206 15:52 08.02.2022
3858 Clouds -3 1022 79 10000 1.92 211 15:28 08.02.2022
3859 Clouds -2 1021 78 10000 1.97 199 13:50 08.02.2022
3860 Clouds 0 1019 72 10000 1.61 195 12:39 08.02.2022
3861 Clouds 1 1019 68 10000 2.16 189 10:55 08.02.2022
3862 Clouds 1 1020 70 10000 2.21 186 09:50 08.02.2022
3863 Clouds 0 1021 71 10000 2.12 191 08:53 08.02.2022
3864 Clouds -2 1025 72 10000 2.33 193 06:50 08.02.2022
3865 Clouds -4 1026 70 10000 2.4 197 04:40 08.02.2022
3866 Clouds -4 1026 73 10000 2.34 205 04:22 08.02.2022
3867 Clouds -4 1026 73 10000 2.34 205 03:36 08.02.2022
3868 Clouds -5 1026 73 10000 2.17 208 03:18 08.02.2022
3869 Clouds -5 1026 73 10000 2.17 208 02:59 08.02.2022
3870 Clouds -5 1026 73 10000 2.17 208 02:36 08.02.2022
3871 Clouds -5 1026 73 10000 2.12 207 02:18 08.02.2022
3872 Clouds -5 1026 73 10000 2.12 207 01:45 08.02.2022
3873 Clouds -5 1026 73 10000 2.21 207 01:25 08.02.2022
3874 Clouds -5 1026 73 10000 2.21 207 00:55 08.02.2022
3875 Clouds -5 1026 72 10000 2.23 207 00:32 08.02.2022
3876 Clouds -5 1026 72 10000 2.23 210 23:44 07.02.2022
3877 Clouds -5 1027 72 10000 2.07 212 23:18 07.02.2022
3878 Clouds -5 1027 72 10000 2.07 212 22:59 07.02.2022
3879 Clouds -5 1027 72 10000 2.07 212 22:59 07.02.2022
3880 Clouds -5 1027 72 10000 1.93 215 22:19 07.02.2022
3881 Clouds -5 1027 72 10000 1.93 215 21:51 07.02.2022
3882 Clouds -5 1027 72 10000 1.99 215 21:27 07.02.2022
3883 Clouds -5 1027 72 10000 1.99 215 20:45 07.02.2022
3884 Clouds -4 1027 72 10000 1.94 216 20:27 07.02.2022
3885 Clouds -4 1027 72 10000 1.94 216 19:47 07.02.2022
3886 Clear -4 1027 72 10000 1.92 218 18:40 07.02.2022
3887 Clear -4 1027 73 10000 2.01 216 17:33 07.02.2022
3888 Clear -3 1026 75 10000 2.01 215 16:52 07.02.2022
3889 Clear -3 1026 77 10000 2.08 214 15:48 07.02.2022
3890 Clear -2 1023 75 10000 2.07 208 14:19 07.02.2022
3891 Clear 1 1021 72 10000 1.8 199 13:27 07.02.2022
3892 Clear 1 1021 72 10000 1.8 199 12:35 07.02.2022
3893 Clear 2 1021 69 10000 1.6 198 11:50 07.02.2022
3894 Clear 2 1021 69 10000 1.58 195 11:24 07.02.2022
3895 Clear 2 1021 69 10000 1.58 195 10:42 07.02.2022
3896 Clouds 1 1022 70 10000 1.58 194 10:24 07.02.2022
3897 Clouds 1 1022 70 10000 1.58 194 09:52 07.02.2022
3898 Clouds 1 1023 71 10000 1.62 191 09:18 07.02.2022
3899 Clouds 0 1024 71 10000 1.71 192 07:53 07.02.2022
3900 Clouds 0 1025 71 10000 1.89 195 06:34 07.02.2022
3901 Clouds -3 1027 76 10000 1.99 208 04:49 07.02.2022
3902 Clouds -5 1027 80 10000 2.09 216 02:37 07.02.2022
3903 Clouds -4 1026 83 10000 1.53 221 00:20 07.02.2022
3904 Clouds -4 1026 83 10000 1.54 221 23:20 06.02.2022
3905 Clouds -4 1026 83 10000 1.54 221 22:42 06.02.2022
3906 Clouds -4 1026 84 10000 1.43 229 21:46 06.02.2022
3907 Clouds -4 1026 85 10000 1.28 232 21:21 06.02.2022
3908 Clouds -4 1026 85 10000 1.28 232 20:48 06.02.2022
3909 Clouds -3 1025 87 10000 1.22 236 20:23 06.02.2022
3910 Clouds -3 1025 88 10000 1.12 234 19:18 06.02.2022
3911 Snow -3 1025 87 10000 1.16 227 18:33 06.02.2022
3912 Clouds -2 1024 87 10000 1.08 223 17:37 06.02.2022
3913 Snow -2 1024 88 9780 0.98 236 16:52 06.02.2022
3914 Clouds -2 1024 88 4721 0.83 252 16:20 06.02.2022
3915 Clouds -2 1024 88 4721 0.83 252 15:47 06.02.2022
3916 Snow -2 1022 85 10000 0.59 250 15:24 06.02.2022
3917 Snow 0 1021 81 9950 0.86 197 14:19 06.02.2022
3918 Snow 1 1019 68 10000 1.88 310 13:21 06.02.2022
3919 Rain 2 1018 60 10000 1.23 306 12:27 06.02.2022
3920 Clouds 2 1018 58 10000 2.07 320 10:33 06.02.2022
3921 Clouds 2 1018 58 10000 1.51 339 09:43 06.02.2022
3922 Clouds 2 1019 56 10000 0.94 343 08:41 06.02.2022
3923 Clouds 1 1021 57 10000 0.35 171 06:34 06.02.2022
3924 Clouds -1 1023 68 10000 0.41 6 05:28 06.02.2022
3925 Clouds -3 1022 74 10000 0.06 260 02:25 06.02.2022
3926 Clouds -2 1021 68 10000 0.93 306 00:33 06.02.2022
3927 Clouds -3 1022 70 10000 0.86 320 23:39 05.02.2022
3928 Clouds -2 1021 72 10000 0.51 155 21:47 05.02.2022
3929 Clouds -2 1021 74 10000 0.23 187 20:41 05.02.2022
3930 Clouds -1 1021 73 7951 0.81 200 20:20 05.02.2022
3931 Clouds -1 1021 73 7951 0.81 200 19:42 05.02.2022
3932 Clouds -1 1021 73 10000 1.12 206 18:37 05.02.2022
3933 Clouds -2 1021 74 10000 0.76 208 17:35 05.02.2022
3934 Snow 0 1019 73 7141 0.34 287 16:20 05.02.2022
3935 Snow 0 1019 73 7141 0.34 287 15:31 05.02.2022
3936 Snow 0 1017 61 3034 0.93 198 13:38 05.02.2022
3937 Clouds 1 1016 52 10000 1.3 189 12:46 05.02.2022
3938 Clouds 2 1015 49 10000 1.58 196 11:45 05.02.2022
3939 Clear 3 1015 46 10000 1.83 194 10:43 05.02.2022
3940 Clear 2 1016 44 10000 1.92 199 09:50 05.02.2022
3941 Clear 2 1018 42 10000 2.35 194 08:39 05.02.2022
3942 Clear -1 1021 41 10000 2.67 196 06:59 05.02.2022
3943 Clear -1 1021 41 10000 2.67 196 06:35 05.02.2022
3944 Clear -8 1024 52 10000 2.95 207 02:40 05.02.2022
3945 Clear -7 1023 52 10000 2.89 208 01:18 05.02.2022
3946 Clear -7 1023 52 10000 2.79 209 00:36 05.02.2022
3947 Clear -7 1023 51 10000 2.62 209 23:33 04.02.2022
3948 Clear -7 1023 51 10000 2.57 211 22:39 04.02.2022
3949 Clear -7 1023 51 10000 2.41 210 21:36 04.02.2022
3950 Clear -6 1023 50 10000 2.46 211 21:18 04.02.2022
3951 Clear -6 1023 50 10000 2.61 207 20:29 04.02.2022
3952 Clear -6 1023 49 10000 2.82 210 19:18 04.02.2022
3953 Clear -5 1021 49 10000 2.56 215 16:22 04.02.2022
3954 Clear -5 1021 50 10000 2.76 205 15:18 04.02.2022
3955 Clear -5 1021 50 10000 2.76 205 14:40 04.02.2022
3956 Clouds -2 1018 52 10000 2.91 203 12:43 04.02.2022
3957 Clouds -1 1017 50 10000 2.79 199 11:45 04.02.2022
3958 Clouds 0 1017 46 10000 2.92 197 10:53 04.02.2022
3959 Clear -1 1018 45 10000 2.87 199 09:35 04.02.2022
3960 Clear -3 1022 45 10000 3 202 07:44 04.02.2022
3961 Clear -11 1028 63 10000 3.11 211 03:30 04.02.2022
3962 Clear -11 1028 63 10000 3.39 213 02:34 04.02.2022
3963 Clear -10 1027 64 10000 3.15 214 23:34 03.02.2022
3964 Clear -10 1027 64 10000 3.16 217 22:48 03.02.2022
3965 Clear -9 1027 64 10000 3.07 217 21:51 03.02.2022
3966 Clear -9 1027 64 10000 2.9 214 21:18 03.02.2022
3967 Clear -8 1027 64 10000 2.74 216 20:21 03.02.2022
3968 Clear -8 1027 64 10000 2.74 216 19:36 03.02.2022
3969 Clear -8 1027 63 10000 2.67 221 18:50 03.02.2022
3970 Clear -7 1026 63 10000 2.68 221 17:51 03.02.2022
3971 Clear -7 1026 65 10000 2.69 222 16:46 03.02.2022
3972 Clear -6 1024 69 10000 2.6 223 14:55 03.02.2022
3973 Clear -3 1021 72 10000 2.44 213 13:19 03.02.2022
3974 Clear -1 1020 67 10000 2.32 208 11:44 03.02.2022
3975 Clear -2 1022 63 10000 2.65 203 08:55 03.02.2022
3976 Clear -2 1023 63 10000 2.76 203 07:40 03.02.2022
3977 Clear -7 1026 74 10000 2.52 222 00:34 03.02.2022
3978 Clear -7 1025 74 10000 2.46 221 23:45 02.02.2022
3979 Clear -7 1025 74 10000 2.47 224 22:36 02.02.2022
3980 Clear -6 1025 74 10000 2.38 225 21:37 02.02.2022
3981 Clear -6 1024 74 10000 2.32 226 20:56 02.02.2022
3982 Clear -5 1024 75 10000 2.04 228 20:00 02.02.2022
3983 Clear -5 1024 75 10000 2.04 228 19:41 02.02.2022
3984 Clouds -5 1023 77 10000 2.01 233 18:53 02.02.2022
3985 Clouds -5 1023 78 10000 1.89 232 18:22 02.02.2022
3986 Clouds -4 1022 79 10000 1.82 228 17:20 02.02.2022
3987 Clouds -4 1022 79 10000 1.82 228 16:47 02.02.2022
3988 Clouds -2 1018 82 10000 1.85 214 14:18 02.02.2022
3989 Clouds 1 1015 76 10000 0.58 235 12:26 02.02.2022
3990 Clouds 1 1015 76 10000 0.58 235 11:40 02.02.2022
3991 Clouds 1 1014 74 10000 0.56 191 10:38 02.02.2022
3992 Clouds 0 1017 64 9635 0.67 215 07:42 02.02.2022
3993 Clouds -6 1021 69 10000 2.07 194 00:34 02.02.2022
3994 Clouds -5 1022 69 10000 2.08 227 21:55 01.02.2022
3995 Clouds -6 1022 67 10000 2.16 210 20:47 01.02.2022
3996 Clouds -6 1024 62 10000 2.91 208 17:59 01.02.2022
3997 Clouds -6 1024 62 10000 3.05 209 16:43 01.02.2022
3998 Clouds -6 1024 65 10000 2.83 213 14:56 01.02.2022
3999 Clear -3 1022 69 10000 2.98 200 12:48 01.02.2022
4000 Clear -2 1022 69 10000 3.1 193 11:48 01.02.2022
4001 Clear -4 1029 59 10000 2.99 196 06:57 01.02.2022
4002 Clear -8 1029 68 10000 3.02 214 23:53 31.01.2022
4003 Clear -8 1029 68 10000 3.02 214 23:34 31.01.2022
4004 Clear -8 1029 68 10000 3.02 214 23:34 31.01.2022
4005 Clear -7 1028 69 10000 2.63 219 22:26 31.01.2022
4006 Clear -7 1028 69 10000 2.63 219 21:33 31.01.2022
4007 Clear -7 1028 69 10000 2.46 221 20:33 31.01.2022
4008 Clear -7 1027 70 10000 2.47 218 19:46 31.01.2022
4009 Clear -6 1026 72 10000 2.51 222 18:29 31.01.2022
4010 Clear -4 1024 71 10000 2.25 220 17:46 31.01.2022
4011 Clear -4 1023 72 10000 2.25 218 16:48 31.01.2022
4012 Clear -4 1023 74 10000 2.25 219 15:43 31.01.2022
4013 Clear -3 1021 79 10000 2.2 209 14:24 31.01.2022
4014 Clear -1 1019 78 10000 2.12 199 12:39 31.01.2022
4015 Clear 0 1018 72 10000 1.92 194 11:58 31.01.2022
4016 Clear 1 1018 71 10000 1.87 192 10:51 31.01.2022
4017 Clear 1 1018 71 10000 1.87 192 10:32 31.01.2022
4018 Clear 0 1020 72 10000 1.98 190 09:27 31.01.2022
4019 Clear 0 1020 72 10000 1.98 190 08:52 31.01.2022
4020 Clear 0 1020 72 10000 1.98 190 08:52 31.01.2022
4021 Clear -1 1021 71 10000 1.83 196 08:20 31.01.2022
4022 Clear -3 1023 71 10000 2.32 194 06:21 31.01.2022
4023 Clear -6 1024 77 10000 2.74 211 03:33 31.01.2022
4024 Clouds -5 1022 76 10000 2.39 212 23:19 30.01.2022
4025 Clouds -5 1022 76 10000 2.38 211 22:29 30.01.2022
4026 Clouds -5 1022 76 10000 2.38 211 21:42 30.01.2022
4027 Clear -5 1022 74 10000 2.26 212 21:19 30.01.2022
4028 Clear -5 1022 74 10000 2.26 212 20:49 30.01.2022
4029 Clear -5 1022 75 10000 2.29 213 20:29 30.01.2022
4030 Clear -5 1022 75 10000 2.29 213 19:52 30.01.2022
4031 Clouds -4 1022 75 10000 2.2 213 18:44 30.01.2022
4032 Clouds -4 1022 76 10000 2.12 217 18:20 30.01.2022
4033 Clouds -3 1022 77 10000 2.22 194 17:27 30.01.2022
4034 Clouds -3 1022 77 10000 2.22 194 16:40 30.01.2022
4035 Clouds -3 1022 77 10000 2.22 194 16:40 30.01.2022
4036 Clouds -4 1022 78 10000 2.09 229 16:22 30.01.2022
4037 Clouds -4 1022 78 10000 2.09 229 15:51 30.01.2022
4038 Clouds -4 1022 78 10000 2.09 229 15:32 30.01.2022
4039 Clouds -3 1021 79 10000 2 206 14:46 30.01.2022
4040 Clouds -1 1018 79 10000 1.69 196 12:54 30.01.2022
4041 Clouds -1 1018 79 10000 1.69 196 12:33 30.01.2022
4042 Clear 1 1018 72 10000 1.85 184 10:36 30.01.2022
4043 Clear 0 1019 73 10000 1.92 190 09:56 30.01.2022
4044 Clear 0 1021 73 10000 2.18 191 08:58 30.01.2022
4045 Clear -1 1023 72 10000 2.11 198 07:55 30.01.2022
4046 Clear -6 1027 72 10000 2.29 213 02:29 30.01.2022
4047 Clear -6 1027 71 10000 2.19 214 00:41 30.01.2022
4048 Clear -5 1028 72 10000 2.26 210 23:20 29.01.2022
4049 Clear -5 1028 72 10000 2.18 218 21:58 29.01.2022
4050 Clear -5 1028 72 10000 2.1 213 21:25 29.01.2022
4051 Clear -5 1028 72 10000 2.1 213 20:35 29.01.2022
4052 Clear -4 1028 71 10000 2.13 219 19:36 29.01.2022
4053 Clear -4 1028 72 10000 2.02 218 18:58 29.01.2022
4054 Clear -4 1028 70 10000 2 223 18:26 29.01.2022
4055 Clear -4 1028 70 10000 2 223 17:35 29.01.2022
4056 Clear -3 1027 73 10000 2.22 215 16:37 29.01.2022
4057 Clear -2 1024 76 10000 2.07 212 14:23 29.01.2022
4058 Clear -2 1024 76 10000 2.07 212 13:45 29.01.2022
4059 Clear -1 1022 76 10000 2.03 200 13:24 29.01.2022
4060 Clear 1 1022 74 10000 1.87 198 11:50 29.01.2022
4061 Clear 1 1022 72 10000 1.68 201 11:27 29.01.2022
4062 Clear 0 1024 73 10000 2.16 194 09:29 29.01.2022
4063 Clear -1 1027 69 10000 2.34 199 06:55 29.01.2022
4064 Clear -6 1028 75 10000 2.49 213 00:36 29.01.2022
4065 Clear -6 1028 75 10000 2.21 207 23:59 28.01.2022
4066 Clear -6 1028 75 10000 2.18 212 22:51 28.01.2022
4067 Clear -5 1028 76 10000 2.05 211 22:22 28.01.2022
4068 Clear -5 1028 76 10000 2.05 211 21:37 28.01.2022
4069 Clear -5 1028 76 10000 1.89 215 20:30 28.01.2022
4070 Clear -5 1027 76 10000 1.92 213 19:31 28.01.2022
4071 Clear -5 1027 77 10000 1.85 215 18:43 28.01.2022
4072 Clear -4 1026 77 10000 1.81 209 16:54 28.01.2022
4073 Clear -4 1025 79 10000 1.53 209 15:20 28.01.2022
4074 Clear -3 1023 78 10000 1.39 207 13:52 28.01.2022
4075 Clear -1 1020 77 10000 1.42 199 12:30 28.01.2022
4076 Clear 1 1019 71 10000 1.42 183 11:24 28.01.2022
4077 Clouds 1 1020 70 10000 1.62 189 09:52 28.01.2022
4078 Clear 0 1023 64 10000 2.3 199 08:22 28.01.2022
4079 Clear 0 1023 64 10000 2.3 199 07:34 28.01.2022
4080 Clouds -7 1029 68 10000 2.31 203 03:57 28.01.2022
4081 Clouds -8 1029 69 10000 2.11 217 03:20 28.01.2022
4082 Clouds -7 1028 68 10000 2.35 208 02:22 28.01.2022
4083 Clouds -7 1028 68 10000 2.35 208 01:31 28.01.2022
4084 Clouds -8 1030 64 10000 2.84 205 22:52 27.01.2022
4085 Clouds -8 1030 64 10000 2.49 204 21:47 27.01.2022
4086 Clouds -8 1030 62 10000 2.69 217 21:29 27.01.2022
4087 Clear -8 1031 61 10000 2.54 215 20:25 27.01.2022
4088 Clear -8 1031 59 10000 2.63 211 18:26 27.01.2022
4089 Clear -8 1031 59 10000 2.63 211 17:34 27.01.2022
4090 Clear -7 1029 60 10000 2.91 207 14:42 27.01.2022
4091 Clear -5 1026 66 10000 2.71 202 13:26 27.01.2022
4092 Clear -5 1026 66 10000 2.71 201 12:39 27.01.2022
4093 Clear -3 1025 55 10000 2.65 194 09:56 27.01.2022
4094 Clear -3 1027 55 10000 2.71 195 08:48 27.01.2022
4095 Clear -4 1028 55 10000 2.74 195 08:28 27.01.2022
4096 Clear -12 1035 61 10000 2.96 213 03:47 27.01.2022
4097 Clear -12 1033 59 10000 2.95 214 00:25 27.01.2022
4098 Clear -12 1033 59 10000 2.95 214 00:25 27.01.2022
4099 Clear -11 1033 59 10000 2.9 217 22:39 26.01.2022
4100 Clear -11 1033 59 10000 2.59 220 21:45 26.01.2022
4101 Clear -11 1033 59 10000 2.78 218 21:26 26.01.2022
4102 Clear -11 1033 59 10000 2.78 218 20:35 26.01.2022
4103 Clear -10 1032 59 10000 2.77 216 19:52 26.01.2022
4104 Clear -10 1032 59 10000 2.8 219 19:18 26.01.2022
4105 Clear -9 1032 59 10000 2.8 218 18:26 26.01.2022
4106 Clear -9 1032 59 10000 2.8 218 17:49 26.01.2022
4107 Clear -9 1031 60 10000 2.83 219 17:19 26.01.2022
4108 Clear -9 1030 61 10000 2.86 218 16:26 26.01.2022
4109 Clear -9 1030 63 10000 2.8 217 15:24 26.01.2022
4110 Clear -6 1027 68 10000 2.68 206 12:52 26.01.2022
4111 Clear -3 1025 60 10000 2.85 197 10:57 26.01.2022
4112 Clear -3 1025 57 10000 2.96 197 09:59 26.01.2022
4113 Clear -3 1025 57 10000 2.96 197 09:40 26.01.2022
4114 Clear -5 1029 56 10000 2.79 197 07:31 26.01.2022
4115 Clear -12 1033 60 10000 2.96 218 00:44 26.01.2022
4116 Clear -12 1033 60 10000 2.99 216 23:44 25.01.2022
4117 Clear -12 1033 60 10000 3 217 22:50 25.01.2022
4118 Clear -11 1033 60 10000 2.83 219 22:21 25.01.2022
4119 Clear -11 1033 60 10000 2.83 219 21:37 25.01.2022
4120 Clear -11 1032 60 10000 2.72 218 20:46 25.01.2022
4121 Clear -11 1032 60 10000 2.76 216 19:59 25.01.2022
4122 Clear -11 1032 60 10000 2.76 216 19:40 25.01.2022
4123 Clear -10 1031 59 10000 2.59 219 18:20 25.01.2022
4124 Clear -10 1031 59 10000 2.59 219 17:40 25.01.2022
4125 Clear -9 1030 60 10000 2.53 221 16:35 25.01.2022
4126 Clear -9 1029 61 10000 2.57 216 15:43 25.01.2022
4127 Clear -9 1028 63 10000 2.56 216 15:25 25.01.2022
4128 Clear -9 1028 63 10000 2.56 216 14:57 25.01.2022
4129 Clear -6 1024 68 10000 2.48 204 12:32 25.01.2022
4130 Clear -3 1023 55 10000 2.5 194 09:58 25.01.2022
4131 Clear -4 1024 54 10000 2.53 193 08:32 25.01.2022
4132 Clear -6 1028 54 10000 2.76 197 07:28 25.01.2022
4133 Clear -8 1029 55 10000 2.79 198 05:55 25.01.2022
4134 Clear -12 1032 58 10000 2.63 215 00:58 25.01.2022
4135 Clear -12 1032 58 10000 2.63 213 23:36 24.01.2022
4136 Clear -12 1032 59 10000 2.56 214 23:18 24.01.2022
4137 Clear -12 1032 59 10000 2.56 214 22:58 24.01.2022
4138 Clear -12 1032 59 10000 2.56 214 22:40 24.01.2022
4139 Clear -12 1032 60 10000 2.42 216 21:43 24.01.2022
4140 Clear -11 1031 59 10000 2.5 214 21:25 24.01.2022
4141 Clear -11 1031 59 10000 2.6 213 20:28 24.01.2022
4142 Clear -11 1031 59 10000 2.6 213 19:38 24.01.2022
4143 Clear -10 1030 59 10000 2.57 212 18:50 24.01.2022
4144 Clear -10 1030 59 10000 2.57 213 17:43 24.01.2022
4145 Clear -10 1029 59 10000 2.64 213 17:22 24.01.2022
4146 Clear -10 1029 59 10000 2.64 213 16:32 24.01.2022
4147 Clear -10 1029 61 10000 2.62 215 15:51 24.01.2022
4148 Clear -9 1027 65 10000 2.66 210 14:19 24.01.2022
4149 Clear -7 1024 67 10000 2.72 203 12:35 24.01.2022
4150 Clear -4 1023 67 10000 2.56 195 11:42 24.01.2022
4151 Clear -4 1023 57 10000 2.68 194 10:23 24.01.2022
4152 Clear -4 1023 57 10000 2.68 194 09:46 24.01.2022
4153 Clear -6 1027 57 10000 2.8 195 08:18 24.01.2022
4154 Clear -13 1031 63 10000 3.04 214 02:29 24.01.2022
4155 Clear -12 1030 63 10000 2.9 217 01:26 24.01.2022
4156 Clear -12 1030 63 10000 2.91 217 00:32 24.01.2022
4157 Clear -12 1029 63 10000 2.79 217 23:46 23.01.2022
4158 Clear -11 1029 63 10000 2.78 216 22:21 23.01.2022
4159 Clear -11 1029 63 10000 2.78 216 21:41 23.01.2022
4160 Clear -10 1028 64 10000 2.71 218 21:23 23.01.2022
4161 Clear -10 1028 65 10000 2.68 217 20:23 23.01.2022
4162 Clear -9 1027 65 10000 2.67 218 18:56 23.01.2022
4163 Clear -9 1026 66 10000 2.72 218 18:24 23.01.2022
4164 Clear -8 1025 67 10000 2.68 217 17:19 23.01.2022
4165 Clear -8 1025 69 10000 2.66 217 15:59 23.01.2022
4166 Clear -8 1024 71 10000 2.53 218 14:52 23.01.2022
4167 Clear -8 1022 74 10000 2.56 211 14:18 23.01.2022
4168 Clear -5 1020 74 10000 2.47 202 12:46 23.01.2022
4169 Clear -3 1018 72 10000 2.39 195 12:21 23.01.2022
4170 Clear -3 1017 65 10000 2.45 195 11:27 23.01.2022
4171 Clear -3 1017 65 10000 2.45 195 10:58 23.01.2022
4172 Clear -3 1018 64 10000 2.51 193 10:25 23.01.2022
4173 Clear -3 1018 64 10000 2.51 193 09:32 23.01.2022
4174 Clear -4 1019 64 10000 2.66 193 08:50 23.01.2022
4175 Clear -10 1024 74 10000 2.73 215 03:59 23.01.2022
4176 Clear -9 1023 74 10000 2.79 216 01:38 23.01.2022
4177 Clouds -9 1022 74 10000 2.73 216 00:47 23.01.2022
4178 Clouds -8 1022 74 10000 2.62 215 00:18 23.01.2022
4179 Clouds -8 1022 75 10000 2.54 217 22:55 22.01.2022
4180 Clouds -8 1022 75 10000 2.54 217 22:33 22.01.2022
4181 Clouds -7 1021 75 10000 2.37 215 20:46 22.01.2022
4182 Clouds -7 1020 74 10000 2.45 221 19:46 22.01.2022
4183 Clouds -6 1020 75 10000 2.16 227 18:38 22.01.2022
4184 Clouds -5 1019 76 10000 2.13 226 17:49 22.01.2022
4185 Clouds -5 1019 77 10000 2.01 227 17:29 22.01.2022
4186 Clouds -5 1019 77 10000 2.01 227 16:54 22.01.2022
4187 Clouds -5 1018 79 10000 1.96 236 15:45 22.01.2022
4188 Clouds -4 1016 81 10000 1.69 231 14:55 22.01.2022
4189 Clouds -3 1014 81 10000 1.27 213 13:31 22.01.2022
4190 Clouds -1 1013 80 10000 1.2 182 12:40 22.01.2022
4191 Clouds 0 1013 74 10000 1.27 169 12:20 22.01.2022
4192 Clouds 0 1013 73 10000 0.8 144 10:55 22.01.2022
4193 Snow 0 1013 79 10000 0.58 158 10:26 22.01.2022
4194 Clouds 0 1014 83 10000 0.71 105 09:25 22.01.2022
4195 Clouds 0 1014 83 10000 0.71 105 08:50 22.01.2022
4196 Snow -1 1016 89 10000 0.39 134 06:56 22.01.2022
4197 Snow -3 1015 97 155 1.63 356 02:40 22.01.2022
4198 Snow -2 1015 97 180 2 14 00:31 22.01.2022
4199 Snow -2 1015 96 177 2.53 6 23:21 21.01.2022
4200 Snow -3 1016 97 203 2.67 12 21:45 21.01.2022
4201 Snow -3 1017 97 245 1.93 8 19:48 21.01.2022
4202 Snow -3 1018 96 195 0.82 324 18:20 21.01.2022
4203 Snow -3 1018 95 297 0.89 41 16:54 21.01.2022
4204 Snow -2 1018 84 6187 0.79 284 15:24 21.01.2022
4205 Clouds -1 1017 71 10000 0.69 220 12:51 21.01.2022
4206 Clear -1 1017 58 10000 1.22 355 11:29 21.01.2022
4207 Clear -1 1017 58 10000 1.22 355 10:51 21.01.2022
4208 Clear -2 1019 56 10000 1.16 187 09:24 21.01.2022
4209 Clear -2 1021 56 10000 1.46 193 08:20 21.01.2022
4210 Clear -5 1024 61 10000 1.78 214 04:36 21.01.2022
4211 Clear -6 1023 66 10000 1.9 228 22:52 20.01.2022
4212 Clear -6 1023 66 10000 1.94 225 21:49 20.01.2022
4213 Clear -6 1023 67 10000 1.94 225 21:27 20.01.2022
4214 Clear -6 1023 68 10000 1.96 226 19:55 20.01.2022
4215 Clear -6 1023 69 10000 2.02 225 19:18 20.01.2022
4216 Clear -5 1022 70 10000 1.96 227 17:37 20.01.2022
4217 Clear -5 1022 70 10000 1.93 221 16:32 20.01.2022
4218 Clear -5 1021 71 10000 2.12 220 15:32 20.01.2022
4219 Clear -5 1020 71 10000 2.21 215 14:37 20.01.2022
4220 Clear -2 1018 69 10000 2.23 204 12:53 20.01.2022
4221 Clear 0 1016 67 10000 2.05 197 12:29 20.01.2022
4222 Clear 0 1016 64 10000 2.28 198 11:19 20.01.2022
4223 Clear 0 1017 65 10000 2.21 196 10:18 20.01.2022
4224 Clear 0 1018 65 10000 2.42 197 09:18 20.01.2022
4225 Clear -2 1022 63 10000 2.63 198 07:23 20.01.2022
4226 Clouds -3 1021 77 10000 2.05 222 00:40 20.01.2022
4227 Clouds -3 1021 81 10000 1.74 230 22:39 19.01.2022
4228 Clouds -2 1021 83 10000 1.83 229 21:40 19.01.2022
4229 Clouds -2 1021 84 10000 1.79 227 21:21 19.01.2022
4230 Clouds -2 1021 84 10000 1.79 227 20:45 19.01.2022
4231 Clouds -2 1021 86 10000 1.86 220 19:18 19.01.2022
4232 Clouds -1 1021 86 10000 1.9 212 17:51 19.01.2022
4233 Clouds -1 1020 86 9052 1.96 211 17:18 19.01.2022
4234 Clouds 0 1020 87 8973 2.06 204 15:35 19.01.2022
4235 Clouds 0 1019 89 8302 2.04 208 13:38 19.01.2022
4236 Clouds 2 1018 95 4547 1.6 198 12:20 19.01.2022
4237 Clouds 2 1018 95 4547 1.6 198 11:38 19.01.2022
4238 Clouds 2 1019 97 3758 1.25 193 09:49 19.01.2022
4239 Clouds 2 1020 99 1883 0.86 205 09:22 19.01.2022
4240 Snow 0 1023 97 610 0.5 295 05:29 19.01.2022
4241 Snow 0 1022 98 132 0.95 27 00:33 19.01.2022
4242 Snow 0 1022 98 1120 1.1 7 23:18 18.01.2022
4243 Clouds 0 1024 97 1992 0.84 289 21:50 18.01.2022
4244 Snow 0 1023 96 2401 1.39 324 20:44 18.01.2022
4245 Snow 1 1023 87 10000 1.01 243 19:52 18.01.2022
4246 Snow 1 1023 87 10000 1.01 243 19:33 18.01.2022
4247 Clouds 0 1025 87 10000 1.55 226 18:25 18.01.2022
4248 Clouds 0 1025 87 10000 1.55 226 17:33 18.01.2022
4249 Clouds 0 1025 89 10000 0.88 248 16:22 18.01.2022
4250 Clouds -1 1024 89 10000 1 199 15:25 18.01.2022
4251 Clouds 0 1023 90 10000 1.28 177 14:23 18.01.2022
4252 Clouds 2 1021 89 10000 1 201 11:45 18.01.2022
4253 Clouds 2 1023 84 10000 0.24 179 10:30 18.01.2022
4254 Clouds 2 1024 84 10000 1.24 188 08:36 18.01.2022
4255 Clouds 1 1026 85 10000 1.95 203 07:45 18.01.2022
4256 Clouds -2 1029 91 9192 1.36 242 01:34 18.01.2022
4257 Clouds -2 1029 92 5317 1.18 248 22:47 17.01.2022
4258 Clouds -2 1029 93 3647 1.1 239 21:50 17.01.2022
4259 Clouds -1 1029 94 4284 0.95 232 21:29 17.01.2022
4260 Clouds -1 1029 95 2354 1.01 237 19:37 17.01.2022
4261 Snow 0 1028 96 1165 1.01 225 18:26 17.01.2022
4262 Clouds 0 1028 96 1246 0.96 230 17:22 17.01.2022
4263 Clouds 0 1027 96 2298 0.9 233 16:22 17.01.2022
4264 Clouds 0 1027 96 580 0.66 219 14:58 17.01.2022
4265 Clouds 0 1027 96 580 0.66 219 14:32 17.01.2022
4266 Snow 1 1025 100 52 0.16 344 13:19 17.01.2022
4267 Snow 2 1024 100 35 0.28 32 12:22 17.01.2022
4268 Snow 2 1024 100 33 0.59 26 10:53 17.01.2022
4269 Snow 2 1024 100 34 0.79 11 09:53 17.01.2022
4270 Snow 2 1025 100 48 1.06 38 08:44 17.01.2022
4271 Snow 1 1027 99 131 1.09 25 07:20 17.01.2022
4272 Clouds 1 1025 87 10000 1.4 224 00:59 17.01.2022
4273 Snow 1 1025 86 10000 1.72 200 23:33 16.01.2022
4274 Clouds 1 1026 83 10000 1.28 223 20:51 16.01.2022
4275 Clouds 1 1027 79 10000 1.63 222 20:18 16.01.2022
4276 Snow 1 1027 79 8443 2.03 200 18:46 16.01.2022
4277 Clouds 1 1026 73 10000 1.84 207 17:47 16.01.2022
4278 Clouds 1 1026 74 10000 1.7 209 16:53 16.01.2022
4279 Snow 1 1026 74 10000 1.67 194 15:40 16.01.2022
4280 Clouds 1 1026 78 10000 1.33 229 14:29 16.01.2022
4281 Clouds 1 1024 77 10000 1.13 214 13:21 16.01.2022
4282 Clouds 3 1024 77 10000 0.74 200 11:58 16.01.2022
4283 Clouds 3 1024 73 10000 1.14 189 11:27 16.01.2022
4284 Clouds 3 1024 71 10000 0.86 191 10:27 16.01.2022
4285 Clouds 3 1024 71 10000 0.86 191 09:57 16.01.2022
4286 Rain 3 1025 71 10000 0.41 221 09:23 16.01.2022
4287 Clouds 3 1025 71 10000 0.41 221 08:53 16.01.2022
4288 Clouds 1 1028 70 10000 0.9 213 05:51 16.01.2022
4289 Clouds -2 1028 81 10000 1.55 219 00:19 16.01.2022
4290 Clouds -2 1029 82 10000 2.11 208 22:38 15.01.2022
4291 Clouds -1 1028 83 10000 1.42 206 21:21 15.01.2022
4292 Clouds -1 1028 83 10000 1.42 206 20:43 15.01.2022
4293 Clouds -1 1029 84 10000 1.42 208 19:58 15.01.2022
4294 Clouds -1 1029 84 10000 1.65 214 19:23 15.01.2022
4295 Clouds -1 1029 84 10000 1.22 215 17:49 15.01.2022
4296 Clouds -1 1029 80 10000 1.48 204 16:42 15.01.2022
4297 Clouds -2 1027 83 10000 1.12 228 13:57 15.01.2022
4298 Clouds -1 1026 82 10000 1.32 185 12:33 15.01.2022
4299 Clouds 1 1026 77 10000 1.32 174 11:18 15.01.2022
4300 Clouds 1 1026 70 10000 0.5 139 09:21 15.01.2022
4301 Clouds -4 1029 75 10000 1.84 216 00:52 15.01.2022
4302 Clouds -3 1029 74 10000 1.81 216 21:57 14.01.2022
4303 Clouds -3 1029 75 10000 1.73 224 20:42 14.01.2022
4304 Clouds -3 1029 76 10000 1.66 225 20:23 14.01.2022
4305 Clouds -3 1029 76 10000 1.66 225 19:48 14.01.2022
4306 Clouds -3 1029 77 10000 1.57 214 18:28 14.01.2022
4307 Clouds -2 1028 77 10000 1.65 217 16:50 14.01.2022
4308 Clouds -3 1028 78 10000 1.77 210 15:48 14.01.2022
4309 Clouds -2 1028 78 10000 1.73 212 14:46 14.01.2022
4310 Clouds -2 1026 79 10000 1.75 202 13:37 14.01.2022
4311 Clear -1 1025 76 10000 1.53 210 12:31 14.01.2022
4312 Clear 1 1024 65 10000 1.24 190 11:27 14.01.2022
4313 Clear 1 1025 66 10000 1.6 200 09:50 14.01.2022
4314 Clear 0 1026 67 10000 1.65 200 08:51 14.01.2022
4315 Clear -1 1029 63 10000 1.57 203 06:57 14.01.2022
4316 Clear -5 1029 75 10000 1.92 217 01:33 14.01.2022
4317 Clouds -5 1029 75 10000 1.7 224 23:19 13.01.2022
4318 Clouds -5 1029 75 10000 1.74 220 21:38 13.01.2022
4319 Clouds -4 1028 75 10000 1.84 218 21:19 13.01.2022
4320 Clouds -4 1028 75 10000 1.85 221 19:40 13.01.2022
4321 Clear -4 1028 75 10000 1.84 223 19:22 13.01.2022
4322 Clear -4 1027 75 10000 1.81 222 17:52 13.01.2022
4323 Clear -4 1027 75 10000 1.95 218 16:21 13.01.2022
4324 Clear -4 1027 75 10000 1.95 218 15:37 13.01.2022
4325 Clear -3 1026 75 10000 1.92 213 14:46 13.01.2022
4326 Clear -1 1023 72 10000 1.59 212 12:44 13.01.2022
4327 Clear 1 1023 59 10000 1.48 198 10:25 13.01.2022
4328 Clear 0 1024 60 10000 1.59 198 09:20 13.01.2022
4329 Clear 0 1024 60 10000 1.59 198 09:20 13.01.2022
4330 Clear 0 1025 60 10000 1.64 197 08:27 13.01.2022
4331 Clear -1 1027 59 10000 1.73 199 07:23 13.01.2022
4332 Clear -2 1027 57 10000 1.74 202 05:59 13.01.2022
4333 Clear -2 1027 57 10000 1.74 202 05:59 13.01.2022
4334 Clear -3 1028 65 10000 1.88 216 05:19 13.01.2022
4335 Clear -5 1028 68 10000 2.08 218 01:58 13.01.2022
4336 Clouds -5 1028 69 10000 1.98 220 00:54 13.01.2022
4337 Clouds -5 1028 68 10000 1.86 222 23:49 12.01.2022
4338 Clouds -5 1028 68 10000 1.86 222 23:49 12.01.2022
4339 Clouds -5 1028 68 10000 1.8 223 23:19 12.01.2022
4340 Clouds -4 1028 68 10000 1.82 224 21:57 12.01.2022
4341 Clouds -4 1028 69 10000 1.86 221 21:22 12.01.2022
4342 Clouds -4 1028 69 10000 1.86 221 20:56 12.01.2022
4343 Clouds -4 1028 69 10000 1.84 224 19:43 12.01.2022
4344 Clouds -4 1028 69 10000 1.82 219 18:30 12.01.2022
4345 Clouds -4 1027 71 10000 1.85 218 17:21 12.01.2022
4346 Clouds -4 1027 71 10000 1.85 218 16:32 12.01.2022
4347 Clouds -3 1026 73 10000 1.65 215 14:48 12.01.2022
4348 Clouds -1 1023 70 10000 0.93 199 13:19 12.01.2022
4349 Clouds 1 1022 56 10000 1.13 202 10:56 12.01.2022
4350 Clouds 0 1024 55 10000 1.23 184 08:43 12.01.2022
4351 Clouds 0 1025 55 10000 1.29 198 07:50 12.01.2022
4352 Clouds 0 1025 55 10000 1.29 198 07:31 12.01.2022
4353 Clouds -5 1029 68 10000 1.83 219 23:53 11.01.2022
4354 Clouds -5 1029 68 10000 1.76 222 22:54 11.01.2022
4355 Clouds -4 1029 68 10000 1.91 218 22:22 11.01.2022
4356 Clear -5 1029 69 10000 1.99 218 20:54 11.01.2022
4357 Clear -4 1029 69 10000 1.84 234 19:50 11.01.2022
4358 Clear -4 1029 70 10000 1.92 209 18:31 11.01.2022
4359 Clear -4 1029 72 10000 1.91 216 17:24 11.01.2022
4360 Clear -4 1029 72 10000 1.91 216 16:37 11.01.2022
4361 Clear -4 1029 74 10000 1.91 230 15:39 11.01.2022
4362 Clear -3 1029 75 10000 1.85 213 14:42 11.01.2022
4363 Clear -3 1028 76 10000 1.76 221 13:55 11.01.2022
4364 Clear -3 1028 76 10000 1.76 221 13:35 11.01.2022
4365 Clear -1 1026 74 10000 1.38 203 12:43 11.01.2022
4366 Clear 1 1025 66 10000 1.02 207 11:43 11.01.2022
4367 Clear 1 1026 63 10000 1.54 196 09:39 11.01.2022
4368 Clear -1 1030 64 10000 1.78 201 07:18 11.01.2022
4369 Clear -4 1029 73 10000 1.44 230 00:32 11.01.2022
4370 Clear -3 1029 73 10000 1.46 237 23:43 10.01.2022
4371 Clear -3 1029 74 10000 1.28 233 23:22 10.01.2022
4372 Clear -3 1029 74 10000 1.36 234 22:19 10.01.2022
4373 Clear -3 1029 74 10000 1.36 234 21:54 10.01.2022
4374 Clear -3 1029 75 10000 1.39 235 21:20 10.01.2022
4375 Clear -3 1029 75 10000 1.39 235 20:56 10.01.2022
4376 Clear -3 1029 75 10000 1.28 233 20:28 10.01.2022
4377 Clear -3 1029 75 10000 1.28 233 19:42 10.01.2022
4378 Clear -3 1029 76 10000 1.36 234 19:21 10.01.2022
4379 Clear -3 1029 76 10000 1.36 234 18:48 10.01.2022
4380 Clear -3 1028 76 10000 1.35 231 17:41 10.01.2022
4381 Clear -2 1028 77 10000 1.39 232 16:42 10.01.2022
4382 Clear -2 1027 77 10000 1.22 240 15:45 10.01.2022
4383 Clear -1 1025 73 10000 0.88 263 14:26 10.01.2022
4384 Clear 2 1021 60 10000 0.21 167 11:58 10.01.2022
4385 Clear 2 1021 56 10000 0.62 185 11:25 10.01.2022
4386 Clear 2 1021 56 10000 0.99 182 09:50 10.01.2022
4387 Clear 0 1024 60 10000 1.7 200 07:18 10.01.2022
4388 Clear 0 1024 57 10000 1.73 202 05:49 10.01.2022
4389 Clear 0 1024 57 10000 1.73 202 05:49 10.01.2022
4390 Clear -3 1025 70 10000 1.54 220 01:30 10.01.2022
4391 Clear -3 1024 71 10000 1.48 222 00:25 10.01.2022
4392 Clear -3 1024 71 10000 1.48 222 23:33 09.01.2022
4393 Clear -3 1024 72 10000 1.5 224 22:37 09.01.2022
4394 Clear -3 1024 72 10000 1.56 222 21:46 09.01.2022
4395 Clear -2 1024 73 10000 1.67 216 21:23 09.01.2022
4396 Clear -2 1024 73 10000 1.67 216 20:51 09.01.2022
4397 Clear -2 1024 73 10000 1.67 216 20:33 09.01.2022
4398 Clear -2 1024 73 10000 1.84 217 19:44 09.01.2022
4399 Clouds -2 1024 75 10000 1.8 216 19:23 09.01.2022
4400 Clouds -2 1024 73 10000 1.83 217 18:52 09.01.2022
4401 Clouds -2 1024 73 10000 1.83 217 18:33 09.01.2022
4402 Clouds -2 1024 74 10000 1.9 220 17:31 09.01.2022
4403 Clouds -2 1023 75 10000 1.92 214 16:53 09.01.2022
4404 Clouds -2 1023 77 10000 1.99 217 15:57 09.01.2022
4405 Clouds -2 1023 77 10000 1.99 217 15:35 09.01.2022
4406 Clouds -1 1023 78 10000 1.87 213 14:40 09.01.2022
4407 Clouds 0 1021 79 10000 2.03 201 13:50 09.01.2022
4408 Clouds 1 1020 76 10000 1.96 194 13:22 09.01.2022
4409 Clouds 3 1019 70 10000 1.7 197 11:54 09.01.2022
4410 Clouds 3 1019 68 10000 1.71 195 10:53 09.01.2022
4411 Clouds 3 1019 69 10000 2.02 192 09:47 09.01.2022
4412 Clouds 2 1021 70 10000 1.81 191 08:51 09.01.2022
4413 Clear -1 1025 75 10000 1.56 203 05:21 09.01.2022
4414 Clouds -3 1025 81 10000 1.66 211 01:24 09.01.2022
4415 Clouds -2 1024 84 10000 1.31 223 23:44 08.01.2022
4416 Clouds -2 1024 86 10000 1.18 224 23:26 08.01.2022
4417 Clouds -1 1024 87 10000 1.08 228 22:28 08.01.2022
4418 Clouds -1 1024 88 10000 0.84 227 21:25 08.01.2022
4419 Clouds -1 1024 88 10000 0.84 227 20:42 08.01.2022
4420 Clouds -1 1024 88 10000 0.42 270 20:20 08.01.2022
4421 Clouds -1 1024 89 10000 0.7 248 18:40 08.01.2022
4422 Clouds 0 1024 90 10000 0.41 309 17:22 08.01.2022
4423 Clouds 0 1023 90 10000 0.52 33 15:56 08.01.2022
4424 Clouds 0 1023 92 10000 0.94 10 14:46 08.01.2022
4425 Snow 1 1021 92 3676 1.78 9 13:28 08.01.2022
4426 Snow 1 1020 95 356 1.53 353 11:28 08.01.2022
4427 Snow 1 1020 95 387 1.63 12 10:28 08.01.2022
4428 Snow 1 1020 95 387 1.63 12 09:48 08.01.2022
4429 Clouds 1 1019 79 10000 0.9 120 08:22 08.01.2022
4430 Snow -1 1020 91 10000 0.7 205 03:31 08.01.2022
4431 Snow 0 1018 92 6450 1.51 348 00:42 08.01.2022
4432 Snow 0 1017 89 9838 1.16 25 22:49 07.01.2022
4433 Clouds 1 1017 85 10000 0.56 197 21:21 07.01.2022
4434 Snow 1 1017 85 10000 0.1 209 20:20 07.01.2022
4435 Clouds 0 1018 84 10000 0.91 250 19:25 07.01.2022
4436 Clouds 0 1018 84 10000 0.91 250 18:45 07.01.2022
4437 Clouds 0 1019 85 10000 0.58 288 17:28 07.01.2022
4438 Snow 0 1019 85 10000 0.58 288 16:41 07.01.2022
4439 Clouds 0 1017 87 10000 1.17 181 14:29 07.01.2022
4440 Clouds 0 1017 87 10000 1.17 181 13:41 07.01.2022
4441 Clouds 1 1016 87 10000 0.88 238 12:50 07.01.2022
4442 Clouds 1 1019 86 10000 0.63 56 09:46 07.01.2022
4443 Clouds -1 1023 96 2878 0.95 234 02:57 07.01.2022
4444 Snow -1 1022 97 1743 0.47 301 01:56 07.01.2022
4445 Snow 0 1022 95 1200 0.59 303 01:28 07.01.2022
4446 Snow 0 1022 95 1200 0.59 303 00:59 07.01.2022
4447 Snow -1 1022 96 398 0.89 314 00:28 07.01.2022
4448 Snow 0 1023 97 2633 0.96 326 21:39 06.01.2022
4449 Snow 0 1023 94 6813 0.84 331 20:25 06.01.2022
4450 Snow 0 1023 94 6813 0.84 331 19:45 06.01.2022
4451 Snow 0 1023 95 6789 1.2 335 18:59 06.01.2022
4452 Snow 0 1023 94 6851 1.26 343 17:42 06.01.2022
4453 Snow 0 1023 94 6851 1.26 343 17:42 06.01.2022
4454 Clouds 0 1023 92 7153 0.97 352 16:58 06.01.2022
4455 Clouds 0 1023 91 7249 0.6 318 16:21 06.01.2022
4456 Snow 0 1023 91 7249 0.6 318 15:39 06.01.2022
4457 Snow 0 1023 90 7217 0.96 326 15:19 06.01.2022
4458 Clouds 0 1022 90 8146 1.29 345 14:19 06.01.2022
4459 Clouds 1 1021 84 9345 1.58 5 12:59 06.01.2022
4460 Clouds 2 1021 76 10000 1.74 17 11:50 06.01.2022
4461 Clouds 2 1021 72 10000 1.72 28 11:28 06.01.2022
4462 Clouds 2 1021 70 10000 1.55 30 09:33 06.01.2022
4463 Clouds -2 1022 85 10000 0.9 314 01:57 06.01.2022
4464 Clouds -1 1022 83 10000 0.68 278 23:54 05.01.2022
4465 Clouds -1 1022 85 10000 0.71 286 23:19 05.01.2022
4466 Clouds -1 1022 85 10000 0.71 286 22:40 05.01.2022
4467 Clouds -2 1022 86 10000 0.93 294 21:54 05.01.2022
4468 Clouds -1 1022 87 10000 0.64 305 21:21 05.01.2022
4469 Clouds -1 1021 87 10000 0.42 321 20:21 05.01.2022
4470 Clouds -1 1021 87 10000 0.64 294 19:27 05.01.2022
4471 Clouds -1 1020 84 10000 1.39 281 17:50 05.01.2022
4472 Clouds -1 1020 84 10000 1.16 286 16:56 05.01.2022
4473 Clouds 0 1019 85 10000 1.11 285 15:46 05.01.2022
4474 Clouds 0 1019 85 10000 1.13 317 14:50 05.01.2022
4475 Clouds 1 1017 84 10000 1.05 344 13:33 05.01.2022
4476 Clouds 3 1015 76 10000 0.84 278 11:46 05.01.2022
4477 Clouds 1 1019 87 10000 0.18 306 08:21 05.01.2022
4478 Clouds 0 1021 97 8573 0.29 38 06:36 05.01.2022
4479 Snow 0 1020 99 78 1.54 356 01:20 05.01.2022
4480 Snow 0 1020 99 77 1.64 0 23:41 04.01.2022
4481 Snow 0 1021 99 71 1.75 357 23:19 04.01.2022
4482 Snow 0 1021 99 113 1.96 9 21:32 04.01.2022
4483 Snow 0 1021 99 63 1.37 359 19:55 04.01.2022
4484 Snow 0 1021 99 59 1.73 17 18:35 04.01.2022
4485 Snow 1 1020 99 51 1.04 27 17:18 04.01.2022
4486 Snow 1 1020 99 51 1.04 27 16:31 04.01.2022
4487 Snow 1 1019 100 53 1.53 30 14:58 04.01.2022
4488 Snow 1 1019 100 53 1.53 30 14:36 04.01.2022
4489 Snow 1 1019 99 47 1.32 1 13:48 04.01.2022
4490 Rain 1 1018 99 41 1.86 18 10:59 04.01.2022
4491 Rain 1 1018 100 47 1.88 24 09:58 04.01.2022
4492 Rain 1 1019 99 65 1.18 20 08:35 04.01.2022
4493 Snow 0 1022 99 71 1.42 358 03:39 04.01.2022
4494 Snow 0 1022 99 65 1.64 5 00:42 04.01.2022
4495 Snow 0 1022 99 60 1.72 10 23:41 03.01.2022
4496 Snow 0 1023 99 54 1.58 21 22:21 03.01.2022
4497 Snow 0 1023 99 54 1.58 21 21:35 03.01.2022
4498 Snow 0 1024 99 73 0.96 9 20:28 03.01.2022
4499 Snow 0 1024 99 77 1.68 23 18:54 03.01.2022
4500 Snow 1 1024 99 78 1.29 24 18:28 03.01.2022
4501 Snow 1 1024 99 88 1.13 11 17:18 03.01.2022
4502 Snow 0 1024 99 93 1.03 16 15:50 03.01.2022
4503 Snow 1 1024 99 114 1.25 6 14:31 03.01.2022
4504 Snow 1 1022 97 195 1.99 344 12:48 03.01.2022
4505 Snow 1 1022 98 158 1.43 9 11:39 03.01.2022
4506 Rain 1 1022 97 159 2.05 348 10:37 03.01.2022
4507 Snow 1 1023 95 177 2.02 353 08:48 03.01.2022
4508 Snow 1 1025 94 311 1.66 357 07:36 03.01.2022
4509 Rain 1 1024 73 4072 1.55 309 01:55 03.01.2022
4510 Clouds 2 1024 57 10000 0.84 356 23:22 02.01.2022
4511 Snow 2 1024 57 10000 0.84 356 22:55 02.01.2022
4512 Clouds 1 1025 58 10000 1.07 345 21:52 02.01.2022
4513 Clouds 1 1025 58 10000 1.05 358 20:41 02.01.2022
4514 Snow 1 1025 58 10000 0.82 347 20:22 02.01.2022
4515 Clouds 1 1025 58 10000 0.82 347 19:31 02.01.2022
4516 Clouds 2 1025 56 10000 0.74 338 18:47 02.01.2022
4517 Clouds 2 1026 55 10000 1.05 323 17:56 02.01.2022
4518 Clouds 2 1026 55 10000 1.05 323 17:37 02.01.2022
4519 Clouds 2 1025 56 10000 0.95 331 17:18 02.01.2022
4520 Clouds 2 1025 55 10000 0.91 330 16:26 02.01.2022
4521 Clouds 2 1025 55 10000 0.7 322 14:34 02.01.2022
4522 Clouds 3 1024 50 10000 0.74 343 12:54 02.01.2022
4523 Clouds 4 1023 48 10000 0.19 40 12:22 02.01.2022
4524 Rain 4 1023 48 10000 0.19 40 11:32 02.01.2022
4525 Clouds 4 1023 48 10000 0.63 353 10:49 02.01.2022
4526 Clouds 4 1023 49 10000 1.37 34 09:45 02.01.2022
4527 Clouds 1 1028 54 10000 0.42 357 05:50 02.01.2022
4528 Clouds -1 1027 69 10000 0.62 311 01:48 02.01.2022
4529 Clouds -1 1026 69 10000 0.78 270 23:40 01.01.2022
4530 Clouds 0 1026 69 10000 0.75 261 22:57 01.01.2022
4531 Clouds 0 1026 67 10000 0.97 236 22:23 01.01.2022
4532 Clouds 0 1026 67 10000 0.97 236 21:44 01.01.2022
4533 Clouds 0 1026 66 10000 0.99 224 20:55 01.01.2022
4534 Clouds 1 1027 65 10000 1.09 217 19:58 01.01.2022
4535 Clouds 1 1027 65 10000 1.35 218 19:26 01.01.2022
4536 Clouds 2 1026 65 10000 1.38 223 17:59 01.01.2022
4537 Clouds 2 1026 67 10000 1.2 228 16:41 01.01.2022
4538 Clouds 2 1025 68 10000 1.18 231 16:19 01.01.2022
4539 Clouds 3 1025 68 10000 1.11 232 15:26 01.01.2022
4540 Clouds 3 1024 66 10000 0.89 223 13:58 01.01.2022
4541 Clouds 4 1023 57 10000 0.96 199 12:50 01.01.2022
4542 Clouds 5 1023 51 10000 0.89 213 11:56 01.01.2022
4543 Clouds 5 1023 50 10000 0.79 159 11:23 01.01.2022
4544 Clouds 5 1023 50 10000 0.98 154 10:27 01.01.2022
4545 Clouds 5 1023 50 10000 0.98 154 09:46 01.01.2022
4546 Clouds 4 1025 53 10000 1.01 178 08:26 01.01.2022
4547 Clouds 4 1025 53 10000 1.01 178 07:44 01.01.2022
4548 Clouds 4 1027 57 10000 1.39 194 06:47 01.01.2022
4549 Clouds 2 1028 72 10000 1.56 234 05:27 01.01.2022
4550 Clouds 2 1028 72 10000 1.56 234 04:38 01.01.2022
4551 Clouds 2 1027 68 9674 1.31 252 02:44 01.01.2022
4552 Clouds 2 1026 45 10000 1.6 301 23:39 31.12.2021
4553 Rain 3 1026 34 10000 0.76 290 21:53 31.12.2021
4554 Clouds 2 1026 33 10000 0.66 211 20:39 31.12.2021
4555 Clouds 2 1026 33 10000 0.86 273 19:30 31.12.2021
4556 Clouds 3 1026 31 10000 0.75 356 18:41 31.12.2021
4557 Clouds 2 1027 33 10000 0.49 231 17:43 31.12.2021
4558 Clouds 2 1026 33 10000 0.62 248 17:19 31.12.2021
4559 Clouds 2 1026 33 10000 0.62 248 16:38 31.12.2021
4560 Clouds 2 1026 32 10000 0.57 273 15:57 31.12.2021
4561 Clouds 2 1026 32 10000 0.41 296 15:29 31.12.2021
4562 Clouds 2 1026 32 10000 0.41 296 14:57 31.12.2021
4563 Clouds 2 1026 32 10000 0.41 296 14:30 31.12.2021
4564 Clouds 3 1026 31 10000 0.32 327 13:36 31.12.2021
4565 Clouds 4 1024 25 10000 0.46 20 12:45 31.12.2021
4566 Clouds 5 1024 20 10000 0.29 15 11:51 31.12.2021
4567 Clouds 5 1024 20 10000 0.29 15 11:30 31.12.2021
4568 Clouds 5 1024 19 10000 0.42 36 10:38 31.12.2021
4569 Clouds 5 1025 19 10000 0.52 40 09:55 31.12.2021
4570 Clouds 5 1025 19 10000 0.52 40 09:33 31.12.2021
4571 Clouds 4 1026 20 10000 0.44 21 08:43 31.12.2021
4572 Clouds 4 1028 21 10000 0.14 46 07:31 31.12.2021
4573 Clouds 0 1028 25 10000 0.99 325 23:32 30.12.2021
4574 Clouds 1 1029 25 10000 1.28 321 22:34 30.12.2021
4575 Clouds 1 1028 24 10000 1.45 324 21:59 30.12.2021
4576 Clouds 1 1028 24 10000 1.45 324 21:59 30.12.2021
4577 Clouds 1 1028 24 10000 1.45 324 21:37 30.12.2021
4578 Clouds 1 1028 24 10000 1.45 324 21:37 30.12.2021
4579 Clouds 1 1028 24 10000 1.1 348 20:47 30.12.2021
4580 Clouds 2 1028 23 10000 0.95 304 20:28 30.12.2021
4581 Clouds 2 1028 23 10000 0.95 304 19:48 30.12.2021
4582 Clouds 2 1029 23 10000 0.97 278 18:51 30.12.2021
4583 Clouds 2 1029 23 10000 0.97 278 18:51 30.12.2021
4584 Clouds 1 1028 23 10000 1.07 301 18:20 30.12.2021
4585 Clouds 3 1027 22 10000 0.95 348 16:27 30.12.2021
4586 Clouds 3 1027 22 10000 0.95 348 15:52 30.12.2021
4587 Clouds 3 1027 22 10000 0.95 348 15:52 30.12.2021
4588 Clouds 3 1027 21 10000 0.89 340 14:41 30.12.2021
4589 Clouds 3 1026 21 10000 0.91 328 14:19 30.12.2021
4590 Clouds 4 1025 20 10000 0.72 340 12:52 30.12.2021
4591 Clouds 5 1025 17 10000 0.65 1 11:34 30.12.2021
4592 Clouds 5 1025 16 10000 0.63 23 10:27 30.12.2021
4593 Clouds 4 1026 16 10000 0.96 24 09:27 30.12.2021
4594 Clouds 3 1029 17 10000 0.71 9 06:54 30.12.2021
4595 Clouds 0 1028 26 10000 0.8 329 04:20 30.12.2021
4596 Clouds 0 1028 26 10000 0.8 329 03:39 30.12.2021
4597 Clouds 0 1027 28 10000 0.68 352 00:42 30.12.2021
4598 Clouds 0 1027 28 10000 0.67 347 23:35 29.12.2021
4599 Clouds 0 1027 29 10000 0.88 331 22:30 29.12.2021
4600 Clouds 0 1026 29 10000 1.07 342 21:53 29.12.2021
4601 Clouds 0 1026 29 10000 1.43 342 20:56 29.12.2021
4602 Clouds 0 1026 30 10000 1.28 346 19:54 29.12.2021
4603 Clouds 0 1026 30 10000 1.28 346 19:30 29.12.2021
4604 Clouds 0 1025 29 10000 1.4 347 18:26 29.12.2021
4605 Clouds 0 1025 28 10000 1.46 335 17:29 29.12.2021
4606 Clouds 0 1025 28 10000 1.46 335 16:58 29.12.2021
4607 Clouds 0 1024 28 10000 0.92 349 16:19 29.12.2021
4608 Clouds 1 1023 29 10000 1.14 314 14:47 29.12.2021
4609 Clouds 3 1020 28 10000 0.75 7 12:50 29.12.2021
4610 Clouds 5 1020 21 10000 0.62 45 12:27 29.12.2021
4611 Clouds 5 1020 19 10000 0.38 108 10:38 29.12.2021
4612 Clouds 5 1022 20 10000 0.51 186 08:37 29.12.2021
4613 Clouds 3 1025 23 10000 0.6 219 06:49 29.12.2021
4614 Clear 2 1026 26 10000 0.62 211 06:28 29.12.2021
4615 Clear 2 1026 26 10000 0.62 211 05:50 29.12.2021
4616 Clear -1 1026 35 10000 0.83 232 03:46 29.12.2021
4617 Clear -1 1024 37 10000 0.78 310 00:28 29.12.2021
4618 Clear -1 1024 37 10000 0.78 310 23:56 28.12.2021
4619 Clear -1 1024 38 10000 0.77 303 22:56 28.12.2021
4620 Clear -1 1024 39 10000 0.57 291 22:24 28.12.2021
4621 Clear -1 1024 39 10000 0.57 291 21:54 28.12.2021
4622 Clear 0 1024 39 10000 0.45 290 20:54 28.12.2021
4623 Clear 0 1024 39 10000 0.54 270 19:52 28.12.2021
4624 Clear 0 1024 39 10000 0.6 266 18:53 28.12.2021
4625 Clear 0 1024 40 10000 0.58 268 18:24 28.12.2021
4626 Clear 1 1024 40 10000 0.7 265 17:25 28.12.2021
4627 Clear 1 1023 40 10000 0.69 251 15:53 28.12.2021
4628 Clear 1 1023 41 10000 0.67 249 15:29 28.12.2021
4629 Clear 1 1023 41 10000 0.67 249 14:54 28.12.2021
4630 Clear 2 1022 41 10000 0.39 221 14:22 28.12.2021
4631 Clear 2 1022 41 10000 0.39 221 13:54 28.12.2021
4632 Clear 2 1022 41 10000 0.39 221 13:33 28.12.2021
4633 Clear 3 1021 37 10000 0.44 111 12:55 28.12.2021
4634 Clear 4 1021 30 10000 0.48 117 12:19 28.12.2021
4635 Clear 4 1022 30 10000 0.44 55 09:32 28.12.2021
4636 Clear 2 1025 31 10000 0.34 71 07:33 28.12.2021
4637 Clear -2 1028 40 10000 0.56 343 03:31 28.12.2021
4638 Clear -2 1027 47 10000 1.06 330 23:39 27.12.2021
4639 Clear -1 1026 51 10000 1.33 348 22:20 27.12.2021
4640 Clear -1 1025 53 10000 1.61 350 21:30 27.12.2021
4641 Clear -1 1025 53 10000 1.61 350 20:32 27.12.2021
4642 Clear 0 1025 54 10000 1.6 355 19:47 27.12.2021
4643 Clear 1 1024 57 10000 1.16 349 19:27 27.12.2021
4644 Clear 1 1024 57 10000 0.81 330 17:51 27.12.2021
4645 Clear 1 1024 58 10000 0.68 314 17:28 27.12.2021
4646 Clear 2 1023 57 10000 0.63 332 15:56 27.12.2021
4647 Clear 2 1022 58 10000 0.77 355 15:19 27.12.2021
4648 Clear 3 1022 57 10000 1.01 12 14:22 27.12.2021
4649 Clouds 4 1020 54 10000 1.14 32 12:52 27.12.2021
4650 Clouds 5 1020 50 10000 0.69 46 10:40 27.12.2021
4651 Clouds 4 1020 52 10000 0.61 39 10:22 27.12.2021
4652 Clouds 4 1021 57 10000 0.48 41 09:19 27.12.2021
4653 Clouds 3 1023 63 10000 0.52 36 07:34 27.12.2021
4654 Clouds 1 1026 80 10000 0.32 6 06:29 27.12.2021
4655 Snow 0 1025 92 3158 0.91 319 01:52 27.12.2021
4656 Clouds 0 1025 90 3968 1.26 315 23:49 26.12.2021
4657 Clouds 0 1025 88 3728 1.37 316 23:19 26.12.2021
4658 Clouds 1 1024 85 4237 1.13 326 21:37 26.12.2021
4659 Clouds 1 1023 81 10000 0.81 13 19:55 26.12.2021
4660 Clouds 1 1023 78 10000 0.92 20 18:46 26.12.2021
4661 Clouds 2 1023 76 10000 1.28 15 18:22 26.12.2021
4662 Clouds 3 1021 73 10000 1.02 17 15:53 26.12.2021
4663 Clouds 4 1020 68 10000 1.78 31 13:51 26.12.2021
4664 Clouds 4 1020 68 10000 1.78 31 13:32 26.12.2021
4665 Clouds 4 1019 64 10000 2.4 45 12:36 26.12.2021
4666 Clouds 6 1018 55 10000 1.8 71 11:24 26.12.2021
4667 Clouds 5 1018 59 10000 1.32 86 09:35 26.12.2021
4668 Clouds 5 1020 64 10000 1.04 74 08:50 26.12.2021
4669 Clouds 4 1021 70 10000 0.95 63 08:27 26.12.2021
4670 Clouds 1 1022 86 9807 1.26 358 02:19 26.12.2021
4671 Clouds 1 1021 74 10000 1.85 18 00:43 26.12.2021
4672 Clouds 3 1020 65 10000 2.28 13 23:48 25.12.2021
4673 Clouds 3 1020 60 10000 1.94 356 22:39 25.12.2021
4674 Clouds 3 1020 57 10000 2 356 22:20 25.12.2021
4675 Clouds 4 1019 52 10000 1.69 357 20:27 25.12.2021
4676 Clouds 5 1019 47 10000 1.77 13 19:19 25.12.2021
4677 Clouds 5 1019 47 10000 1.77 13 18:51 25.12.2021
4678 Clouds 5 1018 45 10000 1.31 21 16:52 25.12.2021
4679 Clouds 5 1018 44 10000 1.14 18 15:48 25.12.2021
4680 Clouds 5 1016 44 10000 1.07 358 14:24 25.12.2021
4681 Clouds 6 1016 41 10000 1 24 12:42 25.12.2021
4682 Clouds 7 1016 39 10000 0.98 47 11:21 25.12.2021
4683 Clouds 7 1017 40 10000 0.89 45 09:49 25.12.2021
4684 Clouds 6 1019 42 10000 0.82 32 07:39 25.12.2021
4685 Clouds 2 1020 56 10000 0.81 4 01:45 25.12.2021
4686 Clouds 2 1020 58 10000 0.75 2 00:27 25.12.2021
4687 Clouds 3 1020 59 10000 0.88 356 22:28 24.12.2021
4688 Clouds 3 1020 59 10000 0.28 321 19:36 24.12.2021
4689 Clouds 3 1020 59 10000 0.5 337 19:18 24.12.2021
4690 Clouds 4 1019 59 10000 0.75 293 16:50 24.12.2021
4691 Clear 4 1019 58 10000 0.48 342 15:54 24.12.2021
4692 Clear 4 1019 58 10000 0.48 342 15:34 24.12.2021
4693 Clear 4 1018 57 10000 0.56 32 14:40 24.12.2021
4694 Clear 5 1018 56 10000 0.59 28 14:19 24.12.2021
4695 Clear 5 1018 56 10000 0.59 28 13:34 24.12.2021
4696 Clear 6 1016 49 10000 0.56 75 12:47 24.12.2021
4697 Clouds 8 1016 43 10000 0.15 69 11:52 24.12.2021
4698 Clouds 7 1016 43 10000 0.5 49 11:25 24.12.2021
4699 Clouds 7 1016 43 10000 0.5 49 10:46 24.12.2021
4700 Clear 7 1017 44 10000 0.41 34 09:32 24.12.2021
4701 Clear 6 1019 47 10000 0.64 25 08:23 24.12.2021
4702 Clear 6 1019 47 10000 0.64 25 07:46 24.12.2021
4703 Clouds 1 1019 71 10000 0.36 299 02:33 24.12.2021
4704 Clouds 2 1018 74 10000 1.31 336 23:56 23.12.2021
4705 Clouds 2 1018 73 10000 1.38 336 22:56 23.12.2021
4706 Clouds 2 1018 73 10000 1.38 336 22:37 23.12.2021
4707 Clouds 2 1018 74 10000 1.16 346 22:18 23.12.2021
4708 Clouds 2 1018 73 10000 1.17 349 20:56 23.12.2021
4709 Clouds 3 1018 72 10000 1.13 343 19:47 23.12.2021
4710 Clear 3 1018 71 10000 0.84 334 18:35 23.12.2021
4711 Clear 3 1018 70 10000 0.71 332 17:56 23.12.2021
4712 Clear 4 1018 69 10000 0.69 327 16:43 23.12.2021
4713 Clear 4 1018 67 10000 0.77 333 16:23 23.12.2021
4714 Clear 5 1017 66 10000 0.99 356 15:31 23.12.2021
4715 Clear 5 1017 66 10000 0.99 356 14:49 23.12.2021
4716 Clear 5 1017 66 10000 0.99 356 14:30 23.12.2021
4717 Clouds 6 1016 60 10000 1.13 30 12:54 23.12.2021
4718 Clouds 7 1016 54 10000 0.67 40 10:44 23.12.2021
4719 Clouds 7 1017 55 10000 0.55 31 09:42 23.12.2021
4720 Clouds 6 1018 58 10000 0.52 33 08:59 23.12.2021
4721 Clouds 5 1021 68 10000 0.78 211 06:51 23.12.2021
4722 Clouds 3 1022 77 10000 0.85 227 04:30 23.12.2021
4723 Clouds 2 1021 99 58 1.29 349 22:59 22.12.2021
4724 Clouds 2 1021 99 58 1.29 349 22:39 22.12.2021
4725 Clouds 2 1021 99 52 1.4 2 21:54 22.12.2021
4726 Clouds 2 1021 99 37 1.52 4 21:29 22.12.2021
4727 Clouds 2 1021 99 37 1.52 4 20:47 22.12.2021
4728 Clouds 2 1021 99 52 1.6 1 20:26 22.12.2021
4729 Clouds 2 1021 98 371 1.04 44 19:21 22.12.2021
4730 Clouds 3 1021 87 4274 0.22 160 17:42 22.12.2021
4731 Clouds 5 1018 65 9602 1.1 275 16:39 22.12.2021
4732 Clouds 7 1016 42 10000 0.13 348 15:39 22.12.2021
4733 Rain 7 1014 37 10000 1.88 63 13:32 22.12.2021
4734 Clear 9 1013 35 10000 2.32 56 12:39 22.12.2021
4735 Clear 10 1013 35 10000 1.55 54 09:54 22.12.2021
4736 Clear 10 1013 35 10000 1.55 54 09:35 22.12.2021
4737 Clouds 9 1017 40 10000 0.36 83 07:25 22.12.2021
4738 Clouds 8 1018 44 10000 0.11 182 05:42 22.12.2021
4739 Clouds 6 1018 50 10000 0.36 171 05:24 22.12.2021
4740 Clouds 6 1018 50 10000 0.36 171 04:49 22.12.2021
4741 Rain 3 1018 60 10000 0.12 241 04:24 22.12.2021
4742 Clouds 3 1018 60 10000 0.12 241 03:32 22.12.2021
4743 Clouds 4 1017 55 10000 0.78 187 00:33 22.12.2021
4744 Clouds 4 1017 56 10000 0.48 281 22:52 21.12.2021
4745 Clouds 3 1018 58 10000 0.71 341 22:27 21.12.2021
4746 Clouds 3 1018 58 10000 0.71 341 21:43 21.12.2021
4747 Clouds 4 1018 59 10000 0.84 11 20:55 21.12.2021
4748 Rain 4 1018 55 10000 0.46 18 20:20 21.12.2021
4749 Clouds 4 1018 55 10000 0.46 18 19:41 21.12.2021
4750 Clouds 5 1018 53 10000 0.7 335 18:45 21.12.2021
4751 Clouds 5 1018 51 10000 0.77 305 18:21 21.12.2021
4752 Clouds 5 1018 51 10000 0.77 305 17:41 21.12.2021
4753 Rain 7 1018 47 10000 0.37 197 15:55 21.12.2021
4754 Clouds 7 1017 47 10000 0.43 207 15:20 21.12.2021
4755 Clouds 7 1017 47 10000 0.76 197 13:50 21.12.2021
4756 Clouds 7 1017 47 10000 0.76 197 13:30 21.12.2021
4757 Clouds 10 1016 45 10000 0.97 173 11:36 21.12.2021
4758 Clouds 10 1017 43 10000 0.79 169 10:21 21.12.2021
4759 Clouds 9 1018 44 10000 1.39 212 09:19 21.12.2021
4760 Clear 9 1019 46 10000 0.62 211 07:55 21.12.2021
4761 Clear 8 1020 47 10000 1.44 198 07:26 21.12.2021
4762 Clear 7 1021 46 10000 1.59 201 05:31 21.12.2021
4763 Clear 2 1020 64 10000 1.21 211 02:40 21.12.2021
4764 Clear 3 1019 63 10000 0.74 211 23:58 20.12.2021
4765 Clear 3 1019 61 10000 1.4 215 23:27 20.12.2021
4766 Clear 3 1019 63 10000 1.07 237 22:28 20.12.2021
4767 Clear 3 1019 63 10000 1.07 237 21:47 20.12.2021
4768 Clear 3 1019 63 10000 0.54 228 21:23 20.12.2021
4769 Clear 3 1019 63 10000 0.54 228 20:44 20.12.2021
4770 Clear 3 1019 62 10000 0.81 276 19:50 20.12.2021
4771 Clear 3 1019 62 10000 0.81 276 19:30 20.12.2021
4772 Clear 4 1019 58 10000 0.87 228 18:53 20.12.2021
4773 Clear 4 1019 57 10000 1.02 216 17:52 20.12.2021
4774 Clear 4 1019 56 10000 1.01 243 17:23 20.12.2021
4775 Clear 4 1019 56 10000 1.01 243 16:38 20.12.2021
4776 Clear 4 1019 53 10000 1.04 246 15:48 20.12.2021
4777 Clear 4 1019 51 10000 0.95 248 14:42 20.12.2021
4778 Clouds 6 1017 45 10000 0.9 325 12:51 20.12.2021
4779 Clouds 10 1016 34 10000 0.76 147 11:19 20.12.2021
4780 Clouds 9 1017 34 10000 1.29 177 09:47 20.12.2021
4781 Clouds 9 1017 35 10000 1.5 187 08:58 20.12.2021
4782 Clouds 9 1017 35 10000 1.5 187 08:40 20.12.2021
4783 Clouds 8 1019 37 10000 1.54 191 07:49 20.12.2021
4784 Clouds 7 1020 40 10000 1.33 204 07:25 20.12.2021
4785 Clouds 3 1021 38 10000 1.96 211 03:42 20.12.2021
4786 Clouds 1 1021 35 10000 1.12 212 23:51 19.12.2021
4787 Rain 1 1021 34 10000 0.98 201 22:45 19.12.2021
4788 Clouds 1 1021 33 10000 1.25 209 21:49 19.12.2021
4789 Clouds 1 1021 33 10000 1.17 225 21:26 19.12.2021
4790 Clouds 1 1021 33 10000 1.17 225 20:30 19.12.2021
4791 Clouds 2 1022 33 10000 0.38 303 19:46 19.12.2021
4792 Clouds 2 1022 34 10000 0.62 297 18:57 19.12.2021
4793 Clouds 2 1022 33 10000 0.66 246 18:27 19.12.2021
4794 Clouds 2 1022 33 10000 0.66 246 17:49 19.12.2021
4795 Clouds 2 1022 33 10000 0.85 202 17:18 19.12.2021
4796 Clouds 3 1021 32 10000 1.04 207 16:24 19.12.2021
4797 Clouds 3 1020 33 10000 0.46 294 15:26 19.12.2021
4798 Clouds 3 1020 33 10000 0.46 294 14:50 19.12.2021
4799 Clouds 3 1020 33 10000 0.24 247 13:46 19.12.2021
4800 Clouds 4 1019 33 10000 0.81 214 13:21 19.12.2021
4801 Clouds 4 1019 33 10000 0.81 214 12:33 19.12.2021
4802 Clouds 4 1019 33 10000 0.81 214 12:33 19.12.2021
4803 Clouds 6 1019 34 10000 0.82 182 11:42 19.12.2021
4804 Clouds 8 1019 27 10000 0.78 177 10:53 19.12.2021
4805 Clouds 7 1019 23 10000 0.96 208 10:23 19.12.2021
4806 Clouds 7 1019 23 10000 0.96 208 10:23 19.12.2021
4807 Clouds 7 1020 24 10000 1.47 183 09:26 19.12.2021
4808 Clouds 6 1022 26 10000 1.19 192 07:47 19.12.2021
4809 Clouds 2 1025 29 10000 1.69 207 04:44 19.12.2021
4810 Clouds -1 1024 31 10000 1.64 214 00:55 19.12.2021
4811 Clouds -1 1024 31 10000 1.82 209 23:52 18.12.2021
4812 Clouds -1 1025 33 10000 1.26 213 22:31 18.12.2021
4813 Clouds -1 1025 33 10000 1.42 212 21:54 18.12.2021
4814 Clouds -1 1025 33 10000 1.42 212 21:33 18.12.2021
4815 Clouds -1 1025 33 10000 1.48 221 20:43 18.12.2021
4816 Clouds -1 1026 33 10000 1.45 221 19:50 18.12.2021
4817 Clouds 0 1026 32 10000 1.49 200 19:19 18.12.2021
4818 Clear -1 1026 33 10000 1.61 218 18:18 18.12.2021
4819 Clear -1 1026 33 10000 1.61 218 17:46 18.12.2021
4820 Clear 0 1025 32 10000 1.31 215 16:23 18.12.2021
4821 Clear -1 1024 33 10000 0.93 239 15:25 18.12.2021
4822 Clear -1 1023 33 10000 0.8 259 14:22 18.12.2021
4823 Clear 0 1022 33 10000 0.38 5 12:39 18.12.2021
4824 Clear 5 1022 22 10000 0.2 126 10:52 18.12.2021
4825 Clear 5 1022 20 10000 0.68 156 09:33 18.12.2021
4826 Clear 4 1023 20 10000 0.75 182 08:41 18.12.2021
4827 Clear 3 1025 21 10000 1.09 187 08:18 18.12.2021
4828 Clear -4 1027 30 10000 1.57 215 01:48 18.12.2021
4829 Clear -4 1027 30 10000 1.57 215 01:48 18.12.2021
4830 Clear -3 1028 32 10000 1.5 230 00:27 18.12.2021
4831 Clear -3 1028 32 10000 1.5 230 23:37 17.12.2021
4832 Clear -3 1028 32 10000 1.35 230 21:54 17.12.2021
4833 Clear -3 1028 32 10000 1.44 236 20:50 17.12.2021
4834 Clear -3 1028 31 10000 1.31 233 20:21 17.12.2021
4835 Clear -2 1028 31 10000 1.32 227 18:50 17.12.2021
4836 Clear -2 1027 31 10000 1.28 233 18:21 17.12.2021
4837 Clear -2 1027 30 10000 1.25 229 17:25 17.12.2021
4838 Clear -1 1026 30 10000 1.29 229 16:29 17.12.2021
4839 Clear -1 1026 30 10000 1.29 229 15:51 17.12.2021
4840 Clear -1 1025 29 10000 1.18 225 15:18 17.12.2021
4841 Clear -1 1025 29 10000 1.18 225 14:34 17.12.2021
4842 Clear 1 1023 31 10000 1.36 191 12:38 17.12.2021
4843 Clear 4 1023 20 10000 1.2 184 11:18 17.12.2021
4844 Clear 4 1023 21 10000 1.44 184 09:51 17.12.2021
4845 Clear 3 1025 22 10000 1.51 189 08:58 17.12.2021
4846 Clear 3 1026 25 10000 1.58 195 08:19 17.12.2021
4847 Clear 0 1029 22 10000 1.83 201 05:21 17.12.2021
4848 Clear -3 1028 27 10000 1.65 206 02:51 17.12.2021
4849 Clear -3 1027 30 10000 0.69 209 22:50 16.12.2021
4850 Clear -2 1027 30 10000 0.75 218 22:22 16.12.2021
4851 Clear -2 1027 30 10000 0.75 218 21:44 16.12.2021
4852 Clear -2 1026 30 10000 0.84 225 20:48 16.12.2021
4853 Clear -1 1027 31 10000 1.04 214 20:21 16.12.2021
4854 Clear -1 1027 31 10000 1.04 214 19:31 16.12.2021
4855 Clear -1 1027 32 10000 1.39 216 18:33 16.12.2021
4856 Clear 0 1026 33 10000 1.43 214 17:47 16.12.2021
4857 Clear 0 1026 34 10000 1.79 214 16:26 16.12.2021
4858 Clear 0 1026 34 10000 1.79 214 15:50 16.12.2021
4859 Clear 1 1024 35 10000 2.17 205 13:46 16.12.2021
4860 Clear 4 1022 26 10000 2.42 191 12:27 16.12.2021
4861 Clear 5 1022 26 10000 2.38 186 11:19 16.12.2021
4862 Clear 5 1022 26 10000 2.38 186 10:41 16.12.2021
4863 Clear 5 1022 27 10000 2.29 186 09:43 16.12.2021
4864 Clear 1 1027 39 10000 2.22 200 06:51 16.12.2021
4865 Clear 0 1028 43 10000 2.05 207 06:18 16.12.2021
4866 Clouds -3 1027 72 10000 1.64 225 23:58 15.12.2021
4867 Clouds -2 1027 72 10000 1.5 224 22:50 15.12.2021
4868 Clouds -2 1026 72 10000 1.51 219 22:21 15.12.2021
4869 Clouds -2 1026 72 10000 1.51 219 21:31 15.12.2021
4870 Clouds -1 1026 68 10000 1.48 216 20:51 15.12.2021
4871 Clouds -1 1026 63 10000 1.69 208 19:53 15.12.2021
4872 Clouds 0 1025 58 10000 1.36 214 19:18 15.12.2021
4873 Clouds 1 1025 51 10000 1.34 353 18:20 15.12.2021
4874 Clouds 1 1025 51 10000 1.34 353 17:45 15.12.2021
4875 Rain 1 1024 48 10000 2.22 340 17:21 15.12.2021
4876 Clouds 2 1024 50 10000 3.62 348 15:49 15.12.2021
4877 Clouds 2 1024 50 10000 3.62 348 15:30 15.12.2021
4878 Clouds 2 1023 54 8084 2.5 354 14:48 15.12.2021
4879 Rain 1 1023 68 8948 2.59 325 13:34 15.12.2021
4880 Clouds 3 1020 46 4727 2.7 48 11:52 15.12.2021
4881 Clouds 4 1020 43 10000 2.71 37 10:20 15.12.2021
4882 Clouds 3 1023 45 10000 1.85 29 08:25 15.12.2021
4883 Clouds 1 1025 46 10000 0.36 17 05:51 15.12.2021
4884 Clear -3 1023 52 10000 0.59 326 00:32 15.12.2021
4885 Clear -2 1023 48 10000 0.12 283 23:21 14.12.2021
4886 Clear -2 1023 48 10000 0.12 283 22:42 14.12.2021
4887 Clear -1 1022 46 10000 0.48 141 21:40 14.12.2021
4888 Clear 0 1022 46 10000 0.78 168 20:21 14.12.2021
4889 Clear 0 1022 47 10000 0.87 162 19:26 14.12.2021
4890 Clear 0 1022 46 10000 0.91 162 18:38 14.12.2021
4891 Clear 1 1021 46 10000 0.77 167 17:55 14.12.2021
4892 Clear 1 1021 44 10000 0.31 173 16:43 14.12.2021
4893 Clear 2 1020 42 10000 0.34 53 16:21 14.12.2021
4894 Clear 3 1019 33 10000 1.68 57 13:59 14.12.2021
4895 Clouds 4 1018 29 10000 1.65 78 12:50 14.12.2021
4896 Clear 6 1017 24 10000 1.12 108 11:25 14.12.2021
4897 Clear 6 1017 24 10000 1.12 108 10:59 14.12.2021
4898 Clear 6 1018 26 10000 0.51 86 09:54 14.12.2021
4899 Clear 6 1019 28 10000 0.56 51 08:49 14.12.2021
4900 Clear 5 1020 29 10000 0.59 36 08:21 14.12.2021
4901 Clouds 5 1021 29 10000 0.1 347 07:23 14.12.2021
4902 Clouds 0 1020 34 10000 1.42 206 23:51 13.12.2021
4903 Clouds 0 1020 32 10000 0.96 198 22:24 13.12.2021
4904 Clouds 0 1020 32 10000 0.96 198 21:39 13.12.2021
4905 Clouds 1 1020 31 10000 0.89 233 20:51 13.12.2021
4906 Clouds 1 1020 31 10000 0.89 233 20:51 13.12.2021
4907 Clouds 1 1020 31 10000 0.66 212 20:22 13.12.2021
4908 Clouds 1 1020 31 10000 0.66 212 19:49 13.12.2021
4909 Clouds 2 1019 28 10000 1.31 10 17:28 13.12.2021
4910 Clouds 2 1019 28 10000 1.31 10 16:43 13.12.2021
4911 Clouds 3 1019 26 10000 1.32 9 15:43 13.12.2021
4912 Clouds 4 1018 25 10000 1.33 34 14:42 13.12.2021
4913 Clouds 4 1018 23 10000 1.55 42 13:37 13.12.2021
4914 Clouds 5 1017 24 10000 0.9 13 12:40 13.12.2021
4915 Clouds 7 1017 18 10000 1.08 37 11:52 13.12.2021
4916 Clouds 8 1017 17 10000 1.18 45 11:29 13.12.2021
4917 Clouds 8 1017 17 10000 1.18 45 10:36 13.12.2021
4918 Clouds 7 1019 16 10000 1.14 57 08:43 13.12.2021
4919 Clouds 6 1021 17 10000 0.49 4 06:55 13.12.2021
4920 Clouds 4 1022 21 10000 0.57 337 05:19 13.12.2021
4921 Clear 1 1020 25 10000 0.92 347 23:55 12.12.2021
4922 Clear 2 1020 25 10000 0.88 338 21:58 12.12.2021
4923 Clear 2 1020 25 10000 0.94 344 21:24 12.12.2021
4924 Clear 3 1021 24 10000 0.98 349 19:35 12.12.2021
4925 Clear 4 1021 23 10000 0.82 355 18:22 12.12.2021
4926 Clear 4 1021 23 10000 0.93 342 16:32 12.12.2021
4927 Clear 5 1021 23 10000 1.04 341 15:55 12.12.2021
4928 Clear 5 1020 22 10000 1.06 338 15:28 12.12.2021
4929 Clear 5 1020 22 10000 1.06 338 14:46 12.12.2021
4930 Clear 6 1019 22 10000 1.05 347 13:56 12.12.2021
4931 Clouds 7 1019 17 10000 0.98 359 12:48 12.12.2021
4932 Clouds 10 1018 13 10000 0.88 29 11:45 12.12.2021
4933 Clouds 10 1018 12 10000 0.75 52 11:27 12.12.2021
4934 Clouds 10 1018 12 10000 0.75 52 10:44 12.12.2021
4935 Clouds 10 1019 12 10000 0.67 49 09:58 12.12.2021
4936 Clouds 9 1020 13 10000 0.43 40 08:44 12.12.2021
4937 Clouds 8 1022 14 10000 0.09 39 06:55 12.12.2021
4938 Clouds 5 1023 19 10000 0.32 231 05:28 12.12.2021
4939 Clouds 2 1023 22 10000 0.43 248 04:19 12.12.2021
4940 Clouds 1 1022 21 10000 0.65 323 00:54 12.12.2021
4941 Clouds 2 1022 20 10000 0.94 339 22:56 11.12.2021
4942 Clouds 3 1022 20 10000 0.87 359 22:20 11.12.2021
4943 Clouds 3 1022 19 10000 0.89 11 21:26 11.12.2021
4944 Clouds 3 1022 19 10000 0.9 19 19:50 11.12.2021
4945 Clouds 4 1022 19 10000 1.08 28 19:21 11.12.2021
4946 Clouds 4 1023 19 10000 1.15 28 18:42 11.12.2021
4947 Clouds 4 1022 18 10000 1.24 37 17:48 11.12.2021
4948 Clear 5 1021 17 10000 1.31 53 15:58 11.12.2021
4949 Clear 5 1021 17 10000 1.31 53 15:39 11.12.2021
4950 Clear 6 1020 16 10000 1.49 57 14:33 11.12.2021
4951 Clear 12 1017 10 10000 1.79 59 12:20 11.12.2021
4952 Clear 13 1017 8 10000 1.62 64 10:43 11.12.2021
4953 Clear 13 1017 8 10000 1.16 71 09:38 11.12.2021
4954 Clouds 3 1022 15 10000 1.7 198 03:57 11.12.2021
4955 Clear 2 1021 18 10000 1.52 199 00:47 11.12.2021
4956 Clear 2 1021 15 10000 1.5 202 23:42 10.12.2021
4957 Clear 2 1021 15 10000 1.22 205 22:33 10.12.2021
4958 Clear 3 1021 16 10000 1.12 195 21:40 10.12.2021
4959 Clear 3 1022 16 10000 0.75 209 20:26 10.12.2021
4960 Clear 4 1022 16 10000 0.79 224 19:18 10.12.2021
4961 Clear 4 1023 16 10000 0.7 240 17:46 10.12.2021
4962 Clear 4 1023 15 10000 0.62 255 16:35 10.12.2021
4963 Clear 5 1023 15 10000 0.1 270 15:43 10.12.2021
4964 Clear 5 1022 15 10000 0.31 17 15:25 10.12.2021
4965 Clear 6 1022 14 10000 0.39 33 14:29 10.12.2021
4966 Clear 6 1022 14 10000 0.39 33 13:48 10.12.2021
4967 Clear 7 1021 13 10000 0.19 98 12:55 10.12.2021
4968 Clear 7 1021 13 10000 0.19 98 12:55 10.12.2021
4969 Clear 11 1021 9 10000 0.39 136 11:36 10.12.2021
4970 Clear 11 1021 9 10000 0.39 135 10:56 10.12.2021
4971 Clear 11 1021 9 10000 0.46 155 09:36 10.12.2021
4972 Clear 8 1026 13 10000 1.5 198 07:25 10.12.2021
4973 Clear 5 1027 16 10000 1.55 214 04:32 10.12.2021
4974 Clear -1 1026 24 10000 0.99 226 02:39 10.12.2021
4975 Clear -1 1026 21 10000 0.41 282 23:40 09.12.2021
4976 Clear -1 1026 21 10000 0.41 282 23:40 09.12.2021
4977 Clear 0 1027 20 10000 0.4 278 22:41 09.12.2021
4978 Clear 0 1026 20 10000 0.46 281 22:21 09.12.2021
4979 Clear 0 1026 20 10000 0.46 281 21:39 09.12.2021
4980 Clear 1 1026 19 10000 0.62 290 20:34 09.12.2021
4981 Clear 1 1027 19 10000 0.75 304 19:38 09.12.2021
4982 Clear 2 1027 19 10000 0.85 315 19:20 09.12.2021
4983 Clear 2 1026 19 10000 1.07 324 18:18 09.12.2021
4984 Clear 2 1026 19 10000 1.07 324 17:47 09.12.2021
4985 Clear 3 1026 19 10000 1.1 333 17:24 09.12.2021
4986 Clear 4 1026 18 10000 1.28 345 16:25 09.12.2021
4987 Clear 4 1025 17 10000 1.3 350 15:18 09.12.2021
4988 Clear 4 1025 17 10000 1.3 350 14:30 09.12.2021
4989 Clear 7 1023 21 10000 1.12 11 12:48 09.12.2021
4990 Clear 10 1022 16 10000 1.24 43 11:33 09.12.2021
4991 Clear 10 1023 14 10000 1.08 67 10:28 09.12.2021
4992 Clear 9 1025 16 10000 0.36 76 07:34 09.12.2021
4993 Clear 2 1024 26 10000 0.44 226 03:56 09.12.2021
4994 Clear 2 1022 28 10000 0.41 231 00:25 09.12.2021
4995 Clear 2 1022 28 10000 0.41 231 23:37 08.12.2021
4996 Clear 3 1022 28 10000 0.69 244 22:57 08.12.2021
4997 Clear 3 1022 29 10000 0.43 297 22:25 08.12.2021
4998 Clear 3 1022 29 10000 0.43 297 21:33 08.12.2021
4999 Clear 3 1022 28 10000 0.51 297 20:48 08.12.2021
5000 Clear 4 1023 28 10000 0.66 293 19:56 08.12.2021
5001 Clear 4 1022 28 10000 0.43 250 18:58 08.12.2021
5002 Clear 5 1023 27 10000 0.85 218 18:22 08.12.2021
5003 Clear 5 1022 26 10000 1.17 220 16:53 08.12.2021
5004 Clear 6 1022 26 10000 1.2 222 15:42 08.12.2021
5005 Clear 6 1021 26 10000 1.36 209 15:22 08.12.2021
5006 Clear 8 1020 23 10000 1.62 182 13:26 08.12.2021
5007 Clear 11 1020 18 10000 1.79 184 10:44 08.12.2021
5008 Clear 11 1020 18 10000 1.87 187 09:58 08.12.2021
5009 Clear 10 1021 20 10000 1.43 193 08:34 08.12.2021
5010 Clear 7 1025 25 10000 1.13 207 06:22 08.12.2021
5011 Clear 1 1023 37 10000 0.5 275 00:41 08.12.2021
5012 Clear 2 1024 36 10000 0.55 331 23:23 07.12.2021
5013 Clear 3 1024 34 10000 0.73 332 21:25 07.12.2021
5014 Clear 3 1024 34 10000 0.99 341 20:25 07.12.2021
5015 Clear 4 1023 32 10000 1.04 349 19:21 07.12.2021
5016 Clear 5 1023 31 10000 1.12 358 18:23 07.12.2021
5017 Clear 5 1023 30 10000 1.38 3 17:27 07.12.2021
5018 Clear 5 1023 30 10000 1.38 3 16:53 07.12.2021
5019 Clear 6 1022 29 10000 1.3 7 16:25 07.12.2021
5020 Clear 6 1021 28 10000 1.02 5 14:38 07.12.2021
5021 Clouds 7 1021 27 10000 0.75 9 13:40 07.12.2021
5022 Clouds 11 1019 18 10000 0.85 51 12:22 07.12.2021
5023 Clouds 11 1019 18 10000 0.84 70 11:19 07.12.2021
5024 Clouds 11 1019 19 10000 0.9 69 09:36 07.12.2021
5025 Clouds 9 1023 23 10000 0.4 191 07:35 07.12.2021
5026 Clouds 8 1023 25 10000 1.02 201 05:51 07.12.2021
5027 Clouds 6 1023 29 10000 1.21 206 05:26 07.12.2021
5028 Clouds 3 1023 45 10000 0.61 239 23:36 06.12.2021
5029 Clouds 3 1023 45 10000 0.47 275 22:41 06.12.2021
5030 Clouds 3 1023 44 10000 0.6 301 21:59 06.12.2021
5031 Clouds 3 1023 44 10000 0.6 301 21:59 06.12.2021
5032 Clouds 3 1023 44 10000 0.6 301 21:31 06.12.2021
5033 Clouds 3 1023 43 10000 0.4 319 20:32 06.12.2021
5034 Clouds 4 1023 41 10000 0.72 316 19:24 06.12.2021
5035 Clouds 4 1023 42 10000 0.76 316 18:40 06.12.2021
5036 Clouds 5 1023 39 10000 0.76 329 17:54 06.12.2021
5037 Clouds 5 1023 39 10000 0.76 329 17:33 06.12.2021
5038 Clear 5 1021 37 10000 0.25 279 15:51 06.12.2021
5039 Clear 5 1021 36 10000 0.16 212 14:40 06.12.2021
5040 Clear 7 1019 32 10000 0.86 129 13:28 06.12.2021
5041 Clear 7 1019 32 10000 0.86 129 12:37 06.12.2021
5042 Clear 10 1019 28 10000 0.87 172 10:23 06.12.2021
5043 Clear 9 1021 35 10000 0.95 197 07:40 06.12.2021
5044 Clear 1 1021 73 10000 1.19 214 02:26 06.12.2021
5045 Clouds 3 1020 69 10000 0.43 233 22:26 05.12.2021
5046 Clouds 3 1020 66 10000 0.35 293 21:25 05.12.2021
5047 Clouds 3 1020 66 10000 0.35 293 20:52 05.12.2021
5048 Clouds 3 1020 64 10000 0.36 29 20:18 05.12.2021
5049 Clouds 4 1020 62 10000 0.57 68 19:24 05.12.2021
5050 Clouds 4 1019 58 10000 0.45 78 18:29 05.12.2021
5051 Clouds 4 1019 58 10000 0.45 78 17:49 05.12.2021
5052 Clouds 5 1019 55 10000 0.59 53 17:20 05.12.2021
5053 Clouds 5 1019 53 10000 0.57 21 16:28 05.12.2021
5054 Clouds 5 1019 53 10000 0.57 21 15:59 05.12.2021
5055 Clouds 6 1018 50 10000 1.07 22 14:48 05.12.2021
5056 Clouds 7 1017 45 10000 1.83 49 14:29 05.12.2021
5057 Clouds 7 1017 45 10000 1.83 49 13:33 05.12.2021
5058 Clouds 9 1016 37 10000 3.43 70 12:45 05.12.2021
5059 Clouds 11 1016 31 10000 2.93 74 12:26 05.12.2021
5060 Clouds 11 1016 31 10000 2.93 74 11:44 05.12.2021
5061 Clouds 11 1016 29 10000 1.64 79 10:25 05.12.2021
5062 Clouds 11 1016 29 10000 1.64 79 09:41 05.12.2021
5063 Clouds 9 1019 28 10000 0.38 115 06:30 05.12.2021
5064 Clouds 5 1018 38 10000 1.33 6 01:29 05.12.2021
5065 Clouds 6 1018 39 10000 0.61 38 22:45 04.12.2021
5066 Clouds 6 1018 39 10000 0.46 208 21:38 04.12.2021
5067 Clouds 6 1018 39 10000 0.97 241 20:47 04.12.2021
5068 Clouds 6 1018 37 10000 0.53 255 19:54 04.12.2021
5069 Clouds 6 1018 37 10000 0.53 255 19:30 04.12.2021
5070 Clouds 7 1018 34 10000 0.32 283 17:53 04.12.2021
5071 Clouds 7 1018 34 10000 0.32 283 17:35 04.12.2021
5072 Clouds 7 1017 34 10000 0.29 298 16:47 04.12.2021
5073 Clouds 8 1017 33 10000 0.6 338 16:28 04.12.2021
5074 Clouds 9 1017 31 10000 0.62 9 13:39 04.12.2021
5075 Clear 12 1016 22 10000 0.75 23 11:44 04.12.2021
5076 Clear 12 1016 21 10000 0.7 24 11:19 04.12.2021
5077 Clear 12 1017 20 10000 0.87 40 10:24 04.12.2021
5078 Clear 12 1018 19 10000 0.9 39 08:42 04.12.2021
5079 Clear 10 1022 17 10000 0.11 9 05:30 04.12.2021
5080 Clear 8 1022 20 10000 0.35 238 04:40 04.12.2021
5081 Clouds 5 1021 21 10000 0.85 343 23:49 03.12.2021
5082 Clouds 6 1021 21 10000 0.79 341 22:55 03.12.2021
5083 Clouds 6 1022 21 10000 0.53 346 21:59 03.12.2021
5084 Clouds 6 1022 20 10000 0.6 11 21:25 03.12.2021
5085 Clouds 6 1022 20 10000 0.6 11 20:43 03.12.2021
5086 Clouds 7 1022 20 10000 0.61 345 19:36 03.12.2021
5087 Clouds 8 1022 18 10000 0.53 312 18:26 03.12.2021
5088 Clouds 8 1022 18 10000 0.53 312 17:42 03.12.2021
5089 Clouds 10 1021 17 10000 1.29 17 14:20 03.12.2021
5090 Clouds 10 1020 17 10000 1.05 25 12:52 03.12.2021
5091 Clouds 13 1019 11 10000 0.85 64 11:24 03.12.2021
5092 Clouds 13 1019 11 10000 0.82 49 09:55 03.12.2021
5093 Clouds 12 1021 13 10000 0.56 5 08:23 03.12.2021
5094 Clouds 12 1021 13 10000 0.56 5 07:37 03.12.2021
5095 Clear 3 1021 24 10000 0.93 196 01:56 03.12.2021
5096 Clear 3 1021 25 10000 0.94 234 00:47 03.12.2021
5097 Clear 4 1021 25 10000 0.7 214 23:44 02.12.2021
5098 Clear 5 1021 24 10000 0.81 226 21:42 02.12.2021
5099 Clear 5 1021 23 10000 0.71 230 20:57 02.12.2021
5100 Clear 5 1021 23 10000 0.71 230 20:37 02.12.2021
5101 Clear 6 1022 23 10000 0.43 192 19:25 02.12.2021
5102 Clear 6 1022 22 10000 0.36 182 17:43 02.12.2021
5103 Clear 7 1021 22 10000 0.88 295 15:42 02.12.2021
5104 Clear 7 1021 23 10000 0.97 322 14:59 02.12.2021
5105 Clear 8 1021 23 10000 1.17 342 13:58 02.12.2021
5106 Clear 9 1020 21 10000 1.27 13 12:52 02.12.2021
5107 Clear 13 1020 15 10000 1.18 45 12:18 02.12.2021
5108 Clear 13 1020 15 10000 0.48 50 09:34 02.12.2021
5109 Clear 13 1021 17 10000 0.47 85 08:49 02.12.2021
5110 Clear 8 1024 27 10000 0.78 193 04:54 02.12.2021
5111 Clear 3 1021 37 10000 0.4 210 00:52 02.12.2021
5112 Clear 4 1021 35 10000 0.52 255 23:19 01.12.2021
5113 Clear 4 1021 35 10000 0.52 255 23:19 01.12.2021
5114 Clear 4 1021 34 10000 0.6 263 22:23 01.12.2021
5115 Clear 5 1021 33 10000 0.36 227 20:39 01.12.2021
5116 Clear 5 1022 33 10000 0.46 276 19:54 01.12.2021
5117 Clear 6 1022 32 10000 0.84 306 19:28 01.12.2021
5118 Clear 6 1021 30 10000 1.11 334 17:45 01.12.2021
5119 Clear 7 1021 30 10000 1.01 348 16:46 01.12.2021
5120 Clear 8 1020 28 10000 1.06 347 14:52 01.12.2021
5121 Clear 8 1019 28 10000 0.71 359 13:45 01.12.2021
5122 Clouds 10 1019 30 10000 0.69 22 12:50 01.12.2021
5123 Clouds 12 1018 23 10000 1.18 40 10:42 01.12.2021
5124 Clouds 12 1020 24 10000 0.66 66 09:20 01.12.2021
5125 Clouds 11 1021 25 10000 0.4 72 08:29 01.12.2021
5126 Clouds 11 1021 25 10000 0.4 72 07:33 01.12.2021
5127 Clouds 10 1022 26 10000 0.03 338 06:34 01.12.2021
5128 Clouds 5 1022 39 10000 0.7 233 03:46 01.12.2021
5129 Clouds 5 1021 40 10000 0.41 323 00:59 01.12.2021
5130 Clouds 5 1021 39 10000 0.24 327 23:54 30.11.2021
5131 Clouds 5 1021 38 10000 0.55 326 23:24 30.11.2021
5132 Clouds 6 1021 38 10000 0.65 313 21:39 30.11.2021
5133 Clouds 6 1021 37 10000 0.19 301 20:44 30.11.2021
5134 Clouds 6 1021 36 10000 0.19 298 19:53 30.11.2021
5135 Clouds 6 1021 36 10000 0.19 298 19:34 30.11.2021
5136 Clouds 7 1021 36 10000 0.28 287 18:36 30.11.2021
5137 Clouds 7 1020 35 10000 0.2 278 16:50 30.11.2021
5138 Clouds 8 1020 34 10000 0.48 337 15:38 30.11.2021
5139 Clouds 9 1019 33 10000 0.32 74 14:20 30.11.2021
5140 Clouds 10 1018 31 10000 0.53 73 13:26 30.11.2021
5141 Clouds 10 1018 31 10000 0.53 73 12:45 30.11.2021
5142 Clouds 12 1018 22 10000 0.64 149 11:49 30.11.2021
5143 Clouds 12 1018 22 10000 0.62 154 11:19 30.11.2021
5144 Clouds 12 1018 22 10000 0.62 154 10:32 30.11.2021
5145 Clear 11 1020 26 10000 0.89 180 08:52 30.11.2021
5146 Clear 11 1021 29 10000 0.78 193 08:22 30.11.2021
5147 Clear 11 1021 29 10000 0.78 193 07:47 30.11.2021
5148 Clear 4 1023 53 10000 1.42 204 02:41 30.11.2021
5149 Clear 4 1022 53 10000 1.19 205 01:41 30.11.2021
5150 Clear 4 1022 53 10000 0.73 201 00:24 30.11.2021
5151 Clear 5 1023 52 10000 0.67 214 23:24 29.11.2021
5152 Clear 5 1023 52 10000 0.67 214 22:56 29.11.2021
5153 Clear 5 1023 52 10000 0.67 214 22:33 29.11.2021
5154 Clear 5 1023 52 10000 0.63 225 21:30 29.11.2021
5155 Clear 5 1023 51 10000 0.7 242 20:59 29.11.2021
5156 Clear 5 1023 51 10000 0.7 242 20:32 29.11.2021
5157 Clear 5 1023 51 10000 0.7 242 20:32 29.11.2021
5158 Clear 6 1023 51 10000 0.63 270 19:56 29.11.2021
5159 Clear 6 1023 51 10000 0.63 270 19:36 29.11.2021
5160 Clouds 6 1023 50 10000 0.6 292 18:51 29.11.2021
5161 Clouds 7 1023 48 10000 0.65 332 17:49 29.11.2021
5162 Clouds 7 1023 46 10000 0.93 342 17:18 29.11.2021
5163 Clouds 8 1023 45 10000 1.04 327 16:29 29.11.2021
5164 Clouds 8 1023 45 10000 1.04 327 15:50 29.11.2021
5165 Clouds 8 1023 44 10000 1.16 331 14:43 29.11.2021
5166 Clouds 8 1022 44 10000 0.89 358 13:33 29.11.2021
5167 Clouds 11 1021 33 10000 1.26 44 12:28 29.11.2021
5168 Clouds 11 1021 33 10000 1.26 44 11:40 29.11.2021
5169 Clouds 11 1021 33 10000 1.04 30 10:51 29.11.2021
5170 Clouds 11 1022 34 10000 0.82 29 09:34 29.11.2021
5171 Clouds 8 1025 46 10000 0.41 204 06:20 29.11.2021
5172 Clouds 3 1023 69 10000 0.98 218 01:43 29.11.2021
5173 Clear 3 1022 68 10000 0.68 245 00:42 29.11.2021
5174 Clear 4 1022 65 10000 0.71 251 23:44 28.11.2021
5175 Clear 4 1022 64 10000 0.53 264 23:23 28.11.2021
5176 Clear 4 1022 63 10000 0.39 276 21:49 28.11.2021
5177 Clear 5 1022 63 10000 0.38 227 21:23 28.11.2021
5178 Clear 5 1022 63 10000 0.38 227 20:33 28.11.2021
5179 Clouds 5 1022 61 10000 0.29 271 18:53 28.11.2021
5180 Clouds 6 1022 58 10000 0.24 300 18:32 28.11.2021
5181 Clouds 6 1022 56 10000 0.34 315 17:54 28.11.2021
5182 Clouds 6 1022 56 10000 0.34 315 17:31 28.11.2021
5183 Clouds 7 1022 55 10000 0.33 242 16:37 28.11.2021
5184 Clouds 8 1021 52 10000 0.03 105 16:18 28.11.2021
5185 Clouds 8 1021 52 10000 0.02 97 15:31 28.11.2021
5186 Clouds 8 1021 52 10000 0.64 60 14:44 28.11.2021
5187 Clouds 9 1019 41 10000 1.95 80 13:18 28.11.2021
5188 Clear 10 1019 36 10000 1.77 62 12:46 28.11.2021
5189 Clear 12 1019 30 10000 1.13 53 10:58 28.11.2021
5190 Clear 11 1019 30 10000 1.1 45 10:21 28.11.2021
5191 Clear 11 1019 30 10000 1.1 45 09:37 28.11.2021
5192 Clear 10 1021 32 10000 0.91 53 07:32 28.11.2021
5193 Clouds 4 1022 47 10000 0.9 344 23:56 27.11.2021
5194 Clear 5 1021 44 10000 0.79 22 20:51 27.11.2021
5195 Clear 6 1020 41 10000 0.95 24 19:18 27.11.2021
5196 Clear 6 1020 41 10000 0.95 24 19:18 27.11.2021
5197 Clouds 8 1019 39 10000 0.96 35 17:27 27.11.2021
5198 Clouds 8 1019 38 10000 1.16 35 15:57 27.11.2021
5199 Clear 10 1017 36 10000 1.43 42 13:48 27.11.2021
5200 Clear 11 1017 34 10000 1.3 33 12:55 27.11.2021
5201 Clear 12 1016 27 10000 1.31 43 10:48 27.11.2021
5202 Clear 12 1016 27 10000 1.3 50 09:53 27.11.2021
5203 Clear 12 1017 27 10000 1.2 52 08:43 27.11.2021
5204 Clear 11 1019 28 10000 0.11 116 06:34 27.11.2021
5205 Clear 5 1018 42 10000 0.97 225 01:57 27.11.2021
5206 Clouds 6 1018 42 10000 0.5 215 23:36 26.11.2021
5207 Clouds 7 1018 40 10000 0.15 31 22:25 26.11.2021
5208 Clouds 7 1018 40 10000 0.15 31 21:38 26.11.2021
5209 Clouds 7 1017 39 10000 0.54 15 21:18 26.11.2021
5210 Clouds 8 1018 38 10000 0.79 6 20:29 26.11.2021
5211 Clouds 8 1018 38 10000 0.79 6 19:49 26.11.2021
5212 Clouds 8 1017 36 10000 1.08 33 18:41 26.11.2021
5213 Clouds 10 1017 32 10000 1.36 9 17:23 26.11.2021
5214 Clouds 10 1016 30 10000 1.5 19 15:59 26.11.2021
5215 Clouds 11 1015 27 10000 0.91 47 13:36 26.11.2021
5216 Clouds 12 1014 26 10000 0.74 143 12:51 26.11.2021
5217 Clouds 14 1014 20 10000 1.22 178 10:39 26.11.2021
5218 Clear 13 1015 23 10000 1.3 191 08:59 26.11.2021
5219 Clear 13 1015 23 10000 1.3 191 08:39 26.11.2021
5220 Clear 12 1017 26 10000 1.12 199 08:19 26.11.2021
5221 Clouds 10 1019 31 10000 1.32 203 06:28 26.11.2021
5222 Clouds 9 1020 34 10000 1.25 213 04:52 26.11.2021
5223 Clouds 5 1019 45 10000 1.06 232 03:26 26.11.2021
5224 Clear 6 1019 45 10000 0.79 277 23:28 25.11.2021
5225 Clear 6 1019 45 10000 0.75 282 21:51 25.11.2021
5226 Clear 7 1019 45 10000 0.6 281 20:40 25.11.2021
5227 Clear 8 1020 43 10000 0.75 272 18:49 25.11.2021
5228 Clear 8 1020 43 10000 0.67 262 17:58 25.11.2021
5229 Clear 9 1019 42 10000 0.57 265 17:26 25.11.2021
5230 Clear 9 1019 42 10000 0.57 265 16:38 25.11.2021
5231 Clear 9 1019 41 10000 0.42 254 15:58 25.11.2021
5232 Clear 10 1019 39 10000 0.42 159 14:19 25.11.2021
5233 Clear 11 1017 33 10000 0.67 92 12:47 25.11.2021
5234 Clear 14 1017 28 10000 0.79 84 11:55 25.11.2021
5235 Clear 14 1018 29 10000 0.57 60 10:25 25.11.2021
5236 Clear 10 1022 45 10000 0.61 188 06:24 25.11.2021
5237 Clear 5 1021 65 10000 1.48 206 02:53 25.11.2021
5238 Clouds 6 1019 63 10000 0.66 208 23:39 24.11.2021
5239 Clouds 7 1019 61 10000 0.8 153 22:28 24.11.2021
5240 Clouds 7 1019 61 10000 0.8 153 21:44 24.11.2021
5241 Clouds 8 1019 60 10000 0.54 120 20:56 24.11.2021
5242 Clouds 8 1019 59 10000 0.75 5 20:26 24.11.2021
5243 Clouds 9 1019 53 10000 1.33 319 18:31 24.11.2021
5244 Clouds 9 1019 53 10000 2.1 285 17:59 24.11.2021
5245 Clouds 11 1017 35 10000 2.18 247 16:19 24.11.2021
5246 Clouds 11 1016 29 10000 1.2 289 14:54 24.11.2021
5247 Clouds 12 1015 26 10000 1.87 2 14:20 24.11.2021
5248 Clouds 12 1015 26 10000 1.87 2 14:20 24.11.2021
5249 Clouds 13 1014 25 10000 1.83 14 12:50 24.11.2021
5250 Clouds 14 1014 23 10000 1.64 46 11:22 24.11.2021
5251 Clouds 14 1014 23 10000 1.64 46 10:50 24.11.2021
5252 Clouds 14 1014 23 10000 1.27 48 10:27 24.11.2021
5253 Clear 13 1016 24 10000 0.83 26 07:56 24.11.2021
5254 Clouds 12 1017 24 10000 0.76 43 06:56 24.11.2021
5255 Clear 6 1017 37 10000 0.88 220 03:57 24.11.2021
5256 Clear 5 1015 39 10000 0.65 224 01:29 24.11.2021
5257 Clear 6 1015 34 10000 0.43 237 22:59 23.11.2021
5258 Clear 6 1015 34 10000 0.43 237 22:34 23.11.2021
5259 Clear 6 1015 33 10000 0.52 232 21:45 23.11.2021
5260 Clear 6 1015 33 10000 0.52 232 21:45 23.11.2021
5261 Clear 7 1015 30 10000 0.42 274 20:21 23.11.2021
5262 Clouds 8 1015 29 10000 0.2 260 19:20 23.11.2021
5263 Clouds 8 1015 28 10000 0.65 4 18:29 23.11.2021
5264 Clouds 9 1014 27 10000 0.79 358 17:23 23.11.2021
5265 Clouds 9 1014 27 10000 0.79 358 16:35 23.11.2021
5266 Clear 10 1013 25 10000 0.51 300 15:23 23.11.2021
5267 Clouds 11 1013 26 10000 0.24 272 14:39 23.11.2021
5268 Clear 12 1012 24 10000 0.91 154 12:50 23.11.2021
5269 Clear 15 1013 17 10000 1.43 178 10:26 23.11.2021
5270 Clear 15 1013 17 10000 1.43 178 09:43 23.11.2021
5271 Clear 13 1016 19 10000 1.61 191 07:42 23.11.2021
5272 Clear 7 1019 28 10000 2.51 206 03:58 23.11.2021
5273 Clear 6 1018 29 10000 1.92 216 03:25 23.11.2021
5274 Clear 6 1018 29 10000 1.34 242 23:23 22.11.2021
5275 Clear 6 1018 29 10000 1.34 242 22:53 22.11.2021
5276 Clear 7 1019 29 10000 1.07 258 22:29 22.11.2021
5277 Clear 7 1019 29 10000 1.07 258 21:44 22.11.2021
5278 Clear 7 1019 28 10000 1.04 253 20:56 22.11.2021
5279 Clear 7 1019 27 10000 1.3 260 20:21 22.11.2021
5280 Clear 7 1020 27 10000 1.01 276 19:19 22.11.2021
5281 Clear 7 1020 28 10000 0.99 277 18:40 22.11.2021
5282 Clear 8 1020 28 10000 0.98 317 17:46 22.11.2021
5283 Clear 9 1020 24 10000 1.66 341 16:26 22.11.2021
5284 Clear 10 1018 19 10000 0.75 298 14:26 22.11.2021
5285 Clear 11 1017 17 10000 0.62 228 12:47 22.11.2021
5286 Clear 15 1017 12 10000 1.21 191 10:45 22.11.2021
5287 Clear 14 1018 12 10000 1.14 186 09:48 22.11.2021
5288 Clear 14 1019 13 10000 1.13 195 08:41 22.11.2021
5289 Clear 12 1022 16 10000 1.38 202 06:59 22.11.2021
5290 Clear 5 1021 27 10000 1.18 234 23:39 21.11.2021
5291 Clear 6 1021 26 10000 1.16 237 22:53 21.11.2021
5292 Clear 6 1021 26 10000 1 242 22:19 21.11.2021
5293 Clear 6 1020 25 10000 1.02 219 20:42 21.11.2021
5294 Clear 6 1020 25 10000 1.05 235 20:22 21.11.2021
5295 Clear 7 1020 25 10000 0.98 245 18:30 21.11.2021
5296 Clear 7 1020 25 10000 0.84 246 17:40 21.11.2021
5297 Clear 7 1020 24 10000 0.86 272 16:52 21.11.2021
5298 Clear 9 1019 22 10000 1.24 345 14:47 21.11.2021
5299 Clear 9 1018 22 10000 0.97 14 13:54 21.11.2021
5300 Clear 11 1017 20 10000 0.89 41 12:55 21.11.2021
5301 Clear 14 1017 13 10000 0.93 41 11:57 21.11.2021
5302 Clear 14 1017 13 10000 0.93 41 11:35 21.11.2021
5303 Clear 14 1017 13 10000 0.16 61 10:19 21.11.2021
5304 Clear 13 1018 14 10000 0.14 184 09:20 21.11.2021
5305 Clear 13 1018 13 10000 0.36 185 08:30 21.11.2021
5306 Clear 12 1019 14 10000 0.48 204 07:50 21.11.2021
5307 Clear 10 1021 17 10000 0.57 223 06:20 21.11.2021
5308 Clear 10 1021 17 10000 0.57 223 05:30 21.11.2021
5309 Clear 3 1020 28 10000 0.32 248 03:20 21.11.2021
5310 Clear 3 1020 28 10000 0.32 248 02:53 21.11.2021
5311 Clear 4 1019 26 10000 0.71 211 01:23 21.11.2021
5312 Clear 4 1019 26 10000 0.9 220 00:23 21.11.2021
5313 Clear 5 1018 25 10000 0.54 227 21:50 20.11.2021
5314 Clear 5 1018 25 10000 0.54 227 21:30 20.11.2021
5315 Clear 6 1018 23 10000 0.43 300 19:23 20.11.2021
5316 Clear 6 1018 23 10000 0.43 300 18:45 20.11.2021
5317 Clear 7 1018 22 10000 0.67 344 18:19 20.11.2021
5318 Clear 7 1017 22 10000 0.64 0 17:19 20.11.2021
5319 Clear 8 1017 20 10000 1.27 354 14:50 20.11.2021
5320 Clear 9 1016 20 10000 1.37 352 14:28 20.11.2021
5321 Clear 9 1016 20 10000 1.37 352 13:33 20.11.2021
5322 Clear 14 1014 12 10000 0.93 59 11:24 20.11.2021
5323 Clear 14 1014 12 10000 0.7 68 09:54 20.11.2021
5324 Clear 13 1016 14 10000 0.25 154 08:26 20.11.2021
5325 Clear 10 1018 17 10000 1.14 199 05:30 20.11.2021
5326 Clear 9 1018 19 10000 1.3 192 04:51 20.11.2021
5327 Clear 3 1017 27 10000 1.3 201 03:25 20.11.2021
5328 Clear 4 1016 27 10000 0.92 202 00:42 20.11.2021
5329 Clear 4 1016 26 10000 0.88 209 23:45 19.11.2021
5330 Clear 4 1016 26 10000 0.88 213 22:53 19.11.2021
5331 Clear 5 1016 25 10000 0.9 196 21:23 19.11.2021
5332 Clear 5 1016 25 10000 0.9 196 20:39 19.11.2021
5333 Clear 6 1016 24 10000 0.82 186 20:20 19.11.2021
5334 Clear 6 1016 24 10000 0.82 186 19:43 19.11.2021
5335 Clear 6 1016 23 10000 0.5 196 18:44 19.11.2021
5336 Clear 7 1016 23 10000 0.57 286 17:39 19.11.2021
5337 Clear 7 1016 23 10000 1 317 16:22 19.11.2021
5338 Clear 8 1015 23 10000 1.31 323 14:51 19.11.2021
5339 Clear 13 1014 18 10000 1.23 45 10:56 19.11.2021
5340 Clear 13 1015 19 10000 0.97 47 10:23 19.11.2021
5341 Clear 12 1016 19 10000 0.7 42 08:32 19.11.2021
5342 Clear 8 1020 27 10000 0.73 210 04:58 19.11.2021
5343 Clear 4 1019 35 10000 0.88 204 03:19 19.11.2021
5344 Clear 6 1018 31 10000 0.88 212 23:53 18.11.2021
5345 Clear 6 1018 30 10000 0.67 208 22:43 18.11.2021
5346 Clear 7 1018 28 10000 0.83 230 20:56 18.11.2021
5347 Clear 7 1018 28 10000 0.83 230 20:37 18.11.2021
5348 Clear 7 1018 29 10000 0.59 246 20:19 18.11.2021
5349 Clear 7 1018 29 10000 0.59 246 19:36 18.11.2021
5350 Clear 7 1018 29 10000 0.59 246 19:36 18.11.2021
5351 Clear 7 1018 28 10000 0.6 238 18:35 18.11.2021
5352 Clear 8 1018 28 10000 0.6 280 17:52 18.11.2021
5353 Clear 8 1018 27 10000 0.82 293 16:47 18.11.2021
5354 Clear 9 1017 27 10000 0.86 314 15:56 18.11.2021
5355 Clear 9 1017 26 10000 0.99 336 14:40 18.11.2021
5356 Clear 11 1016 24 10000 0.98 5 12:55 18.11.2021
5357 Clear 13 1015 17 10000 1.3 29 11:44 18.11.2021
5358 Clear 13 1015 16 10000 1.33 46 11:25 18.11.2021
5359 Clear 13 1015 16 10000 0.89 56 10:24 18.11.2021
5360 Clear 12 1016 16 10000 0.66 46 08:30 18.11.2021
5361 Clouds 11 1019 18 10000 0.13 215 06:49 18.11.2021
5362 Clouds 10 1019 18 10000 0.47 173 05:46 18.11.2021
5363 Clouds 5 1018 27 10000 0.29 187 01:26 18.11.2021
5364 Clouds 5 1018 27 10000 0.29 187 01:26 18.11.2021
5365 Clouds 5 1018 26 10000 0.93 306 23:46 17.11.2021
5366 Clouds 6 1018 26 10000 0.64 330 22:40 17.11.2021
5367 Clouds 6 1018 26 10000 0.98 348 22:19 17.11.2021
5368 Clouds 6 1018 26 10000 0.98 348 22:19 17.11.2021
5369 Clouds 6 1018 26 10000 0.98 348 21:35 17.11.2021
5370 Clouds 6 1019 25 10000 0.95 21 19:51 17.11.2021
5371 Clouds 7 1019 23 10000 1.23 21 17:36 17.11.2021
5372 Clouds 8 1019 22 10000 1.11 34 16:28 17.11.2021
5373 Clouds 10 1017 20 10000 1.54 54 13:41 17.11.2021
5374 Clouds 11 1016 17 10000 2.14 59 12:38 17.11.2021
5375 Clouds 14 1015 13 10000 1.78 71 10:54 17.11.2021
5376 Clouds 14 1015 13 10000 1.78 71 10:54 17.11.2021
5377 Clouds 14 1016 13 10000 1.15 82 09:38 17.11.2021
5378 Clouds 13 1017 14 10000 0.68 123 08:30 17.11.2021
5379 Clouds 12 1019 14 10000 0.51 158 07:41 17.11.2021
5380 Clouds 3 1020 23 10000 0.97 213 02:49 17.11.2021
5381 Clouds 4 1019 22 10000 0.64 222 00:35 17.11.2021
5382 Clouds 4 1019 22 10000 0.47 261 22:37 16.11.2021
5383 Clouds 5 1019 21 10000 0.61 309 20:19 16.11.2021
5384 Clouds 5 1019 21 10000 0.61 309 19:55 16.11.2021
5385 Clouds 6 1019 21 10000 0.98 334 18:52 16.11.2021
5386 Clouds 6 1019 21 10000 1.05 340 18:29 16.11.2021
5387 Clouds 7 1019 21 10000 1.1 355 17:29 16.11.2021
5388 Clouds 7 1019 21 10000 1.08 359 16:21 16.11.2021
5389 Clouds 7 1019 21 10000 1.08 359 15:44 16.11.2021
5390 Clouds 9 1018 19 10000 1.52 356 13:49 16.11.2021
5391 Clouds 13 1016 14 10000 1.43 40 10:52 16.11.2021
5392 Clouds 12 1016 14 10000 1.22 44 09:44 16.11.2021
5393 Clouds 11 1018 16 10000 0.66 46 08:24 16.11.2021
5394 Clouds 11 1018 16 10000 0.68 45 07:30 16.11.2021
5395 Clear 3 1018 31 10000 0.64 308 23:54 15.11.2021
5396 Clear 3 1018 31 10000 0.7 348 22:43 15.11.2021
5397 Clear 4 1018 30 10000 0.91 0 22:20 15.11.2021
5398 Clear 4 1018 30 10000 0.91 0 21:51 15.11.2021
5399 Clear 5 1017 29 10000 0.7 349 21:25 15.11.2021
5400 Clear 5 1017 29 10000 0.44 308 19:41 15.11.2021
5401 Clear 6 1017 27 10000 0.31 252 17:50 15.11.2021
5402 Clear 8 1017 26 10000 0.36 298 16:19 15.11.2021
5403 Clear 8 1017 26 10000 0.36 298 15:39 15.11.2021
5404 Clear 8 1016 25 10000 0.29 335 15:19 15.11.2021
5405 Clear 11 1015 27 10000 0.92 113 12:47 15.11.2021
5406 Clear 12 1016 21 10000 1.19 140 10:54 15.11.2021
5407 Clear 11 1017 23 10000 0.94 155 09:26 15.11.2021
5408 Clear 10 1019 26 10000 0.72 169 07:45 15.11.2021
5409 Clear 7 1022 36 10000 0.56 235 04:45 15.11.2021
5410 Clear 4 1020 44 10000 0.93 337 22:47 14.11.2021
5411 Clear 5 1020 43 10000 0.85 326 22:28 14.11.2021
5412 Clear 6 1021 41 10000 0.85 344 19:51 14.11.2021
5413 Clear 6 1021 40 10000 0.71 333 19:18 14.11.2021
5414 Clear 6 1021 40 10000 0.71 333 18:54 14.11.2021
5415 Clear 6 1021 40 10000 0.71 333 18:36 14.11.2021
5416 Clear 7 1020 38 10000 1.21 360 18:18 14.11.2021
5417 Clear 7 1020 38 10000 1.21 360 17:54 14.11.2021
5418 Clear 6 1020 36 10000 1.15 358 17:36 14.11.2021
5419 Clear 7 1020 34 10000 1.38 7 17:18 14.11.2021
5420 Clear 7 1020 34 10000 1.38 7 16:45 14.11.2021
5421 Clear 8 1020 31 10000 1.77 4 16:19 14.11.2021
5422 Clear 9 1018 27 10000 2.29 2 15:22 14.11.2021
5423 Clear 9 1018 27 10000 2.29 2 14:45 14.11.2021
5424 Clear 10 1017 25 10000 2.25 13 14:23 14.11.2021
5425 Clear 10 1017 25 10000 2.25 13 13:53 14.11.2021
5426 Clear 10 1017 25 10000 2.25 13 13:32 14.11.2021
5427 Clouds 13 1015 15 10000 2.37 13 12:26 14.11.2021
5428 Clouds 13 1015 15 10000 2.37 13 11:34 14.11.2021
5429 Clouds 14 1014 14 10000 2.02 32 10:40 14.11.2021
5430 Clouds 14 1014 14 10000 2.02 32 10:40 14.11.2021
5431 Clouds 13 1014 13 10000 1.26 49 09:42 14.11.2021
5432 Clouds 13 1015 14 10000 0.71 83 08:52 14.11.2021
5433 Clear 12 1017 15 10000 0.29 165 06:54 14.11.2021
5434 Clear 6 1015 24 10000 0.63 247 23:28 13.11.2021
5435 Clear 7 1016 24 10000 0.52 210 22:21 13.11.2021
5436 Clear 7 1016 24 10000 0.52 210 21:49 13.11.2021
5437 Clear 7 1016 23 10000 0.37 223 21:18 13.11.2021
5438 Clear 8 1016 23 10000 0.33 265 19:37 13.11.2021
5439 Clear 8 1016 23 10000 0.3 268 18:33 13.11.2021
5440 Clear 9 1017 22 10000 0.43 345 17:46 13.11.2021
5441 Clear 9 1016 22 10000 0.68 337 16:30 13.11.2021
5442 Clear 10 1016 21 10000 1.16 344 14:55 13.11.2021
5443 Clear 11 1016 19 10000 1.51 352 14:18 13.11.2021
5444 Clouds 13 1015 16 10000 1.78 10 12:45 13.11.2021
5445 Clouds 15 1015 12 10000 1.69 31 11:58 13.11.2021
5446 Clear 16 1015 11 10000 1.24 34 11:26 13.11.2021
5447 Clear 16 1015 11 10000 1.24 34 10:43 13.11.2021
5448 Clear 15 1016 11 10000 0.92 39 09:50 13.11.2021
5449 Clear 15 1016 11 10000 0.92 39 09:32 13.11.2021
5450 Clear 15 1017 12 10000 0.67 60 08:54 13.11.2021
5451 Clear 14 1018 13 10000 0.25 91 08:18 13.11.2021
5452 Clear 10 1021 17 10000 1.54 204 04:43 13.11.2021
5453 Clear 7 1021 21 10000 1.97 202 04:23 13.11.2021
5454 Clear 6 1019 24 10000 1.1 215 00:28 13.11.2021
5455 Clear 6 1019 24 10000 0.9 216 22:43 12.11.2021
5456 Clear 7 1020 26 10000 0.79 217 21:29 12.11.2021
5457 Clear 8 1020 26 10000 0.61 210 19:43 12.11.2021
5458 Clear 8 1020 26 10000 0.49 267 19:23 12.11.2021
5459 Clear 9 1019 26 10000 0.67 304 18:20 12.11.2021
5460 Clear 10 1019 24 10000 0.62 323 16:19 12.11.2021
5461 Clear 10 1018 24 10000 0.64 1 14:53 12.11.2021
5462 Clear 15 1016 16 10000 0.87 84 11:31 12.11.2021
5463 Clear 15 1016 16 10000 0.66 91 10:48 12.11.2021
5464 Clear 14 1018 19 10000 0.46 147 09:29 12.11.2021
5465 Clear 14 1018 19 10000 0.46 147 08:38 12.11.2021
5466 Clear 5 1020 41 10000 0.39 315 02:22 12.11.2021
5467 Clear 6 1020 41 10000 0.48 317 23:31 11.11.2021
5468 Clear 7 1020 39 10000 0.49 336 22:28 11.11.2021
5469 Clear 7 1019 38 10000 0.58 331 21:26 11.11.2021
5470 Clear 7 1019 38 10000 0.58 331 20:38 11.11.2021
5471 Clear 8 1019 37 10000 0.76 344 18:55 11.11.2021
5472 Clear 9 1019 34 10000 1.09 341 17:42 11.11.2021
5473 Clear 10 1019 33 10000 1.06 348 16:38 11.11.2021
5474 Clear 11 1018 31 10000 0.2 6 14:44 11.11.2021
5475 Clear 11 1017 30 10000 0.39 122 14:26 11.11.2021
5476 Clear 11 1017 30 10000 0.39 122 13:36 11.11.2021
5477 Clear 13 1016 31 10000 0.67 93 12:48 11.11.2021
5478 Clear 15 1016 26 10000 1.1 74 10:34 11.11.2021
5479 Clear 14 1016 28 10000 0.76 68 09:33 11.11.2021
5480 Clear 13 1019 33 10000 0.46 179 07:36 11.11.2021
5481 Clear 7 1020 51 10000 0.94 210 02:35 11.11.2021
5482 Clear 8 1019 49 10000 0.62 268 22:49 10.11.2021
5483 Clear 9 1018 49 10000 0.42 287 21:58 10.11.2021
5484 Clear 9 1018 48 10000 0.26 322 21:18 10.11.2021
5485 Clear 9 1018 48 10000 0.26 322 20:35 10.11.2021
5486 Clear 9 1019 47 10000 0.43 4 19:46 10.11.2021
5487 Clear 10 1019 44 10000 0.52 343 17:39 10.11.2021
5488 Clear 11 1018 38 10000 0.94 20 16:25 10.11.2021
5489 Clear 12 1017 37 10000 0.98 33 14:40 10.11.2021
5490 Clear 12 1016 34 10000 1.16 44 13:40 10.11.2021
5491 Clear 14 1016 30 10000 1.25 70 12:40 10.11.2021
5492 Clouds 15 1016 26 10000 0.93 124 10:20 10.11.2021
5493 Clouds 14 1017 27 10000 0.85 153 08:45 10.11.2021
5494 Clouds 13 1020 31 10000 1.26 183 07:22 10.11.2021
5495 Clear 12 1020 34 10000 1.31 194 06:25 10.11.2021
5496 Clear 12 1020 34 10000 1.31 194 05:44 10.11.2021
5497 Clouds 9 1018 50 10000 0.45 217 22:54 09.11.2021
5498 Clouds 9 1018 49 10000 0.28 232 21:47 09.11.2021
5499 Clouds 10 1019 46 10000 0.82 290 20:26 09.11.2021
5500 Clouds 10 1019 45 10000 1.21 283 19:20 09.11.2021
5501 Clouds 11 1019 44 10000 1.47 308 17:30 09.11.2021
5502 Clouds 12 1018 39 10000 1.22 313 15:38 09.11.2021
5503 Clouds 13 1017 33 10000 2.01 360 13:59 09.11.2021
5504 Clouds 15 1016 27 10000 2.2 11 12:50 09.11.2021
5505 Clouds 16 1016 22 10000 1.5 49 11:38 09.11.2021
5506 Clouds 16 1016 22 10000 1.25 84 10:43 09.11.2021
5507 Clouds 15 1017 26 10000 0.28 183 09:24 09.11.2021
5508 Clouds 15 1019 28 10000 0.66 200 08:18 09.11.2021
5509 Clear 11 1021 38 10000 1.43 203 05:23 09.11.2021
5510 Clear 7 1020 57 10000 1.36 204 01:58 09.11.2021
5511 Clear 7 1020 52 10000 1.39 207 01:39 09.11.2021
5512 Clear 8 1019 54 10000 0.87 219 23:35 08.11.2021
5513 Clear 8 1019 53 10000 0.71 220 22:48 08.11.2021
5514 Clear 9 1019 52 10000 0.83 222 21:46 08.11.2021
5515 Clear 9 1019 51 10000 0.65 250 20:38 08.11.2021
5516 Clear 9 1019 50 10000 0.42 293 19:46 08.11.2021
5517 Clouds 10 1019 48 10000 0.32 230 17:55 08.11.2021
5518 Clouds 11 1019 42 10000 1.03 325 15:59 08.11.2021
5519 Clear 12 1018 41 10000 1.54 352 14:57 08.11.2021
5520 Clear 12 1018 41 10000 1.54 352 14:34 08.11.2021
5521 Clear 14 1017 34 10000 2.18 37 13:22 08.11.2021
5522 Clear 16 1016 31 10000 1.29 57 11:56 08.11.2021
5523 Clear 15 1017 32 10000 0.62 75 10:50 08.11.2021
5524 Clear 15 1017 32 10000 0.62 75 10:50 08.11.2021
5525 Clear 15 1018 33 10000 0.22 78 09:37 08.11.2021
5526 Clear 14 1019 35 10000 0.15 51 08:52 08.11.2021
5527 Clear 13 1021 39 10000 0.15 51 07:27 08.11.2021
5528 Clear 9 1022 53 10000 1.08 212 03:42 08.11.2021
5529 Clear 6 1021 63 10000 1.02 231 03:22 08.11.2021
5530 Clouds 7 1020 66 10000 0.35 306 23:43 07.11.2021
5531 Clouds 8 1020 66 10000 0.49 224 21:42 07.11.2021
5532 Clouds 8 1020 64 10000 0.74 201 20:51 07.11.2021
5533 Clouds 9 1019 45 10000 0.92 9 19:22 07.11.2021
5534 Clouds 10 1019 44 10000 1.38 22 17:47 07.11.2021
5535 Clouds 10 1018 44 10000 1.33 27 16:44 07.11.2021
5536 Clouds 10 1018 44 10000 0.28 352 15:44 07.11.2021
5537 Clouds 11 1016 41 10000 0.92 348 14:28 07.11.2021
5538 Clouds 13 1015 32 10000 2.2 346 12:57 07.11.2021
5539 Clouds 14 1015 28 10000 3.15 5 11:42 07.11.2021
5540 Clouds 14 1015 26 10000 1.18 48 09:22 07.11.2021
5541 Clear 13 1017 27 10000 0.39 101 06:46 07.11.2021
5542 Clear 7 1017 38 10000 1.27 207 02:32 07.11.2021
5543 Clear 7 1016 37 10000 0.58 348 22:57 06.11.2021
5544 Clear 7 1016 37 10000 0.58 348 22:32 06.11.2021
5545 Clear 8 1017 37 10000 0.67 320 21:28 06.11.2021
5546 Clear 8 1017 35 10000 0.58 321 20:32 06.11.2021
5547 Clouds 9 1017 35 10000 0.62 355 18:56 06.11.2021
5548 Clouds 10 1017 34 10000 0.99 16 16:38 06.11.2021
5549 Clouds 10 1017 34 10000 0.88 312 14:31 06.11.2021
5550 Clear 11 1016 33 10000 0.74 321 13:38 06.11.2021
5551 Clear 13 1016 23 10000 1.06 48 11:25 06.11.2021
5552 Clouds 12 1018 23 10000 0.89 32 09:22 06.11.2021
5553 Clear 8 1021 29 10000 0.23 226 04:56 06.11.2021
5554 Clear 5 1020 37 10000 0.78 331 01:27 06.11.2021
5555 Clear 6 1019 39 10000 1.11 328 23:34 05.11.2021
5556 Clear 6 1019 39 10000 1.23 338 22:33 05.11.2021
5557 Clear 6 1019 39 10000 1.23 338 22:33 05.11.2021
5558 Clear 7 1019 37 10000 1.47 358 20:42 05.11.2021
5559 Clear 8 1020 37 10000 1.52 2 20:19 05.11.2021
5560 Clear 8 1019 53 10000 1.57 15 19:32 05.11.2021
5561 Clear 8 1019 51 10000 1.38 20 18:38 05.11.2021
5562 Clear 10 1019 45 10000 1.32 18 17:25 05.11.2021
5563 Clear 11 1018 45 10000 1.16 3 14:54 05.11.2021
5564 Clouds 13 1016 41 10000 2.11 46 13:33 05.11.2021
5565 Clouds 13 1016 42 10000 1.53 54 10:29 05.11.2021
5566 Clouds 12 1017 45 10000 1.05 51 08:39 05.11.2021
5567 Clouds 10 1020 56 10000 0.38 53 07:21 05.11.2021
5568 Clouds 8 1021 69 10000 0.71 190 04:43 05.11.2021
5569 Clouds 6 1020 82 10000 0.85 189 02:24 05.11.2021
5570 Clouds 6 1020 86 10000 0.5 239 00:30 05.11.2021
5571 Clouds 6 1020 87 10000 1.31 348 22:59 04.11.2021
5572 Clouds 6 1020 86 10000 1.74 2 22:18 04.11.2021
5573 Clouds 6 1020 86 10000 1.74 2 21:30 04.11.2021
5574 Clouds 6 1020 83 10000 2.42 352 20:30 04.11.2021
5575 Clouds 6 1020 83 10000 2.42 352 20:30 04.11.2021
5576 Clouds 7 1020 73 10000 3.71 339 19:50 04.11.2021
5577 Clouds 9 1019 62 10000 3.96 352 19:28 04.11.2021
5578 Clouds 9 1019 62 10000 3.96 352 18:42 04.11.2021
5579 Clouds 11 1017 48 10000 3.62 11 17:28 04.11.2021
5580 Clouds 11 1016 45 10000 3.04 30 16:23 04.11.2021
5581 Clouds 13 1013 37 10000 2.79 52 14:19 04.11.2021
5582 Clouds 16 1012 19 10000 2.04 82 10:52 04.11.2021
5583 Clouds 15 1015 16 10000 0.97 106 08:58 04.11.2021
5584 Clouds 14 1017 17 10000 0.85 109 08:28 04.11.2021
5585 Clouds 14 1017 17 10000 0.85 109 07:33 04.11.2021
5586 Clouds 6 1018 37 10000 0.24 295 23:43 03.11.2021
5587 Clouds 7 1018 36 10000 0.39 320 22:49 03.11.2021
5588 Clouds 7 1018 36 10000 0.24 182 21:45 03.11.2021
5589 Clouds 7 1018 35 10000 0.29 184 20:45 03.11.2021
5590 Clear 8 1018 33 10000 0.31 179 20:26 03.11.2021
5591 Clear 8 1018 33 10000 0.31 179 19:37 03.11.2021
5592 Clear 8 1018 32 10000 0.41 133 18:33 03.11.2021
5593 Clear 9 1019 30 10000 0.5 86 17:56 03.11.2021
5594 Clear 10 1018 28 10000 0.64 42 16:49 03.11.2021
5595 Clear 10 1018 25 10000 0.66 28 15:51 03.11.2021
5596 Clear 10 1018 25 10000 0.66 28 15:30 03.11.2021
5597 Clear 10 1018 25 10000 0.66 28 15:30 03.11.2021
5598 Clear 12 1017 21 10000 1.65 24 13:42 03.11.2021
5599 Clouds 15 1016 18 10000 1.61 51 11:37 03.11.2021
5600 Clouds 15 1017 17 10000 1.44 47 10:50 03.11.2021
5601 Clouds 15 1017 17 10000 1.2 57 09:47 03.11.2021
5602 Clear 14 1018 18 10000 0.91 75 08:58 03.11.2021
5603 Clear 14 1020 18 10000 0.64 84 07:59 03.11.2021
5604 Clear 14 1020 18 10000 0.64 84 07:35 03.11.2021
5605 Clouds 9 1021 28 10000 0.56 236 04:23 03.11.2021
5606 Clouds 7 1020 30 10000 0.56 271 00:58 03.11.2021
5607 Clouds 8 1020 30 10000 0.47 333 23:24 02.11.2021
5608 Clouds 8 1020 29 10000 0.8 350 21:59 02.11.2021
5609 Clouds 8 1020 29 10000 0.88 357 20:43 02.11.2021
5610 Clear 9 1020 29 10000 0.95 7 19:58 02.11.2021
5611 Clear 9 1020 29 10000 0.95 7 19:31 02.11.2021
5612 Clear 9 1020 28 10000 0.8 16 18:36 02.11.2021
5613 Clear 10 1020 28 10000 0.63 20 17:46 02.11.2021
5614 Clear 10 1020 28 10000 0.69 344 17:21 02.11.2021
5615 Clear 11 1020 26 10000 1.2 331 16:19 02.11.2021
5616 Clear 11 1019 25 10000 1.52 346 14:57 02.11.2021
5617 Clear 12 1019 25 10000 1.71 14 13:31 02.11.2021
5618 Clear 14 1018 18 10000 1.85 38 12:59 02.11.2021
5619 Clear 15 1017 14 10000 1.36 60 11:40 02.11.2021
5620 Clear 15 1017 15 10000 0.82 83 10:59 02.11.2021
5621 Clear 15 1017 15 10000 0.82 83 10:38 02.11.2021
5622 Clear 15 1018 16 10000 0.68 95 10:18 02.11.2021
5623 Clear 13 1020 19 10000 0.4 136 07:47 02.11.2021
5624 Clear 11 1022 24 10000 0.09 179 05:55 02.11.2021
5625 Clear 5 1022 37 10000 0.34 286 03:24 02.11.2021
5626 Clear 6 1021 37 10000 0.59 206 00:19 02.11.2021
5627 Clear 6 1021 36 10000 0.33 318 21:57 01.11.2021
5628 Clear 7 1021 36 10000 0.39 304 20:45 01.11.2021
5629 Clear 7 1021 35 10000 0.56 337 20:19 01.11.2021
5630 Clear 7 1021 35 10000 0.56 337 19:41 01.11.2021
5631 Clear 7 1021 35 10000 0.56 337 19:41 01.11.2021
5632 Clear 8 1021 35 10000 0.85 359 18:34 01.11.2021
5633 Clear 8 1021 35 10000 0.99 2 17:49 01.11.2021
5634 Clear 9 1020 33 10000 1.18 1 16:57 01.11.2021
5635 Clear 10 1020 31 10000 1.52 11 16:23 01.11.2021
5636 Clear 11 1019 28 10000 1.91 14 15:29 01.11.2021
5637 Clear 11 1019 28 10000 1.91 14 14:45 01.11.2021
5638 Clear 12 1018 26 10000 1.31 15 14:25 01.11.2021
5639 Clear 11 1018 23 10000 0.95 13 13:50 01.11.2021
5640 Clear 13 1017 20 10000 0.76 44 12:36 01.11.2021
5641 Clear 14 1017 17 10000 0.82 65 11:30 01.11.2021
5642 Clear 13 1018 19 10000 1.02 62 10:19 01.11.2021
5643 Clear 11 1021 24 10000 0.82 39 08:18 01.11.2021
5644 Clear 11 1021 24 10000 0.82 39 07:45 01.11.2021
5645 Clear 6 1023 41 10000 0.6 321 03:49 01.11.2021
5646 Clear 4 1022 51 10000 1.05 349 01:43 01.11.2021
5647 Clear 6 1020 47 10000 1.3 354 22:42 31.10.2021
5648 Clear 6 1020 46 10000 1.2 358 20:50 31.10.2021
5649 Clear 7 1022 44 10000 0.77 14 19:22 31.10.2021
5650 Clear 7 1022 44 10000 0.77 14 18:41 31.10.2021
5651 Clear 8 1022 41 10000 1.12 10 17:52 31.10.2021
5652 Clear 9 1021 33 10000 1.6 14 15:51 31.10.2021
5653 Clear 12 1019 25 10000 2.04 29 14:24 31.10.2021
5654 Clear 14 1017 18 10000 3.84 39 12:50 31.10.2021
5655 Clear 16 1016 15 10000 5.63 22 11:41 31.10.2021
5656 Clear 17 1016 14 10000 3.38 19 10:44 31.10.2021
5657 Clear 16 1018 14 10000 1.01 32 09:22 31.10.2021
5658 Clear 15 1020 15 10000 1.07 34 08:29 31.10.2021
5659 Clear 6 1022 29 10000 1.08 257 01:37 31.10.2021
5660 Clear 7 1023 29 10000 0.82 310 22:47 30.10.2021
5661 Clear 8 1023 28 10000 0.92 319 21:35 30.10.2021
5662 Clear 8 1024 27 10000 1.09 330 20:50 30.10.2021
5663 Clear 10 1024 24 10000 0.92 352 18:48 30.10.2021
5664 Clear 11 1023 20 10000 1.32 346 17:25 30.10.2021
5665 Clear 14 1021 16 10000 2.4 3 14:54 30.10.2021
5666 Clear 17 1020 19 10000 2.13 34 13:40 30.10.2021
5667 Clear 18 1019 16 10000 1.3 71 13:21 30.10.2021
5668 Clear 18 1019 16 10000 1.3 71 12:47 30.10.2021
5669 Clear 18 1019 16 10000 1.25 104 11:42 30.10.2021
5670 Clear 17 1020 18 10000 1.19 128 10:32 30.10.2021
5671 Clear 16 1023 23 10000 0.48 171 08:52 30.10.2021
5672 Clear 14 1024 28 10000 0.63 232 07:25 30.10.2021
5673 Clear 12 1025 30 10000 0.59 243 05:39 30.10.2021
5674 Clear 9 1023 41 10000 0.46 249 00:47 30.10.2021
5675 Clear 10 1023 40 10000 0.33 276 22:43 29.10.2021
5676 Clear 10 1023 39 10000 0.48 321 22:20 29.10.2021
5677 Clear 11 1023 39 10000 0.97 336 20:46 29.10.2021
5678 Clouds 11 1023 38 10000 0.95 323 19:56 29.10.2021
5679 Clouds 11 1023 37 10000 0.78 307 18:33 29.10.2021
5680 Clouds 13 1022 34 10000 1.65 336 16:52 29.10.2021
5681 Clouds 14 1021 27 10000 2.67 17 14:36 29.10.2021
5682 Clouds 17 1019 22 10000 2.48 12 11:56 29.10.2021
5683 Clouds 16 1019 22 10000 2.44 3 10:44 29.10.2021
5684 Clear 15 1021 23 10000 0.65 168 08:38 29.10.2021
5685 Clear 9 1020 38 10000 0.8 307 00:37 29.10.2021
5686 Clear 9 1020 36 10000 0.65 9 23:25 28.10.2021
5687 Clear 10 1021 35 10000 0.77 20 22:18 28.10.2021
5688 Clear 10 1021 34 10000 0.74 32 20:54 28.10.2021
5689 Clear 11 1021 33 10000 0.82 61 19:50 28.10.2021
5690 Clear 12 1020 30 10000 1.12 24 18:23 28.10.2021
5691 Clear 12 1019 28 10000 1.39 42 17:18 28.10.2021
5692 Clear 13 1019 26 10000 1.88 33 15:48 28.10.2021
5693 Clear 16 1017 19 10000 2.97 50 14:23 28.10.2021
5694 Clear 17 1016 16 10000 3.01 60 13:24 28.10.2021
5695 Clear 17 1016 16 10000 3.01 60 12:41 28.10.2021
5696 Clear 17 1017 16 10000 1.71 58 10:57 28.10.2021
5697 Clear 16 1018 17 10000 1.08 62 09:39 28.10.2021
5698 Clear 15 1019 19 10000 0.6 76 08:59 28.10.2021
5699 Clear 15 1019 19 10000 0.6 76 08:34 28.10.2021
5700 Clear 14 1020 21 10000 0.47 153 07:40 28.10.2021
5701 Clear 8 1020 32 10000 0.84 284 00:20 28.10.2021
5702 Clear 8 1020 32 10000 0.86 290 22:31 27.10.2021
5703 Clear 9 1020 32 10000 0.83 302 21:33 27.10.2021
5704 Clear 9 1020 32 10000 0.8 321 20:53 27.10.2021
5705 Clear 9 1020 32 10000 0.8 321 20:33 27.10.2021
5706 Clear 10 1020 30 10000 0.92 348 19:41 27.10.2021
5707 Clear 10 1020 29 10000 0.98 357 18:53 27.10.2021
5708 Clear 12 1019 27 10000 1.61 10 16:32 27.10.2021
5709 Clear 12 1019 27 10000 1.61 10 15:34 27.10.2021
5710 Clear 13 1018 26 10000 1.87 26 14:42 27.10.2021
5711 Clear 16 1017 19 10000 1.59 53 12:33 27.10.2021
5712 Clear 15 1018 20 10000 0.73 72 10:58 27.10.2021
5713 Clear 15 1020 23 10000 0.38 81 09:51 27.10.2021
5714 Clear 14 1021 26 10000 0.21 119 08:36 27.10.2021
5715 Clear 13 1022 29 10000 0.72 201 07:31 27.10.2021
5716 Clear 6 1023 55 10000 0.97 257 02:30 27.10.2021
5717 Clear 6 1022 55 10000 0.98 245 00:57 27.10.2021
5718 Clear 7 1022 55 10000 0.94 254 00:28 27.10.2021
5719 Clear 7 1022 55 10000 0.94 254 00:28 27.10.2021
5720 Clear 7 1022 55 10000 0.94 254 23:41 26.10.2021
5721 Clear 7 1022 55 10000 0.92 270 22:38 26.10.2021
5722 Clear 7 1022 55 10000 0.74 285 21:59 26.10.2021
5723 Clear 8 1022 55 10000 0.85 301 20:40 26.10.2021
5724 Clouds 8 1022 53 10000 0.92 322 19:30 26.10.2021
5725 Clouds 8 1022 53 10000 0.92 322 19:30 26.10.2021
5726 Clouds 9 1022 52 10000 0.73 335 18:41 26.10.2021
5727 Clouds 10 1021 50 10000 0.62 272 16:42 26.10.2021
5728 Clouds 10 1020 55 10000 2.23 211 14:56 26.10.2021
5729 Clouds 14 1016 37 10000 5.74 325 11:39 26.10.2021
5730 Clouds 14 1016 29 10000 1.36 45 10:20 26.10.2021
5731 Clouds 12 1018 36 10000 0.41 32 07:25 26.10.2021
5732 Clouds 12 1018 36 10000 0.41 32 06:40 26.10.2021
5733 Clouds 9 1017 49 10000 0.72 326 23:51 25.10.2021
5734 Clouds 9 1017 49 10000 0.84 331 22:54 25.10.2021
5735 Clouds 9 1018 49 10000 0.79 7 22:19 25.10.2021
5736 Clouds 9 1018 49 10000 0.79 7 21:39 25.10.2021
5737 Clear 10 1019 46 10000 0.93 13 19:53 25.10.2021
5738 Clear 11 1019 45 10000 1.11 15 19:25 25.10.2021
5739 Clear 11 1019 45 10000 1.11 15 18:59 25.10.2021
5740 Clear 11 1019 44 10000 1 20 18:19 25.10.2021
5741 Clear 12 1019 40 10000 1.48 34 16:18 25.10.2021
5742 Clear 14 1017 34 10000 1.91 55 14:28 25.10.2021
5743 Clear 14 1018 35 10000 1.33 48 12:29 25.10.2021
5744 Clear 13 1020 40 10000 0.98 59 10:20 25.10.2021
5745 Clear 12 1021 43 10000 0.66 66 08:34 25.10.2021
5746 Clear 9 1023 62 10000 0.55 16 06:24 25.10.2021
5747 Clear 7 1021 75 10000 0.68 359 00:58 25.10.2021
5748 Clear 7 1021 75 10000 0.68 359 00:37 25.10.2021
5749 Clear 7 1021 75 10000 0.93 26 23:47 24.10.2021
5750 Clear 8 1022 74 10000 0.99 29 22:44 24.10.2021
5751 Clear 8 1022 73 10000 1.16 16 22:21 24.10.2021
5752 Clear 8 1022 73 10000 1.16 16 21:41 24.10.2021
5753 Clear 8 1022 71 10000 1.62 21 20:45 24.10.2021
5754 Clear 9 1021 67 10000 1.74 34 20:23 24.10.2021
5755 Clear 9 1021 64 10000 1.92 43 18:52 24.10.2021
5756 Clear 10 1021 59 10000 1.69 43 17:55 24.10.2021
5757 Clear 11 1020 55 10000 1.74 59 16:49 24.10.2021
5758 Clear 12 1018 46 10000 2.79 84 15:28 24.10.2021
5759 Clear 14 1017 35 10000 4.18 91 13:49 24.10.2021
5760 Clear 15 1016 28 10000 3.95 89 12:41 24.10.2021
5761 Clear 15 1016 25 10000 3.33 76 11:37 24.10.2021
5762 Clear 15 1017 24 10000 2.33 47 10:43 24.10.2021
5763 Clear 14 1018 25 10000 1.95 43 09:38 24.10.2021
5764 Clear 5 1021 26 10000 0.39 23 03:36 24.10.2021
5765 Clear 7 1019 22 10000 1.76 354 00:19 24.10.2021
5766 Clear 7 1019 21 10000 1.71 358 22:55 23.10.2021
5767 Clear 8 1018 20 10000 1.51 353 21:21 23.10.2021
5768 Clear 9 1018 20 10000 1.47 353 19:37 23.10.2021
5769 Clear 9 1017 19 10000 1.55 347 18:45 23.10.2021
5770 Clear 10 1017 18 10000 1.64 343 17:48 23.10.2021
5771 Clear 11 1016 17 10000 2.04 359 17:26 23.10.2021
5772 Clear 12 1015 15 10000 2.69 1 15:58 23.10.2021
5773 Clear 16 1013 12 10000 1.74 32 13:47 23.10.2021
5774 Clear 5 1018 36 10000 1.01 213 02:20 23.10.2021
5775 Clear 5 1019 37 10000 0.77 215 23:41 22.10.2021
5776 Clear 6 1020 37 10000 0.91 323 21:39 22.10.2021
5777 Clear 7 1021 35 10000 0.7 338 19:43 22.10.2021
5778 Clear 8 1020 34 10000 1.04 42 18:27 22.10.2021
5779 Clear 9 1019 33 10000 1.71 39 16:44 22.10.2021
5780 Clear 12 1017 25 10000 3.41 23 14:45 22.10.2021
5781 Clouds 16 1013 18 10000 8.4 17 12:45 22.10.2021
5782 Clouds 17 1013 21 10000 7.25 26 10:57 22.10.2021
5783 Clouds 16 1015 25 10000 5.31 27 10:33 22.10.2021
5784 Clouds 16 1015 25 10000 5.31 27 09:35 22.10.2021
5785 Clouds 13 1017 41 10000 2.11 50 07:40 22.10.2021
5786 Clouds 12 1017 45 10000 2.5 35 07:21 22.10.2021
5787 Clouds 12 1017 45 10000 2.5 35 07:21 22.10.2021
5788 Clear 11 1013 35 10000 1.27 342 01:41 22.10.2021
5789 Clear 12 1013 30 10000 1.19 340 23:50 21.10.2021
5790 Clear 12 1013 29 10000 0.75 336 22:43 21.10.2021
5791 Clear 13 1014 28 10000 1.06 338 21:38 21.10.2021
5792 Clouds 15 1014 26 10000 2.01 351 20:24 21.10.2021
5793 Clouds 15 1014 26 10000 2.01 351 19:55 21.10.2021
5794 Clouds 16 1012 27 10000 1.98 25 19:25 21.10.2021
5795 Clouds 16 1012 27 10000 1.98 25 18:33 21.10.2021
5796 Clouds 17 1012 24 10000 1.94 22 17:51 21.10.2021
5797 Clouds 18 1011 20 10000 2.07 28 16:47 21.10.2021
5798 Clouds 19 1010 18 10000 2 6 15:29 21.10.2021
5799 Clouds 19 1010 18 10000 2 6 14:56 21.10.2021
5800 Clouds 19 1010 18 10000 2 6 14:37 21.10.2021
5801 Clear 24 1008 9 10000 1.76 83 11:56 21.10.2021
5802 Clear 22 1011 10 10000 2.06 155 09:39 21.10.2021
5803 Clear 20 1015 11 10000 1.06 189 07:54 21.10.2021
5804 Clear 19 1016 12 10000 1.19 202 06:45 21.10.2021
5805 Clear 12 1015 21 10000 0.61 240 00:39 21.10.2021
5806 Clear 14 1015 18 10000 1.09 31 22:29 20.10.2021
5807 Clear 14 1015 18 10000 1.09 31 21:48 20.10.2021
5808 Clear 14 1015 18 10000 0.95 39 20:58 20.10.2021
5809 Clear 14 1015 18 10000 0.95 39 20:39 20.10.2021
5810 Clear 15 1015 17 10000 1.03 53 20:18 20.10.2021
5811 Clear 15 1015 16 10000 0.82 51 19:23 20.10.2021
5812 Clear 16 1015 15 10000 1.22 69 18:29 20.10.2021
5813 Clear 16 1014 14 10000 0.8 39 16:37 20.10.2021
5814 Clear 22 1011 9 10000 2.05 52 13:54 20.10.2021
5815 Clear 22 1014 9 10000 2.1 176 09:54 20.10.2021
5816 Clear 17 1018 11 10000 1.78 200 05:34 20.10.2021
5817 Clear 11 1017 13 10000 1.65 215 02:35 20.10.2021
5818 Clear 12 1016 11 10000 1.66 212 00:33 20.10.2021
5819 Clear 12 1016 13 10000 1.17 211 22:37 19.10.2021
5820 Clear 12 1015 13 10000 0.96 233 21:37 19.10.2021
5821 Clear 13 1015 13 10000 0.45 276 20:26 19.10.2021
5822 Clear 13 1015 13 10000 0.45 276 19:59 19.10.2021
5823 Clear 13 1015 12 10000 0.51 272 19:36 19.10.2021
5824 Clear 14 1015 12 10000 0.51 330 18:40 19.10.2021
5825 Clear 14 1014 12 10000 0.83 349 17:47 19.10.2021
5826 Clear 17 1011 8 10000 1.31 30 15:29 19.10.2021
5827 Clear 17 1011 8 10000 1.31 30 14:37 19.10.2021
5828 Clear 21 1010 8 10000 1.11 166 13:52 19.10.2021
5829 Clear 22 1010 6 10000 2.32 161 12:23 19.10.2021
5830 Clear 22 1010 6 10000 2.36 159 11:24 19.10.2021
5831 Clear 21 1011 8 10000 2.29 171 09:55 19.10.2021
5832 Clear 20 1013 9 10000 2 182 08:56 19.10.2021
5833 Clear 11 1014 20 10000 2.04 200 02:18 19.10.2021
5834 Clear 12 1013 22 10000 1.69 200 23:59 18.10.2021
5835 Clear 12 1013 22 10000 1.69 200 23:40 18.10.2021
5836 Clear 13 1013 22 10000 1.62 199 22:56 18.10.2021
5837 Clear 13 1013 22 10000 1.58 196 22:18 18.10.2021
5838 Clear 14 1012 23 10000 1.49 199 20:50 18.10.2021
5839 Clear 14 1012 20 10000 1.86 207 20:30 18.10.2021
5840 Clear 15 1012 21 10000 1.78 206 19:32 18.10.2021
5841 Clear 15 1011 22 10000 1.3 204 18:59 18.10.2021
5842 Clear 16 1010 25 10000 0.73 351 16:48 18.10.2021
5843 Clear 18 1008 20 10000 0.96 14 14:47 18.10.2021
5844 Clear 21 1007 18 10000 1.64 101 12:20 18.10.2021
5845 Clear 20 1010 24 10000 1.22 127 10:22 18.10.2021
5846 Clear 19 1011 29 10000 0.9 143 09:25 18.10.2021
5847 Clear 12 1012 44 10000 0.4 247 01:23 18.10.2021
5848 Clear 13 1013 41 10000 0.96 311 22:56 17.10.2021
5849 Clear 14 1013 40 10000 1 327 21:45 17.10.2021
5850 Clear 14 1013 37 10000 1.42 17 20:57 17.10.2021
5851 Clear 15 1013 36 10000 1.36 15 20:26 17.10.2021
5852 Clear 15 1013 36 10000 1.36 15 19:38 17.10.2021
5853 Clear 15 1013 34 10000 1.58 22 18:35 17.10.2021
5854 Clear 17 1012 30 10000 1.93 11 16:49 17.10.2021
5855 Clear 18 1011 26 10000 3.08 81 14:40 17.10.2021
5856 Clouds 20 1010 22 10000 6.09 97 14:22 17.10.2021
5857 Clouds 20 1010 22 10000 6.09 97 13:33 17.10.2021
5858 Clouds 22 1010 21 10000 7.75 89 11:54 17.10.2021
5859 Clear 22 1011 22 10000 5.24 82 10:19 17.10.2021
5860 Clear 21 1013 24 10000 3.42 71 09:22 17.10.2021
5861 Clear 18 1015 26 10000 1.17 37 06:52 17.10.2021
5862 Clear 13 1013 41 10000 1.49 324 00:49 17.10.2021
5863 Clear 13 1013 38 10000 0.73 11 23:33 16.10.2021
5864 Clear 15 1014 29 10000 1.95 3 21:28 16.10.2021
5865 Clear 15 1014 29 10000 1.95 3 20:30 16.10.2021
5866 Clear 16 1014 27 10000 2.08 6 19:42 16.10.2021
5867 Clear 16 1014 25 10000 2.2 8 19:20 16.10.2021
5868 Clear 16 1014 25 10000 2.2 8 18:45 16.10.2021
5869 Clear 17 1013 24 10000 2.51 9 18:26 16.10.2021
5870 Clear 17 1013 24 10000 2.51 9 17:52 16.10.2021
5871 Clear 17 1013 22 10000 3.05 8 17:21 16.10.2021
5872 Clear 20 1010 13 10000 5.36 72 13:54 16.10.2021
5873 Clear 22 1010 9 10000 4.32 68 11:26 16.10.2021
5874 Clear 22 1011 8 10000 3.05 61 09:45 16.10.2021
5875 Clear 18 1014 9 10000 0.75 35 06:48 16.10.2021
5876 Clear 10 1012 16 10000 0.24 196 01:24 16.10.2021
5877 Clear 11 1013 16 10000 0.51 302 23:27 15.10.2021
5878 Clear 12 1013 16 10000 0.81 315 22:22 15.10.2021
5879 Clear 12 1013 16 10000 0.81 315 21:50 15.10.2021
5880 Clear 12 1013 15 10000 0.83 332 21:20 15.10.2021
5881 Clear 12 1013 15 10000 0.83 332 20:44 15.10.2021
5882 Clear 14 1012 13 10000 1.53 350 19:21 15.10.2021
5883 Clear 14 1012 13 10000 1.53 350 18:38 15.10.2021
5884 Clear 18 1011 10 10000 2.45 360 16:26 15.10.2021
5885 Clear 18 1009 9 10000 1.73 354 15:22 15.10.2021
5886 Clear 23 1009 6 10000 1.45 70 12:28 15.10.2021
5887 Clear 23 1009 6 10000 1.45 70 12:28 15.10.2021
5888 Clear 22 1010 6 10000 1.32 79 11:20 15.10.2021
5889 Clear 22 1010 6 10000 1.32 79 10:42 15.10.2021
5890 Clear 21 1013 6 10000 1.14 112 08:57 15.10.2021
5891 Clear 16 1016 7 10000 0.51 200 05:31 15.10.2021
5892 Clear 11 1015 11 10000 0.93 324 00:38 15.10.2021
5893 Clear 11 1015 11 10000 0.91 317 23:45 14.10.2021
5894 Clear 12 1015 11 10000 0.76 321 22:44 14.10.2021
5895 Clear 12 1015 11 10000 0.77 327 21:41 14.10.2021
5896 Clear 14 1015 11 10000 1.21 335 20:22 14.10.2021
5897 Clear 14 1015 11 10000 1.21 335 19:50 14.10.2021
5898 Clear 14 1015 10 10000 1.49 343 18:50 14.10.2021
5899 Clear 16 1014 9 10000 1.78 1 17:25 14.10.2021
5900 Clear 16 1014 9 10000 1.78 1 16:46 14.10.2021
5901 Clear 18 1012 8 10000 1.73 2 15:22 14.10.2021
5902 Clear 18 1012 8 10000 1.73 2 14:40 14.10.2021
5903 Clear 21 1012 11 10000 0.82 35 13:35 14.10.2021
5904 Clear 22 1012 6 10000 1.34 91 11:40 14.10.2021
5905 Clear 21 1014 7 10000 1.36 125 09:33 14.10.2021
5906 Clear 16 1017 8 10000 0.76 210 06:27 14.10.2021
5907 Clear 11 1015 14 10000 0.51 223 00:52 14.10.2021
5908 Clear 12 1015 14 10000 0.59 278 22:47 13.10.2021
5909 Clear 13 1015 13 10000 0.91 291 21:37 13.10.2021
5910 Clear 13 1015 14 10000 0.25 282 20:46 13.10.2021
5911 Clear 14 1015 13 10000 0.97 295 19:46 13.10.2021
5912 Clear 14 1015 13 10000 0.99 318 18:49 13.10.2021
5913 Clear 14 1015 13 10000 0.99 318 18:49 13.10.2021
5914 Clear 15 1014 13 10000 1.11 305 17:35 13.10.2021
5915 Clear 17 1013 10 10000 1.89 13 15:21 13.10.2021
5916 Clear 17 1013 10 10000 1.89 13 14:43 13.10.2021
5917 Clear 21 1011 4 10000 1.12 90 12:48 13.10.2021
5918 Clear 21 1012 4 10000 1.32 99 11:51 13.10.2021
5919 Clear 20 1013 5 10000 1.09 123 10:21 13.10.2021
5920 Clear 18 1016 5 10000 0.66 173 07:54 13.10.2021
5921 Clear 15 1017 6 10000 0.64 202 05:40 13.10.2021
5922 Clear 9 1016 11 10000 0.18 223 02:23 13.10.2021
5923 Clear 10 1015 10 10000 0.63 309 23:51 12.10.2021
5924 Clear 11 1015 10 10000 0.59 319 23:27 12.10.2021
5925 Clear 11 1015 10 10000 0.59 319 22:41 12.10.2021
5926 Clear 12 1015 10 10000 0.93 327 20:55 12.10.2021
5927 Clear 12 1015 10 10000 0.93 327 20:31 12.10.2021
5928 Clear 13 1015 9 10000 1.04 333 19:50 12.10.2021
5929 Clear 14 1015 9 10000 1.04 331 18:26 12.10.2021
5930 Clear 14 1015 9 10000 1.04 331 17:35 12.10.2021
5931 Clear 16 1014 7 10000 1.58 359 16:24 12.10.2021
5932 Clear 16 1014 7 10000 1.58 359 15:35 12.10.2021
5933 Clear 19 1012 5 10000 1.42 49 14:20 12.10.2021
5934 Clear 19 1012 5 10000 1.42 49 13:41 12.10.2021
5935 Clear 20 1012 4 10000 1.91 65 11:36 12.10.2021
5936 Clear 19 1014 5 10000 1.53 64 09:41 12.10.2021
5937 Clear 18 1016 6 10000 1.17 67 08:31 12.10.2021
5938 Clear 15 1018 9 10000 0.24 75 06:46 12.10.2021
5939 Clear 11 1019 11 10000 0.36 227 04:52 12.10.2021
5940 Clear 8 1018 15 10000 0.54 207 04:28 12.10.2021
5941 Clear 9 1016 16 10000 0.46 354 23:57 11.10.2021
5942 Clear 9 1016 16 10000 0.46 354 23:36 11.10.2021
5943 Clear 9 1016 16 10000 0.69 337 22:52 11.10.2021
5944 Clear 10 1016 15 10000 0.94 318 21:27 11.10.2021
5945 Clear 11 1016 15 10000 0.93 323 20:28 11.10.2021
5946 Clear 11 1016 15 10000 0.93 323 19:35 11.10.2021
5947 Clear 13 1015 12 10000 1.84 4 18:23 11.10.2021
5948 Clear 14 1014 9 10000 2.69 359 16:41 11.10.2021
5949 Clear 15 1013 8 10000 1.83 354 16:21 11.10.2021
5950 Clear 15 1013 8 10000 1.83 354 15:44 11.10.2021
5951 Clear 16 1012 8 10000 1.12 15 14:54 11.10.2021
5952 Clear 19 1011 6 10000 1.23 45 14:19 11.10.2021
5953 Clear 19 1011 6 10000 1.23 45 13:35 11.10.2021
5954 Clear 19 1012 8 10000 1.22 70 11:18 11.10.2021
5955 Clear 18 1013 10 10000 1 72 09:47 11.10.2021
5956 Clear 17 1014 13 10000 0.76 81 08:31 11.10.2021
5957 Clear 9 1015 30 10000 0.74 329 01:45 11.10.2021
5958 Clear 9 1015 29 10000 0.58 338 00:58 11.10.2021
5959 Clear 9 1015 29 10000 0.56 339 00:39 11.10.2021
5960 Clear 10 1015 29 10000 0.71 326 22:41 10.10.2021
5961 Clear 10 1016 29 10000 0.81 322 21:49 10.10.2021
5962 Clear 11 1015 28 10000 0.68 344 21:19 10.10.2021
5963 Clear 11 1015 28 10000 0.68 344 20:39 10.10.2021
5964 Clear 12 1015 26 10000 0.94 354 20:19 10.10.2021
5965 Clear 12 1015 26 10000 0.94 354 19:41 10.10.2021
5966 Clear 12 1015 26 10000 1.37 345 18:57 10.10.2021
5967 Clear 13 1014 25 10000 1.67 348 18:19 10.10.2021
5968 Clear 16 1011 26 10000 3.23 346 15:48 10.10.2021
5969 Clear 17 1009 28 10000 3.82 8 14:45 10.10.2021
5970 Clouds 19 1008 27 10000 6.39 19 13:40 10.10.2021
5971 Clouds 22 1006 24 10000 6.95 32 12:43 10.10.2021
5972 Clear 23 1005 16 10000 3.6 51 11:31 10.10.2021
5973 Clear 22 1008 20 10000 2.05 116 10:26 10.10.2021
5974 Clear 20 1009 25 10000 1.15 131 09:19 10.10.2021
5975 Clear 20 1009 25 10000 1.15 131 08:50 10.10.2021
5976 Clear 16 1012 33 10000 0.63 301 04:50 10.10.2021
5977 Clear 14 1011 39 10000 1.06 29 02:19 10.10.2021
5978 Clear 15 1010 36 10000 1 19 00:47 10.10.2021
5979 Clear 16 1010 33 10000 1.08 5 23:26 09.10.2021
5980 Clear 16 1011 32 10000 1.41 34 21:55 09.10.2021
5981 Clear 16 1011 32 10000 1.41 34 21:30 09.10.2021
5982 Clouds 17 1011 27 10000 1.47 27 20:19 09.10.2021
5983 Clouds 17 1011 27 10000 1.5 26 19:41 09.10.2021
5984 Clouds 18 1010 25 10000 1.65 18 18:48 09.10.2021
5985 Clouds 19 1010 24 10000 2.31 36 17:57 09.10.2021
5986 Clouds 20 1009 21 10000 1.99 60 16:20 09.10.2021
5987 Clear 24 1007 14 10000 3.9 56 14:28 09.10.2021
5988 Clear 24 1007 11 10000 2.87 84 13:38 09.10.2021
5989 Clear 25 1008 10 10000 2.17 148 12:27 09.10.2021
5990 Clear 24 1008 10 10000 2.1 167 10:45 09.10.2021
5991 Clear 23 1010 11 10000 1.88 167 10:19 09.10.2021
5992 Clear 23 1010 11 10000 1.88 167 10:19 09.10.2021
5993 Clear 22 1011 12 10000 1.33 162 08:45 09.10.2021
5994 Clear 21 1012 13 10000 0.87 164 08:20 09.10.2021
5995 Clear 20 1013 15 10000 0.71 180 06:37 09.10.2021
5996 Clear 17 1014 19 10000 0.59 238 04:43 09.10.2021
5997 Clear 13 1013 25 10000 0.27 317 02:46 09.10.2021
5998 Clear 14 1012 25 10000 0.39 189 00:24 09.10.2021
5999 Clear 14 1012 25 10000 0.39 189 23:31 08.10.2021
6000 Clear 15 1013 24 10000 0.81 308 22:46 08.10.2021
6001 Clear 15 1013 24 10000 0.66 322 21:44 08.10.2021
6002 Clear 16 1013 24 10000 0.79 350 19:49 08.10.2021
6003 Clear 18 1013 21 10000 1.74 2 18:23 08.10.2021
6004 Clear 19 1012 19 10000 1.85 355 16:55 08.10.2021
6005 Clear 20 1010 18 10000 1.66 350 16:24 08.10.2021
6006 Clear 21 1009 16 10000 2.35 21 14:57 08.10.2021
6007 Clear 23 1009 11 10000 5.87 31 13:46 08.10.2021
6008 Clear 25 1008 9 10000 2.16 43 11:42 08.10.2021
6009 Clear 25 1008 9 10000 1.57 72 10:42 08.10.2021
6010 Clear 24 1009 10 10000 1.37 75 09:47 08.10.2021
6011 Clear 14 1013 23 10000 0.76 292 03:38 08.10.2021
6012 Clear 15 1012 22 10000 0.83 319 23:25 07.10.2021
6013 Clear 15 1012 22 10000 0.83 319 22:35 07.10.2021
6014 Clear 17 1012 20 10000 1.19 343 21:28 07.10.2021
6015 Clear 17 1012 20 10000 1.1 341 20:39 07.10.2021
6016 Clear 17 1012 19 10000 0.83 359 19:32 07.10.2021
6017 Clear 18 1012 18 10000 0.85 27 18:41 07.10.2021
6018 Clear 19 1012 18 10000 0.78 20 17:32 07.10.2021
6019 Clear 21 1011 15 10000 2.67 348 16:25 07.10.2021
6020 Clear 23 1010 12 10000 4.77 360 14:48 07.10.2021
6021 Clear 26 1008 8 10000 2.52 6 13:43 07.10.2021
6022 Clear 26 1008 8 10000 0.62 116 12:53 07.10.2021
6023 Clear 26 1009 8 10000 1.6 158 10:58 07.10.2021
6024 Clear 25 1010 8 10000 1.52 163 10:22 07.10.2021
6025 Clear 25 1010 8 10000 1.52 163 09:42 07.10.2021
6026 Clear 24 1012 10 10000 1.28 177 08:53 07.10.2021
6027 Clear 23 1013 10 10000 1.2 193 07:58 07.10.2021
6028 Clear 23 1013 10 10000 1.2 193 07:38 07.10.2021
6029 Clear 21 1014 11 10000 1.12 203 06:36 07.10.2021
6030 Clear 16 1013 20 10000 0.5 255 00:29 07.10.2021
6031 Clear 16 1014 20 10000 0.42 298 22:59 06.10.2021
6032 Clear 16 1014 20 10000 0.83 315 22:24 06.10.2021
6033 Clear 17 1014 21 10000 0.92 321 21:24 06.10.2021
6034 Clear 18 1014 21 10000 0.98 339 20:28 06.10.2021
6035 Clear 19 1014 22 10000 1.64 358 18:43 06.10.2021
6036 Clear 21 1012 22 10000 2.01 353 17:19 06.10.2021
6037 Clear 22 1011 21 10000 1.76 354 15:34 06.10.2021
6038 Clear 23 1010 19 10000 1.6 20 14:34 06.10.2021
6039 Clear 25 1010 16 10000 1.81 77 13:24 06.10.2021
6040 Clear 25 1010 16 10000 1.81 77 12:46 06.10.2021
6041 Clear 25 1010 17 10000 1.71 103 12:24 06.10.2021
6042 Clear 24 1011 19 10000 1.52 113 10:37 06.10.2021
6043 Clear 24 1012 22 10000 1.28 128 09:39 06.10.2021
6044 Clear 23 1014 28 10000 0.96 146 08:57 06.10.2021
6045 Clear 22 1015 32 10000 1.25 179 07:54 06.10.2021
6046 Clear 19 1016 50 10000 1.41 200 05:38 06.10.2021
6047 Clear 16 1015 64 10000 0.85 235 01:37 06.10.2021
6048 Clear 16 1015 64 10000 0.42 256 00:20 06.10.2021
6049 Clear 16 1015 64 10000 0.42 256 23:50 05.10.2021
6050 Clear 17 1015 63 10000 0.47 326 23:29 05.10.2021
6051 Clear 17 1015 63 10000 0.47 326 23:29 05.10.2021
6052 Clear 17 1015 63 10000 0.47 326 22:30 05.10.2021
6053 Clear 17 1015 63 10000 0.77 352 21:56 05.10.2021
6054 Clear 17 1015 63 10000 0.77 352 21:56 05.10.2021
6055 Clear 17 1015 62 10000 0.91 23 21:19 05.10.2021
6056 Clear 18 1015 59 10000 1.1 25 20:26 05.10.2021
6057 Clear 18 1015 59 10000 1.1 25 19:50 05.10.2021
6058 Clear 18 1015 57 10000 1.16 35 19:22 05.10.2021
6059 Clear 19 1015 54 10000 1.28 51 17:40 05.10.2021
6060 Clear 21 1012 39 10000 3.28 55 15:28 05.10.2021
6061 Clear 24 1010 17 10000 2.48 65 13:49 05.10.2021
6062 Clear 24 1010 15 10000 1.7 75 13:18 05.10.2021
6063 Clear 24 1010 15 10000 1.7 75 12:33 05.10.2021
6064 Clear 24 1011 15 10000 1.25 69 11:41 05.10.2021
6065 Clear 24 1012 16 10000 0.83 60 10:34 05.10.2021
6066 Clear 20 1015 20 10000 0.31 46 06:59 05.10.2021
6067 Clear 15 1012 26 10000 0.63 344 00:58 05.10.2021
6068 Clear 16 1012 24 10000 0.92 5 22:51 04.10.2021
6069 Clear 17 1011 22 10000 1.41 12 20:51 04.10.2021
6070 Clear 19 1010 21 10000 1.56 36 18:48 04.10.2021
6071 Clear 20 1009 17 10000 1.83 30 16:55 04.10.2021
6072 Clear 21 1008 16 10000 1.91 17 15:32 04.10.2021
6073 Clear 22 1007 15 10000 2.45 49 14:44 04.10.2021
6074 Clear 24 1006 11 10000 2.88 56 13:58 04.10.2021
6075 Clear 24 1006 11 10000 2.88 56 13:31 04.10.2021
6076 Clear 25 1006 11 10000 2.34 61 12:38 04.10.2021
6077 Clear 24 1007 11 10000 1.97 72 11:33 04.10.2021
6078 Clear 24 1007 13 10000 1.76 82 10:44 04.10.2021
6079 Clear 23 1009 14 10000 1.46 81 09:33 04.10.2021
6080 Clear 20 1012 17 10000 0.82 78 07:53 04.10.2021
6081 Clear 13 1013 29 10000 0.45 265 03:44 04.10.2021
6082 Clear 14 1012 28 10000 0.8 339 22:48 03.10.2021
6083 Clear 15 1012 28 10000 0.88 332 21:52 03.10.2021
6084 Clear 15 1012 28 10000 0.88 332 21:52 03.10.2021
6085 Clear 15 1013 27 10000 1.07 336 21:29 03.10.2021
6086 Clear 15 1013 27 10000 1.07 336 20:44 03.10.2021
6087 Clear 16 1012 26 10000 1.13 352 19:42 03.10.2021
6088 Clear 18 1011 24 10000 1.79 358 18:29 03.10.2021
6089 Clear 18 1011 24 10000 1.79 358 17:36 03.10.2021
6090 Clear 22 1008 18 10000 4.64 6 14:50 03.10.2021
6091 Clear 25 1006 15 10000 3.49 22 14:29 03.10.2021
6092 Clear 25 1006 15 10000 3.49 22 13:35 03.10.2021
6093 Clear 26 1005 16 10000 2.11 48 12:44 03.10.2021
6094 Clear 25 1007 18 10000 1.47 98 10:58 03.10.2021
6095 Clear 24 1008 20 10000 1.24 106 09:42 03.10.2021
6096 Clear 17 1013 33 10000 0.48 351 05:25 03.10.2021
6097 Clear 16 1013 36 10000 0.88 314 22:49 02.10.2021
6098 Clear 17 1013 35 10000 1.04 331 21:49 02.10.2021
6099 Clear 18 1013 31 10000 1.4 349 20:18 02.10.2021
6100 Clear 18 1013 31 10000 1.4 349 20:18 02.10.2021
6101 Clear 19 1012 29 10000 1.62 351 18:56 02.10.2021
6102 Clear 19 1012 29 10000 1.62 351 18:56 02.10.2021
6103 Clear 20 1012 28 10000 1.92 356 18:18 02.10.2021
6104 Clear 20 1012 28 10000 1.92 356 17:36 02.10.2021
6105 Clear 22 1009 26 10000 3.24 2 16:22 02.10.2021
6106 Clear 22 1012 34 10000 0.65 46 06:47 02.10.2021
6107 Clear 24 1010 48 10000 2.64 68 15:37 30.09.2021
6108 Clear 27 1008 34 10000 4.88 71 13:54 30.09.2021
6109 Clear 28 1008 29 10000 3.28 72 11:53 30.09.2021
6110 Clear 28 1009 31 10000 2.69 77 10:52 30.09.2021
6111 Clear 27 1011 34 10000 2.16 76 10:20 30.09.2021
6112 Clear 26 1012 37 10000 1.63 78 08:30 30.09.2021
6113 Clear 25 1013 41 10000 1.2 80 07:34 30.09.2021
6114 Clear 21 1015 55 10000 0.24 345 05:23 30.09.2021
6115 Clear 18 1014 65 10000 0.74 15 01:36 30.09.2021
6116 Clear 19 1014 66 10000 1.1 313 00:23 30.09.2021
6117 Clear 20 1013 66 10000 1.34 1 22:38 29.09.2021
6118 Clear 21 1013 64 10000 1.21 34 21:27 29.09.2021
6119 Clear 21 1013 59 10000 1.63 39 20:28 29.09.2021
6120 Clear 21 1013 59 10000 1.63 39 19:54 29.09.2021
6121 Clear 22 1012 56 10000 1.98 38 18:50 29.09.2021
6122 Clear 23 1012 54 10000 1.82 35 17:41 29.09.2021
6123 Clear 23 1011 52 10000 1.6 45 16:48 29.09.2021
6124 Clear 24 1011 49 10000 2.48 67 15:58 29.09.2021
6125 Clear 26 1010 42 10000 5.02 64 14:39 29.09.2021
6126 Clear 28 1008 31 10000 4.72 60 13:58 29.09.2021
6127 Clear 28 1008 28 10000 3.48 64 13:18 29.09.2021
6128 Clear 28 1008 28 10000 2.76 69 12:19 29.09.2021
6129 Clear 28 1009 30 10000 2.26 73 10:49 29.09.2021
6130 Clear 27 1011 35 10000 1.82 69 09:51 29.09.2021
6131 Clear 26 1012 40 10000 1.52 64 09:24 29.09.2021
6132 Clear 25 1013 45 10000 1.43 66 07:32 29.09.2021
6133 Clear 19 1014 66 10000 0.48 352 03:58 29.09.2021
6134 Clear 19 1013 67 10000 0.42 356 23:26 28.09.2021
6135 Clear 20 1012 65 10000 0.7 27 22:23 28.09.2021
6136 Clear 20 1012 65 10000 0.7 27 21:44 28.09.2021
6137 Clear 21 1012 62 10000 1.24 40 20:38 28.09.2021
6138 Clear 21 1012 57 10000 1.31 40 19:46 28.09.2021
6139 Clear 22 1012 53 10000 1.47 39 18:46 28.09.2021
6140 Clear 22 1011 49 10000 1.62 46 17:59 28.09.2021
6141 Clear 24 1009 38 10000 2.61 47 16:23 28.09.2021
6142 Clear 27 1008 30 10000 2.45 59 13:49 28.09.2021
6143 Clear 27 1008 28 10000 2.14 63 12:48 28.09.2021
6144 Clear 27 1009 28 10000 1.82 68 12:19 28.09.2021
6145 Clear 27 1009 28 10000 1.82 68 11:45 28.09.2021
6146 Clear 26 1010 30 10000 1.49 73 10:58 28.09.2021
6147 Clear 25 1011 34 10000 1.24 78 09:53 28.09.2021
6148 Clear 24 1012 39 10000 1.05 78 08:58 28.09.2021
6149 Clear 24 1012 39 10000 1.05 78 08:38 28.09.2021
6150 Clear 23 1013 45 10000 1.07 70 07:31 28.09.2021
6151 Clear 20 1015 37 10000 0.7 341 05:28 28.09.2021
6152 Clear 18 1012 48 10000 0.67 358 01:23 28.09.2021
6153 Clear 18 1012 48 10000 0.99 345 00:25 28.09.2021
6154 Clear 18 1012 48 10000 0.99 345 23:41 27.09.2021
6155 Clear 18 1012 50 10000 1.07 359 22:55 27.09.2021
6156 Clear 19 1012 49 10000 1.38 14 21:44 27.09.2021
6157 Clear 20 1012 47 10000 1.54 20 20:44 27.09.2021
6158 Clear 20 1011 42 10000 1.55 30 19:55 27.09.2021
6159 Clear 21 1011 37 10000 1.48 32 19:27 27.09.2021
6160 Clear 21 1011 37 10000 1.48 32 18:49 27.09.2021
6161 Clear 22 1010 24 10000 1.63 26 17:29 27.09.2021
6162 Clear 22 1010 24 10000 1.63 26 16:49 27.09.2021
6163 Clear 23 1009 20 10000 1.82 18 15:44 27.09.2021
6164 Clear 24 1008 20 10000 1.33 31 15:18 27.09.2021
6165 Clear 27 1007 10 10000 1.07 45 13:32 27.09.2021
6166 Clear 27 1008 10 10000 1.09 57 11:31 27.09.2021
6167 Clear 27 1009 11 10000 1.21 35 10:32 27.09.2021
6168 Clear 25 1012 16 10000 1.27 28 08:50 27.09.2021
6169 Clear 20 1015 29 10000 1.46 357 05:22 27.09.2021
6170 Clear 17 1013 44 10000 1.55 359 03:18 27.09.2021
6171 Clear 19 1011 49 10000 1.38 26 22:33 26.09.2021
6172 Clear 20 1010 47 10000 1.37 40 21:50 26.09.2021
6173 Clear 20 1010 45 10000 1.49 38 21:25 26.09.2021
6174 Clear 21 1010 43 10000 1.44 38 20:21 26.09.2021
6175 Clear 21 1010 43 10000 1.44 38 19:48 26.09.2021
6176 Clear 22 1010 40 10000 1.37 42 18:46 26.09.2021
6177 Clear 22 1009 36 10000 1.75 54 17:57 26.09.2021
6178 Clear 23 1009 30 10000 1.96 45 17:22 26.09.2021
6179 Clear 23 1009 30 10000 1.96 45 16:54 26.09.2021
6180 Clear 24 1008 23 10000 2.11 26 15:59 26.09.2021
6181 Clear 26 1007 21 10000 2.43 41 14:59 26.09.2021
6182 Clear 28 1006 15 10000 2.53 46 13:57 26.09.2021
6183 Clear 29 1006 14 10000 2.31 49 13:20 26.09.2021
6184 Clear 28 1006 14 10000 2.07 52 12:25 26.09.2021
6185 Clear 28 1006 14 10000 2.07 52 11:42 26.09.2021
6186 Clear 28 1007 15 10000 1.71 52 10:30 26.09.2021
6187 Clear 26 1010 19 10000 1.02 56 09:20 26.09.2021
6188 Clear 24 1011 21 10000 0.98 48 07:39 26.09.2021
6189 Clear 17 1010 30 10000 0.84 347 00:23 26.09.2021
6190 Clear 17 1010 30 10000 0.84 347 23:30 25.09.2021
6191 Clear 18 1010 30 10000 0.98 4 22:38 25.09.2021
6192 Clear 18 1010 28 10000 1.26 13 21:55 25.09.2021
6193 Clear 18 1010 28 10000 1.26 13 21:32 25.09.2021
6194 Clear 19 1010 27 10000 1.43 8 20:50 25.09.2021
6195 Clear 20 1010 28 10000 1.72 10 19:31 25.09.2021
6196 Clear 22 1009 20 10000 1.92 34 18:25 25.09.2021
6197 Clear 24 1007 12 10000 1.68 31 15:56 25.09.2021
6198 Clear 29 1006 9 10000 2.4 57 13:58 25.09.2021
6199 Clear 29 1006 9 10000 2.4 57 13:32 25.09.2021
6200 Clear 29 1006 11 10000 2.35 82 12:28 25.09.2021
6201 Clear 28 1007 13 10000 2.07 90 10:35 25.09.2021
6202 Clear 27 1009 15 10000 1.87 99 09:40 25.09.2021
6203 Clear 25 1011 21 10000 0.87 84 08:20 25.09.2021
6204 Clear 21 1013 36 10000 0.17 44 06:26 25.09.2021
6205 Clear 18 1012 63 10000 1.2 5 23:55 24.09.2021
6206 Clear 19 1012 62 10000 1.08 35 21:50 24.09.2021
6207 Clear 20 1012 60 10000 1.45 35 20:49 24.09.2021
6208 Clouds 21 1012 54 10000 1.84 30 19:58 24.09.2021
6209 Clouds 21 1011 51 10000 2.06 23 18:35 24.09.2021
6210 Clouds 22 1011 48 10000 1.71 35 17:55 24.09.2021
6211 Clouds 22 1011 48 10000 1.71 35 17:37 24.09.2021
6212 Clouds 23 1010 44 10000 2.06 68 17:18 24.09.2021
6213 Clear 24 1008 41 10000 2.17 63 14:31 24.09.2021
6214 Clear 26 1008 31 10000 2.7 59 13:18 24.09.2021
6215 Clear 26 1008 31 10000 2.7 59 12:40 24.09.2021
6216 Clear 26 1009 33 10000 2.11 73 12:22 24.09.2021
6217 Clear 24 1011 41 10000 1.69 91 10:27 24.09.2021
6218 Clear 23 1012 48 10000 1.35 90 08:55 24.09.2021
6219 Clear 22 1014 56 10000 1.29 76 07:34 24.09.2021
6220 Clear 20 1014 63 10000 1.18 70 06:46 24.09.2021
6221 Clear 19 1014 73 10000 0.38 34 04:55 24.09.2021
6222 Clear 18 1013 79 10000 1.09 16 00:26 24.09.2021
6223 Clear 18 1013 78 10000 1.2 25 22:30 23.09.2021
6224 Clear 19 1012 76 10000 1.4 46 21:56 23.09.2021
6225 Clear 19 1012 73 10000 1.62 44 20:34 23.09.2021
6226 Clear 20 1011 72 10000 1.72 44 19:46 23.09.2021
6227 Clear 21 1011 66 10000 1.93 56 17:47 23.09.2021
6228 Clear 22 1009 59 10000 2.68 56 15:32 23.09.2021
6229 Clear 23 1008 51 10000 3.41 60 14:59 23.09.2021
6230 Clear 26 1006 28 10000 4.33 62 13:46 23.09.2021
6231 Clear 27 1006 23 10000 2.93 60 13:20 23.09.2021
6232 Clear 27 1006 23 10000 2.93 60 12:52 23.09.2021
6233 Clear 27 1007 23 10000 2.19 55 12:22 23.09.2021
6234 Clear 27 1007 23 10000 2.19 55 12:22 23.09.2021
6235 Clear 27 1007 23 10000 2.19 55 11:40 23.09.2021
6236 Clear 25 1009 27 10000 1.19 51 10:26 23.09.2021
6237 Clear 25 1009 27 10000 1.19 51 09:52 23.09.2021
6238 Clear 23 1011 36 10000 1.19 47 08:25 23.09.2021
6239 Clear 17 1012 40 10000 0.52 0 04:27 23.09.2021
6240 Clear 18 1009 37 10000 1.31 332 23:27 22.09.2021
6241 Clear 19 1009 40 10000 1.1 4 22:29 22.09.2021
6242 Clear 19 1009 40 10000 1.1 4 21:56 22.09.2021
6243 Clear 19 1009 40 10000 1.1 4 21:34 22.09.2021
6244 Clear 19 1009 38 10000 1.61 3 20:54 22.09.2021
6245 Clear 20 1009 37 10000 1.86 2 19:32 22.09.2021
6246 Clear 21 1009 35 10000 1.92 357 18:39 22.09.2021
6247 Clear 21 1009 35 10000 1.92 357 18:39 22.09.2021
6248 Clear 22 1008 38 10000 2.53 13 17:48 22.09.2021
6249 Clear 23 1007 41 10000 3.08 36 16:38 22.09.2021
6250 Clear 26 1004 26 10000 4.54 56 15:19 22.09.2021
6251 Clear 27 1004 26 10000 6.26 60 13:48 22.09.2021
6252 Clear 28 1003 15 10000 4.06 58 11:59 22.09.2021
6253 Clear 28 1004 16 10000 2.79 66 10:53 22.09.2021
6254 Clear 26 1007 18 10000 1.43 75 09:25 22.09.2021
6255 Clear 26 1007 18 10000 1.43 75 08:30 22.09.2021
6256 Clear 23 1009 19 10000 0.76 58 07:21 22.09.2021
6257 Clear 21 1009 21 10000 0.22 26 05:56 22.09.2021
6258 Clear 21 1009 21 10000 0.22 26 05:34 22.09.2021
6259 Clear 17 1009 30 10000 0.38 286 03:52 22.09.2021
6260 Clear 17 1008 29 10000 0.4 325 00:22 22.09.2021
6261 Clear 18 1008 29 10000 0.95 320 22:56 21.09.2021
6262 Clear 18 1009 29 10000 1.38 339 21:36 21.09.2021
6263 Clear 20 1009 30 10000 1.72 350 20:26 21.09.2021
6264 Clear 21 1008 30 10000 1.95 350 19:22 21.09.2021
6265 Clear 22 1007 36 10000 2.44 3 17:36 21.09.2021
6266 Clear 23 1006 38 10000 3.23 26 16:35 21.09.2021
6267 Clear 25 1005 36 10000 3.89 52 15:44 21.09.2021
6268 Clear 26 1004 27 10000 5.34 57 14:58 21.09.2021
6269 Clear 29 1003 16 10000 4.75 65 13:56 21.09.2021
6270 Clear 29 1003 16 10000 4.75 65 13:36 21.09.2021
6271 Clear 30 1003 12 10000 3.45 70 12:35 21.09.2021
6272 Clear 29 1004 15 10000 2.22 76 10:32 21.09.2021
6273 Clear 26 1009 21 10000 0.88 80 08:29 21.09.2021
6274 Clear 24 1009 22 10000 0.49 59 07:18 21.09.2021
6275 Clear 18 1010 28 10000 0.43 256 00:30 21.09.2021
6276 Clear 20 1010 30 10000 1.32 337 22:27 20.09.2021
6277 Clear 20 1010 30 10000 1.32 337 21:40 20.09.2021
6278 Clear 20 1010 30 10000 1.6 352 20:55 20.09.2021
6279 Clear 21 1010 36 10000 1.74 359 19:33 20.09.2021
6280 Clear 23 1009 45 10000 2.13 25 17:52 20.09.2021
6281 Clear 24 1008 43 10000 3.59 35 16:49 20.09.2021
6282 Clear 25 1006 41 10000 4.05 52 15:56 20.09.2021
6283 Clear 25 1006 41 10000 4.05 52 15:32 20.09.2021
6284 Clear 30 1004 16 10000 3.05 64 14:25 20.09.2021
6285 Clear 30 1004 15 10000 2.23 78 12:36 20.09.2021
6286 Clear 30 1005 18 10000 1.72 70 11:44 20.09.2021
6287 Clear 28 1007 22 10000 1 77 10:24 20.09.2021
6288 Clear 28 1007 22 10000 1 77 09:43 20.09.2021
6289 Clear 27 1009 20 10000 1.02 70 09:20 20.09.2021
6290 Clear 26 1010 22 10000 0.97 56 08:27 20.09.2021
6291 Clear 18 1011 31 10000 0.81 325 01:43 20.09.2021
6292 Clear 21 1010 49 10000 1.38 6 22:26 19.09.2021
6293 Clear 21 1010 49 10000 1.38 6 21:43 19.09.2021
6294 Clear 22 1010 52 10000 1.54 15 20:53 19.09.2021
6295 Clear 23 1010 54 10000 1.92 22 19:32 19.09.2021
6296 Clear 23 1010 53 10000 2.03 30 18:30 19.09.2021
6297 Clear 25 1009 47 10000 2.23 54 17:23 19.09.2021
6298 Clear 26 1008 42 10000 3.25 67 15:59 19.09.2021
6299 Clear 26 1008 42 10000 3.25 67 15:31 19.09.2021
6300 Clear 28 1007 30 10000 3.77 64 14:48 19.09.2021
6301 Clouds 29 1007 22 10000 1.05 48 13:29 19.09.2021
6302 Clouds 29 1007 22 10000 1.05 48 12:51 19.09.2021
6303 Clear 28 1009 27 10000 0.77 44 11:28 19.09.2021
6304 Clear 28 1009 27 10000 0.77 44 10:56 19.09.2021
6305 Clear 27 1010 31 10000 0.81 37 09:49 19.09.2021
6306 Clear 26 1011 36 10000 0.93 38 08:35 19.09.2021
6307 Clear 23 1013 45 10000 1.37 35 06:42 19.09.2021
6308 Clear 19 1010 56 10000 0.88 18 23:53 18.09.2021
6309 Clear 20 1010 55 10000 1.11 29 22:31 18.09.2021
6310 Clear 21 1010 51 10000 1.3 33 20:56 18.09.2021
6311 Clear 21 1010 51 10000 1.3 33 20:36 18.09.2021
6312 Clear 22 1010 46 10000 1.39 33 19:40 18.09.2021
6313 Clear 23 1010 43 10000 1.51 33 19:20 18.09.2021
6314 Clear 23 1010 43 10000 1.51 33 18:32 18.09.2021
6315 Clear 23 1010 39 10000 1.76 44 17:34 18.09.2021
6316 Clear 25 1007 25 10000 2.73 58 16:20 18.09.2021
6317 Clear 29 1007 13 10000 1.32 44 13:49 18.09.2021
6318 Clear 29 1006 14 10000 2.14 58 13:29 18.09.2021
6319 Clear 29 1006 14 10000 2.14 58 12:49 18.09.2021
6320 Clear 29 1006 14 10000 2.04 51 11:41 18.09.2021
6321 Clear 29 1007 15 10000 1.71 51 10:32 18.09.2021
6322 Clear 27 1009 18 10000 1.38 47 09:28 18.09.2021
6323 Clear 27 1009 18 10000 1.38 47 08:59 18.09.2021
6324 Clear 22 1012 23 10000 0.9 26 05:49 18.09.2021
6325 Clear 17 1010 29 10000 0.54 309 00:41 18.09.2021
6326 Clear 17 1009 30 10000 0.5 292 23:49 17.09.2021
6327 Clear 18 1009 30 10000 0.56 347 22:38 17.09.2021
6328 Clear 18 1009 29 10000 0.92 14 22:19 17.09.2021
6329 Clear 19 1009 26 10000 1.31 18 20:51 17.09.2021
6330 Clear 21 1008 21 10000 1.31 38 19:22 17.09.2021
6331 Clear 22 1007 14 10000 1.59 58 17:21 17.09.2021
6332 Clear 24 1006 11 10000 2.19 58 16:24 17.09.2021
6333 Clear 30 1004 5 10000 2.47 59 13:21 17.09.2021
6334 Clear 29 1005 6 10000 1.68 80 10:42 17.09.2021
6335 Clear 27 1007 7 10000 1.28 96 08:45 17.09.2021
6336 Clear 23 1010 9 10000 0.59 97 06:53 17.09.2021
6337 Clear 15 1009 17 10000 0.44 314 01:26 17.09.2021
6338 Clear 16 1009 16 10000 0.77 336 23:23 16.09.2021
6339 Clear 17 1009 16 10000 0.92 331 22:25 16.09.2021
6340 Clear 17 1009 16 10000 0.92 331 21:41 16.09.2021
6341 Clear 17 1009 15 10000 1.05 336 21:22 16.09.2021
6342 Clear 18 1009 15 10000 1.13 345 20:18 16.09.2021
6343 Clear 18 1009 15 10000 1.13 345 20:18 16.09.2021
6344 Clear 21 1008 12 10000 2 358 18:20 16.09.2021
6345 Clear 21 1008 12 10000 2 358 17:32 16.09.2021
6346 Clear 27 1005 7 10000 2.98 21 14:56 16.09.2021
6347 Clear 29 1004 5 10000 1.34 66 13:56 16.09.2021
6348 Clear 29 1004 5 10000 1.32 95 12:49 16.09.2021
6349 Clear 29 1005 5 10000 1.35 110 12:28 16.09.2021
6350 Clear 29 1006 5 10000 1.47 128 11:25 16.09.2021
6351 Clear 29 1006 5 10000 1.47 128 10:31 16.09.2021
6352 Clear 27 1007 6 10000 1.5 131 09:53 16.09.2021
6353 Clear 26 1009 6 10000 1.09 133 08:42 16.09.2021
6354 Clear 23 1012 8 10000 0.24 87 07:22 16.09.2021
6355 Clear 23 1012 8 10000 0.24 87 06:39 16.09.2021
6356 Clear 19 1013 9 10000 0.35 301 04:34 16.09.2021
6357 Clear 15 1012 12 10000 0.81 331 01:27 16.09.2021
6358 Clear 16 1012 12 10000 0.93 332 23:37 15.09.2021
6359 Clear 17 1012 11 10000 0.93 328 22:47 15.09.2021
6360 Clear 17 1012 11 10000 1.11 340 21:44 15.09.2021
6361 Clear 18 1012 10 10000 1.48 348 21:25 15.09.2021
6362 Clear 19 1011 10 10000 1.66 353 19:52 15.09.2021
6363 Clear 21 1011 9 10000 2.04 354 19:19 15.09.2021
6364 Clear 22 1011 8 10000 2.35 358 17:49 15.09.2021
6365 Clear 23 1010 7 10000 2.65 360 16:54 15.09.2021
6366 Clear 25 1008 6 10000 3.46 3 15:33 15.09.2021
6367 Clear 28 1007 6 10000 2.8 11 14:44 15.09.2021
6368 Clear 29 1007 6 10000 2.15 34 13:51 15.09.2021
6369 Clear 29 1007 7 10000 1.53 66 13:29 15.09.2021
6370 Clear 29 1007 7 10000 1.53 66 12:42 15.09.2021
6371 Clear 29 1007 8 10000 1.32 85 11:51 15.09.2021
6372 Clear 28 1008 10 10000 1.14 96 11:19 15.09.2021
6373 Clear 28 1008 10 10000 1.14 96 10:50 15.09.2021
6374 Clear 26 1011 12 10000 0.6 97 09:26 15.09.2021
6375 Clear 25 1012 16 10000 0.61 37 07:37 15.09.2021
6376 Clear 19 1014 20 10000 0.62 337 04:19 15.09.2021
6377 Clear 20 1011 33 10000 1.36 348 22:56 14.09.2021
6378 Clear 21 1011 38 10000 1.71 5 21:38 14.09.2021
6379 Clear 22 1010 39 10000 2.08 29 20:27 14.09.2021
6380 Clear 22 1010 35 10000 1.97 25 19:41 14.09.2021
6381 Clear 24 1009 27 10000 1.8 26 17:34 14.09.2021
6382 Clear 25 1009 21 10000 1.91 14 16:56 14.09.2021
6383 Clear 27 1007 15 10000 2.14 13 15:27 14.09.2021
6384 Clear 28 1007 13 10000 1.45 28 14:28 14.09.2021
6385 Clear 29 1007 12 10000 1.67 50 11:51 14.09.2021
6386 Clear 28 1007 13 10000 1.49 52 10:53 14.09.2021
6387 Clear 27 1009 15 10000 1.35 50 09:50 14.09.2021
6388 Clear 26 1010 18 10000 1.3 48 08:36 14.09.2021
6389 Clear 21 1013 22 10000 0.76 13 06:22 14.09.2021
6390 Clear 17 1010 22 10000 0.9 343 23:36 13.09.2021
6391 Clear 19 1010 22 10000 1.36 341 22:30 13.09.2021
6392 Clear 19 1010 22 10000 1.36 341 21:59 13.09.2021
6393 Clear 19 1010 22 10000 1.36 341 21:39 13.09.2021
6394 Clear 20 1009 27 10000 1.72 0 19:48 13.09.2021
6395 Clear 21 1008 29 10000 2.25 7 18:45 13.09.2021
6396 Clear 21 1008 29 10000 2.25 7 18:45 13.09.2021
6397 Clear 22 1008 29 10000 2.52 15 17:41 13.09.2021
6398 Clear 23 1007 27 10000 1.9 33 16:50 13.09.2021
6399 Clear 27 1004 11 10000 2.64 49 14:56 13.09.2021
6400 Clear 27 1004 11 10000 2.64 49 14:56 13.09.2021
6401 Clear 28 1003 9 10000 2.12 65 11:52 13.09.2021
6402 Clear 27 1004 10 10000 1.88 72 10:58 13.09.2021
6403 Clear 25 1007 12 10000 1.38 80 08:55 13.09.2021
6404 Clear 16 1008 26 10000 0.65 316 00:48 13.09.2021
6405 Clear 17 1008 27 10000 0.78 331 22:52 12.09.2021
6406 Clear 18 1008 28 10000 1.18 336 22:23 12.09.2021
6407 Clear 19 1008 30 10000 1.79 347 21:23 12.09.2021
6408 Clear 20 1008 26 10000 1.95 348 20:19 12.09.2021
6409 Clear 20 1008 26 10000 1.95 348 19:37 12.09.2021
6410 Clear 21 1007 29 10000 2.1 2 19:18 12.09.2021
6411 Clear 22 1007 29 10000 2.8 9 18:18 12.09.2021
6412 Clear 24 1004 18 10000 3.92 10 15:58 12.09.2021
6413 Clear 27 1003 14 10000 4.45 19 14:47 12.09.2021
6414 Clear 28 1002 16 10000 2.21 58 12:45 12.09.2021
6415 Clear 27 1004 19 10000 1.67 74 10:33 12.09.2021
6416 Clear 25 1006 21 10000 1.2 73 08:39 12.09.2021
6417 Clear 24 1008 23 10000 1.11 49 07:33 12.09.2021
6418 Clear 18 1009 42 10000 0.96 344 00:47 12.09.2021
6419 Clear 18 1009 42 10000 0.96 344 00:47 12.09.2021
6420 Clear 19 1009 44 10000 1.66 337 22:59 11.09.2021
6421 Clear 19 1009 50 10000 1.78 353 21:39 11.09.2021
6422 Clouds 21 1008 60 10000 2.28 12 19:41 11.09.2021
6423 Clouds 21 1008 60 10000 3.15 34 18:30 11.09.2021
6424 Clouds 23 1006 58 10000 3.22 46 17:29 11.09.2021
6425 Clouds 24 1005 50 10000 4.28 65 15:37 11.09.2021
6426 Clear 29 1003 18 10000 4.94 65 13:25 11.09.2021
6427 Clear 29 1004 15 10000 3.2 67 11:44 11.09.2021
6428 Clear 28 1005 15 10000 2.14 68 10:40 11.09.2021
6429 Clear 26 1007 17 10000 1.43 73 08:54 11.09.2021
6430 Clear 24 1009 18 10000 1.17 73 07:44 11.09.2021
6431 Clear 18 1011 31 10000 0.34 242 04:23 11.09.2021
6432 Clear 18 1010 31 10000 0.81 344 22:47 10.09.2021
6433 Clear 18 1010 29 10000 1.46 334 22:18 10.09.2021
6434 Clear 18 1010 29 10000 1.46 334 21:40 10.09.2021
6435 Clear 20 1010 27 10000 1.78 359 19:32 10.09.2021
6436 Clear 22 1008 23 10000 2.5 6 17:58 10.09.2021
6437 Clear 24 1006 19 10000 4.13 9 16:28 10.09.2021
6438 Clear 29 1003 12 10000 2.6 46 13:29 10.09.2021
6439 Clear 29 1005 13 10000 1.84 57 10:54 10.09.2021
6440 Clear 25 1009 18 10000 1.15 36 08:26 10.09.2021
6441 Clear 25 1009 18 10000 1.17 37 07:43 10.09.2021
6442 Clear 17 1010 30 10000 0.73 318 00:40 10.09.2021
6443 Clear 19 1010 25 10000 1.72 353 21:54 09.09.2021
6444 Clear 20 1010 24 10000 1.84 356 20:48 09.09.2021
6445 Clear 21 1009 23 10000 1.88 2 20:28 09.09.2021
6446 Clear 22 1008 21 10000 2.22 10 18:46 09.09.2021
6447 Clear 23 1008 19 10000 2.76 14 17:51 09.09.2021
6448 Clear 24 1007 18 10000 2.77 9 16:39 09.09.2021
6449 Clear 29 1004 12 10000 3.42 16 15:26 09.09.2021
6450 Clear 30 1003 11 10000 1.93 65 12:33 09.09.2021
6451 Clear 29 1005 11 10000 1.63 88 11:23 09.09.2021
6452 Clear 28 1006 12 10000 1.48 89 09:39 09.09.2021
6453 Clear 26 1009 14 10000 0.96 60 07:56 09.09.2021
6454 Clear 22 1011 18 10000 0.32 45 05:51 09.09.2021
6455 Clear 17 1010 25 10000 0.79 347 00:33 09.09.2021
6456 Clear 19 1010 22 10000 1 334 21:49 08.09.2021
6457 Clear 20 1010 20 10000 1.52 353 20:54 08.09.2021
6458 Clear 21 1010 18 10000 1.98 2 19:46 08.09.2021
6459 Clear 22 1010 17 10000 1.93 10 18:47 08.09.2021
6460 Clear 23 1009 16 10000 2.11 15 18:25 08.09.2021
6461 Clear 23 1009 16 10000 2.11 15 17:40 08.09.2021
6462 Clear 26 1007 14 10000 3.79 5 15:49 08.09.2021
6463 Clear 31 1004 8 10000 4.31 21 13:45 08.09.2021
6464 Clear 31 1004 8 10000 2.86 34 12:41 08.09.2021
6465 Clear 31 1005 8 10000 2.17 45 12:23 08.09.2021
6466 Clear 31 1006 9 10000 1.75 49 11:26 08.09.2021
6467 Clear 31 1006 9 10000 1.75 49 10:31 08.09.2021
6468 Clear 30 1007 10 10000 1.56 52 09:56 08.09.2021
6469 Clear 27 1010 12 10000 1.25 43 07:45 08.09.2021
6470 Clear 25 1011 13 10000 1.26 44 07:19 08.09.2021
6471 Clear 21 1010 24 10000 1.41 316 23:28 07.09.2021
6472 Clear 22 1010 25 10000 1.56 338 22:19 07.09.2021
6473 Clear 23 1010 27 10000 1.87 359 20:42 07.09.2021
6474 Clear 25 1010 26 10000 2.99 13 18:53 07.09.2021
6475 Clear 26 1009 22 10000 2.91 15 18:28 07.09.2021
6476 Clear 27 1008 18 10000 2.51 16 17:25 07.09.2021
6477 Clear 29 1007 13 10000 3.46 14 15:57 07.09.2021
6478 Clear 31 1006 10 10000 2.69 22 14:53 07.09.2021
6479 Clear 32 1005 8 10000 1.75 39 13:52 07.09.2021
6480 Clear 32 1005 8 10000 1.75 39 13:52 07.09.2021
6481 Clear 32 1005 9 10000 1.36 73 11:58 07.09.2021
6482 Clear 31 1006 10 10000 1.47 64 10:50 07.09.2021
6483 Clear 31 1008 12 10000 1.37 69 09:40 07.09.2021
6484 Clear 28 1011 20 10000 1.29 45 07:47 07.09.2021
6485 Clear 25 1012 28 10000 1.33 33 06:19 07.09.2021
6486 Clear 19 1011 28 10000 0.84 8 02:38 07.09.2021
6487 Clear 20 1010 22 10000 0.64 10 00:55 07.09.2021
6488 Clear 21 1010 22 10000 0.53 322 23:46 06.09.2021
6489 Clear 21 1010 23 10000 0.88 308 23:28 06.09.2021
6490 Clear 21 1010 23 10000 0.88 308 22:49 06.09.2021
6491 Clear 22 1010 25 10000 1.04 322 21:52 06.09.2021
6492 Clear 24 1010 29 10000 1.87 11 19:44 06.09.2021
6493 Clear 25 1009 28 10000 2.3 15 19:18 06.09.2021
6494 Clear 25 1009 28 10000 2.3 15 18:33 06.09.2021
6495 Clear 26 1009 25 10000 2.14 20 17:50 06.09.2021
6496 Clear 28 1007 14 10000 2.79 60 16:20 06.09.2021
6497 Clear 30 1006 10 10000 2.58 63 14:59 06.09.2021
6498 Clear 32 1005 7 10000 2.23 61 12:49 06.09.2021
6499 Clear 32 1005 7 10000 2.06 60 11:52 06.09.2021
6500 Clear 30 1007 8 10000 1.57 74 10:19 06.09.2021
6501 Clear 27 1010 10 10000 1.24 55 07:39 06.09.2021
6502 Clear 19 1011 19 10000 0.55 311 03:34 06.09.2021
6503 Clear 19 1009 18 10000 0.89 284 23:22 05.09.2021
6504 Clear 19 1009 18 10000 0.89 284 22:32 05.09.2021
6505 Clear 20 1009 18 10000 0.72 299 21:55 05.09.2021
6506 Clear 21 1009 17 10000 1.13 348 21:20 05.09.2021
6507 Clear 22 1009 16 10000 1.61 351 19:30 05.09.2021
6508 Clear 24 1008 14 10000 2.56 10 17:52 05.09.2021
6509 Clear 27 1005 10 10000 3.08 17 15:43 05.09.2021
6510 Clear 30 1004 8 10000 2.38 32 15:19 05.09.2021
6511 Clear 31 1004 6 10000 2 63 12:44 05.09.2021
6512 Clear 31 1004 6 10000 1.85 71 11:31 05.09.2021
6513 Clear 30 1005 6 10000 1.68 73 10:39 05.09.2021
6514 Clear 29 1007 7 10000 1.38 75 09:33 05.09.2021
6515 Clear 26 1009 10 10000 0.96 53 08:28 05.09.2021
6516 Clear 17 1010 20 10000 0.73 342 03:22 05.09.2021
6517 Clear 18 1009 20 10000 0.93 336 00:39 05.09.2021
6518 Clear 18 1009 19 10000 1.02 343 23:55 04.09.2021
6519 Clear 19 1009 19 10000 1.01 348 23:22 04.09.2021
6520 Clear 19 1009 19 10000 1.01 348 22:34 04.09.2021
6521 Clear 19 1009 19 10000 1.01 348 22:34 04.09.2021
6522 Clear 22 1009 16 10000 1.89 6 20:21 04.09.2021
6523 Clear 22 1009 16 10000 2.03 10 19:33 04.09.2021
6524 Clear 25 1007 13 10000 2.68 22 17:21 04.09.2021
6525 Clear 31 1002 7 10000 7.66 20 14:29 04.09.2021
6526 Clear 30 1004 19 10000 1.85 87 11:22 04.09.2021
6527 Clear 30 1004 19 10000 1.85 87 10:32 04.09.2021
6528 Clear 26 1008 33 10000 0.79 114 07:32 04.09.2021
6529 Clouds 21 1008 53 10000 1.14 41 00:49 04.09.2021
6530 Clouds 21 1008 53 10000 1.14 41 00:49 04.09.2021
6531 Clouds 21 1008 52 10000 1.26 34 23:39 03.09.2021
6532 Clouds 22 1008 51 10000 1.41 13 23:19 03.09.2021
6533 Clouds 22 1008 49 10000 1.33 20 21:41 03.09.2021
6534 Clouds 23 1008 47 10000 1.79 47 20:54 03.09.2021
6535 Clouds 24 1007 44 10000 1.93 47 20:19 03.09.2021
6536 Clouds 24 1007 43 10000 1.92 62 19:33 03.09.2021
6537 Clouds 25 1006 38 10000 1.73 55 18:20 03.09.2021
6538 Clouds 26 1005 35 10000 2.81 78 16:46 03.09.2021
6539 Clouds 27 1004 30 10000 3.37 71 15:38 03.09.2021
6540 Clear 29 1004 23 10000 3.04 338 13:24 03.09.2021
6541 Clear 28 1004 24 10000 1.72 77 10:45 03.09.2021
6542 Clear 26 1007 31 10000 1.27 70 09:20 03.09.2021
6543 Clear 25 1008 36 10000 1.28 50 07:54 03.09.2021
6544 Clear 22 1010 43 10000 1.11 44 06:26 03.09.2021
6545 Clouds 20 1008 50 10000 1.44 22 23:56 02.09.2021
6546 Clouds 21 1008 47 10000 1.65 57 21:49 02.09.2021
6547 Clear 23 1008 43 10000 2.29 51 20:25 02.09.2021
6548 Clear 25 1006 33 10000 2.5 77 17:33 02.09.2021
6549 Clear 26 1005 28 10000 3.32 74 16:20 02.09.2021
6550 Clear 28 1005 21 10000 3.94 74 15:29 02.09.2021
6551 Clear 29 1005 17 10000 3.45 49 13:23 02.09.2021
6552 Clear 29 1005 18 10000 2.77 52 11:41 02.09.2021
6553 Clear 28 1006 19 10000 2.27 50 10:52 02.09.2021
6554 Clear 26 1009 23 10000 1.6 49 08:49 02.09.2021
6555 Clear 23 1012 34 10000 1.55 41 07:22 02.09.2021
6556 Clear 21 1012 36 10000 1.25 30 05:31 02.09.2021
6557 Clear 21 1012 36 10000 1.25 30 05:31 02.09.2021
6558 Clear 17 1012 42 10000 0.84 342 02:35 02.09.2021
6559 Clear 18 1011 46 10000 1 340 01:36 02.09.2021
6560 Clear 19 1011 49 10000 1.59 8 23:40 01.09.2021
6561 Clear 19 1011 50 10000 1.71 11 22:42 01.09.2021
6562 Clear 20 1011 49 10000 1.63 29 21:41 01.09.2021
6563 Clear 20 1011 47 10000 1.91 40 20:54 01.09.2021
6564 Clear 22 1010 40 10000 2.06 43 19:23 01.09.2021
6565 Clear 23 1010 35 10000 2.42 55 17:50 01.09.2021
6566 Clear 24 1009 28 10000 3.05 53 16:48 01.09.2021
6567 Clear 26 1007 19 10000 2.67 58 16:21 01.09.2021
6568 Clear 28 1007 16 10000 3.03 69 13:40 01.09.2021
6569 Clear 28 1008 19 10000 2.53 68 11:46 01.09.2021
6570 Clear 25 1011 26 10000 1.45 83 09:25 01.09.2021
6571 Clear 24 1013 28 10000 1.33 49 07:53 01.09.2021
6572 Clear 21 1015 39 10000 0.62 36 05:40 01.09.2021
6573 Clear 18 1013 49 10000 0.46 324 23:19 31.08.2021
6574 Clear 18 1013 48 10000 0.46 286 21:40 31.08.2021
6575 Clouds 20 1013 45 10000 0.73 245 19:48 31.08.2021
6576 Clouds 20 1013 43 10000 0.32 53 18:37 31.08.2021
6577 Clouds 20 1013 43 10000 1.02 147 17:38 31.08.2021
6578 Clouds 20 1013 43 10000 0.52 40 17:20 31.08.2021
6579 Clouds 20 1012 43 10000 2.81 342 16:24 31.08.2021
6580 Clouds 21 1012 42 10000 2.6 55 13:46 31.08.2021
6581 Clouds 21 1012 46 10000 3.47 5 11:36 31.08.2021
6582 Clear 27 1008 29 10000 6.18 7 10:55 31.08.2021
6583 Clear 28 1008 26 10000 3.07 79 09:45 31.08.2021
6584 Clear 27 1009 28 10000 2.37 83 08:40 31.08.2021
6585 Clear 26 1010 30 10000 1.75 74 07:38 31.08.2021
6586 Clear 23 1012 42 10000 0.64 48 05:55 31.08.2021
6587 Clouds 19 1011 58 10000 0.63 146 23:35 30.08.2021
6588 Clouds 20 1011 52 10000 1.14 339 21:53 30.08.2021
6589 Clouds 20 1011 52 10000 1.14 339 21:32 30.08.2021
6590 Clouds 20 1011 51 10000 1.53 341 20:32 30.08.2021
6591 Clouds 22 1010 43 10000 2.03 32 19:29 30.08.2021
6592 Clouds 23 1018 38 10000 3.6 100 18:44 30.08.2021
6593 Clouds 24 1018 33 10000 1.03 210 17:46 30.08.2021
6594 Clouds 24 1017 33 10000 1.54 90 16:24 30.08.2021
6595 Clouds 24 1007 36 10000 1.91 91 15:39 30.08.2021
6596 Clouds 25 1018 29 10000 2.57 0 13:45 30.08.2021
6597 Clouds 24 1019 35 10000 6.17 330 12:29 30.08.2021
6598 Clouds 25 1019 33 10000 3.6 10 10:33 30.08.2021
6599 Clouds 23 1016 49 10000 3.6 120 23:29 29.08.2021
6600 Clouds 21 1008 41 10000 1.99 354 21:33 29.08.2021
6601 Clouds 22 1008 39 10000 2.18 23 20:22 29.08.2021
6602 Clouds 24 1015 46 10000 1.54 80 19:19 29.08.2021
6603 Clouds 23 1006 39 10000 2.48 40 17:50 29.08.2021
6604 Clouds 26 1003 22 10000 2.83 34 15:49 29.08.2021
6605 Clouds 30 1001 14 10000 3.87 1 14:20 29.08.2021
6606 Clear 30 1012 12 10000 1.03 0 13:44 29.08.2021
6607 Clouds 30 1001 15 10000 3.78 351 12:32 29.08.2021
6608 Clouds 30 1002 14 10000 3.01 17 11:50 29.08.2021
6609 Clear 30 1013 13 10000 2.57 0 11:22 29.08.2021
6610 Clear 29 1002 15 10000 1.8 53 10:42 29.08.2021
6611 Clear 28 1004 16 10000 1.18 90 10:23 29.08.2021
6612 Clear 25 1006 18 10000 0.8 37 07:47 29.08.2021
6613 Clouds 21 1014 56 10000 0.51 190 00:25 29.08.2021
6614 Clouds 20 1006 27 10000 1.7 335 21:53 28.08.2021
6615 Clear 24 1014 14 10000 1.03 30 20:22 28.08.2021
6616 Clouds 23 1006 25 10000 2.69 5 18:33 28.08.2021
6617 Clouds 24 1005 24 10000 2.96 14 17:59 28.08.2021
6618 Clouds 25 1004 20 10000 3.03 43 16:59 28.08.2021
6619 Clouds 26 1002 17 10000 4.38 20 15:33 28.08.2021
6620 Clear 30 1010 8 10000 4.63 320 14:20 28.08.2021
6621 Clear 32 1011 8 10000 3.09 0 13:44 28.08.2021
6622 Clear 30 1011 8 10000 3.09 0 12:42 28.08.2021
6623 Clear 30 1001 11 10000 3.38 32 11:53 28.08.2021
6624 Clear 30 1002 12 10000 2.13 46 10:35 28.08.2021
6625 Clear 27 1005 13 10000 1.3 40 08:39 28.08.2021
6626 Clear 24 1015 12 10000 2.06 300 06:24 28.08.2021
6627 Clear 25 1014 10 10000 4.12 310 22:28 27.08.2021
6628 Clear 20 1008 21 10000 1.7 2 20:56 27.08.2021
6629 Clear 21 1007 19 10000 2.31 353 20:19 27.08.2021
6630 Clear 22 1007 18 10000 2.37 351 18:57 27.08.2021
6631 Clear 22 1007 18 10000 2.37 351 18:37 27.08.2021
6632 Clear 24 1005 15 10000 2.72 16 16:55 27.08.2021
6633 Clear 29 1002 11 10000 6.44 7 15:22 27.08.2021
6634 Clear 29 1002 11 10000 6.44 7 15:21 27.08.2021
6635 Clear 32 1011 7 10000 8.23 320 14:38 27.08.2021
6636 Clear 32 1012 8 10000 2.57 0 12:30 27.08.2021
6637 Clouds 31 1013 8 10000 4.12 350 11:24 27.08.2021
6638 Clear 30 1003 11 10000 1.62 38 10:42 27.08.2021
6639 Clear 29 1004 12 10000 1.29 45 09:30 27.08.2021
6640 Clear 28 1015 9 10000 2.57 0 08:41 27.08.2021
6641 Clear 22 1008 20 10000 0.66 31 05:53 27.08.2021
6642 Clear 22 1013 15 10000 2.06 300 02:44 27.08.2021
6643 Clear 22 1012 15 10000 2.06 0 00:31 27.08.2021
6644 Clear 25 1012 12 10000 3.09 340 22:28 26.08.2021
6645 Clear 19 1006 25 10000 1.31 352 21:57 26.08.2021
6646 Clear 26 1012 11 10000 4.12 360 19:54 26.08.2021
6647 Clear 21 1006 20 10000 2.1 7 18:49 26.08.2021
6648 Clear 27 1011 12 10000 5.14 350 17:34 26.08.2021
6649 Clear 29 1010 10 10000 5.14 360 16:32 26.08.2021
6650 Clear 25 1002 15 10000 3.27 5 15:53 26.08.2021
6651 Clear 32 1010 7 10000 2.57 330 13:29 26.08.2021
6652 Clear 32 1010 7 10000 4.12 350 12:49 26.08.2021
6653 Clear 32 1011 7 10000 1.03 0 11:51 26.08.2021
6654 Clear 29 1002 13 10000 1.25 43 09:40 26.08.2021
6655 Clear 26 1005 16 10000 1.13 40 08:27 26.08.2021
6656 Clear 17 1006 27 10000 1.08 312 00:46 26.08.2021
6657 Clear 18 1006 25 10000 1.15 355 22:46 25.08.2021
6658 Clear 18 1006 25 10000 0.96